<?xml version='1.0' encoding='UTF-8'?><gpx version="1.1" creator="JPX - https://github.com/jenetics/jpx" xmlns="http://www.topografix.com/GPX/1/1"><trk><trkseg><trkpt lat="49.13463558289048" lon="2.506991219136599"><ele>80.0</ele><time>2026-04-01T12:45:53.903Z</time></trkpt><trkpt lat="49.13474008539773" lon="2.5069870565655488"><ele>80.0</ele><time>2026-04-01T12:45:55.903Z</time></trkpt><trkpt lat="49.13484286729939" lon="2.507022109312784"><ele>80.0</ele><time>2026-04-01T12:45:57.991Z</time></trkpt><trkpt lat="49.13494564245153" lon="2.5070479506412857"><ele>80.0</ele><time>2026-04-01T12:45:59.992Z</time></trkpt><trkpt lat="49.13504921746919" lon="2.5070780454644814"><ele>80.0</ele><time>2026-04-01T12:46:01.993Z</time></trkpt><trkpt lat="49.13515690777084" lon="2.5071058948804814"><ele>78.75</ele><time>2026-04-01T12:46:03.994Z</time></trkpt><trkpt lat="49.13526734065448" lon="2.507123196993914"><ele>77.5</ele><time>2026-04-01T12:46:05.995Z</time></trkpt><trkpt lat="49.13538418452394" lon="2.507142519304012"><ele>76.25</ele><time>2026-04-01T12:46:07.996Z</time></trkpt><trkpt lat="49.13549741497027" lon="2.5071639485645476"><ele>75.0</ele><time>2026-04-01T12:46:09.996Z</time></trkpt><trkpt lat="49.135605154960935" lon="2.50718942672926"><ele>75.0</ele><time>2026-04-01T12:46:11.997Z</time></trkpt><trkpt lat="49.135723245569565" lon="2.5072204681639807"><ele>75.0</ele><time>2026-04-01T12:46:13.997Z</time></trkpt><trkpt lat="49.13578831551989" lon="2.5072333248434786"><ele>75.0</ele><time>2026-04-01T12:46:14.997Z</time></trkpt><trkpt lat="49.13584943627775" lon="2.5072645187349716"><ele>75.0</ele><time>2026-04-01T12:46:15.997Z</time></trkpt><trkpt lat="49.13596393938376" lon="2.50728950268724"><ele>75.0</ele><time>2026-04-01T12:46:17.998Z</time></trkpt><trkpt lat="49.1360224824334" lon="2.507174221484682"><ele>75.0</ele><time>2026-04-01T12:46:18.998Z</time></trkpt><trkpt lat="49.136126020209474" lon="2.507123488822239"><ele>75.0</ele><time>2026-04-01T12:46:20.998Z</time></trkpt><trkpt lat="49.13621313656509" lon="2.5070798426449605"><ele>75.0</ele><time>2026-04-01T12:46:22.998Z</time></trkpt><trkpt lat="49.13629415702941" lon="2.506996553818929"><ele>75.0</ele><time>2026-04-01T12:46:24.998Z</time></trkpt><trkpt lat="49.13637200837177" lon="2.506916522820578"><ele>75.0</ele><time>2026-04-01T12:46:26.998Z</time></trkpt><trkpt lat="49.136436073710115" lon="2.5068506638039385"><ele>75.83333333333333</ele><time>2026-04-01T12:46:28.999Z</time></trkpt><trkpt lat="49.13649407918603" lon="2.506791282417301"><ele>76.66666666666667</ele><time>2026-04-01T12:46:30.999Z</time></trkpt><trkpt lat="49.13654732295949" lon="2.5067370569516663"><ele>77.5</ele><time>2026-04-01T12:46:32.999Z</time></trkpt><trkpt lat="49.13660902753723" lon="2.5066742149853916"><ele>78.33333333333334</ele><time>2026-04-01T12:46:34.999Z</time></trkpt><trkpt lat="49.13668242183883" lon="2.5065906038184473"><ele>79.16666666666667</ele><time>2026-04-01T12:46:37.999Z</time></trkpt><trkpt lat="49.13676460459121" lon="2.5065008973128777"><ele>80.0</ele><time>2026-04-01T12:46:40.999Z</time></trkpt><trkpt lat="49.13717933429514" lon="2.506961474025947"><ele>80.0</ele><time>2026-04-01T12:46:44.999Z</time></trkpt><trkpt lat="49.13727698932724" lon="2.506952978922127"><ele>80.0</ele><time>2026-04-01T12:46:46.999Z</time></trkpt><trkpt lat="49.13736735267416" lon="2.506920576685643"><ele>80.0</ele><time>2026-04-01T12:46:48.999Z</time></trkpt><trkpt lat="49.137459140043696" lon="2.506975803796908"><ele>80.0</ele><time>2026-04-01T12:46:50.999Z</time></trkpt><trkpt lat="49.13753195577177" lon="2.507073308430446"><ele>80.0</ele><time>2026-04-01T12:46:52.999Z</time></trkpt><trkpt lat="49.13759928084125" lon="2.5071558317258136"><ele>80.0</ele><time>2026-04-01T12:46:54.999Z</time></trkpt><trkpt lat="49.13767705262745" lon="2.50722827437212"><ele>80.0</ele><time>2026-04-01T12:46:56.999Z</time></trkpt><trkpt lat="49.13776131860786" lon="2.5072902941613875"><ele>80.0</ele><time>2026-04-01T12:46:58.999Z</time></trkpt><trkpt lat="49.13783358325713" lon="2.507368614245557"><ele>80.0</ele><time>2026-04-01T12:47:00.999Z</time></trkpt><trkpt lat="49.13791709139459" lon="2.507416158347878"><ele>80.0</ele><time>2026-04-01T12:47:02.999Z</time></trkpt><trkpt lat="49.13800736031831" lon="2.5074308048153626"><ele>80.0</ele><time>2026-04-01T12:47:04.999Z</time></trkpt><trkpt lat="49.13808566828863" lon="2.5074327653237307"><ele>80.0</ele><time>2026-04-01T12:47:06.999Z</time></trkpt><trkpt lat="49.13816222475504" lon="2.507490297916561"><ele>80.0</ele><time>2026-04-01T12:47:08.998Z</time></trkpt><trkpt lat="49.13823742298863" lon="2.507439845117792"><ele>80.0</ele><time>2026-04-01T12:47:10.998Z</time></trkpt><trkpt lat="49.13831071642334" lon="2.507496831363777"><ele>80.0</ele><time>2026-04-01T12:47:12.998Z</time></trkpt><trkpt lat="49.138384810893335" lon="2.5075597400099126"><ele>80.0</ele><time>2026-04-01T12:47:13.998Z</time></trkpt><trkpt lat="49.13846950804789" lon="2.507551067250766"><ele>78.8</ele><time>2026-04-01T12:47:15.998Z</time></trkpt><trkpt lat="49.1385526857175" lon="2.5074760385759354"><ele>77.6</ele><time>2026-04-01T12:47:17.998Z</time></trkpt><trkpt lat="49.138618415819195" lon="2.5073879808653796"><ele>76.4</ele><time>2026-04-01T12:47:19.998Z</time></trkpt><trkpt lat="49.13868949118374" lon="2.5072706836555945"><ele>75.2</ele><time>2026-04-01T12:47:21.998Z</time></trkpt><trkpt lat="49.13874961117214" lon="2.5071654326816386"><ele>74.0</ele><time>2026-04-01T12:47:23.998Z</time></trkpt><trkpt lat="49.138861811531086" lon="2.507133568286045"><ele>73.75</ele><time>2026-04-01T12:47:25.998Z</time></trkpt><trkpt lat="49.13894691145419" lon="2.507015847273454"><ele>73.5</ele><time>2026-04-01T12:47:27.998Z</time></trkpt><trkpt lat="49.13899975024833" lon="2.506853043094531"><ele>73.25</ele><time>2026-04-01T12:47:29.998Z</time></trkpt><trkpt lat="49.13906534793042" lon="2.5067181691328106"><ele>73.0</ele><time>2026-04-01T12:47:31.998Z</time></trkpt><trkpt lat="49.139113786478475" lon="2.5065673758860934"><ele>73.0</ele><time>2026-04-01T12:47:33.998Z</time></trkpt><trkpt lat="49.13917766846195" lon="2.506435862054724"><ele>73.0</ele><time>2026-04-01T12:47:35.998Z</time></trkpt><trkpt lat="49.13921897514241" lon="2.506321996428325"><ele>73.0</ele><time>2026-04-01T12:47:37.998Z</time></trkpt><trkpt lat="49.13925827876544" lon="2.506226818347483"><ele>73.0</ele><time>2026-04-01T12:47:39.998Z</time></trkpt><trkpt lat="49.139331443287304" lon="2.5061702782225272"><ele>73.0</ele><time>2026-04-01T12:47:41.998Z</time></trkpt><trkpt lat="49.13941389678072" lon="2.506100451770464"><ele>73.0</ele><time>2026-04-01T12:47:43.998Z</time></trkpt><trkpt lat="49.1395063402862" lon="2.506087148467586"><ele>73.0</ele><time>2026-04-01T12:47:45.997Z</time></trkpt><trkpt lat="49.13959697803035" lon="2.5061521683371635"><ele>73.0</ele><time>2026-04-01T12:47:47.997Z</time></trkpt><trkpt lat="49.139689340313204" lon="2.5062132128593846"><ele>73.0</ele><time>2026-04-01T12:47:49.997Z</time></trkpt><trkpt lat="49.139759007613364" lon="2.506297027468046"><ele>73.0</ele><time>2026-04-01T12:47:51.997Z</time></trkpt><trkpt lat="49.13985161866831" lon="2.506276835836539"><ele>73.0</ele><time>2026-04-01T12:47:53.997Z</time></trkpt><trkpt lat="49.139934005315915" lon="2.5063392856475666"><ele>72.8</ele><time>2026-04-01T12:47:55.997Z</time></trkpt><trkpt lat="49.14001541783937" lon="2.506420242629605"><ele>72.6</ele><time>2026-04-01T12:47:57.997Z</time></trkpt><trkpt lat="49.14007459745508" lon="2.5064963948824843"><ele>72.4</ele><time>2026-04-01T12:48:00.001Z</time></trkpt><trkpt lat="49.14014889611306" lon="2.506582637761832"><ele>72.2</ele><time>2026-04-01T12:48:02.001Z</time></trkpt><trkpt lat="49.14022370258691" lon="2.506690624559686"><ele>72.0</ele><time>2026-04-01T12:48:04.001Z</time></trkpt><trkpt lat="49.140276367663006" lon="2.506799980701809"><ele>72.0</ele><time>2026-04-01T12:48:06Z</time></trkpt><trkpt lat="49.14033325773084" lon="2.5069170284024267"><ele>72.0</ele><time>2026-04-01T12:48:08Z</time></trkpt><trkpt lat="49.14044142007279" lon="2.506967797119526"><ele>72.0</ele><time>2026-04-01T12:48:10Z</time></trkpt><trkpt lat="49.140521716128596" lon="2.5070166299735326"><ele>72.0</ele><time>2026-04-01T12:48:12Z</time></trkpt><trkpt lat="49.140573471542965" lon="2.5070966744531398"><ele>72.0</ele><time>2026-04-01T12:48:14Z</time></trkpt><trkpt lat="49.140648140745284" lon="2.507143861754287"><ele>72.0</ele><time>2026-04-01T12:48:16Z</time></trkpt><trkpt lat="49.14074423518061" lon="2.5071194233709644"><ele>71.57142857142858</ele><time>2026-04-01T12:48:19Z</time></trkpt><trkpt lat="49.14081024113917" lon="2.5071216592622116"><ele>71.14285714285714</ele><time>2026-04-01T12:48:21Z</time></trkpt><trkpt lat="49.14087607474588" lon="2.507133335800164"><ele>70.71428571428572</ele><time>2026-04-01T12:48:23Z</time></trkpt><trkpt lat="49.14094522382671" lon="2.507129429254215"><ele>70.28571428571429</ele><time>2026-04-01T12:48:25Z</time></trkpt><trkpt lat="49.14101688834299" lon="2.5071319789766524"><ele>69.85714285714286</ele><time>2026-04-01T12:48:27Z</time></trkpt><trkpt lat="49.14108608000474" lon="2.5071332141639764"><ele>69.42857142857143</ele><time>2026-04-01T12:48:29Z</time></trkpt><trkpt lat="49.14116710747067" lon="2.5071143217022485"><ele>69.0</ele><time>2026-04-01T12:48:32Z</time></trkpt><trkpt lat="49.14124047153569" lon="2.5071118029439345"><ele>69.0</ele><time>2026-04-01T12:48:34Z</time></trkpt><trkpt lat="49.14130635266949" lon="2.507110654547577"><ele>69.0</ele><time>2026-04-01T12:48:35.999Z</time></trkpt><trkpt lat="49.141371465744285" lon="2.5070959011408305"><ele>69.0</ele><time>2026-04-01T12:48:37.999Z</time></trkpt><trkpt lat="49.14142759314331" lon="2.507034063142227"><ele>69.0</ele><time>2026-04-01T12:48:39.999Z</time></trkpt><trkpt lat="49.14145119952186" lon="2.506909011607482"><ele>69.0</ele><time>2026-04-01T12:48:42.999Z</time></trkpt><trkpt lat="49.141484465766766" lon="2.5068015521750584"><ele>69.0</ele><time>2026-04-01T12:48:45.999Z</time></trkpt><trkpt lat="49.14149705214763" lon="2.5067013647964367"><ele>69.0</ele><time>2026-04-01T12:48:47.999Z</time></trkpt><trkpt lat="49.141516763940174" lon="2.506561172775175"><ele>69.83333333333333</ele><time>2026-04-01T12:48:50.999Z</time></trkpt><trkpt lat="49.141544832934336" lon="2.5064379262782897"><ele>70.66666666666667</ele><time>2026-04-01T12:48:53.999Z</time></trkpt><trkpt lat="49.14155409980927" lon="2.5063355335539983"><ele>71.5</ele><time>2026-04-01T12:48:55.999Z</time></trkpt><trkpt lat="49.14157395734055" lon="2.5062160353551413"><ele>72.33333333333334</ele><time>2026-04-01T12:48:58.999Z</time></trkpt><trkpt lat="49.1415924611065" lon="2.506122536718115"><ele>73.16666666666667</ele><time>2026-04-01T12:49:00.999Z</time></trkpt><trkpt lat="49.1416108856996" lon="2.505973300347766"><ele>74.0</ele><time>2026-04-01T12:49:03.999Z</time></trkpt><trkpt lat="49.14162281222989" lon="2.505869433960197"><ele>74.16666666666667</ele><time>2026-04-01T12:49:05.998Z</time></trkpt><trkpt lat="49.141653545766715" lon="2.505738643341217"><ele>74.33333333333334</ele><time>2026-04-01T12:49:08.998Z</time></trkpt><trkpt lat="49.141663830719516" lon="2.505638331383804"><ele>74.5</ele><time>2026-04-01T12:49:10.998Z</time></trkpt><trkpt lat="49.141691411953644" lon="2.5055070068626333"><ele>74.66666666666667</ele><time>2026-04-01T12:49:13.998Z</time></trkpt><trkpt lat="49.141711334194675" lon="2.5053727634999943"><ele>74.83333333333333</ele><time>2026-04-01T12:49:16.998Z</time></trkpt><trkpt lat="49.141729855716264" lon="2.505227995555951"><ele>75.0</ele><time>2026-04-01T12:49:19.998Z</time></trkpt><trkpt lat="49.141752615041156" lon="2.5050907888675313"><ele>75.16666666666667</ele><time>2026-04-01T12:49:22.998Z</time></trkpt><trkpt lat="49.141767693168205" lon="2.5049934223223533"><ele>75.33333333333333</ele><time>2026-04-01T12:49:24.998Z</time></trkpt><trkpt lat="49.14179242289885" lon="2.5048514864818876"><ele>75.5</ele><time>2026-04-01T12:49:27.998Z</time></trkpt><trkpt lat="49.14180386209074" lon="2.5047491212947204"><ele>75.66666666666666</ele><time>2026-04-01T12:49:29.998Z</time></trkpt><trkpt lat="49.14181389096507" lon="2.504643591174567"><ele>75.83333333333333</ele><time>2026-04-01T12:49:31.998Z</time></trkpt><trkpt lat="49.141898461106386" lon="2.5046038134461135"><ele>76.0</ele><time>2026-04-01T12:49:34.998Z</time></trkpt><trkpt lat="49.141997731667765" lon="2.5046038098397534"><ele>76.0</ele><time>2026-04-01T12:49:37.998Z</time></trkpt><trkpt lat="49.14208062249848" lon="2.504590096382874"><ele>76.0</ele><time>2026-04-01T12:49:40.997Z</time></trkpt><trkpt lat="49.14215127949598" lon="2.5045921673214457"><ele>76.0</ele><time>2026-04-01T12:49:42.997Z</time></trkpt><trkpt lat="49.142228942336615" lon="2.504584447434274"><ele>76.0</ele><time>2026-04-01T12:49:44.997Z</time></trkpt><trkpt lat="49.14230764205682" lon="2.5045631242447985"><ele>76.0</ele><time>2026-04-01T12:49:47.997Z</time></trkpt><trkpt lat="49.14238778210175" lon="2.504550467979555"><ele>76.0</ele><time>2026-04-01T12:49:49.997Z</time></trkpt><trkpt lat="49.14247799331476" lon="2.5045505452283487"><ele>76.28571428571428</ele><time>2026-04-01T12:49:52.997Z</time></trkpt><trkpt lat="49.14255382391853" lon="2.5045433439021143"><ele>76.57142857142858</ele><time>2026-04-01T12:49:54.997Z</time></trkpt><trkpt lat="49.14262630183975" lon="2.5045370819737167"><ele>76.85714285714286</ele><time>2026-04-01T12:49:56.997Z</time></trkpt><trkpt lat="49.14269255035819" lon="2.5045370539839147"><ele>77.14285714285714</ele><time>2026-04-01T12:49:58.997Z</time></trkpt><trkpt lat="49.142756962426986" lon="2.504539430075617"><ele>77.42857142857142</ele><time>2026-04-01T12:50:00.997Z</time></trkpt><trkpt lat="49.14282388425397" lon="2.504532237342627"><ele>77.71428571428572</ele><time>2026-04-01T12:50:02.997Z</time></trkpt><trkpt lat="49.142897568707056" lon="2.504527054186807"><ele>78.0</ele><time>2026-04-01T12:50:04.997Z</time></trkpt><trkpt lat="49.14297981429963" lon="2.5045351434054397"><ele>78.0</ele><time>2026-04-01T12:50:07Z</time></trkpt><trkpt lat="49.143063188577464" lon="2.5045356072275746"><ele>78.0</ele><time>2026-04-01T12:50:09Z</time></trkpt><trkpt lat="49.14314010012254" lon="2.5045349864771684"><ele>78.0</ele><time>2026-04-01T12:50:11Z</time></trkpt><trkpt lat="49.14324174802257" lon="2.504532978313519"><ele>78.0</ele><time>2026-04-01T12:50:14Z</time></trkpt><trkpt lat="49.14334054889712" lon="2.504511808975442"><ele>78.0</ele><time>2026-04-01T12:50:16Z</time></trkpt><trkpt lat="49.143409463990835" lon="2.5044858906867025"><ele>78.0</ele><time>2026-04-01T12:50:18Z</time></trkpt><trkpt lat="49.14349193360529" lon="2.5045030712810994"><ele>78.16666666666667</ele><time>2026-04-01T12:50:20Z</time></trkpt><trkpt lat="49.14356814119249" lon="2.5045095519173293"><ele>78.33333333333333</ele><time>2026-04-01T12:50:22Z</time></trkpt><trkpt lat="49.143641280526616" lon="2.504492205992918"><ele>78.5</ele><time>2026-04-01T12:50:24Z</time></trkpt><trkpt lat="49.14372055959755" lon="2.504489916072299"><ele>78.66666666666666</ele><time>2026-04-01T12:50:26Z</time></trkpt><trkpt lat="49.1438061022375" lon="2.5044763369956753"><ele>78.83333333333333</ele><time>2026-04-01T12:50:28Z</time></trkpt><trkpt lat="49.14387940667333" lon="2.504468214276708"><ele>79.0</ele><time>2026-04-01T12:50:30Z</time></trkpt><trkpt lat="49.14395286251704" lon="2.504473369966821"><ele>79.0</ele><time>2026-04-01T12:50:32Z</time></trkpt><trkpt lat="49.14403589531704" lon="2.5044683178521527"><ele>79.0</ele><time>2026-04-01T12:50:34Z</time></trkpt><trkpt lat="49.144096783954055" lon="2.5044304045687"><ele>79.0</ele><time>2026-04-01T12:50:36Z</time></trkpt><trkpt lat="49.14418027006558" lon="2.5044911731880406"><ele>79.0</ele><time>2026-04-01T12:50:38.999Z</time></trkpt><trkpt lat="49.14425370127899" lon="2.5044678462953334"><ele>79.0</ele><time>2026-04-01T12:50:40.999Z</time></trkpt><trkpt lat="49.14432287884882" lon="2.5044724821699833"><ele>79.0</ele><time>2026-04-01T12:50:42.999Z</time></trkpt><trkpt lat="49.144391564110904" lon="2.5044658859320275"><ele>78.5</ele><time>2026-04-01T12:50:44.999Z</time></trkpt><trkpt lat="49.14447423883626" lon="2.5044665161883555"><ele>78.0</ele><time>2026-04-01T12:50:46.999Z</time></trkpt><trkpt lat="49.144552761697966" lon="2.504466317184092"><ele>77.5</ele><time>2026-04-01T12:50:48.999Z</time></trkpt><trkpt lat="49.144634608852215" lon="2.504473822803794"><ele>77.0</ele><time>2026-04-01T12:50:50.999Z</time></trkpt><trkpt lat="49.144722663222694" lon="2.504463193004659"><ele>76.5</ele><time>2026-04-01T12:50:52.999Z</time></trkpt><trkpt lat="49.14480391805646" lon="2.5044629348203906"><ele>76.0</ele><time>2026-04-01T12:50:54.999Z</time></trkpt><trkpt lat="49.144890656518406" lon="2.5044591186782004"><ele>75.5</ele><time>2026-04-01T12:50:56.999Z</time></trkpt><trkpt lat="49.144980670717295" lon="2.504451045786918"><ele>75.0</ele><time>2026-04-01T12:50:58.999Z</time></trkpt><trkpt lat="49.1450648057239" lon="2.5044480738282893"><ele>74.5</ele><time>2026-04-01T12:51:00.999Z</time></trkpt><trkpt lat="49.145131630590804" lon="2.504454059048816"><ele>74.0</ele><time>2026-04-01T12:51:02.999Z</time></trkpt><trkpt lat="49.14521310025102" lon="2.504457685835937"><ele>73.5</ele><time>2026-04-01T12:51:04.999Z</time></trkpt><trkpt lat="49.14531233227352" lon="2.504447378257069"><ele>73.0</ele><time>2026-04-01T12:51:07.999Z</time></trkpt><trkpt lat="49.145401370454614" lon="2.504443568013851"><ele>73.0</ele><time>2026-04-01T12:51:09.999Z</time></trkpt><trkpt lat="49.145490729097524" lon="2.504429666156711"><ele>73.0</ele><time>2026-04-01T12:51:11.998Z</time></trkpt><trkpt lat="49.1455137257183" lon="2.5043265976705413"><ele>73.0</ele><time>2026-04-01T12:51:13.998Z</time></trkpt><trkpt lat="49.145528105206395" lon="2.504212134826607"><ele>73.0</ele><time>2026-04-01T12:51:15.998Z</time></trkpt><trkpt lat="49.14554701822896" lon="2.504088610296221"><ele>73.0</ele><time>2026-04-01T12:51:17.998Z</time></trkpt><trkpt lat="49.145569052289574" lon="2.503986793810179"><ele>73.0</ele><time>2026-04-01T12:51:19.998Z</time></trkpt><trkpt lat="49.14558594230512" lon="2.503874781213095"><ele>73.0</ele><time>2026-04-01T12:51:21.998Z</time></trkpt><trkpt lat="49.14560192938925" lon="2.503766685402989"><ele>73.0</ele><time>2026-04-01T12:51:23.998Z</time></trkpt><trkpt lat="49.145620740748775" lon="2.503665868023154"><ele>73.0</ele><time>2026-04-01T12:51:25.998Z</time></trkpt><trkpt lat="49.145640331294" lon="2.5035498058639325"><ele>73.0</ele><time>2026-04-01T12:51:27.998Z</time></trkpt><trkpt lat="49.14565462034096" lon="2.5034468058768065"><ele>73.0</ele><time>2026-04-01T12:51:29.998Z</time></trkpt><trkpt lat="49.14566898938923" lon="2.5033093674730367"><ele>73.0</ele><time>2026-04-01T12:51:31.998Z</time></trkpt><trkpt lat="49.14568739564329" lon="2.503188715428716"><ele>73.16666666666666</ele><time>2026-04-01T12:51:33.998Z</time></trkpt><trkpt lat="49.14570782551176" lon="2.5030543540537895"><ele>73.33333333333333</ele><time>2026-04-01T12:51:35.998Z</time></trkpt><trkpt lat="49.14572592107746" lon="2.502934182099442"><ele>73.5</ele><time>2026-04-01T12:51:37.998Z</time></trkpt><trkpt lat="49.145743336694764" lon="2.5028039305044576"><ele>73.66666666666667</ele><time>2026-04-01T12:51:39.998Z</time></trkpt><trkpt lat="49.14576151600792" lon="2.5026871257493837"><ele>73.83333333333334</ele><time>2026-04-01T12:51:41.998Z</time></trkpt><trkpt lat="49.14577656902364" lon="2.5025633712737165"><ele>74.0</ele><time>2026-04-01T12:51:43.997Z</time></trkpt><trkpt lat="49.14579932706048" lon="2.502439924609065"><ele>73.0</ele><time>2026-04-01T12:51:45.997Z</time></trkpt><trkpt lat="49.14581528118986" lon="2.5023086937736516"><ele>72.0</ele><time>2026-04-01T12:51:47.997Z</time></trkpt><trkpt lat="49.14583941853259" lon="2.502181821276752"><ele>71.0</ele><time>2026-04-01T12:51:49.997Z</time></trkpt><trkpt lat="49.14591910893502" lon="2.5021654135977673"><ele>70.0</ele><time>2026-04-01T12:51:52.997Z</time></trkpt><trkpt lat="49.146000155631995" lon="2.5022346427718714"><ele>69.0</ele><time>2026-04-01T12:51:54.997Z</time></trkpt><trkpt lat="49.146087844095305" lon="2.5022951037730596"><ele>68.0</ele><time>2026-04-01T12:51:56.997Z</time></trkpt><trkpt lat="49.146179763840045" lon="2.5023742299692846"><ele>68.0</ele><time>2026-04-01T12:51:58.997Z</time></trkpt><trkpt lat="49.146281747165254" lon="2.5024558791900433"><ele>68.0</ele><time>2026-04-01T12:52:00.997Z</time></trkpt><trkpt lat="49.146396313569845" lon="2.5025519188895236"><ele>68.0</ele><time>2026-04-01T12:52:02.997Z</time></trkpt><trkpt lat="49.14650445656933" lon="2.5026387366078295"><ele>68.0</ele><time>2026-04-01T12:52:04.997Z</time></trkpt><trkpt lat="49.14661398018271" lon="2.5027260068188704"><ele>67.2</ele><time>2026-04-01T12:52:06.997Z</time></trkpt><trkpt lat="49.14671540167316" lon="2.502820397964864"><ele>66.4</ele><time>2026-04-01T12:52:08.997Z</time></trkpt><trkpt lat="49.14677155788419" lon="2.502870945001745"><ele>65.60000000000001</ele><time>2026-04-01T12:52:09.997Z</time></trkpt><trkpt lat="49.14688238314521" lon="2.5029651176191767"><ele>64.8</ele><time>2026-04-01T12:52:12Z</time></trkpt><trkpt lat="49.14698931225632" lon="2.5030630122630386"><ele>64.0</ele><time>2026-04-01T12:52:14Z</time></trkpt><trkpt lat="49.147096835196464" lon="2.503150142637849"><ele>63.5</ele><time>2026-04-01T12:52:16Z</time></trkpt><trkpt lat="49.14720177974269" lon="2.50324407456348"><ele>63.0</ele><time>2026-04-01T12:52:18Z</time></trkpt><trkpt lat="49.147309259073985" lon="2.5033430258899796"><ele>62.5</ele><time>2026-04-01T12:52:20Z</time></trkpt><trkpt lat="49.14741445175513" lon="2.5034340369652566"><ele>62.0</ele><time>2026-04-01T12:52:22Z</time></trkpt><trkpt lat="49.147520043383786" lon="2.5035271933719967"><ele>62.16666666666667</ele><time>2026-04-01T12:52:24Z</time></trkpt><trkpt lat="49.147628697085025" lon="2.5036268882835473"><ele>62.333333333333336</ele><time>2026-04-01T12:52:26Z</time></trkpt><trkpt lat="49.147688088851915" lon="2.5036837702971875"><ele>62.5</ele><time>2026-04-01T12:52:27Z</time></trkpt><trkpt lat="49.1477455945583" lon="2.5037384835691574"><ele>62.66666666666667</ele><time>2026-04-01T12:52:28Z</time></trkpt><trkpt lat="49.14783408105588" lon="2.5038096712457274"><ele>62.833333333333336</ele><time>2026-04-01T12:52:30Z</time></trkpt><trkpt lat="49.147889404556075" lon="2.503859579172667"><ele>63.0</ele><time>2026-04-01T12:52:31Z</time></trkpt><trkpt lat="49.14800174740182" lon="2.5039473554048923"><ele>63.0</ele><time>2026-04-01T12:52:33Z</time></trkpt><trkpt lat="49.148109279996035" lon="2.504038406637722"><ele>63.0</ele><time>2026-04-01T12:52:35Z</time></trkpt><trkpt lat="49.14821868442363" lon="2.5041237103776957"><ele>63.0</ele><time>2026-04-01T12:52:37Z</time></trkpt><trkpt lat="49.14831324757302" lon="2.504235148230667"><ele>63.0</ele><time>2026-04-01T12:52:39Z</time></trkpt><trkpt lat="49.148413275100424" lon="2.504323811011694"><ele>64.25</ele><time>2026-04-01T12:52:41Z</time></trkpt><trkpt lat="49.14850666867887" lon="2.504393808170293"><ele>65.5</ele><time>2026-04-01T12:52:42.999Z</time></trkpt><trkpt lat="49.148566348154986" lon="2.5044599089289052"><ele>66.75</ele><time>2026-04-01T12:52:44.999Z</time></trkpt><trkpt lat="49.14866441385026" lon="2.5041956577399125"><ele>68.0</ele><time>2026-04-01T12:52:46.999Z</time></trkpt><trkpt lat="49.14875077664509" lon="2.504149517112932"><ele>68.0</ele><time>2026-04-01T12:52:48.999Z</time></trkpt><trkpt lat="49.148836571537736" lon="2.5041088663856943"><ele>68.0</ele><time>2026-04-01T12:52:50.999Z</time></trkpt><trkpt lat="49.148907361648185" lon="2.504075702634102"><ele>68.0</ele><time>2026-04-01T12:52:52.999Z</time></trkpt><trkpt lat="49.148983470408794" lon="2.504037951673942"><ele>68.0</ele><time>2026-04-01T12:52:54.999Z</time></trkpt><trkpt lat="49.14905356377494" lon="2.503972881298509"><ele>68.0</ele><time>2026-04-01T12:52:56.999Z</time></trkpt><trkpt lat="49.14912012733433" lon="2.5039315201590155"><ele>68.0</ele><time>2026-04-01T12:52:58.999Z</time></trkpt><trkpt lat="49.14920217077548" lon="2.503881863199464"><ele>68.16666666666667</ele><time>2026-04-01T12:53:00.999Z</time></trkpt><trkpt lat="49.14926776547802" lon="2.5038357269324143"><ele>68.33333333333334</ele><time>2026-04-01T12:53:02.999Z</time></trkpt><trkpt lat="49.149358700864" lon="2.5037855743395037"><ele>68.5</ele><time>2026-04-01T12:53:04.999Z</time></trkpt><trkpt lat="49.149436106046004" lon="2.5037433238929983"><ele>68.66666666666667</ele><time>2026-04-01T12:53:06.999Z</time></trkpt><trkpt lat="49.14951649636457" lon="2.503692220140526"><ele>68.83333333333333</ele><time>2026-04-01T12:53:08.999Z</time></trkpt><trkpt lat="49.149594334386" lon="2.5036440754322076"><ele>69.0</ele><time>2026-04-01T12:53:10.999Z</time></trkpt><trkpt lat="49.14967052235828" lon="2.503597808951735"><ele>69.14285714285714</ele><time>2026-04-01T12:53:12.999Z</time></trkpt><trkpt lat="49.14973182416816" lon="2.5035595903000916"><ele>69.28571428571429</ele><time>2026-04-01T12:53:14.998Z</time></trkpt><trkpt lat="49.1497961651746" lon="2.5035238110431037"><ele>69.42857142857143</ele><time>2026-04-01T12:53:16.998Z</time></trkpt><trkpt lat="49.14985918179366" lon="2.5034834353219986"><ele>69.57142857142857</ele><time>2026-04-01T12:53:18.998Z</time></trkpt><trkpt lat="49.14992844718232" lon="2.503442126209745"><ele>69.71428571428572</ele><time>2026-04-01T12:53:20.998Z</time></trkpt><trkpt lat="49.149998322856526" lon="2.503405248651303"><ele>69.85714285714286</ele><time>2026-04-01T12:53:22.998Z</time></trkpt><trkpt lat="49.15006994025213" lon="2.503358615778709"><ele>70.0</ele><time>2026-04-01T12:53:24.998Z</time></trkpt><trkpt lat="49.1501378185891" lon="2.5033201617994365"><ele>70.0</ele><time>2026-04-01T12:53:26.998Z</time></trkpt><trkpt lat="49.15021525137302" lon="2.5032639097161167"><ele>70.0</ele><time>2026-04-01T12:53:28.998Z</time></trkpt><trkpt lat="49.1502925185492" lon="2.503215966472388"><ele>70.0</ele><time>2026-04-01T12:53:30.998Z</time></trkpt><trkpt lat="49.150372711033604" lon="2.503189146134028"><ele>70.0</ele><time>2026-04-01T12:53:32.998Z</time></trkpt><trkpt lat="49.15044228485172" lon="2.5031365680449102"><ele>70.0</ele><time>2026-04-01T12:53:34.998Z</time></trkpt><trkpt lat="49.150509767500544" lon="2.5030867678127344"><ele>70.0</ele><time>2026-04-01T12:53:36.998Z</time></trkpt><trkpt lat="49.150579410397384" lon="2.5030540830623766"><ele>70.0</ele><time>2026-04-01T12:53:38.998Z</time></trkpt><trkpt lat="49.150659425780006" lon="2.503004370625602"><ele>70.0</ele><time>2026-04-01T12:53:40.998Z</time></trkpt><trkpt lat="49.15074017022562" lon="2.502960016027882"><ele>70.0</ele><time>2026-04-01T12:53:42.998Z</time></trkpt><trkpt lat="49.15081610897921" lon="2.5029211656164576"><ele>70.0</ele><time>2026-04-01T12:53:44.998Z</time></trkpt><trkpt lat="49.15088387388445" lon="2.502871769763635"><ele>70.0</ele><time>2026-04-01T12:53:46.997Z</time></trkpt><trkpt lat="49.15096143983938" lon="2.502833571843395"><ele>70.0</ele><time>2026-04-01T12:53:48.997Z</time></trkpt><trkpt lat="49.15103557536483" lon="2.5027830415660484"><ele>69.8</ele><time>2026-04-01T12:53:50.997Z</time></trkpt><trkpt lat="49.15112254015139" lon="2.5027256659143244"><ele>69.6</ele><time>2026-04-01T12:53:52.997Z</time></trkpt><trkpt lat="49.15121060737914" lon="2.5026811873838217"><ele>69.4</ele><time>2026-04-01T12:53:54.997Z</time></trkpt><trkpt lat="49.15129621004637" lon="2.5026394124806943"><ele>69.2</ele><time>2026-04-01T12:53:56.997Z</time></trkpt><trkpt lat="49.151383784125926" lon="2.5025839601234363"><ele>69.0</ele><time>2026-04-01T12:53:58.997Z</time></trkpt><trkpt lat="49.151471982978194" lon="2.5025302846741972"><ele>68.4</ele><time>2026-04-01T12:54:00.997Z</time></trkpt><trkpt lat="49.151564818913826" lon="2.502454911156661"><ele>67.80000000000001</ele><time>2026-04-01T12:54:02.997Z</time></trkpt><trkpt lat="49.15165511143552" lon="2.5024104499631923"><ele>67.19999999999999</ele><time>2026-04-01T12:54:04.997Z</time></trkpt><trkpt lat="49.151752083097136" lon="2.5023597727574636"><ele>66.6</ele><time>2026-04-01T12:54:06.997Z</time></trkpt><trkpt lat="49.151809968332095" lon="2.502318336647144"><ele>66.0</ele><time>2026-04-01T12:54:07.997Z</time></trkpt><trkpt lat="49.151911673772055" lon="2.5022526014415205"><ele>66.0</ele><time>2026-04-01T12:54:09.997Z</time></trkpt><trkpt lat="49.15202333725719" lon="2.5021940685209727"><ele>66.0</ele><time>2026-04-01T12:54:11.997Z</time></trkpt><trkpt lat="49.15210127316745" lon="2.5021488658973183"><ele>66.0</ele><time>2026-04-01T12:54:13.997Z</time></trkpt><trkpt lat="49.15219129716393" lon="2.5020956863946253"><ele>66.0</ele><time>2026-04-01T12:54:15.997Z</time></trkpt><trkpt lat="49.152275867272145" lon="2.5020329748923222"><ele>66.0</ele><time>2026-04-01T12:54:18Z</time></trkpt><trkpt lat="49.152359998252535" lon="2.501984270235518"><ele>66.2</ele><time>2026-04-01T12:54:20Z</time></trkpt><trkpt lat="49.152456795872936" lon="2.5019368990018775"><ele>66.39999999999999</ele><time>2026-04-01T12:54:22Z</time></trkpt><trkpt lat="49.15253629769206" lon="2.501882740745091"><ele>66.6</ele><time>2026-04-01T12:54:24Z</time></trkpt><trkpt lat="49.152629825108136" lon="2.5018280791789045"><ele>66.8</ele><time>2026-04-01T12:54:26Z</time></trkpt><trkpt lat="49.15271607185963" lon="2.5017691620955023"><ele>67.0</ele><time>2026-04-01T12:54:28Z</time></trkpt><trkpt lat="49.15280565070321" lon="2.5017194337296664"><ele>67.0</ele><time>2026-04-01T12:54:30Z</time></trkpt><trkpt lat="49.15288187193617" lon="2.5016779135844467"><ele>67.0</ele><time>2026-04-01T12:54:32Z</time></trkpt><trkpt lat="49.152954846281624" lon="2.501636832534843"><ele>67.0</ele><time>2026-04-01T12:54:34Z</time></trkpt><trkpt lat="49.15302897773122" lon="2.501594710086349"><ele>67.0</ele><time>2026-04-01T12:54:36Z</time></trkpt><trkpt lat="49.15309746148999" lon="2.5015278937734364"><ele>67.0</ele><time>2026-04-01T12:54:38Z</time></trkpt><trkpt lat="49.153176577205066" lon="2.501500130781451"><ele>67.0</ele><time>2026-04-01T12:54:40Z</time></trkpt><trkpt lat="49.153246237181435" lon="2.501466733866271"><ele>67.0</ele><time>2026-04-01T12:54:42Z</time></trkpt><trkpt lat="49.15332845560977" lon="2.5014119037172287"><ele>67.0</ele><time>2026-04-01T12:54:43.999Z</time></trkpt><trkpt lat="49.15340332612724" lon="2.5013673168045143"><ele>67.0</ele><time>2026-04-01T12:54:45.999Z</time></trkpt><trkpt lat="49.153476504483436" lon="2.5013172906445775"><ele>67.0</ele><time>2026-04-01T12:54:47.999Z</time></trkpt><trkpt lat="49.15355171103852" lon="2.5012771618519487"><ele>67.0</ele><time>2026-04-01T12:54:49.999Z</time></trkpt><trkpt lat="49.15361910787996" lon="2.501229553271866"><ele>67.0</ele><time>2026-04-01T12:54:51.999Z</time></trkpt><trkpt lat="49.15369183837773" lon="2.501181993446826"><ele>67.0</ele><time>2026-04-01T12:54:53.999Z</time></trkpt><trkpt lat="49.15377496107355" lon="2.501147870865494"><ele>67.0</ele><time>2026-04-01T12:54:55.999Z</time></trkpt><trkpt lat="49.1538514315054" lon="2.5011067334163455"><ele>67.0</ele><time>2026-04-01T12:54:57.999Z</time></trkpt><trkpt lat="49.15391072157978" lon="2.501058869466735"><ele>67.0</ele><time>2026-04-01T12:54:59.999Z</time></trkpt><trkpt lat="49.15398639940459" lon="2.501002910588445"><ele>67.0</ele><time>2026-04-01T12:55:01.999Z</time></trkpt><trkpt lat="49.15405280322347" lon="2.5009698551515176"><ele>67.0</ele><time>2026-04-01T12:55:03.999Z</time></trkpt><trkpt lat="49.15412357614914" lon="2.500929300051748"><ele>67.0</ele><time>2026-04-01T12:55:05.999Z</time></trkpt><trkpt lat="49.15419596976907" lon="2.5008914075317934"><ele>67.0</ele><time>2026-04-01T12:55:07.999Z</time></trkpt><trkpt lat="49.154266723871146" lon="2.5008445889388438"><ele>67.0</ele><time>2026-04-01T12:55:09.999Z</time></trkpt><trkpt lat="49.15433332040947" lon="2.500796758149258"><ele>67.0</ele><time>2026-04-01T12:55:11.999Z</time></trkpt><trkpt lat="49.15440510840982" lon="2.500758588882417"><ele>67.0</ele><time>2026-04-01T12:55:13.999Z</time></trkpt><trkpt lat="49.15449718308518" lon="2.500709050223261"><ele>67.0</ele><time>2026-04-01T12:55:15.999Z</time></trkpt><trkpt lat="49.15457788907338" lon="2.500663375658814"><ele>67.0</ele><time>2026-04-01T12:55:17.998Z</time></trkpt><trkpt lat="49.154662113440835" lon="2.5006163277269504"><ele>67.0</ele><time>2026-04-01T12:55:19.998Z</time></trkpt><trkpt lat="49.15474451020893" lon="2.5005651315994553"><ele>67.0</ele><time>2026-04-01T12:55:21.998Z</time></trkpt><trkpt lat="49.15482884782083" lon="2.5005150987889224"><ele>67.0</ele><time>2026-04-01T12:55:23.998Z</time></trkpt><trkpt lat="49.15491232758625" lon="2.5004686391939037"><ele>67.0</ele><time>2026-04-01T12:55:25.998Z</time></trkpt><trkpt lat="49.15499945796235" lon="2.5004161221831005"><ele>66.6</ele><time>2026-04-01T12:55:27.998Z</time></trkpt><trkpt lat="49.15507346828325" lon="2.5003535015640552"><ele>66.2</ele><time>2026-04-01T12:55:29.998Z</time></trkpt><trkpt lat="49.15516208218892" lon="2.5003176739509967"><ele>65.8</ele><time>2026-04-01T12:55:31.998Z</time></trkpt><trkpt lat="49.155255701035" lon="2.5002579114302685"><ele>65.4</ele><time>2026-04-01T12:55:33.998Z</time></trkpt><trkpt lat="49.15533516300655" lon="2.500202939902548"><ele>65.0</ele><time>2026-04-01T12:55:35.998Z</time></trkpt><trkpt lat="49.15542807196339" lon="2.5001552637191518"><ele>65.0</ele><time>2026-04-01T12:55:37.998Z</time></trkpt><trkpt lat="49.1555208566439" lon="2.500095921818495"><ele>65.0</ele><time>2026-04-01T12:55:39.998Z</time></trkpt><trkpt lat="49.15561036185814" lon="2.5000428889993134"><ele>65.0</ele><time>2026-04-01T12:55:41.998Z</time></trkpt><trkpt lat="49.1557165002941" lon="2.499974107348857"><ele>65.0</ele><time>2026-04-01T12:55:43.998Z</time></trkpt><trkpt lat="49.15581379143607" lon="2.499921483366132"><ele>65.0</ele><time>2026-04-01T12:55:45.998Z</time></trkpt><trkpt lat="49.155919343384795" lon="2.499858818651118"><ele>65.14285714285715</ele><time>2026-04-01T12:55:47.998Z</time></trkpt><trkpt lat="49.15601916785294" lon="2.4998063364459577"><ele>65.28571428571429</ele><time>2026-04-01T12:55:49.997Z</time></trkpt><trkpt lat="49.156079262201445" lon="2.4997544682414827"><ele>65.42857142857143</ele><time>2026-04-01T12:55:50.997Z</time></trkpt><trkpt lat="49.15615174928907" lon="2.499729504374894"><ele>65.57142857142858</ele><time>2026-04-01T12:55:51.997Z</time></trkpt><trkpt lat="49.156214901861205" lon="2.499728870832472"><ele>65.71428571428572</ele><time>2026-04-01T12:55:52.997Z</time></trkpt><trkpt lat="49.15628143689253" lon="2.4997442126001053"><ele>65.85714285714286</ele><time>2026-04-01T12:55:53.997Z</time></trkpt><trkpt lat="49.15634479557281" lon="2.4997885707943235"><ele>66.0</ele><time>2026-04-01T12:55:54.997Z</time></trkpt><trkpt lat="49.1564037604397" lon="2.499857194523442"><ele>66.0</ele><time>2026-04-01T12:55:55.997Z</time></trkpt><trkpt lat="49.15647034012016" lon="2.4999308680899794"><ele>66.0</ele><time>2026-04-01T12:55:56.997Z</time></trkpt><trkpt lat="49.1565480116534" lon="2.4999948802826504"><ele>66.0</ele><time>2026-04-01T12:55:57.997Z</time></trkpt><trkpt lat="49.15663649556326" lon="2.5000583443918223"><ele>66.0</ele><time>2026-04-01T12:55:58.997Z</time></trkpt><trkpt lat="49.15672602452713" lon="2.5001383718944457"><ele>66.0</ele><time>2026-04-01T12:55:59.997Z</time></trkpt><trkpt lat="49.156817251481336" lon="2.5002308339773385"><ele>64.75</ele><time>2026-04-01T12:56:00.997Z</time></trkpt><trkpt lat="49.15692011984436" lon="2.500324759085552"><ele>63.5</ele><time>2026-04-01T12:56:01.997Z</time></trkpt><trkpt lat="49.15702280434487" lon="2.500413302947282"><ele>62.25</ele><time>2026-04-01T12:56:02.997Z</time></trkpt><trkpt lat="49.157129277620655" lon="2.500507694631411"><ele>61.0</ele><time>2026-04-01T12:56:03.997Z</time></trkpt><trkpt lat="49.15723718993855" lon="2.5006029225149744"><ele>60.8</ele><time>2026-04-01T12:56:04.997Z</time></trkpt><trkpt lat="49.15732739166361" lon="2.5006837675467795"><ele>60.599999999999994</ele><time>2026-04-01T12:56:05.997Z</time></trkpt><trkpt lat="49.157426080692275" lon="2.500773219283135"><ele>60.4</ele><time>2026-04-01T12:56:06.997Z</time></trkpt><trkpt lat="49.15752219379561" lon="2.5008549902558257"><ele>60.2</ele><time>2026-04-01T12:56:07.997Z</time></trkpt><trkpt lat="49.157604564570626" lon="2.5009586481928006"><ele>60.0</ele><time>2026-04-01T12:56:08.997Z</time></trkpt><trkpt lat="49.15769592166939" lon="2.5010191060116864"><ele>58.166666666666664</ele><time>2026-04-01T12:56:09.997Z</time></trkpt><trkpt lat="49.157780319304834" lon="2.5010909722345005"><ele>56.33333333333333</ele><time>2026-04-01T12:56:10.997Z</time></trkpt><trkpt lat="49.15784500098478" lon="2.5011788918310627"><ele>54.5</ele><time>2026-04-01T12:56:11.997Z</time></trkpt><trkpt lat="49.157918423755255" lon="2.5012458055084674"><ele>52.666666666666664</ele><time>2026-04-01T12:56:12.997Z</time></trkpt><trkpt lat="49.15799033944055" lon="2.501312055188739"><ele>50.83333333333333</ele><time>2026-04-01T12:56:13.997Z</time></trkpt><trkpt lat="49.15806591277717" lon="2.501354987288527"><ele>49.0</ele><time>2026-04-01T12:56:14.997Z</time></trkpt><trkpt lat="49.158126994108585" lon="2.5014200131302475"><ele>49.0</ele><time>2026-04-01T12:56:15.997Z</time></trkpt><trkpt lat="49.15818699844886" lon="2.50147990772494"><ele>49.0</ele><time>2026-04-01T12:56:16.997Z</time></trkpt><trkpt lat="49.158278223970136" lon="2.50157535097126"><ele>49.0</ele><time>2026-04-01T12:56:18.997Z</time></trkpt><trkpt lat="49.15834995305121" lon="2.501609535673105"><ele>49.0</ele><time>2026-04-01T12:56:20.997Z</time></trkpt><trkpt lat="49.15835092776798" lon="2.5014439298714866"><ele>49.0</ele><time>2026-04-01T12:56:24Z</time></trkpt><trkpt lat="49.1583312553862" lon="2.501318341243861"><ele>49.49999999999999</ele><time>2026-04-01T12:56:26Z</time></trkpt><trkpt lat="49.15834238873045" lon="2.5012034336379654"><ele>50.0</ele><time>2026-04-01T12:56:28Z</time></trkpt><trkpt lat="49.15834912653184" lon="2.5010821057727664"><ele>50.5</ele><time>2026-04-01T12:56:30Z</time></trkpt><trkpt lat="49.1583472463675" lon="2.5009587030061793"><ele>51.0</ele><time>2026-04-01T12:56:32Z</time></trkpt><trkpt lat="49.15834383291673" lon="2.5008271668285076"><ele>51.49999999999999</ele><time>2026-04-01T12:56:34Z</time></trkpt><trkpt lat="49.158340888114985" lon="2.500699455749329"><ele>52.0</ele><time>2026-04-01T12:56:36Z</time></trkpt><trkpt lat="49.158342626938186" lon="2.5005735204072126"><ele>51.99999999999999</ele><time>2026-04-01T12:56:38Z</time></trkpt><trkpt lat="49.15834709533393" lon="2.500449769033746"><ele>52.0</ele><time>2026-04-01T12:56:40Z</time></trkpt><trkpt lat="49.15835049455517" lon="2.5003207138369925"><ele>52.0</ele><time>2026-04-01T12:56:42Z</time></trkpt><trkpt lat="49.15834687082213" lon="2.5001939776219384"><ele>52.0</ele><time>2026-04-01T12:56:44Z</time></trkpt><trkpt lat="49.158344240854625" lon="2.5000759866323943"><ele>51.99999999999999</ele><time>2026-04-01T12:56:46Z</time></trkpt><trkpt lat="49.15833983272777" lon="2.4999580643531707"><ele>52.0</ele><time>2026-04-01T12:56:47.999Z</time></trkpt><trkpt lat="49.158339437019364" lon="2.4998474599878593"><ele>52.33333333333333</ele><time>2026-04-01T12:56:49.999Z</time></trkpt><trkpt lat="49.15834147034595" lon="2.4997278691965494"><ele>52.666666666666664</ele><time>2026-04-01T12:56:51.999Z</time></trkpt><trkpt lat="49.15835333939178" lon="2.499607585478377"><ele>53.0</ele><time>2026-04-01T12:56:53.999Z</time></trkpt><trkpt lat="49.15835350359552" lon="2.4994839608628285"><ele>53.33333333333333</ele><time>2026-04-01T12:56:55.999Z</time></trkpt><trkpt lat="49.158340353961655" lon="2.499368984778243"><ele>53.666666666666664</ele><time>2026-04-01T12:56:57.999Z</time></trkpt><trkpt lat="49.15834231441348" lon="2.4992425829397704"><ele>54.0</ele><time>2026-04-01T12:56:59.999Z</time></trkpt><trkpt lat="49.1583442285793" lon="2.499120356244873"><ele>54.0</ele><time>2026-04-01T12:57:01.999Z</time></trkpt><trkpt lat="49.15834161273021" lon="2.4989890796979863"><ele>54.0</ele><time>2026-04-01T12:57:03.999Z</time></trkpt><trkpt lat="49.15834958000354" lon="2.4988668604858932"><ele>54.0</ele><time>2026-04-01T12:57:05.999Z</time></trkpt><trkpt lat="49.15834878348148" lon="2.4987540456290778"><ele>54.0</ele><time>2026-04-01T12:57:07.999Z</time></trkpt><trkpt lat="49.15834210011541" lon="2.498636851453283"><ele>54.0</ele><time>2026-04-01T12:57:09.999Z</time></trkpt><trkpt lat="49.158349358873274" lon="2.498528915044734"><ele>54.0</ele><time>2026-04-01T12:57:11.999Z</time></trkpt><trkpt lat="49.158349031681745" lon="2.4984280917265584"><ele>54.0</ele><time>2026-04-01T12:57:13.999Z</time></trkpt><trkpt lat="49.15835087090966" lon="2.498325397462632"><ele>54.0</ele><time>2026-04-01T12:57:15.999Z</time></trkpt><trkpt lat="49.158360578279705" lon="2.498222864195294"><ele>54.0</ele><time>2026-04-01T12:57:17.999Z</time></trkpt><trkpt lat="49.158374401725304" lon="2.4981174601101266"><ele>54.0</ele><time>2026-04-01T12:57:19.999Z</time></trkpt><trkpt lat="49.158381535364235" lon="2.498006004852935"><ele>54.0</ele><time>2026-04-01T12:57:21.998Z</time></trkpt><trkpt lat="49.158389975020036" lon="2.497892649625935"><ele>54.0</ele><time>2026-04-01T12:57:23.998Z</time></trkpt><trkpt lat="49.15841244125136" lon="2.497783929478815"><ele>54.0</ele><time>2026-04-01T12:57:25.998Z</time></trkpt><trkpt lat="49.15841529156533" lon="2.497668649285317"><ele>54.333333333333336</ele><time>2026-04-01T12:57:27.998Z</time></trkpt><trkpt lat="49.15842370918302" lon="2.4975426943182244"><ele>54.66666666666667</ele><time>2026-04-01T12:57:29.998Z</time></trkpt><trkpt lat="49.15843484258723" lon="2.497402925888623"><ele>55.0</ele><time>2026-04-01T12:57:31.998Z</time></trkpt><trkpt lat="49.1584504768351" lon="2.4972703907535174"><ele>55.333333333333336</ele><time>2026-04-01T12:57:33.998Z</time></trkpt><trkpt lat="49.15846047610792" lon="2.49712985543534"><ele>55.66666666666667</ele><time>2026-04-01T12:57:35.998Z</time></trkpt><trkpt lat="49.1584695328392" lon="2.4969871753241"><ele>56.0</ele><time>2026-04-01T12:57:37.998Z</time></trkpt><trkpt lat="49.15848237088934" lon="2.496850503381564"><ele>56.4</ele><time>2026-04-01T12:57:39.998Z</time></trkpt><trkpt lat="49.15848964806259" lon="2.496714165012764"><ele>56.8</ele><time>2026-04-01T12:57:41.998Z</time></trkpt><trkpt lat="49.158498581997584" lon="2.496578590403028"><ele>57.199999999999996</ele><time>2026-04-01T12:57:43.998Z</time></trkpt><trkpt lat="49.15850765513098" lon="2.496435993152473"><ele>57.599999999999994</ele><time>2026-04-01T12:57:45.998Z</time></trkpt><trkpt lat="49.158523652226975" lon="2.4962861576017827"><ele>58.0</ele><time>2026-04-01T12:57:47.998Z</time></trkpt><trkpt lat="49.158534282988256" lon="2.4961297329994174"><ele>58.0</ele><time>2026-04-01T12:57:49.998Z</time></trkpt><trkpt lat="49.15854266133055" lon="2.4959650962449444"><ele>58.0</ele><time>2026-04-01T12:57:51.998Z</time></trkpt><trkpt lat="49.15854489067066" lon="2.4957908007977916"><ele>58.0</ele><time>2026-04-01T12:57:53.998Z</time></trkpt><trkpt lat="49.158560427287696" lon="2.495612911601181"><ele>58.0</ele><time>2026-04-01T12:57:55.997Z</time></trkpt><trkpt lat="49.158565925026885" lon="2.4954533241389827"><ele>58.0</ele><time>2026-04-01T12:57:57.997Z</time></trkpt><trkpt lat="49.15857880869433" lon="2.495300231195775"><ele>57.4</ele><time>2026-04-01T12:57:59.997Z</time></trkpt><trkpt lat="49.15857401798775" lon="2.4951572509918982"><ele>56.8</ele><time>2026-04-01T12:58:01.997Z</time></trkpt><trkpt lat="49.15856404212357" lon="2.4949973013338322"><ele>56.2</ele><time>2026-04-01T12:58:03.997Z</time></trkpt><trkpt lat="49.158547349428666" lon="2.4948384929246665"><ele>55.6</ele><time>2026-04-01T12:58:05.997Z</time></trkpt><trkpt lat="49.15853060008612" lon="2.4946798778550208"><ele>55.0</ele><time>2026-04-01T12:58:07.997Z</time></trkpt><trkpt lat="49.15850932819492" lon="2.4945075339546205"><ele>55.0</ele><time>2026-04-01T12:58:09.997Z</time></trkpt><trkpt lat="49.15850617800101" lon="2.4943333454432386"><ele>55.0</ele><time>2026-04-01T12:58:11.997Z</time></trkpt><trkpt lat="49.158487025215564" lon="2.494157992964965"><ele>55.0</ele><time>2026-04-01T12:58:13.997Z</time></trkpt><trkpt lat="49.15845598517432" lon="2.4939832865302183"><ele>55.0</ele><time>2026-04-01T12:58:15.997Z</time></trkpt><trkpt lat="49.158439401836645" lon="2.4938126991301117"><ele>55.2</ele><time>2026-04-01T12:58:17.997Z</time></trkpt><trkpt lat="49.15842010396792" lon="2.4936361846114554"><ele>55.4</ele><time>2026-04-01T12:58:19.997Z</time></trkpt><trkpt lat="49.15840711581485" lon="2.4934731659492617"><ele>55.599999999999994</ele><time>2026-04-01T12:58:21.997Z</time></trkpt><trkpt lat="49.15839161999767" lon="2.4932992859396554"><ele>55.8</ele><time>2026-04-01T12:58:23.997Z</time></trkpt><trkpt lat="49.158374880526935" lon="2.493132710418883"><ele>56.0</ele><time>2026-04-01T12:58:25.997Z</time></trkpt><trkpt lat="49.158363405403854" lon="2.4929575028115796"><ele>56.0</ele><time>2026-04-01T12:58:28Z</time></trkpt><trkpt lat="49.15834227216826" lon="2.49278967114281"><ele>55.99999999999999</ele><time>2026-04-01T12:58:30Z</time></trkpt><trkpt lat="49.15831321681215" lon="2.492587371833279"><ele>55.99999999999999</ele><time>2026-04-01T12:58:32Z</time></trkpt><trkpt lat="49.15829752693152" lon="2.492435957994669"><ele>56.0</ele><time>2026-04-01T12:58:34Z</time></trkpt><trkpt lat="49.15828698049338" lon="2.492283857015478"><ele>56.0</ele><time>2026-04-01T12:58:36Z</time></trkpt><trkpt lat="49.15826990901811" lon="2.4921361968834836"><ele>56.199999999999996</ele><time>2026-04-01T12:58:38Z</time></trkpt><trkpt lat="49.15825429995751" lon="2.4919760136137414"><ele>56.39999999999999</ele><time>2026-04-01T12:58:40Z</time></trkpt><trkpt lat="49.158244801256295" lon="2.4918214614924725"><ele>56.6</ele><time>2026-04-01T12:58:42Z</time></trkpt><trkpt lat="49.15822815330711" lon="2.491674925394092"><ele>56.8</ele><time>2026-04-01T12:58:44Z</time></trkpt><trkpt lat="49.1582148109261" lon="2.491531812234239"><ele>57.0</ele><time>2026-04-01T12:58:46Z</time></trkpt><trkpt lat="49.15819910453801" lon="2.491385886258304"><ele>55.6</ele><time>2026-04-01T12:58:48Z</time></trkpt><trkpt lat="49.15818609968795" lon="2.491226296353863"><ele>54.2</ele><time>2026-04-01T12:58:50Z</time></trkpt><trkpt lat="49.15817100337214" lon="2.491062122197891"><ele>52.8</ele><time>2026-04-01T12:58:51.999Z</time></trkpt><trkpt lat="49.15815393952778" lon="2.490895065693522"><ele>51.4</ele><time>2026-04-01T12:58:53.999Z</time></trkpt><trkpt lat="49.15814742987947" lon="2.4907153415941483"><ele>50.0</ele><time>2026-04-01T12:58:55.999Z</time></trkpt><trkpt lat="49.15812821245925" lon="2.4905544160148665"><ele>50.0</ele><time>2026-04-01T12:58:57.999Z</time></trkpt><trkpt lat="49.158115621134414" lon="2.490388764692187"><ele>50.0</ele><time>2026-04-01T12:58:59.999Z</time></trkpt><trkpt lat="49.158102708326304" lon="2.490225864696503"><ele>50.0</ele><time>2026-04-01T12:59:01.999Z</time></trkpt><trkpt lat="49.158089118366156" lon="2.490066595309098"><ele>50.0</ele><time>2026-04-01T12:59:03.999Z</time></trkpt><trkpt lat="49.158109070294756" lon="2.4899095632569246"><ele>50.0</ele><time>2026-04-01T12:59:05.999Z</time></trkpt><trkpt lat="49.15814715387504" lon="2.4897435102982923"><ele>50.0</ele><time>2026-04-01T12:59:07.999Z</time></trkpt><trkpt lat="49.15818771499078" lon="2.489667790234398"><ele>50.0</ele><time>2026-04-01T12:59:08.999Z</time></trkpt><trkpt lat="49.1582718138263" lon="2.4895412983500376"><ele>50.0</ele><time>2026-04-01T12:59:10.999Z</time></trkpt><trkpt lat="49.158356554817416" lon="2.4894079792980146"><ele>50.0</ele><time>2026-04-01T12:59:12.999Z</time></trkpt><trkpt lat="49.158444834219665" lon="2.4892860402354615"><ele>50.0</ele><time>2026-04-01T12:59:14.999Z</time></trkpt><trkpt lat="49.15853042035662" lon="2.489158753097853"><ele>51.25</ele><time>2026-04-01T12:59:16.999Z</time></trkpt><trkpt lat="49.15861230370735" lon="2.4890299863514014"><ele>52.5</ele><time>2026-04-01T12:59:18.999Z</time></trkpt><trkpt lat="49.158693019735125" lon="2.488905894032229"><ele>53.75</ele><time>2026-04-01T12:59:20.999Z</time></trkpt><trkpt lat="49.15877406069492" lon="2.4887831690133204"><ele>55.0</ele><time>2026-04-01T12:59:22.999Z</time></trkpt><trkpt lat="49.15885529208252" lon="2.4886556904848454"><ele>55.0</ele><time>2026-04-01T12:59:24.999Z</time></trkpt><trkpt lat="49.15893516059557" lon="2.4885340202772888"><ele>55.0</ele><time>2026-04-01T12:59:26.998Z</time></trkpt><trkpt lat="49.15901634298824" lon="2.4884041923173528"><ele>55.0</ele><time>2026-04-01T12:59:28.998Z</time></trkpt><trkpt lat="49.15909673032286" lon="2.488283654998777"><ele>55.0</ele><time>2026-04-01T12:59:30.998Z</time></trkpt><trkpt lat="49.15917797919435" lon="2.488152450116803"><ele>56.0</ele><time>2026-04-01T12:59:32.998Z</time></trkpt><trkpt lat="49.15925898940934" lon="2.488029612600646"><ele>57.0</ele><time>2026-04-01T12:59:34.998Z</time></trkpt><trkpt lat="49.159349041607186" lon="2.487915980299421"><ele>58.0</ele><time>2026-04-01T12:59:36.998Z</time></trkpt><trkpt lat="49.159429119788754" lon="2.4877853222165247"><ele>59.0</ele><time>2026-04-01T12:59:38.998Z</time></trkpt><trkpt lat="49.15949448290819" lon="2.4876459541028515"><ele>59.0</ele><time>2026-04-01T12:59:40.998Z</time></trkpt><trkpt lat="49.15956918872962" lon="2.4875264376796675"><ele>59.00000000000001</ele><time>2026-04-01T12:59:42.998Z</time></trkpt><trkpt lat="49.15963402868733" lon="2.487382863652552"><ele>59.00000000000001</ele><time>2026-04-01T12:59:44.998Z</time></trkpt><trkpt lat="49.1596968168978" lon="2.487248569318591"><ele>59.0</ele><time>2026-04-01T12:59:46.998Z</time></trkpt><trkpt lat="49.159745990128066" lon="2.4871227836157788"><ele>59.0</ele><time>2026-04-01T12:59:48.998Z</time></trkpt><trkpt lat="49.15979387059754" lon="2.4870376352892083"><ele>58.42857142857142</ele><time>2026-04-01T12:59:50.998Z</time></trkpt><trkpt lat="49.159857678703325" lon="2.487049613119358"><ele>57.85714285714286</ele><time>2026-04-01T12:59:52.998Z</time></trkpt><trkpt lat="49.15990629789361" lon="2.4869705598333747"><ele>57.285714285714285</ele><time>2026-04-01T12:59:55.998Z</time></trkpt><trkpt lat="49.159950306662566" lon="2.486894283488977"><ele>56.71428571428571</ele><time>2026-04-01T12:59:57.998Z</time></trkpt><trkpt lat="49.15999715553485" lon="2.4868112897563774"><ele>56.14285714285714</ele><time>2026-04-01T12:59:59.997Z</time></trkpt><trkpt lat="49.16003608850805" lon="2.486704856582235"><ele>55.57142857142857</ele><time>2026-04-01T13:00:01.997Z</time></trkpt><trkpt lat="49.160096352217366" lon="2.4866211490426444"><ele>55.0</ele><time>2026-04-01T13:00:03.997Z</time></trkpt><trkpt lat="49.16013929416943" lon="2.486502880198732"><ele>56.666666666666664</ele><time>2026-04-01T13:00:05.997Z</time></trkpt><trkpt lat="49.160197414339194" lon="2.486403662220549"><ele>58.33333333333333</ele><time>2026-04-01T13:00:07.997Z</time></trkpt><trkpt lat="49.16026630883355" lon="2.4863052203513543"><ele>60.0</ele><time>2026-04-01T13:00:09.997Z</time></trkpt><trkpt lat="49.16032044765616" lon="2.4862018845200424"><ele>61.66666666666667</ele><time>2026-04-01T13:00:11.997Z</time></trkpt><trkpt lat="49.160382876975035" lon="2.486101913066075"><ele>63.333333333333336</ele><time>2026-04-01T13:00:13.997Z</time></trkpt><trkpt lat="49.160433137618995" lon="2.486002458059974"><ele>65.0</ele><time>2026-04-01T13:00:15.997Z</time></trkpt><trkpt lat="49.16049394771004" lon="2.4859111337659003"><ele>65.33333333333334</ele><time>2026-04-01T13:00:17.997Z</time></trkpt><trkpt lat="49.1605529674154" lon="2.485811963183153"><ele>65.66666666666667</ele><time>2026-04-01T13:00:19.997Z</time></trkpt><trkpt lat="49.16060836927951" lon="2.485714238651328"><ele>66.0</ele><time>2026-04-01T13:00:21.997Z</time></trkpt><trkpt lat="49.160668453246544" lon="2.4856135390822733"><ele>66.33333333333333</ele><time>2026-04-01T13:00:23.997Z</time></trkpt><trkpt lat="49.160723480157884" lon="2.4855069536095633"><ele>66.66666666666666</ele><time>2026-04-01T13:00:25.997Z</time></trkpt><trkpt lat="49.160787689286316" lon="2.4854215485564572"><ele>67.0</ele><time>2026-04-01T13:00:27.997Z</time></trkpt><trkpt lat="49.160833059767754" lon="2.485320704051809"><ele>67.33333333333333</ele><time>2026-04-01T13:00:29.997Z</time></trkpt><trkpt lat="49.160884821254555" lon="2.4852220648325587"><ele>67.66666666666666</ele><time>2026-04-01T13:00:31.997Z</time></trkpt><trkpt lat="49.16093752419144" lon="2.485128126844585"><ele>68.0</ele><time>2026-04-01T13:00:34Z</time></trkpt><trkpt lat="49.160996291593435" lon="2.4850290396273973"><ele>68.33333333333333</ele><time>2026-04-01T13:00:36Z</time></trkpt><trkpt lat="49.161048380001574" lon="2.48492357294316"><ele>68.66666666666667</ele><time>2026-04-01T13:00:38Z</time></trkpt><trkpt lat="49.16110904376882" lon="2.484831657526491"><ele>69.0</ele><time>2026-04-01T13:00:40Z</time></trkpt><trkpt lat="49.1611674326001" lon="2.4847366313683055"><ele>69.0</ele><time>2026-04-01T13:00:42Z</time></trkpt><trkpt lat="49.161226958350674" lon="2.4846394213545717"><ele>69.0</ele><time>2026-04-01T13:00:44Z</time></trkpt><trkpt lat="49.161289047961176" lon="2.4845456628949227"><ele>69.0</ele><time>2026-04-01T13:00:46Z</time></trkpt><trkpt lat="49.16134025224558" lon="2.484439794247872"><ele>69.0</ele><time>2026-04-01T13:00:48Z</time></trkpt><trkpt lat="49.16140091808801" lon="2.484338823457245"><ele>69.0</ele><time>2026-04-01T13:00:50Z</time></trkpt><trkpt lat="49.1614549588331" lon="2.4842457518671197"><ele>69.0</ele><time>2026-04-01T13:00:52Z</time></trkpt><trkpt lat="49.161512862229245" lon="2.484140846521815"><ele>69.60000000000001</ele><time>2026-04-01T13:00:54Z</time></trkpt><trkpt lat="49.161572373933545" lon="2.4840306836112216"><ele>70.2</ele><time>2026-04-01T13:00:55.999Z</time></trkpt><trkpt lat="49.16163322392151" lon="2.4839223515786366"><ele>70.80000000000001</ele><time>2026-04-01T13:00:57.999Z</time></trkpt><trkpt lat="49.16169641062774" lon="2.4838213855292994"><ele>71.4</ele><time>2026-04-01T13:00:59.999Z</time></trkpt><trkpt lat="49.161758034129065" lon="2.483716126752065"><ele>72.0</ele><time>2026-04-01T13:01:01.999Z</time></trkpt><trkpt lat="49.16181702769474" lon="2.483612543748458"><ele>72.0</ele><time>2026-04-01T13:01:03.999Z</time></trkpt><trkpt lat="49.16188008893473" lon="2.4835013046660572"><ele>72.0</ele><time>2026-04-01T13:01:05.999Z</time></trkpt><trkpt lat="49.161940831090504" lon="2.483385223239356"><ele>72.0</ele><time>2026-04-01T13:01:07.999Z</time></trkpt><trkpt lat="49.16200780532693" lon="2.483275532381344"><ele>72.0</ele><time>2026-04-01T13:01:09.999Z</time></trkpt><trkpt lat="49.162066926074026" lon="2.4831699287001183"><ele>72.0</ele><time>2026-04-01T13:01:11.999Z</time></trkpt><trkpt lat="49.162130477909706" lon="2.483054601873878"><ele>72.0</ele><time>2026-04-01T13:01:13.999Z</time></trkpt><trkpt lat="49.16219701254907" lon="2.4829419950467697"><ele>72.0</ele><time>2026-04-01T13:01:15.999Z</time></trkpt><trkpt lat="49.16226688497961" lon="2.4828316939569013"><ele>72.0</ele><time>2026-04-01T13:01:17.999Z</time></trkpt><trkpt lat="49.16234564410314" lon="2.482739441883883"><ele>72.0</ele><time>2026-04-01T13:01:19.999Z</time></trkpt><trkpt lat="49.16241372676026" lon="2.482632073656056"><ele>72.0</ele><time>2026-04-01T13:01:21.999Z</time></trkpt><trkpt lat="49.16246826905927" lon="2.482512038281107"><ele>72.2</ele><time>2026-04-01T13:01:23.999Z</time></trkpt><trkpt lat="49.16253160033129" lon="2.4823972479416043"><ele>72.4</ele><time>2026-04-01T13:01:25.999Z</time></trkpt><trkpt lat="49.16260578401191" lon="2.4822944969189678"><ele>72.6</ele><time>2026-04-01T13:01:27.999Z</time></trkpt><trkpt lat="49.16265503111845" lon="2.4821741055111186"><ele>72.8</ele><time>2026-04-01T13:01:29.999Z</time></trkpt><trkpt lat="49.16271663899347" lon="2.4820710442025784"><ele>73.0</ele><time>2026-04-01T13:01:31.998Z</time></trkpt><trkpt lat="49.16277891473571" lon="2.4819639553866693"><ele>73.0</ele><time>2026-04-01T13:01:33.998Z</time></trkpt><trkpt lat="49.16283429155712" lon="2.4818654522957093"><ele>73.0</ele><time>2026-04-01T13:01:35.998Z</time></trkpt><trkpt lat="49.16289691125306" lon="2.4817657388986167"><ele>73.0</ele><time>2026-04-01T13:01:37.998Z</time></trkpt><trkpt lat="49.16295671313761" lon="2.4816607402532282"><ele>73.0</ele><time>2026-04-01T13:01:39.998Z</time></trkpt><trkpt lat="49.163005215055286" lon="2.4815657093519214"><ele>73.0</ele><time>2026-04-01T13:01:41.998Z</time></trkpt><trkpt lat="49.16305583080689" lon="2.4814551838226655"><ele>73.0</ele><time>2026-04-01T13:01:43.998Z</time></trkpt><trkpt lat="49.16311539638005" lon="2.4813643054020913"><ele>72.6</ele><time>2026-04-01T13:01:45.998Z</time></trkpt><trkpt lat="49.163188005711234" lon="2.481263985432945"><ele>72.19999999999999</ele><time>2026-04-01T13:01:47.998Z</time></trkpt><trkpt lat="49.16324312077877" lon="2.4811585059997427"><ele>71.8</ele><time>2026-04-01T13:01:49.998Z</time></trkpt><trkpt lat="49.163302032848364" lon="2.4810501266786806"><ele>71.39999999999999</ele><time>2026-04-01T13:01:51.998Z</time></trkpt><trkpt lat="49.16335503482754" lon="2.4809439643689215"><ele>71.0</ele><time>2026-04-01T13:01:53.998Z</time></trkpt><trkpt lat="49.163417395485084" lon="2.480840991833172"><ele>71.0</ele><time>2026-04-01T13:01:55.998Z</time></trkpt><trkpt lat="49.16347813052711" lon="2.4807402899274784"><ele>71.0</ele><time>2026-04-01T13:01:57.998Z</time></trkpt><trkpt lat="49.16353807685602" lon="2.4806421321646512"><ele>71.0</ele><time>2026-04-01T13:01:59.998Z</time></trkpt><trkpt lat="49.16360429401551" lon="2.4805409111875374"><ele>71.0</ele><time>2026-04-01T13:02:01.998Z</time></trkpt><trkpt lat="49.16366467225153" lon="2.4804354667835167"><ele>71.0</ele><time>2026-04-01T13:02:03.998Z</time></trkpt><trkpt lat="49.163724233143654" lon="2.4803334423902244"><ele>71.16666666666667</ele><time>2026-04-01T13:02:05.997Z</time></trkpt><trkpt lat="49.163780925353485" lon="2.4802323853365316"><ele>71.33333333333334</ele><time>2026-04-01T13:02:07.997Z</time></trkpt><trkpt lat="49.16383577077864" lon="2.480134260605885"><ele>71.5</ele><time>2026-04-01T13:02:09.997Z</time></trkpt><trkpt lat="49.163898642078024" lon="2.480033692152961"><ele>71.66666666666667</ele><time>2026-04-01T13:02:11.997Z</time></trkpt><trkpt lat="49.163958846681425" lon="2.479928064258335"><ele>71.83333333333333</ele><time>2026-04-01T13:02:13.997Z</time></trkpt><trkpt lat="49.16401808714819" lon="2.4798254899018812"><ele>72.0</ele><time>2026-04-01T13:02:15.997Z</time></trkpt><trkpt lat="49.164079488188094" lon="2.4797208694503046"><ele>72.0</ele><time>2026-04-01T13:02:17.997Z</time></trkpt><trkpt lat="49.16413867144487" lon="2.47961854924714"><ele>72.0</ele><time>2026-04-01T13:02:19.997Z</time></trkpt><trkpt lat="49.164204062966995" lon="2.479513177245183"><ele>72.0</ele><time>2026-04-01T13:02:21.997Z</time></trkpt><trkpt lat="49.164262994928805" lon="2.47940293019756"><ele>72.0</ele><time>2026-04-01T13:02:23.997Z</time></trkpt><trkpt lat="49.164318598018106" lon="2.47929470238608"><ele>72.0</ele><time>2026-04-01T13:02:25.997Z</time></trkpt><trkpt lat="49.1643769145263" lon="2.479187139271046"><ele>71.4</ele><time>2026-04-01T13:02:27.997Z</time></trkpt><trkpt lat="49.164441720594404" lon="2.479094380652977"><ele>70.80000000000001</ele><time>2026-04-01T13:02:29.997Z</time></trkpt><trkpt lat="49.16449273003317" lon="2.4789688734659006"><ele>70.2</ele><time>2026-04-01T13:02:31.997Z</time></trkpt><trkpt lat="49.16455649173165" lon="2.4788589383675874"><ele>69.60000000000001</ele><time>2026-04-01T13:02:33.997Z</time></trkpt><trkpt lat="49.164621617821936" lon="2.478747647078166"><ele>69.0</ele><time>2026-04-01T13:02:35.997Z</time></trkpt><trkpt lat="49.16469065526966" lon="2.4786389818342527"><ele>69.0</ele><time>2026-04-01T13:02:37.997Z</time></trkpt><trkpt lat="49.16475329905363" lon="2.478528018418644"><ele>69.0</ele><time>2026-04-01T13:02:40Z</time></trkpt><trkpt lat="49.164816165624984" lon="2.478419058980889"><ele>69.0</ele><time>2026-04-01T13:02:42Z</time></trkpt><trkpt lat="49.1648798994353" lon="2.478310888960192"><ele>69.0</ele><time>2026-04-01T13:02:44Z</time></trkpt><trkpt lat="49.164946553272806" lon="2.478202375207545"><ele>69.0</ele><time>2026-04-01T13:02:46Z</time></trkpt><trkpt lat="49.165018638476546" lon="2.4780900346671033"><ele>69.60000000000001</ele><time>2026-04-01T13:02:48Z</time></trkpt><trkpt lat="49.165082355671395" lon="2.477983127365702"><ele>70.2</ele><time>2026-04-01T13:02:50Z</time></trkpt><trkpt lat="49.16514545790541" lon="2.4778729721514536"><ele>70.80000000000001</ele><time>2026-04-01T13:02:52Z</time></trkpt><trkpt lat="49.16521070039914" lon="2.477758287012771"><ele>71.4</ele><time>2026-04-01T13:02:54Z</time></trkpt><trkpt lat="49.1652843557681" lon="2.477641753423647"><ele>72.0</ele><time>2026-04-01T13:02:56Z</time></trkpt><trkpt lat="49.16535289507527" lon="2.477528956734722"><ele>72.0</ele><time>2026-04-01T13:02:58Z</time></trkpt><trkpt lat="49.165421056522725" lon="2.47741842764346"><ele>72.0</ele><time>2026-04-01T13:03:00Z</time></trkpt><trkpt lat="49.16548545242657" lon="2.4773055708447203"><ele>72.0</ele><time>2026-04-01T13:03:02Z</time></trkpt><trkpt lat="49.16554813538125" lon="2.477188974628104"><ele>72.0</ele><time>2026-04-01T13:03:03.999Z</time></trkpt><trkpt lat="49.16561331025257" lon="2.4770664542662173"><ele>72.0</ele><time>2026-04-01T13:03:05.999Z</time></trkpt><trkpt lat="49.16568345531724" lon="2.4769456989899794"><ele>71.6</ele><time>2026-04-01T13:03:07.999Z</time></trkpt><trkpt lat="49.1657490814069" lon="2.4768290644599595"><ele>71.2</ele><time>2026-04-01T13:03:09.999Z</time></trkpt><trkpt lat="49.165818563806155" lon="2.476707975469581"><ele>70.8</ele><time>2026-04-01T13:03:11.999Z</time></trkpt><trkpt lat="49.165890634874856" lon="2.47658790965405"><ele>70.4</ele><time>2026-04-01T13:03:13.999Z</time></trkpt><trkpt lat="49.165961864999844" lon="2.4764632294045312"><ele>70.0</ele><time>2026-04-01T13:03:15.999Z</time></trkpt><trkpt lat="49.16603419180727" lon="2.4763354785415825"><ele>70.2</ele><time>2026-04-01T13:03:17.999Z</time></trkpt><trkpt lat="49.16610112784294" lon="2.4762135065731865"><ele>70.4</ele><time>2026-04-01T13:03:19.999Z</time></trkpt><trkpt lat="49.16617294881474" lon="2.4760923384932125"><ele>70.6</ele><time>2026-04-01T13:03:21.999Z</time></trkpt><trkpt lat="49.16624514638324" lon="2.475967382557472"><ele>70.8</ele><time>2026-04-01T13:03:23.999Z</time></trkpt><trkpt lat="49.16631788968358" lon="2.4758444357296456"><ele>71.0</ele><time>2026-04-01T13:03:25.999Z</time></trkpt><trkpt lat="49.166387163004224" lon="2.4757227749163753"><ele>71.0</ele><time>2026-04-01T13:03:27.999Z</time></trkpt><trkpt lat="49.166455654083045" lon="2.4756004085602608"><ele>71.0</ele><time>2026-04-01T13:03:29.999Z</time></trkpt><trkpt lat="49.166524839986856" lon="2.4754740041205228"><ele>71.0</ele><time>2026-04-01T13:03:31.999Z</time></trkpt><trkpt lat="49.1665973353707" lon="2.475350947517619"><ele>71.0</ele><time>2026-04-01T13:03:33.999Z</time></trkpt><trkpt lat="49.16667130992882" lon="2.475215047446245"><ele>71.0</ele><time>2026-04-01T13:03:35.999Z</time></trkpt><trkpt lat="49.16674218802694" lon="2.4750859088405535"><ele>70.8</ele><time>2026-04-01T13:03:37.998Z</time></trkpt><trkpt lat="49.16681242245071" lon="2.474955367751444"><ele>70.6</ele><time>2026-04-01T13:03:39.998Z</time></trkpt><trkpt lat="49.16688829839894" lon="2.474826673095159"><ele>70.4</ele><time>2026-04-01T13:03:41.998Z</time></trkpt><trkpt lat="49.16696338772172" lon="2.474713396004992"><ele>70.2</ele><time>2026-04-01T13:03:43.998Z</time></trkpt><trkpt lat="49.167028556191184" lon="2.4745847385758775"><ele>70.0</ele><time>2026-04-01T13:03:45.998Z</time></trkpt><trkpt lat="49.16709651885504" lon="2.474454516324725"><ele>70.0</ele><time>2026-04-01T13:03:47.998Z</time></trkpt><trkpt lat="49.16717297817042" lon="2.474338707939423"><ele>70.0</ele><time>2026-04-01T13:03:49.998Z</time></trkpt><trkpt lat="49.167248665382154" lon="2.4742169831200025"><ele>70.0</ele><time>2026-04-01T13:03:51.998Z</time></trkpt><trkpt lat="49.167323876360555" lon="2.4740906379321883"><ele>70.0</ele><time>2026-04-01T13:03:53.998Z</time></trkpt><trkpt lat="49.1673926934774" lon="2.4739695470558365"><ele>70.0</ele><time>2026-04-01T13:03:55.998Z</time></trkpt><trkpt lat="49.167462317245864" lon="2.4738463077132495"><ele>71.0</ele><time>2026-04-01T13:03:57.998Z</time></trkpt><trkpt lat="49.167531850220676" lon="2.4737290944057135"><ele>72.0</ele><time>2026-04-01T13:03:59.998Z</time></trkpt><trkpt lat="49.16759687032936" lon="2.473617784478422"><ele>73.0</ele><time>2026-04-01T13:04:01.998Z</time></trkpt><trkpt lat="49.16767110177733" lon="2.473492359065558"><ele>74.0</ele><time>2026-04-01T13:04:03.998Z</time></trkpt><trkpt lat="49.16773766979216" lon="2.4733738329573987"><ele>75.0</ele><time>2026-04-01T13:04:05.998Z</time></trkpt><trkpt lat="49.16780818089364" lon="2.473255821850875"><ele>75.0</ele><time>2026-04-01T13:04:07.998Z</time></trkpt><trkpt lat="49.167872620767874" lon="2.473141885987363"><ele>75.0</ele><time>2026-04-01T13:04:09.998Z</time></trkpt><trkpt lat="49.167939776182045" lon="2.4730454020218584"><ele>75.0</ele><time>2026-04-01T13:04:11.997Z</time></trkpt><trkpt lat="49.16800874882632" lon="2.4729702505494178"><ele>75.0</ele><time>2026-04-01T13:04:13.997Z</time></trkpt><trkpt lat="49.168055435713654" lon="2.4728760667290035"><ele>75.0</ele><time>2026-04-01T13:04:15.997Z</time></trkpt><trkpt lat="49.168143198196326" lon="2.4728068615888703"><ele>74.99999999999999</ele><time>2026-04-01T13:04:17.997Z</time></trkpt><trkpt lat="49.168174600721635" lon="2.472723307650358"><ele>75.0</ele><time>2026-04-01T13:04:19.997Z</time></trkpt><trkpt lat="49.168236006405465" lon="2.47262671873433"><ele>75.0</ele><time>2026-04-01T13:04:22.997Z</time></trkpt><trkpt lat="49.16829082530441" lon="2.472531340068859"><ele>75.0</ele><time>2026-04-01T13:04:24.997Z</time></trkpt><trkpt lat="49.16833708283125" lon="2.472448887167315"><ele>75.0</ele><time>2026-04-01T13:04:26.997Z</time></trkpt><trkpt lat="49.16837840577488" lon="2.47237522995126"><ele>74.99999999999999</ele><time>2026-04-01T13:04:28.997Z</time></trkpt><trkpt lat="49.1684229163553" lon="2.472301231663751"><ele>75.0</ele><time>2026-04-01T13:04:31.997Z</time></trkpt><trkpt lat="49.16847441160785" lon="2.472228714840134"><ele>74.99999999999999</ele><time>2026-04-01T13:04:34.997Z</time></trkpt><trkpt lat="49.16855636230059" lon="2.4721506063781793"><ele>75.0</ele><time>2026-04-01T13:04:37.997Z</time></trkpt><trkpt lat="49.16861800898752" lon="2.472120708199549"><ele>75.0</ele><time>2026-04-01T13:04:39.997Z</time></trkpt><trkpt lat="49.16867859154573" lon="2.4720849827114404"><ele>75.0</ele><time>2026-04-01T13:04:41.997Z</time></trkpt><trkpt lat="49.168740376249" lon="2.472027668344885"><ele>75.0</ele><time>2026-04-01T13:04:43.997Z</time></trkpt><trkpt lat="49.16879829566918" lon="2.471970496567449"><ele>74.99999999999999</ele><time>2026-04-01T13:04:47Z</time></trkpt><trkpt lat="49.16885342398985" lon="2.471918259765748"><ele>75.0</ele><time>2026-04-01T13:04:50Z</time></trkpt><trkpt lat="49.16893111997535" lon="2.471909547756805"><ele>75.0</ele><time>2026-04-01T13:04:53Z</time></trkpt><trkpt lat="49.169017718551274" lon="2.471885308416984"><ele>75.0</ele><time>2026-04-01T13:04:56Z</time></trkpt><trkpt lat="49.16909367298793" lon="2.4718482786506755"><ele>75.0</ele><time>2026-04-01T13:04:58Z</time></trkpt><trkpt lat="49.16915892528796" lon="2.4718406686196444"><ele>75.0</ele><time>2026-04-01T13:05:00Z</time></trkpt><trkpt lat="49.16924268196006" lon="2.471879419079213"><ele>75.0</ele><time>2026-04-01T13:05:03Z</time></trkpt><trkpt lat="49.16930594315294" lon="2.4718646184574156"><ele>75.0</ele><time>2026-04-01T13:05:05Z</time></trkpt><trkpt lat="49.16939982582851" lon="2.471828708850952"><ele>74.6</ele><time>2026-04-01T13:05:08Z</time></trkpt><trkpt lat="49.16948113916676" lon="2.4718042140028555"><ele>74.2</ele><time>2026-04-01T13:05:09.999Z</time></trkpt><trkpt lat="49.16957358722656" lon="2.4717905640821782"><ele>73.8</ele><time>2026-04-01T13:05:11.999Z</time></trkpt><trkpt lat="49.16967340885879" lon="2.4717727571264847"><ele>73.4</ele><time>2026-04-01T13:05:13.999Z</time></trkpt><trkpt lat="49.16977168794772" lon="2.471759100628381"><ele>73.0</ele><time>2026-04-01T13:05:15.999Z</time></trkpt><trkpt lat="49.16988352822125" lon="2.471750615279408"><ele>72.8</ele><time>2026-04-01T13:05:17.999Z</time></trkpt><trkpt lat="49.16999253479011" lon="2.4717405923896707"><ele>72.6</ele><time>2026-04-01T13:05:19.999Z</time></trkpt><trkpt lat="49.1701005639602" lon="2.4717270969163057"><ele>72.4</ele><time>2026-04-01T13:05:21.999Z</time></trkpt><trkpt lat="49.17021006897479" lon="2.4717073437083794"><ele>72.2</ele><time>2026-04-01T13:05:23.999Z</time></trkpt><trkpt lat="49.170317939146535" lon="2.4716968762592435"><ele>72.0</ele><time>2026-04-01T13:05:25.999Z</time></trkpt><trkpt lat="49.17042792411941" lon="2.4716814124912503"><ele>72.0</ele><time>2026-04-01T13:05:27.999Z</time></trkpt><trkpt lat="49.17053105870957" lon="2.471661566384248"><ele>72.0</ele><time>2026-04-01T13:05:29.999Z</time></trkpt><trkpt lat="49.17064130475692" lon="2.471651631805453"><ele>72.0</ele><time>2026-04-01T13:05:31.999Z</time></trkpt><trkpt lat="49.17074214097293" lon="2.471638872890437"><ele>72.0</ele><time>2026-04-01T13:05:33.999Z</time></trkpt><trkpt lat="49.17084200219762" lon="2.4716298520545217"><ele>72.0</ele><time>2026-04-01T13:05:35.999Z</time></trkpt><trkpt lat="49.170945173565656" lon="2.471623602989022"><ele>71.6</ele><time>2026-04-01T13:05:37.999Z</time></trkpt><trkpt lat="49.17104483153055" lon="2.47160716165455"><ele>71.2</ele><time>2026-04-01T13:05:39.999Z</time></trkpt><trkpt lat="49.17114633074695" lon="2.471585232060363"><ele>70.8</ele><time>2026-04-01T13:05:41.999Z</time></trkpt><trkpt lat="49.17124662233657" lon="2.4715726988296955"><ele>70.4</ele><time>2026-04-01T13:05:43.999Z</time></trkpt><trkpt lat="49.171346830752" lon="2.4715569332281837"><ele>70.0</ele><time>2026-04-01T13:05:45.998Z</time></trkpt><trkpt lat="49.17144495301922" lon="2.471543239972618"><ele>70.0</ele><time>2026-04-01T13:05:47.998Z</time></trkpt><trkpt lat="49.17154253270915" lon="2.471525431691728"><ele>70.0</ele><time>2026-04-01T13:05:49.998Z</time></trkpt><trkpt lat="49.17164221314834" lon="2.4715097184759265"><ele>70.0</ele><time>2026-04-01T13:05:51.998Z</time></trkpt><trkpt lat="49.1717428455205" lon="2.4714952040257585"><ele>70.0</ele><time>2026-04-01T13:05:53.998Z</time></trkpt><trkpt lat="49.17183846942658" lon="2.4714785669681354"><ele>70.0</ele><time>2026-04-01T13:05:55.998Z</time></trkpt><trkpt lat="49.17193759303706" lon="2.471459907386139"><ele>70.0</ele><time>2026-04-01T13:05:57.998Z</time></trkpt><trkpt lat="49.17203777658011" lon="2.4714618732067137"><ele>70.0</ele><time>2026-04-01T13:05:59.998Z</time></trkpt><trkpt lat="49.17214080788671" lon="2.4714472724177616"><ele>70.0</ele><time>2026-04-01T13:06:01.998Z</time></trkpt><trkpt lat="49.1722433817677" lon="2.471412311118999"><ele>70.0</ele><time>2026-04-01T13:06:03.998Z</time></trkpt><trkpt lat="49.17234610919194" lon="2.4714099479965133"><ele>70.0</ele><time>2026-04-01T13:06:05.998Z</time></trkpt><trkpt lat="49.172456196755604" lon="2.471404640901863"><ele>70.4</ele><time>2026-04-01T13:06:07.998Z</time></trkpt><trkpt lat="49.172558170351124" lon="2.471389616129602"><ele>70.8</ele><time>2026-04-01T13:06:09.998Z</time></trkpt><trkpt lat="49.17266903474115" lon="2.471378681342406"><ele>71.2</ele><time>2026-04-01T13:06:11.998Z</time></trkpt><trkpt lat="49.17277280756814" lon="2.4713613845042492"><ele>71.6</ele><time>2026-04-01T13:06:13.998Z</time></trkpt><trkpt lat="49.17288278702883" lon="2.471347876573127"><ele>72.0</ele><time>2026-04-01T13:06:15.998Z</time></trkpt><trkpt lat="49.17298721030225" lon="2.4713317310494505"><ele>72.0</ele><time>2026-04-01T13:06:17.998Z</time></trkpt><trkpt lat="49.1731008181818" lon="2.471320320191509"><ele>72.0</ele><time>2026-04-01T13:06:19.997Z</time></trkpt><trkpt lat="49.1732006796286" lon="2.4712948349720674"><ele>72.0</ele><time>2026-04-01T13:06:21.997Z</time></trkpt><trkpt lat="49.173319333880194" lon="2.4712939033231613"><ele>72.0</ele><time>2026-04-01T13:06:23.997Z</time></trkpt><trkpt lat="49.173423201001434" lon="2.471278870921598"><ele>72.0</ele><time>2026-04-01T13:06:25.997Z</time></trkpt><trkpt lat="49.173533066267225" lon="2.4712601382284536"><ele>71.8</ele><time>2026-04-01T13:06:27.997Z</time></trkpt><trkpt lat="49.17364467663989" lon="2.4712415084948236"><ele>71.6</ele><time>2026-04-01T13:06:29.997Z</time></trkpt><trkpt lat="49.17375483869754" lon="2.4712305280928333"><ele>71.39999999999999</ele><time>2026-04-01T13:06:31.997Z</time></trkpt><trkpt lat="49.173862990693436" lon="2.4712155884657645"><ele>71.2</ele><time>2026-04-01T13:06:33.997Z</time></trkpt><trkpt lat="49.1739708981909" lon="2.4711972402262887"><ele>71.0</ele><time>2026-04-01T13:06:35.997Z</time></trkpt><trkpt lat="49.174083385152976" lon="2.4711834915990196"><ele>70.8</ele><time>2026-04-01T13:06:37.997Z</time></trkpt><trkpt lat="49.174194083337625" lon="2.471169057167741"><ele>70.6</ele><time>2026-04-01T13:06:39.997Z</time></trkpt><trkpt lat="49.17429982387718" lon="2.471151394180996"><ele>70.4</ele><time>2026-04-01T13:06:41.997Z</time></trkpt><trkpt lat="49.174408403893715" lon="2.4711334933303815"><ele>70.2</ele><time>2026-04-01T13:06:43.997Z</time></trkpt><trkpt lat="49.17452166430153" lon="2.4711228669072525"><ele>70.0</ele><time>2026-04-01T13:06:45.997Z</time></trkpt><trkpt lat="49.17463410256303" lon="2.471113338079728"><ele>70.0</ele><time>2026-04-01T13:06:47.997Z</time></trkpt><trkpt lat="49.17473710377291" lon="2.4711069641172188"><ele>70.0</ele><time>2026-04-01T13:06:49.997Z</time></trkpt><trkpt lat="49.174842858171466" lon="2.4710817354350465"><ele>70.0</ele><time>2026-04-01T13:06:52Z</time></trkpt><trkpt lat="49.17494967549857" lon="2.471074607053634"><ele>70.0</ele><time>2026-04-01T13:06:54Z</time></trkpt><trkpt lat="49.175055924570025" lon="2.471062155144651"><ele>70.0</ele><time>2026-04-01T13:06:56Z</time></trkpt><trkpt lat="49.17516384953617" lon="2.4710455898576162"><ele>69.5</ele><time>2026-04-01T13:06:58Z</time></trkpt><trkpt lat="49.175273772130254" lon="2.471023670069151"><ele>69.0</ele><time>2026-04-01T13:07:00Z</time></trkpt><trkpt lat="49.17539638122217" lon="2.4710028240111552"><ele>68.5</ele><time>2026-04-01T13:07:02Z</time></trkpt><trkpt lat="49.17550550744018" lon="2.4709883903140795"><ele>68.0</ele><time>2026-04-01T13:07:04Z</time></trkpt><trkpt lat="49.17562249009739" lon="2.470971492225018"><ele>68.0</ele><time>2026-04-01T13:07:06Z</time></trkpt><trkpt lat="49.17573640674591" lon="2.4709450008924723"><ele>68.0</ele><time>2026-04-01T13:07:08Z</time></trkpt><trkpt lat="49.17584452548775" lon="2.4709320130339654"><ele>68.0</ele><time>2026-04-01T13:07:10Z</time></trkpt><trkpt lat="49.17596382096849" lon="2.4709112305750964"><ele>68.0</ele><time>2026-04-01T13:07:12Z</time></trkpt><trkpt lat="49.1760609090323" lon="2.470908954166154"><ele>68.0</ele><time>2026-04-01T13:07:14Z</time></trkpt><trkpt lat="49.17612893717163" lon="2.4708878287041536"><ele>68.0</ele><time>2026-04-01T13:07:15Z</time></trkpt><trkpt lat="49.17624213979609" lon="2.4708725212872915"><ele>68.0</ele><time>2026-04-01T13:07:16.999Z</time></trkpt><trkpt lat="49.17635842896196" lon="2.4708605576416827"><ele>68.0</ele><time>2026-04-01T13:07:18.999Z</time></trkpt><trkpt lat="49.17647124677961" lon="2.4708511162777453"><ele>68.0</ele><time>2026-04-01T13:07:20.999Z</time></trkpt><trkpt lat="49.17658846843407" lon="2.4708446289222996"><ele>68.0</ele><time>2026-04-01T13:07:22.999Z</time></trkpt><trkpt lat="49.17670071831575" lon="2.4708225197056093"><ele>68.0</ele><time>2026-04-01T13:07:24.999Z</time></trkpt><trkpt lat="49.176810084553786" lon="2.4708069822957603"><ele>68.0</ele><time>2026-04-01T13:07:26.999Z</time></trkpt><trkpt lat="49.17692529481129" lon="2.4707902059635725"><ele>68.0</ele><time>2026-04-01T13:07:28.999Z</time></trkpt><trkpt lat="49.177042081689" lon="2.4707795557097407"><ele>68.0</ele><time>2026-04-01T13:07:30.999Z</time></trkpt><trkpt lat="49.17715093953115" lon="2.4707618187942315"><ele>68.0</ele><time>2026-04-01T13:07:32.999Z</time></trkpt><trkpt lat="49.17726529854775" lon="2.4707514664291343"><ele>68.0</ele><time>2026-04-01T13:07:34.999Z</time></trkpt><trkpt lat="49.17736952386641" lon="2.47071894236555"><ele>68.0</ele><time>2026-04-01T13:07:36.999Z</time></trkpt><trkpt lat="49.17747145914563" lon="2.470698567327663"><ele>68.0</ele><time>2026-04-01T13:07:38.999Z</time></trkpt><trkpt lat="49.17758369118369" lon="2.4706884315202324"><ele>68.4</ele><time>2026-04-01T13:07:40.999Z</time></trkpt><trkpt lat="49.17769657142795" lon="2.470682454813483"><ele>68.8</ele><time>2026-04-01T13:07:42.999Z</time></trkpt><trkpt lat="49.17780668044521" lon="2.4706590213762083"><ele>69.2</ele><time>2026-04-01T13:07:44.999Z</time></trkpt><trkpt lat="49.17791813679483" lon="2.4706417437401944"><ele>69.6</ele><time>2026-04-01T13:07:46.999Z</time></trkpt><trkpt lat="49.1780205879879" lon="2.4706196467457375"><ele>70.0</ele><time>2026-04-01T13:07:48.999Z</time></trkpt><trkpt lat="49.17813608609305" lon="2.4706014044596336"><ele>70.0</ele><time>2026-04-01T13:07:50.998Z</time></trkpt><trkpt lat="49.178252056177044" lon="2.4705850225592627"><ele>70.0</ele><time>2026-04-01T13:07:52.998Z</time></trkpt><trkpt lat="49.17836557945716" lon="2.4705684947022872"><ele>70.0</ele><time>2026-04-01T13:07:54.998Z</time></trkpt><trkpt lat="49.178477005484396" lon="2.470557483376837"><ele>70.0</ele><time>2026-04-01T13:07:56.998Z</time></trkpt><trkpt lat="49.1785904137905" lon="2.4705464563872113"><ele>70.0</ele><time>2026-04-01T13:07:58.998Z</time></trkpt><trkpt lat="49.1787067890588" lon="2.470531541051786"><ele>70.0</ele><time>2026-04-01T13:08:00.998Z</time></trkpt><trkpt lat="49.178813937772254" lon="2.4705122065414136"><ele>70.0</ele><time>2026-04-01T13:08:02.998Z</time></trkpt><trkpt lat="49.178923738420956" lon="2.4704878355221256"><ele>70.0</ele><time>2026-04-01T13:08:04.998Z</time></trkpt><trkpt lat="49.17902820516605" lon="2.4704828857336363"><ele>70.0</ele><time>2026-04-01T13:08:06.998Z</time></trkpt><trkpt lat="49.17913815627393" lon="2.470470683452527"><ele>69.6</ele><time>2026-04-01T13:08:08.998Z</time></trkpt><trkpt lat="49.179254698079106" lon="2.4704553385512553"><ele>69.2</ele><time>2026-04-01T13:08:10.998Z</time></trkpt><trkpt lat="49.17936926677516" lon="2.4704320235541752"><ele>68.8</ele><time>2026-04-01T13:08:12.998Z</time></trkpt><trkpt lat="49.17947933956006" lon="2.4704127170446863"><ele>68.4</ele><time>2026-04-01T13:08:14.998Z</time></trkpt><trkpt lat="49.179542399211385" lon="2.470405695890746"><ele>68.0</ele><time>2026-04-01T13:08:15.998Z</time></trkpt><trkpt lat="49.17961063385129" lon="2.4703997406840776"><ele>68.0</ele><time>2026-04-01T13:08:16.998Z</time></trkpt><trkpt lat="49.179674660109086" lon="2.470395237420356"><ele>68.0</ele><time>2026-04-01T13:08:17.998Z</time></trkpt><trkpt lat="49.17974529589538" lon="2.470390769961382"><ele>68.0</ele><time>2026-04-01T13:08:18.998Z</time></trkpt><trkpt lat="49.17986486783156" lon="2.470360184931896"><ele>68.0</ele><time>2026-04-01T13:08:20.998Z</time></trkpt><trkpt lat="49.17998529501512" lon="2.47033816211175"><ele>68.0</ele><time>2026-04-01T13:08:22.998Z</time></trkpt><trkpt lat="49.18004970795451" lon="2.47033410110776"><ele>68.0</ele><time>2026-04-01T13:08:23.997Z</time></trkpt><trkpt lat="49.180116458967355" lon="2.470328186398505"><ele>67.66666666666667</ele><time>2026-04-01T13:08:24.997Z</time></trkpt><trkpt lat="49.18024503088882" lon="2.4703131390915627"><ele>67.33333333333334</ele><time>2026-04-01T13:08:26.997Z</time></trkpt><trkpt lat="49.18030876399558" lon="2.4703046367155106"><ele>67.0</ele><time>2026-04-01T13:08:27.997Z</time></trkpt><trkpt lat="49.18037413710598" lon="2.470297102643124"><ele>66.66666666666667</ele><time>2026-04-01T13:08:28.997Z</time></trkpt><trkpt lat="49.18044580642415" lon="2.4702759407709527"><ele>66.33333333333333</ele><time>2026-04-01T13:08:29.997Z</time></trkpt><trkpt lat="49.18051189066434" lon="2.4702643551392467"><ele>66.0</ele><time>2026-04-01T13:08:30.997Z</time></trkpt><trkpt lat="49.18057658940674" lon="2.4702602810423238"><ele>66.0</ele><time>2026-04-01T13:08:31.997Z</time></trkpt><trkpt lat="49.18064321116924" lon="2.4702543319474692"><ele>66.0</ele><time>2026-04-01T13:08:32.997Z</time></trkpt><trkpt lat="49.18070774033171" lon="2.470244003308084"><ele>66.0</ele><time>2026-04-01T13:08:33.997Z</time></trkpt><trkpt lat="49.18084581365625" lon="2.4702277555484025"><ele>66.0</ele><time>2026-04-01T13:08:35.997Z</time></trkpt><trkpt lat="49.180912501328784" lon="2.470225465353673"><ele>66.0</ele><time>2026-04-01T13:08:36.997Z</time></trkpt><trkpt lat="49.18098604083044" lon="2.470212327662371"><ele>66.0</ele><time>2026-04-01T13:08:37.997Z</time></trkpt><trkpt lat="49.18105542519386" lon="2.470194428224719"><ele>66.0</ele><time>2026-04-01T13:08:38.997Z</time></trkpt><trkpt lat="49.18112540375919" lon="2.4701878235366843"><ele>66.0</ele><time>2026-04-01T13:08:39.997Z</time></trkpt><trkpt lat="49.18119676111657" lon="2.470176177795411"><ele>66.0</ele><time>2026-04-01T13:08:40.997Z</time></trkpt><trkpt lat="49.18126475473667" lon="2.470165906655499"><ele>66.0</ele><time>2026-04-01T13:08:41.997Z</time></trkpt><trkpt lat="49.18137176268438" lon="2.470141058938671"><ele>66.0</ele><time>2026-04-01T13:08:43.997Z</time></trkpt><trkpt lat="49.18144681745755" lon="2.4701241410257255"><ele>66.0</ele><time>2026-04-01T13:08:44.997Z</time></trkpt><trkpt lat="49.18151566275158" lon="2.470111270534174"><ele>66.0</ele><time>2026-04-01T13:08:45.997Z</time></trkpt><trkpt lat="49.181580583303855" lon="2.4700985569370744"><ele>66.0</ele><time>2026-04-01T13:08:46.997Z</time></trkpt><trkpt lat="49.18164548638789" lon="2.47008521546641"><ele>66.0</ele><time>2026-04-01T13:08:47.997Z</time></trkpt><trkpt lat="49.18171164645875" lon="2.4700718067692202"><ele>66.0</ele><time>2026-04-01T13:08:48.997Z</time></trkpt><trkpt lat="49.18177535377703" lon="2.470057045196208"><ele>66.0</ele><time>2026-04-01T13:08:49.997Z</time></trkpt><trkpt lat="49.181894360280836" lon="2.4700230214600376"><ele>66.0</ele><time>2026-04-01T13:08:51.997Z</time></trkpt><trkpt lat="49.18195951221279" lon="2.4700198208076127"><ele>66.0</ele><time>2026-04-01T13:08:52.997Z</time></trkpt><trkpt lat="49.182026809344585" lon="2.4700005602752375"><ele>66.0</ele><time>2026-04-01T13:08:53.997Z</time></trkpt><trkpt lat="49.18214796935892" lon="2.469970935763616"><ele>66.0</ele><time>2026-04-01T13:08:55.997Z</time></trkpt><trkpt lat="49.182210803565134" lon="2.469954117125947"><ele>66.0</ele><time>2026-04-01T13:08:57Z</time></trkpt><trkpt lat="49.18234140627701" lon="2.4699243924383616"><ele>66.0</ele><time>2026-04-01T13:08:59Z</time></trkpt><trkpt lat="49.18241071251959" lon="2.4699115720614637"><ele>66.0</ele><time>2026-04-01T13:09:00Z</time></trkpt><trkpt lat="49.18252589962006" lon="2.469882929719825"><ele>65.75</ele><time>2026-04-01T13:09:02Z</time></trkpt><trkpt lat="49.18265614013223" lon="2.4698490059609215"><ele>65.5</ele><time>2026-04-01T13:09:04Z</time></trkpt><trkpt lat="49.18278016105463" lon="2.469821809563329"><ele>65.25</ele><time>2026-04-01T13:09:06Z</time></trkpt><trkpt lat="49.18290255958237" lon="2.469792338037151"><ele>65.0</ele><time>2026-04-01T13:09:08Z</time></trkpt><trkpt lat="49.1830222473721" lon="2.4697620362747847"><ele>65.0</ele><time>2026-04-01T13:09:10Z</time></trkpt><trkpt lat="49.18308495873834" lon="2.4697461889621772"><ele>65.0</ele><time>2026-04-01T13:09:11Z</time></trkpt><trkpt lat="49.1831508594978" lon="2.469739185881872"><ele>65.0</ele><time>2026-04-01T13:09:12Z</time></trkpt><trkpt lat="49.18321365223987" lon="2.4697196191567063"><ele>65.0</ele><time>2026-04-01T13:09:13Z</time></trkpt><trkpt lat="49.183333498057046" lon="2.4696925920501913"><ele>65.0</ele><time>2026-04-01T13:09:15Z</time></trkpt><trkpt lat="49.183457213626774" lon="2.4696627979326804"><ele>65.0</ele><time>2026-04-01T13:09:17Z</time></trkpt><trkpt lat="49.18357409851887" lon="2.4696341760500866"><ele>65.2</ele><time>2026-04-01T13:09:19Z</time></trkpt><trkpt lat="49.183699183991564" lon="2.4696043938711516"><ele>65.4</ele><time>2026-04-01T13:09:21Z</time></trkpt><trkpt lat="49.18382097414513" lon="2.46957569193039"><ele>65.6</ele><time>2026-04-01T13:09:22.999Z</time></trkpt><trkpt lat="49.18393786108487" lon="2.4695439326924538"><ele>65.8</ele><time>2026-04-01T13:09:24.999Z</time></trkpt><trkpt lat="49.184000444465696" lon="2.469531452970339"><ele>66.0</ele><time>2026-04-01T13:09:25.999Z</time></trkpt><trkpt lat="49.1841224201337" lon="2.4695046982635436"><ele>66.25</ele><time>2026-04-01T13:09:27.999Z</time></trkpt><trkpt lat="49.18423986005673" lon="2.469478102044332"><ele>66.5</ele><time>2026-04-01T13:09:29.999Z</time></trkpt><trkpt lat="49.18435787079362" lon="2.4694496184177943"><ele>66.75</ele><time>2026-04-01T13:09:31.999Z</time></trkpt><trkpt lat="49.18446614211216" lon="2.4694166564387725"><ele>67.0</ele><time>2026-04-01T13:09:33.999Z</time></trkpt><trkpt lat="49.18457896667046" lon="2.4693982352424872"><ele>67.0</ele><time>2026-04-01T13:09:35.999Z</time></trkpt><trkpt lat="49.18468220758853" lon="2.4693713463065254"><ele>67.0</ele><time>2026-04-01T13:09:37.999Z</time></trkpt><trkpt lat="49.184788702432265" lon="2.4693438469189504"><ele>67.0</ele><time>2026-04-01T13:09:39.999Z</time></trkpt><trkpt lat="49.18489172627663" lon="2.4693072999251466"><ele>67.0</ele><time>2026-04-01T13:09:41.999Z</time></trkpt><trkpt lat="49.18499840386414" lon="2.469282668028504"><ele>67.0</ele><time>2026-04-01T13:09:43.999Z</time></trkpt><trkpt lat="49.185100236102706" lon="2.4692635315518903"><ele>66.6</ele><time>2026-04-01T13:09:45.999Z</time></trkpt><trkpt lat="49.18519924242615" lon="2.469239065480426"><ele>66.2</ele><time>2026-04-01T13:09:47.999Z</time></trkpt><trkpt lat="49.1853002048721" lon="2.4692117386793058"><ele>65.8</ele><time>2026-04-01T13:09:49.999Z</time></trkpt><trkpt lat="49.18539299257514" lon="2.469168456597351"><ele>65.4</ele><time>2026-04-01T13:09:51.999Z</time></trkpt><trkpt lat="49.18547863895031" lon="2.4691052687486525"><ele>65.0</ele><time>2026-04-01T13:09:53.999Z</time></trkpt><trkpt lat="49.18557663341898" lon="2.469099874742351"><ele>65.0</ele><time>2026-04-01T13:09:55.999Z</time></trkpt><trkpt lat="49.18567390348226" lon="2.4691205436838204"><ele>65.0</ele><time>2026-04-01T13:09:57.998Z</time></trkpt><trkpt lat="49.18578150147419" lon="2.4691062626432863"><ele>65.0</ele><time>2026-04-01T13:09:59.998Z</time></trkpt><trkpt lat="49.185882392049834" lon="2.4690769003149353"><ele>65.0</ele><time>2026-04-01T13:10:01.998Z</time></trkpt><trkpt lat="49.18599138037855" lon="2.4690603490840797"><ele>65.0</ele><time>2026-04-01T13:10:03.998Z</time></trkpt><trkpt lat="49.18609379400111" lon="2.469033698522895"><ele>65.0</ele><time>2026-04-01T13:10:05.998Z</time></trkpt><trkpt lat="49.186200944979994" lon="2.4690041126529048"><ele>65.0</ele><time>2026-04-01T13:10:07.998Z</time></trkpt><trkpt lat="49.186309549511016" lon="2.4689875622276443"><ele>65.0</ele><time>2026-04-01T13:10:09.998Z</time></trkpt><trkpt lat="49.18642218524486" lon="2.468971896290431"><ele>65.0</ele><time>2026-04-01T13:10:11.998Z</time></trkpt><trkpt lat="49.186531191059444" lon="2.4689402803447527"><ele>65.0</ele><time>2026-04-01T13:10:13.998Z</time></trkpt><trkpt lat="49.18664218017178" lon="2.468916334732526"><ele>65.0</ele><time>2026-04-01T13:10:15.998Z</time></trkpt><trkpt lat="49.18675030186233" lon="2.4688986706286786"><ele>65.0</ele><time>2026-04-01T13:10:17.998Z</time></trkpt><trkpt lat="49.18685544413192" lon="2.4688806615240497"><ele>65.0</ele><time>2026-04-01T13:10:19.998Z</time></trkpt><trkpt lat="49.18696780146619" lon="2.468846742633409"><ele>65.0</ele><time>2026-04-01T13:10:21.998Z</time></trkpt><trkpt lat="49.18707139469637" lon="2.4688070818945524"><ele>65.0</ele><time>2026-04-01T13:10:23.998Z</time></trkpt><trkpt lat="49.18718282340253" lon="2.4687916887049206"><ele>65.0</ele><time>2026-04-01T13:10:25.998Z</time></trkpt><trkpt lat="49.18728807249874" lon="2.468782719776427"><ele>65.0</ele><time>2026-04-01T13:10:27.998Z</time></trkpt><trkpt lat="49.187374452691266" lon="2.4688685985580756"><ele>65.0</ele><time>2026-04-01T13:10:29.998Z</time></trkpt><trkpt lat="49.187473424971536" lon="2.468849899372212"><ele>65.0</ele><time>2026-04-01T13:10:31.997Z</time></trkpt><trkpt lat="49.187491357445715" lon="2.468725373505006"><ele>65.0</ele><time>2026-04-01T13:10:32.997Z</time></trkpt><trkpt lat="49.18746698066917" lon="2.4685670163241844"><ele>64.0</ele><time>2026-04-01T13:10:34.997Z</time></trkpt><trkpt lat="49.18751298744324" lon="2.468437780514079"><ele>63.0</ele><time>2026-04-01T13:10:36.997Z</time></trkpt><trkpt lat="49.18756092393706" lon="2.4683604337035825"><ele>62.0</ele><time>2026-04-01T13:10:38.997Z</time></trkpt><trkpt lat="49.187571598444066" lon="2.4682558480058647"><ele>61.0</ele><time>2026-04-01T13:10:40.997Z</time></trkpt><trkpt lat="49.187603020691746" lon="2.468159667915546"><ele>60.00000000000001</ele><time>2026-04-01T13:10:42.997Z</time></trkpt><trkpt lat="49.1876434027829" lon="2.4680551141510096"><ele>59.0</ele><time>2026-04-01T13:10:44.997Z</time></trkpt><trkpt lat="49.18767639427715" lon="2.467953723971824"><ele>59.16666666666667</ele><time>2026-04-01T13:10:46.997Z</time></trkpt><trkpt lat="49.18772770291378" lon="2.4678815611700995"><ele>59.333333333333336</ele><time>2026-04-01T13:10:48.997Z</time></trkpt><trkpt lat="49.18779569447386" lon="2.4678677456840905"><ele>59.5</ele><time>2026-04-01T13:10:50.997Z</time></trkpt><trkpt lat="49.187807802565224" lon="2.467724967532352"><ele>59.66666666666667</ele><time>2026-04-01T13:10:52.997Z</time></trkpt><trkpt lat="49.18778736840503" lon="2.4676138941418113"><ele>59.833333333333336</ele><time>2026-04-01T13:10:54.997Z</time></trkpt><trkpt lat="49.187766135382105" lon="2.467498478376187"><ele>60.0</ele><time>2026-04-01T13:10:56.997Z</time></trkpt><trkpt lat="49.187746148678016" lon="2.4673898372059018"><ele>60.0</ele><time>2026-04-01T13:10:58.997Z</time></trkpt><trkpt lat="49.187713061365095" lon="2.4672722210283595"><ele>60.0</ele><time>2026-04-01T13:11:00.997Z</time></trkpt><trkpt lat="49.187687326951114" lon="2.467153187122231"><ele>60.0</ele><time>2026-04-01T13:11:03Z</time></trkpt><trkpt lat="49.18766424305841" lon="2.4670326618188962"><ele>60.0</ele><time>2026-04-01T13:11:05Z</time></trkpt><trkpt lat="49.1876574053924" lon="2.4669074577708874"><ele>60.0</ele><time>2026-04-01T13:11:07Z</time></trkpt><trkpt lat="49.18761923223967" lon="2.4667870174682243"><ele>60.0</ele><time>2026-04-01T13:11:09Z</time></trkpt><trkpt lat="49.18761385002614" lon="2.4666578536958816"><ele>60.0</ele><time>2026-04-01T13:11:11Z</time></trkpt><trkpt lat="49.18759131372456" lon="2.466528391213687"><ele>60.0</ele><time>2026-04-01T13:11:13Z</time></trkpt><trkpt lat="49.18756885821255" lon="2.4663993928350627"><ele>60.0</ele><time>2026-04-01T13:11:15Z</time></trkpt><trkpt lat="49.187532411574544" lon="2.4662815989265887"><ele>60.0</ele><time>2026-04-01T13:11:17Z</time></trkpt><trkpt lat="49.18752534107622" lon="2.4661494034340765"><ele>60.0</ele><time>2026-04-01T13:11:19Z</time></trkpt><trkpt lat="49.18748717599732" lon="2.466028611106936"><ele>60.0</ele><time>2026-04-01T13:11:21Z</time></trkpt><trkpt lat="49.18747909529797" lon="2.465898143187415"><ele>60.0</ele><time>2026-04-01T13:11:23Z</time></trkpt><trkpt lat="49.187454806311436" lon="2.4657696929566657"><ele>60.0</ele><time>2026-04-01T13:11:25Z</time></trkpt><trkpt lat="49.18741595967543" lon="2.46564085574928"><ele>60.0</ele><time>2026-04-01T13:11:26.999Z</time></trkpt><trkpt lat="49.18738446027906" lon="2.465513177284486"><ele>60.0</ele><time>2026-04-01T13:11:28.999Z</time></trkpt><trkpt lat="49.18736105104659" lon="2.465387792396415"><ele>60.0</ele><time>2026-04-01T13:11:30.999Z</time></trkpt><trkpt lat="49.187327217294204" lon="2.4652577695252686"><ele>60.0</ele><time>2026-04-01T13:11:32.999Z</time></trkpt><trkpt lat="49.187295572248274" lon="2.4651288781095637"><ele>60.2</ele><time>2026-04-01T13:11:34.999Z</time></trkpt><trkpt lat="49.187263270411115" lon="2.465000837437179"><ele>60.4</ele><time>2026-04-01T13:11:36.999Z</time></trkpt><trkpt lat="49.18722880692142" lon="2.464866388620892"><ele>60.599999999999994</ele><time>2026-04-01T13:11:38.999Z</time></trkpt><trkpt lat="49.187189320903904" lon="2.4647274995078843"><ele>60.8</ele><time>2026-04-01T13:11:40.999Z</time></trkpt><trkpt lat="49.187155518932215" lon="2.464592333712548"><ele>61.0</ele><time>2026-04-01T13:11:42.999Z</time></trkpt><trkpt lat="49.18711774838888" lon="2.464455955042379"><ele>61.0</ele><time>2026-04-01T13:11:44.999Z</time></trkpt><trkpt lat="49.18707559655" lon="2.4643240408962233"><ele>60.99999999999999</ele><time>2026-04-01T13:11:46.999Z</time></trkpt><trkpt lat="49.187040173540495" lon="2.464187638472096"><ele>60.99999999999999</ele><time>2026-04-01T13:11:48.999Z</time></trkpt><trkpt lat="49.18700583984516" lon="2.464045154323036"><ele>61.0</ele><time>2026-04-01T13:11:50.999Z</time></trkpt><trkpt lat="49.18699145873511" lon="2.4638932376351073"><ele>61.0</ele><time>2026-04-01T13:11:52.999Z</time></trkpt><trkpt lat="49.1869654523306" lon="2.463754655377277"><ele>60.83333333333333</ele><time>2026-04-01T13:11:54.999Z</time></trkpt><trkpt lat="49.18694897450171" lon="2.4636163000848272"><ele>60.666666666666664</ele><time>2026-04-01T13:11:56.999Z</time></trkpt><trkpt lat="49.18693221045891" lon="2.463475364518472"><ele>60.5</ele><time>2026-04-01T13:11:58.999Z</time></trkpt><trkpt lat="49.186915625336596" lon="2.4633344312430734"><ele>60.33333333333333</ele><time>2026-04-01T13:12:00.998Z</time></trkpt><trkpt lat="49.186900699325285" lon="2.4632075962285467"><ele>60.166666666666664</ele><time>2026-04-01T13:12:02.998Z</time></trkpt><trkpt lat="49.186883537658574" lon="2.463082369315111"><ele>60.0</ele><time>2026-04-01T13:12:04.998Z</time></trkpt><trkpt lat="49.18686222453473" lon="2.462949376804403"><ele>59.833333333333336</ele><time>2026-04-01T13:12:06.998Z</time></trkpt><trkpt lat="49.18680274177243" lon="2.4628288375666534"><ele>59.66666666666667</ele><time>2026-04-01T13:12:08.998Z</time></trkpt><trkpt lat="49.18678617956734" lon="2.462692390943913"><ele>59.5</ele><time>2026-04-01T13:12:10.998Z</time></trkpt><trkpt lat="49.18677185055065" lon="2.462557841865578"><ele>59.333333333333336</ele><time>2026-04-01T13:12:12.998Z</time></trkpt><trkpt lat="49.18674775957988" lon="2.4624336178143365"><ele>59.16666666666667</ele><time>2026-04-01T13:12:14.998Z</time></trkpt><trkpt lat="49.18673012898229" lon="2.462330858604724"><ele>59.0</ele><time>2026-04-01T13:12:16.998Z</time></trkpt><trkpt lat="49.18670984416642" lon="2.4622150947307073"><ele>58.833333333333336</ele><time>2026-04-01T13:12:18.998Z</time></trkpt><trkpt lat="49.186694246421304" lon="2.462096697430131"><ele>58.66666666666667</ele><time>2026-04-01T13:12:20.998Z</time></trkpt><trkpt lat="49.186671563338216" lon="2.461983440624597"><ele>58.5</ele><time>2026-04-01T13:12:22.998Z</time></trkpt><trkpt lat="49.18665464910098" lon="2.461865452119771"><ele>58.33333333333333</ele><time>2026-04-01T13:12:24.998Z</time></trkpt><trkpt lat="49.18664933807135" lon="2.461763988409725"><ele>58.166666666666664</ele><time>2026-04-01T13:12:26.998Z</time></trkpt><trkpt lat="49.18661807532955" lon="2.4616465512727466"><ele>58.0</ele><time>2026-04-01T13:12:29.998Z</time></trkpt><trkpt lat="49.186819818548855" lon="2.461854111621193"><ele>58.0</ele><time>2026-04-01T13:12:32.998Z</time></trkpt><trkpt lat="49.18679252853516" lon="2.4615159391951407"><ele>58.0</ele><time>2026-04-01T13:12:33.998Z</time></trkpt><trkpt lat="49.186830169782965" lon="2.4614296309610264"><ele>58.0</ele><time>2026-04-01T13:12:37.997Z</time></trkpt><trkpt lat="49.1868929847435" lon="2.461404520470933"><ele>58.0</ele><time>2026-04-01T13:12:40.997Z</time></trkpt><trkpt lat="49.18698215598759" lon="2.461474171821976"><ele>58.0</ele><time>2026-04-01T13:12:43.997Z</time></trkpt><trkpt lat="49.18708788916556" lon="2.461357220768734"><ele>58.0</ele><time>2026-04-01T13:12:45.997Z</time></trkpt><trkpt lat="49.18716860285433" lon="2.461408532153358"><ele>58.0</ele><time>2026-04-01T13:12:48.997Z</time></trkpt><trkpt lat="49.18723055287742" lon="2.4614479151145177"><ele>58.0</ele><time>2026-04-01T13:12:50.997Z</time></trkpt><trkpt lat="49.187310007735974" lon="2.4614985134178706"><ele>58.0</ele><time>2026-04-01T13:12:52.997Z</time></trkpt><trkpt lat="49.18739272856041" lon="2.461551305909088"><ele>58.166666666666664</ele><time>2026-04-01T13:12:54.997Z</time></trkpt><trkpt lat="49.18747750614196" lon="2.4616054470319284"><ele>58.33333333333333</ele><time>2026-04-01T13:12:56.997Z</time></trkpt><trkpt lat="49.187560092367455" lon="2.461658213903113"><ele>58.5</ele><time>2026-04-01T13:12:58.997Z</time></trkpt><trkpt lat="49.18763180454604" lon="2.4617040330401063"><ele>58.66666666666667</ele><time>2026-04-01T13:13:00.997Z</time></trkpt><trkpt lat="49.18771873524664" lon="2.4617595757310027"><ele>58.833333333333336</ele><time>2026-04-01T13:13:02.997Z</time></trkpt><trkpt lat="49.187802191449165" lon="2.461812898460108"><ele>59.0</ele><time>2026-04-01T13:13:04.997Z</time></trkpt><trkpt lat="49.187878740562724" lon="2.461861808039697"><ele>59.0</ele><time>2026-04-01T13:13:06.997Z</time></trkpt><trkpt lat="49.187967749570866" lon="2.4619188068154654"><ele>59.00000000000001</ele><time>2026-04-01T13:13:09Z</time></trkpt><trkpt lat="49.18806000659875" lon="2.4619791197023626"><ele>59.00000000000001</ele><time>2026-04-01T13:13:11Z</time></trkpt><trkpt lat="49.18814892911344" lon="2.462037252658178"><ele>59.0</ele><time>2026-04-01T13:13:13Z</time></trkpt><trkpt lat="49.18824406122855" lon="2.4620994451301597"><ele>59.0</ele><time>2026-04-01T13:13:15Z</time></trkpt><trkpt lat="49.188337680287496" lon="2.4621606484665746"><ele>58.6</ele><time>2026-04-01T13:13:17Z</time></trkpt><trkpt lat="49.18843131729842" lon="2.46222186351896"><ele>58.2</ele><time>2026-04-01T13:13:19Z</time></trkpt><trkpt lat="49.188530877774106" lon="2.462286951045211"><ele>57.800000000000004</ele><time>2026-04-01T13:13:21Z</time></trkpt><trkpt lat="49.1886214463164" lon="2.4623446881742685"><ele>57.400000000000006</ele><time>2026-04-01T13:13:23Z</time></trkpt><trkpt lat="49.18870527429501" lon="2.4623977609131034"><ele>57.0</ele><time>2026-04-01T13:13:25Z</time></trkpt><trkpt lat="49.1887885230145" lon="2.462450466912166"><ele>57.0</ele><time>2026-04-01T13:13:27Z</time></trkpt><trkpt lat="49.18887850913746" lon="2.4625073588595567"><ele>57.0</ele><time>2026-04-01T13:13:29Z</time></trkpt><trkpt lat="49.18896746924635" lon="2.462563372077403"><ele>57.0</ele><time>2026-04-01T13:13:31Z</time></trkpt><trkpt lat="49.18906661973898" lon="2.4626258016403653"><ele>57.0</ele><time>2026-04-01T13:13:32.999Z</time></trkpt><trkpt lat="49.18914738805615" lon="2.462676656956463"><ele>57.0</ele><time>2026-04-01T13:13:34.999Z</time></trkpt><trkpt lat="49.18923681195763" lon="2.4627329622185714"><ele>57.0</ele><time>2026-04-01T13:13:36.999Z</time></trkpt><trkpt lat="49.189322072933656" lon="2.4627866463270305"><ele>57.0</ele><time>2026-04-01T13:13:38.999Z</time></trkpt><trkpt lat="49.189409437700405" lon="2.4628430032719693"><ele>57.0</ele><time>2026-04-01T13:13:40.999Z</time></trkpt><trkpt lat="49.18948145253972" lon="2.4628894349419816"><ele>57.0</ele><time>2026-04-01T13:13:42.999Z</time></trkpt><trkpt lat="49.18954876760128" lon="2.462932836420712"><ele>57.0</ele><time>2026-04-01T13:13:44.999Z</time></trkpt><trkpt lat="49.18961701053362" lon="2.4629768361181825"><ele>57.0</ele><time>2026-04-01T13:13:46.999Z</time></trkpt><trkpt lat="49.189695906402534" lon="2.4630277043312545"><ele>57.0</ele><time>2026-04-01T13:13:48.999Z</time></trkpt><trkpt lat="49.18975556200551" lon="2.463066167370457"><ele>57.0</ele><time>2026-04-01T13:13:50.999Z</time></trkpt><trkpt lat="49.18981677323046" lon="2.46303619838326"><ele>57.0</ele><time>2026-04-01T13:13:53.999Z</time></trkpt><trkpt lat="49.1899088146965" lon="2.463095428132793"><ele>57.0</ele><time>2026-04-01T13:13:55.999Z</time></trkpt><trkpt lat="49.190002910253845" lon="2.463159116088023"><ele>57.0</ele><time>2026-04-01T13:13:57.999Z</time></trkpt><trkpt lat="49.190096474330936" lon="2.463221226888714"><ele>57.0</ele><time>2026-04-01T13:13:59.999Z</time></trkpt><trkpt lat="49.19019085083221" lon="2.4632774439821317"><ele>56.8</ele><time>2026-04-01T13:14:01.999Z</time></trkpt><trkpt lat="49.19028252846801" lon="2.4633337716944435"><ele>56.6</ele><time>2026-04-01T13:14:03.998Z</time></trkpt><trkpt lat="49.19037828591382" lon="2.463396339798121"><ele>56.39999999999999</ele><time>2026-04-01T13:14:05.998Z</time></trkpt><trkpt lat="49.19047441810172" lon="2.463454661908296"><ele>56.199999999999996</ele><time>2026-04-01T13:14:07.998Z</time></trkpt><trkpt lat="49.19056987698523" lon="2.463515768186013"><ele>56.0</ele><time>2026-04-01T13:14:09.998Z</time></trkpt><trkpt lat="49.190661458012706" lon="2.4635724493273705"><ele>55.8</ele><time>2026-04-01T13:14:11.998Z</time></trkpt><trkpt lat="49.1907544505771" lon="2.4636361175717507"><ele>55.599999999999994</ele><time>2026-04-01T13:14:13.998Z</time></trkpt><trkpt lat="49.19085155268824" lon="2.463694704198302"><ele>55.4</ele><time>2026-04-01T13:14:15.998Z</time></trkpt><trkpt lat="49.190950659183486" lon="2.4637568601920465"><ele>55.2</ele><time>2026-04-01T13:14:17.998Z</time></trkpt><trkpt lat="49.1910524227689" lon="2.463815582252418"><ele>55.0</ele><time>2026-04-01T13:14:19.998Z</time></trkpt><trkpt lat="49.19114724799769" lon="2.463881128728298"><ele>55.4</ele><time>2026-04-01T13:14:21.998Z</time></trkpt><trkpt lat="49.191247589630066" lon="2.4639391981237053"><ele>55.8</ele><time>2026-04-01T13:14:23.998Z</time></trkpt><trkpt lat="49.19134754341324" lon="2.463997179443125"><ele>56.2</ele><time>2026-04-01T13:14:25.998Z</time></trkpt><trkpt lat="49.19144685451488" lon="2.464059342278222"><ele>56.6</ele><time>2026-04-01T13:14:27.998Z</time></trkpt><trkpt lat="49.191551073551224" lon="2.464122393974382"><ele>57.0</ele><time>2026-04-01T13:14:29.998Z</time></trkpt><trkpt lat="49.19164707985276" lon="2.4641860478914577"><ele>57.0</ele><time>2026-04-01T13:14:31.998Z</time></trkpt><trkpt lat="49.19175566645433" lon="2.464255875168818"><ele>57.0</ele><time>2026-04-01T13:14:33.998Z</time></trkpt><trkpt lat="49.19186285549935" lon="2.464324665889226"><ele>57.0</ele><time>2026-04-01T13:14:35.998Z</time></trkpt><trkpt lat="49.19197130186997" lon="2.464389359129378"><ele>57.0</ele><time>2026-04-01T13:14:37.997Z</time></trkpt><trkpt lat="49.19207137069906" lon="2.464456717242853"><ele>57.0</ele><time>2026-04-01T13:14:39.997Z</time></trkpt><trkpt lat="49.192173149970884" lon="2.464521446917621"><ele>57.0</ele><time>2026-04-01T13:14:41.997Z</time></trkpt><trkpt lat="49.1922809572967" lon="2.4645641490529235"><ele>57.0</ele><time>2026-04-01T13:14:43.997Z</time></trkpt><trkpt lat="49.19237847004873" lon="2.4646111644040074"><ele>57.0</ele><time>2026-04-01T13:14:45.997Z</time></trkpt><trkpt lat="49.19248475148196" lon="2.4646817246801307"><ele>57.0</ele><time>2026-04-01T13:14:47.997Z</time></trkpt><trkpt lat="49.1925889283574" lon="2.464752950882575"><ele>56.8</ele><time>2026-04-01T13:14:49.997Z</time></trkpt><trkpt lat="49.19269720463271" lon="2.4648173349541573"><ele>56.6</ele><time>2026-04-01T13:14:51.997Z</time></trkpt><trkpt lat="49.19280523591696" lon="2.4648823219166647"><ele>56.39999999999999</ele><time>2026-04-01T13:14:53.997Z</time></trkpt><trkpt lat="49.192907645847264" lon="2.464947421653516"><ele>56.199999999999996</ele><time>2026-04-01T13:14:55.997Z</time></trkpt><trkpt lat="49.193002846854036" lon="2.4650056386677623"><ele>56.0</ele><time>2026-04-01T13:14:57.997Z</time></trkpt><trkpt lat="49.19306108762791" lon="2.465052532357102"><ele>56.0</ele><time>2026-04-01T13:14:59.997Z</time></trkpt><trkpt lat="49.19312961122816" lon="2.465129310698605"><ele>55.99999999999999</ele><time>2026-04-01T13:15:01.997Z</time></trkpt><trkpt lat="49.19322529713782" lon="2.4651991637216955"><ele>55.99999999999999</ele><time>2026-04-01T13:15:03.997Z</time></trkpt><trkpt lat="49.19332183511576" lon="2.4652558114001777"><ele>56.0</ele><time>2026-04-01T13:15:05.997Z</time></trkpt><trkpt lat="49.19343112473742" lon="2.4653188992099246"><ele>56.0</ele><time>2026-04-01T13:15:07.997Z</time></trkpt><trkpt lat="49.19349560997037" lon="2.465352856961362"><ele>55.8</ele><time>2026-04-01T13:15:08.997Z</time></trkpt><trkpt lat="49.193594225116385" lon="2.46541136628663"><ele>55.599999999999994</ele><time>2026-04-01T13:15:10.996Z</time></trkpt><trkpt lat="49.19365257492111" lon="2.4654483856790086"><ele>55.4</ele><time>2026-04-01T13:15:11.996Z</time></trkpt><trkpt lat="49.19376433037316" lon="2.4655190184761886"><ele>55.2</ele><time>2026-04-01T13:15:13.996Z</time></trkpt><trkpt lat="49.19382493382929" lon="2.4655573216800186"><ele>55.0</ele><time>2026-04-01T13:15:15Z</time></trkpt><trkpt lat="49.19392615406906" lon="2.4656218246859885"><ele>54.6</ele><time>2026-04-01T13:15:17Z</time></trkpt><trkpt lat="49.194027878373284" lon="2.465687929281181"><ele>54.2</ele><time>2026-04-01T13:15:19Z</time></trkpt><trkpt lat="49.19412152795809" lon="2.4657465090547475"><ele>53.8</ele><time>2026-04-01T13:15:21Z</time></trkpt><trkpt lat="49.19420533110559" lon="2.465793080327415"><ele>53.4</ele><time>2026-04-01T13:15:23Z</time></trkpt><trkpt lat="49.19423715545637" lon="2.4659135498347124"><ele>53.0</ele><time>2026-04-01T13:15:25Z</time></trkpt><trkpt lat="49.19418739301797" lon="2.4660035125833097"><ele>53.00000000000001</ele><time>2026-04-01T13:15:26Z</time></trkpt><trkpt lat="49.19423651552304" lon="2.4660669977580225"><ele>53.0</ele><time>2026-04-01T13:15:28Z</time></trkpt><trkpt lat="49.19420865157446" lon="2.4661889860274075"><ele>53.0</ele><time>2026-04-01T13:15:33Z</time></trkpt><trkpt lat="49.19420111375483" lon="2.466297013254658"><ele>53.0</ele><time>2026-04-01T13:15:34.999Z</time></trkpt><trkpt lat="49.19420146779164" lon="2.4664209876709093"><ele>53.00000000000001</ele><time>2026-04-01T13:15:36.999Z</time></trkpt><trkpt lat="49.194206363401385" lon="2.4665527908908293"><ele>53.0</ele><time>2026-04-01T13:15:38.999Z</time></trkpt><trkpt lat="49.194212197112094" lon="2.4666850028604927"><ele>53.16666666666667</ele><time>2026-04-01T13:15:40.999Z</time></trkpt><trkpt lat="49.19421688740569" lon="2.4668228454164063"><ele>53.333333333333336</ele><time>2026-04-01T13:15:42.999Z</time></trkpt><trkpt lat="49.19421877330487" lon="2.466958781507109"><ele>53.5</ele><time>2026-04-01T13:15:44.999Z</time></trkpt><trkpt lat="49.19421927644013" lon="2.4670991570441694"><ele>53.66666666666667</ele><time>2026-04-01T13:15:46.999Z</time></trkpt><trkpt lat="49.19422421726108" lon="2.4672359947637865"><ele>53.833333333333336</ele><time>2026-04-01T13:15:48.999Z</time></trkpt><trkpt lat="49.1942281759069" lon="2.467369925449246"><ele>54.0</ele><time>2026-04-01T13:15:50.999Z</time></trkpt><trkpt lat="49.19423241789692" lon="2.467512143985085"><ele>54.6</ele><time>2026-04-01T13:15:52.999Z</time></trkpt><trkpt lat="49.194240850026645" lon="2.467651657260666"><ele>55.2</ele><time>2026-04-01T13:15:54.999Z</time></trkpt><trkpt lat="49.19424379597923" lon="2.4677944161576053"><ele>55.800000000000004</ele><time>2026-04-01T13:15:56.999Z</time></trkpt><trkpt lat="49.19424580017266" lon="2.4679343762147985"><ele>56.400000000000006</ele><time>2026-04-01T13:15:58.999Z</time></trkpt><trkpt lat="49.1942535281132" lon="2.468077801521107"><ele>57.0</ele><time>2026-04-01T13:16:00.999Z</time></trkpt><trkpt lat="49.19425655583463" lon="2.4682217973650458"><ele>57.0</ele><time>2026-04-01T13:16:02.999Z</time></trkpt><trkpt lat="49.194262600792506" lon="2.468372770485166"><ele>57.0</ele><time>2026-04-01T13:16:04.999Z</time></trkpt><trkpt lat="49.19426766139173" lon="2.4685257907243803"><ele>57.0</ele><time>2026-04-01T13:16:06.998Z</time></trkpt><trkpt lat="49.19427234955918" lon="2.468685427737345"><ele>57.0</ele><time>2026-04-01T13:16:08.998Z</time></trkpt><trkpt lat="49.19427880798678" lon="2.468839920460988"><ele>57.0</ele><time>2026-04-01T13:16:10.998Z</time></trkpt><trkpt lat="49.194287126381184" lon="2.46899215598271"><ele>56.8</ele><time>2026-04-01T13:16:12.998Z</time></trkpt><trkpt lat="49.19429456547857" lon="2.469151038140008"><ele>56.6</ele><time>2026-04-01T13:16:14.998Z</time></trkpt><trkpt lat="49.19430207989911" lon="2.4693066248509035"><ele>56.39999999999999</ele><time>2026-04-01T13:16:16.998Z</time></trkpt><trkpt lat="49.19429316296411" lon="2.469467755558878"><ele>56.199999999999996</ele><time>2026-04-01T13:16:18.998Z</time></trkpt><trkpt lat="49.194297427349795" lon="2.469630793765157"><ele>56.0</ele><time>2026-04-01T13:16:20.998Z</time></trkpt><trkpt lat="49.19430097386422" lon="2.4697652120317066"><ele>56.00000000000001</ele><time>2026-04-01T13:16:22.998Z</time></trkpt><trkpt lat="49.19430380681055" lon="2.4698725850087015"><ele>56.0</ele><time>2026-04-01T13:16:24.998Z</time></trkpt><trkpt lat="49.19430703197168" lon="2.4699948234492726"><ele>56.0</ele><time>2026-04-01T13:16:26.998Z</time></trkpt><trkpt lat="49.1943110771078" lon="2.4701305951474493"><ele>56.0</ele><time>2026-04-01T13:16:28.998Z</time></trkpt><trkpt lat="49.19431535453345" lon="2.4702772971953832"><ele>56.00000000000001</ele><time>2026-04-01T13:16:30.998Z</time></trkpt><trkpt lat="49.19431959991147" lon="2.4704229000911853"><ele>56.0</ele><time>2026-04-01T13:16:32.998Z</time></trkpt><trkpt lat="49.194323819161696" lon="2.4705676069019114"><ele>56.0</ele><time>2026-04-01T13:16:34.998Z</time></trkpt><trkpt lat="49.19432790654734" lon="2.4707077911503674"><ele>55.99999999999999</ele><time>2026-04-01T13:16:36.998Z</time></trkpt><trkpt lat="49.194332844342476" lon="2.4708472225993536"><ele>55.99999999999999</ele><time>2026-04-01T13:16:38.998Z</time></trkpt><trkpt lat="49.194337764217295" lon="2.4709848853775576"><ele>56.0</ele><time>2026-04-01T13:16:40.997Z</time></trkpt><trkpt lat="49.19434357477847" lon="2.471106861246668"><ele>56.0</ele><time>2026-04-01T13:16:42.997Z</time></trkpt><trkpt lat="49.19444008238879" lon="2.4711472540003006"><ele>56.0</ele><time>2026-04-01T13:16:44.997Z</time></trkpt><trkpt lat="49.194524080347804" lon="2.4711446750585937"><ele>55.99999999999999</ele><time>2026-04-01T13:16:46.997Z</time></trkpt><trkpt lat="49.19461182882696" lon="2.4711552795349254"><ele>55.99999999999999</ele><time>2026-04-01T13:16:48.997Z</time></trkpt><trkpt lat="49.19469775707478" lon="2.4711587991177697"><ele>56.0</ele><time>2026-04-01T13:16:50.997Z</time></trkpt><trkpt lat="49.19480287851878" lon="2.4711704545954403"><ele>56.0</ele><time>2026-04-01T13:16:52.997Z</time></trkpt><trkpt lat="49.194898782673604" lon="2.471198981329459"><ele>55.4</ele><time>2026-04-01T13:16:54.997Z</time></trkpt><trkpt lat="49.19501014606205" lon="2.471191783412491"><ele>54.8</ele><time>2026-04-01T13:16:56.997Z</time></trkpt><trkpt lat="49.19511856877439" lon="2.4712149723997636"><ele>54.199999999999996</ele><time>2026-04-01T13:16:58.997Z</time></trkpt><trkpt lat="49.195239396321114" lon="2.4712246648793137"><ele>53.599999999999994</ele><time>2026-04-01T13:17:00.997Z</time></trkpt><trkpt lat="49.19530196439899" lon="2.471255153319134"><ele>53.0</ele><time>2026-04-01T13:17:01.997Z</time></trkpt><trkpt lat="49.195365449227715" lon="2.471257749803838"><ele>53.0</ele><time>2026-04-01T13:17:02.997Z</time></trkpt><trkpt lat="49.19547713187024" lon="2.471272061677021"><ele>53.0</ele><time>2026-04-01T13:17:04.997Z</time></trkpt><trkpt lat="49.19556041572583" lon="2.4712667991117496"><ele>53.0</ele><time>2026-04-01T13:17:06.997Z</time></trkpt><trkpt lat="49.19561385183876" lon="2.4710980548784773"><ele>53.0</ele><time>2026-04-01T13:17:09.997Z</time></trkpt><trkpt lat="49.195622960875376" lon="2.4709570270207126"><ele>53.0</ele><time>2026-04-01T13:17:11.997Z</time></trkpt><trkpt lat="49.19561842445663" lon="2.470801147958415"><ele>53.0</ele><time>2026-04-01T13:17:13.996Z</time></trkpt><trkpt lat="49.195625650960494" lon="2.470646313781862"><ele>53.0</ele><time>2026-04-01T13:17:15.996Z</time></trkpt><trkpt lat="49.195635004974505" lon="2.470479594653605"><ele>53.0</ele><time>2026-04-01T13:17:17.996Z</time></trkpt><trkpt lat="49.19564579931161" lon="2.47030711663223"><ele>53.0</ele><time>2026-04-01T13:17:20Z</time></trkpt><trkpt lat="49.19565699852456" lon="2.4701312480292956"><ele>53.0</ele><time>2026-04-01T13:17:22Z</time></trkpt><trkpt lat="49.19567692341711" lon="2.4699640280414092"><ele>52.00000000000001</ele><time>2026-04-01T13:17:24Z</time></trkpt><trkpt lat="49.195671443414966" lon="2.469784042255056"><ele>51.0</ele><time>2026-04-01T13:17:26Z</time></trkpt><trkpt lat="49.19567702526498" lon="2.4696854227888387"><ele>50.0</ele><time>2026-04-01T13:17:27Z</time></trkpt><trkpt lat="49.195687716899066" lon="2.4695046597491506"><ele>49.0</ele><time>2026-04-01T13:17:29Z</time></trkpt><trkpt lat="49.1956870679806" lon="2.4693978137488566"><ele>48.0</ele><time>2026-04-01T13:17:30Z</time></trkpt><trkpt lat="49.195690739306556" lon="2.469297635169658"><ele>47.0</ele><time>2026-04-01T13:17:31Z</time></trkpt><trkpt lat="49.195697021575064" lon="2.4692001917589965"><ele>46.857142857142854</ele><time>2026-04-01T13:17:32Z</time></trkpt><trkpt lat="49.19569860283762" lon="2.469092625288977"><ele>46.71428571428571</ele><time>2026-04-01T13:17:33Z</time></trkpt><trkpt lat="49.19570467929559" lon="2.468983424727291"><ele>46.57142857142857</ele><time>2026-04-01T13:17:34Z</time></trkpt><trkpt lat="49.19570994690732" lon="2.468874223223674"><ele>46.42857142857143</ele><time>2026-04-01T13:17:35Z</time></trkpt><trkpt lat="49.19571327349544" lon="2.4687558686251676"><ele>46.285714285714285</ele><time>2026-04-01T13:17:36Z</time></trkpt><trkpt lat="49.19573086152642" lon="2.468644273248606"><ele>46.142857142857146</ele><time>2026-04-01T13:17:37Z</time></trkpt><trkpt lat="49.195732819176136" lon="2.4685387491983684"><ele>46.0</ele><time>2026-04-01T13:17:38Z</time></trkpt><trkpt lat="49.19576497462134" lon="2.4683968271537067"><ele>46.4</ele><time>2026-04-01T13:17:40Z</time></trkpt><trkpt lat="49.1957843266242" lon="2.4682407066594925"><ele>46.8</ele><time>2026-04-01T13:17:41.999Z</time></trkpt><trkpt lat="49.19574837628396" lon="2.468086136189928"><ele>47.199999999999996</ele><time>2026-04-01T13:17:43.999Z</time></trkpt><trkpt lat="49.195708029298544" lon="2.467947712332012"><ele>47.599999999999994</ele><time>2026-04-01T13:17:45.999Z</time></trkpt><trkpt lat="49.19566380920564" lon="2.4678370221464765"><ele>48.0</ele><time>2026-04-01T13:17:47.999Z</time></trkpt><trkpt lat="49.19562003502619" lon="2.467703084237538"><ele>45.0</ele><time>2026-04-01T13:17:49.999Z</time></trkpt><trkpt lat="49.195809918821894" lon="2.4673477214063104"><ele>42.0</ele><time>2026-04-01T13:17:55.999Z</time></trkpt><trkpt lat="49.195859803293914" lon="2.4672554016656143"><ele>39.0</ele><time>2026-04-01T13:17:57.999Z</time></trkpt><trkpt lat="49.19593525573028" lon="2.4672728523146112"><ele>39.0</ele><time>2026-04-01T13:17:59.999Z</time></trkpt><trkpt lat="49.19601847736695" lon="2.4672649446790644"><ele>39.0</ele><time>2026-04-01T13:18:01.999Z</time></trkpt><trkpt lat="49.19606997436533" lon="2.4675495753877392"><ele>39.0</ele><time>2026-04-01T13:18:02.999Z</time></trkpt><trkpt lat="49.1961564518908" lon="2.467544900932122"><ele>39.0</ele><time>2026-04-01T13:18:04.999Z</time></trkpt><trkpt lat="49.196247223585566" lon="2.4675387399673787"><ele>39.0</ele><time>2026-04-01T13:18:06.999Z</time></trkpt><trkpt lat="49.19633925665659" lon="2.467529408370172"><ele>39.0</ele><time>2026-04-01T13:18:08.999Z</time></trkpt><trkpt lat="49.19642607950936" lon="2.467520732609241"><ele>39.0</ele><time>2026-04-01T13:18:10.999Z</time></trkpt><trkpt lat="49.196516910528786" lon="2.4675116563782304"><ele>39.0</ele><time>2026-04-01T13:18:12.999Z</time></trkpt><trkpt lat="49.19660308614219" lon="2.467503045333889"><ele>39.0</ele><time>2026-04-01T13:18:14.999Z</time></trkpt><trkpt lat="49.196628973273214" lon="2.4671402178477666"><ele>39.0</ele><time>2026-04-01T13:18:15.998Z</time></trkpt><trkpt lat="49.196708074972754" lon="2.4671183583360836"><ele>39.0</ele><time>2026-04-01T13:18:17.998Z</time></trkpt><trkpt lat="49.196778268779966" lon="2.467110612845058"><ele>39.0</ele><time>2026-04-01T13:18:19.998Z</time></trkpt><trkpt lat="49.196852550205875" lon="2.467071284583296"><ele>39.0</ele><time>2026-04-01T13:18:21.998Z</time></trkpt><trkpt lat="49.1969421407749" lon="2.467035275798233"><ele>39.0</ele><time>2026-04-01T13:18:23.998Z</time></trkpt><trkpt lat="49.19703039483643" lon="2.4670117570269565"><ele>39.0</ele><time>2026-04-01T13:18:25.998Z</time></trkpt><trkpt lat="49.1971260424072" lon="2.466996354988631"><ele>39.0</ele><time>2026-04-01T13:18:27.998Z</time></trkpt><trkpt lat="49.19721349937216" lon="2.466976990379787"><ele>39.0</ele><time>2026-04-01T13:18:29.998Z</time></trkpt><trkpt lat="49.19730330771127" lon="2.466947711046799"><ele>39.0</ele><time>2026-04-01T13:18:31.998Z</time></trkpt><trkpt lat="49.19740431196827" lon="2.466934614337541"><ele>39.0</ele><time>2026-04-01T13:18:33.998Z</time></trkpt><trkpt lat="49.19749323231104" lon="2.4669253980448684"><ele>39.0</ele><time>2026-04-01T13:18:35.998Z</time></trkpt><trkpt lat="49.19757948725436" lon="2.4669106326696"><ele>39.5</ele><time>2026-04-01T13:18:37.998Z</time></trkpt><trkpt lat="49.197664039441904" lon="2.46689155435142"><ele>40.0</ele><time>2026-04-01T13:18:39.998Z</time></trkpt><trkpt lat="49.19775053626507" lon="2.466861832752931"><ele>40.5</ele><time>2026-04-01T13:18:41.998Z</time></trkpt><trkpt lat="49.19783631387061" lon="2.466836414729943"><ele>41.0</ele><time>2026-04-01T13:18:43.998Z</time></trkpt><trkpt lat="49.19791816948065" lon="2.466819618284114"><ele>41.5</ele><time>2026-04-01T13:18:45.998Z</time></trkpt><trkpt lat="49.197998788837374" lon="2.4667970960158705"><ele>42.0</ele><time>2026-04-01T13:18:47.998Z</time></trkpt><trkpt lat="49.198081299372824" lon="2.46679061015779"><ele>42.0</ele><time>2026-04-01T13:18:49.997Z</time></trkpt><trkpt lat="49.19815521679206" lon="2.466782694755332"><ele>42.0</ele><time>2026-04-01T13:18:51.997Z</time></trkpt><trkpt lat="49.19821926755467" lon="2.466756466106456"><ele>42.0</ele><time>2026-04-01T13:18:53.997Z</time></trkpt><trkpt lat="49.198283713416664" lon="2.466741582057767"><ele>42.0</ele><time>2026-04-01T13:18:55.997Z</time></trkpt><trkpt lat="49.19836343266913" lon="2.4667970117957205"><ele>42.0</ele><time>2026-04-01T13:18:57.997Z</time></trkpt><trkpt lat="49.19844366177506" lon="2.466753518852249"><ele>42.0</ele><time>2026-04-01T13:19:01.997Z</time></trkpt><trkpt lat="49.198502766522445" lon="2.4666774222224803"><ele>42.166666666666664</ele><time>2026-04-01T13:19:03.997Z</time></trkpt><trkpt lat="49.19856840371738" lon="2.466700548561339"><ele>42.333333333333336</ele><time>2026-04-01T13:19:06.997Z</time></trkpt><trkpt lat="49.198652212858896" lon="2.4666838160983175"><ele>42.5</ele><time>2026-04-01T13:19:09.997Z</time></trkpt><trkpt lat="49.1987363713578" lon="2.466669516977311"><ele>42.66666666666667</ele><time>2026-04-01T13:19:12.997Z</time></trkpt><trkpt lat="49.19881131903155" lon="2.4666618823714646"><ele>42.833333333333336</ele><time>2026-04-01T13:19:15.997Z</time></trkpt><trkpt lat="49.198887911012186" lon="2.4666003349712216"><ele>43.0</ele><time>2026-04-01T13:19:18.997Z</time></trkpt><trkpt lat="49.19895809484652" lon="2.4666421797746922"><ele>45.333333333333336</ele><time>2026-04-01T13:19:21.997Z</time></trkpt><trkpt lat="49.19902894516521" lon="2.466683690173"><ele>47.66666666666667</ele><time>2026-04-01T13:19:24.996Z</time></trkpt><trkpt lat="49.19909637782016" lon="2.4667201573728192"><ele>50.0</ele><time>2026-04-01T13:19:28Z</time></trkpt><trkpt lat="49.19916554052332" lon="2.4667717247800525"><ele>52.333333333333336</ele><time>2026-04-01T13:19:32Z</time></trkpt><trkpt lat="49.19922744571403" lon="2.466822775743419"><ele>54.666666666666664</ele><time>2026-04-01T13:19:35Z</time></trkpt><trkpt lat="49.1992978328805" lon="2.4668509351429404"><ele>57.0</ele><time>2026-04-01T13:19:38Z</time></trkpt><trkpt lat="49.19937304217106" lon="2.466918776192334"><ele>57.0</ele><time>2026-04-01T13:19:42Z</time></trkpt><trkpt lat="49.199431666392805" lon="2.4669628594117525"><ele>56.99999999999999</ele><time>2026-04-01T13:19:45Z</time></trkpt><trkpt lat="49.199500802764895" lon="2.4670189744958644"><ele>57.0</ele><time>2026-04-01T13:19:48.999Z</time></trkpt><trkpt lat="49.199563152824346" lon="2.467057777084532"><ele>57.0</ele><time>2026-04-01T13:19:51.999Z</time></trkpt><trkpt lat="49.19962207355124" lon="2.4671032051629442"><ele>56.99999999999999</ele><time>2026-04-01T13:19:54.999Z</time></trkpt><trkpt lat="49.19968416877979" lon="2.467148532900604"><ele>57.0</ele><time>2026-04-01T13:19:57.999Z</time></trkpt><trkpt lat="49.19974895876391" lon="2.4672150610661525"><ele>57.0</ele><time>2026-04-01T13:20:00.999Z</time></trkpt><trkpt lat="49.199817758639156" lon="2.467269773020515"><ele>57.0</ele><time>2026-04-01T13:20:03.999Z</time></trkpt><trkpt lat="49.19989050288611" lon="2.4673195104820937"><ele>57.0</ele><time>2026-04-01T13:20:06.999Z</time></trkpt><trkpt lat="49.19995517527234" lon="2.4673621580595055"><ele>57.0</ele><time>2026-04-01T13:20:09.999Z</time></trkpt><trkpt lat="49.20003316512063" lon="2.4674190366292676"><ele>57.0</ele><time>2026-04-01T13:20:12.999Z</time></trkpt><trkpt lat="49.20011174828202" lon="2.467473627533685"><ele>57.0</ele><time>2026-04-01T13:20:15.999Z</time></trkpt><trkpt lat="49.20016967729972" lon="2.4675160203787687"><ele>57.0</ele><time>2026-04-01T13:20:17.999Z</time></trkpt><trkpt lat="49.200226714704556" lon="2.467561846328286"><ele>57.0</ele><time>2026-04-01T13:20:19.998Z</time></trkpt><trkpt lat="49.20030919338343" lon="2.4676180638443452"><ele>57.0</ele><time>2026-04-01T13:20:22.998Z</time></trkpt><trkpt lat="49.20039241899892" lon="2.467678348032839"><ele>57.0</ele><time>2026-04-01T13:20:25.998Z</time></trkpt><trkpt lat="49.20045733057178" lon="2.467720112991649"><ele>57.0</ele><time>2026-04-01T13:20:27.998Z</time></trkpt><trkpt lat="49.20051870258107" lon="2.467756775756712"><ele>57.0</ele><time>2026-04-01T13:20:29.998Z</time></trkpt><trkpt lat="49.20057787191919" lon="2.4678060919631912"><ele>57.0</ele><time>2026-04-01T13:20:31.998Z</time></trkpt><trkpt lat="49.2006411799516" lon="2.467835394112644"><ele>57.57142857142857</ele><time>2026-04-01T13:20:33.998Z</time></trkpt><trkpt lat="49.200705377318926" lon="2.4678778814288105"><ele>58.14285714285714</ele><time>2026-04-01T13:20:35.998Z</time></trkpt><trkpt lat="49.20076859962063" lon="2.4679240530308633"><ele>58.71428571428571</ele><time>2026-04-01T13:20:37.998Z</time></trkpt><trkpt lat="49.20083264933898" lon="2.46796829019448"><ele>59.28571428571428</ele><time>2026-04-01T13:20:39.998Z</time></trkpt><trkpt lat="49.20090296543167" lon="2.468012682485592"><ele>59.857142857142854</ele><time>2026-04-01T13:20:41.998Z</time></trkpt><trkpt lat="49.200964887602275" lon="2.46805375771567"><ele>60.428571428571416</ele><time>2026-04-01T13:20:43.998Z</time></trkpt><trkpt lat="49.201027193941506" lon="2.4680888485528705"><ele>60.99999999999999</ele><time>2026-04-01T13:20:45.998Z</time></trkpt><trkpt lat="49.20109341876655" lon="2.468130599746153"><ele>61.0</ele><time>2026-04-01T13:20:47.998Z</time></trkpt><trkpt lat="49.20115766628541" lon="2.46817513738825"><ele>60.99999999999999</ele><time>2026-04-01T13:20:49.998Z</time></trkpt><trkpt lat="49.20121863191593" lon="2.4682180413940604"><ele>60.99999999999999</ele><time>2026-04-01T13:20:51.997Z</time></trkpt><trkpt lat="49.20133309652428" lon="2.4679638608090677"><ele>61.0</ele><time>2026-04-01T13:20:52.997Z</time></trkpt><trkpt lat="49.20141553017506" lon="2.468031155264464"><ele>61.0</ele><time>2026-04-01T13:20:54.997Z</time></trkpt><trkpt lat="49.20149366143676" lon="2.468128062115584"><ele>60.99999999999999</ele><time>2026-04-01T13:20:56.997Z</time></trkpt><trkpt lat="49.201543085203866" lon="2.468207877325419"><ele>61.0</ele><time>2026-04-01T13:20:58.997Z</time></trkpt><trkpt lat="49.20157503740505" lon="2.4682962408615063"><ele>61.0</ele><time>2026-04-01T13:21:00.997Z</time></trkpt><trkpt lat="49.20165551079013" lon="2.468398997802766"><ele>61.0</ele><time>2026-04-01T13:21:03.997Z</time></trkpt><trkpt lat="49.201709292265164" lon="2.4684575874698735"><ele>60.99999999999999</ele><time>2026-04-01T13:21:05.997Z</time></trkpt><trkpt lat="49.20176361708365" lon="2.468375046924953"><ele>61.0</ele><time>2026-04-01T13:21:08.997Z</time></trkpt><trkpt lat="49.20190560757634" lon="2.4683686706703964"><ele>60.99999999999999</ele><time>2026-04-01T13:21:10.997Z</time></trkpt><trkpt lat="49.201987235774" lon="2.4684187720967055"><ele>61.0</ele><time>2026-04-01T13:21:12.997Z</time></trkpt><trkpt lat="49.20205255436247" lon="2.4684637577404898"><ele>61.0</ele><time>2026-04-01T13:21:14.997Z</time></trkpt><trkpt lat="49.20212957517026" lon="2.4685189623597816"><ele>61.0</ele><time>2026-04-01T13:21:16.997Z</time></trkpt><trkpt lat="49.20220381179177" lon="2.4685721674204952"><ele>60.99999999999999</ele><time>2026-04-01T13:21:18.997Z</time></trkpt><trkpt lat="49.20226699389241" lon="2.4686174001060985"><ele>61.0</ele><time>2026-04-01T13:21:20.997Z</time></trkpt><trkpt lat="49.20233467797721" lon="2.4686658557229593"><ele>60.99999999999999</ele><time>2026-04-01T13:21:22.997Z</time></trkpt><trkpt lat="49.202422211792616" lon="2.468727750670553"><ele>61.0</ele><time>2026-04-01T13:21:25.996Z</time></trkpt><trkpt lat="49.20250860368045" lon="2.468787113693323"><ele>61.0</ele><time>2026-04-01T13:21:28.996Z</time></trkpt><trkpt lat="49.202572491605096" lon="2.4688310133622022"><ele>61.0</ele><time>2026-04-01T13:21:30.996Z</time></trkpt><trkpt lat="49.20264154426566" lon="2.468878462041814"><ele>60.99999999999999</ele><time>2026-04-01T13:21:33Z</time></trkpt><trkpt lat="49.20271908342804" lon="2.4689322441969526"><ele>61.0</ele><time>2026-04-01T13:21:35Z</time></trkpt><trkpt lat="49.2027885718809" lon="2.4689807142832665"><ele>60.99999999999999</ele><time>2026-04-01T13:21:37Z</time></trkpt><trkpt lat="49.202851152406765" lon="2.4690243654245285"><ele>61.0</ele><time>2026-04-01T13:21:39Z</time></trkpt><trkpt lat="49.20292695713289" lon="2.46907875894914"><ele>61.0</ele><time>2026-04-01T13:21:41Z</time></trkpt><trkpt lat="49.20298660469151" lon="2.469121186225965"><ele>61.0</ele><time>2026-04-01T13:21:43Z</time></trkpt><trkpt lat="49.203062408742205" lon="2.469173417021003"><ele>60.99999999999999</ele><time>2026-04-01T13:21:45Z</time></trkpt><trkpt lat="49.20314130866728" lon="2.469227629463701"><ele>61.0</ele><time>2026-04-01T13:21:48Z</time></trkpt><trkpt lat="49.203217233710156" lon="2.4692796802300396"><ele>61.0</ele><time>2026-04-01T13:21:55.999Z</time></trkpt><trkpt lat="49.20328371115422" lon="2.469347926615021"><ele>61.0</ele><time>2026-04-01T13:21:57.999Z</time></trkpt><trkpt lat="49.20335696524154" lon="2.4694256223654336"><ele>61.0</ele><time>2026-04-01T13:22:00.999Z</time></trkpt><trkpt lat="49.20316108418131" lon="2.469600506705108"><ele>61.0</ele><time>2026-04-01T13:22:02.999Z</time></trkpt><trkpt lat="49.20310174548523" lon="2.4697018640917383"><ele>61.33333333333333</ele><time>2026-04-01T13:22:05.999Z</time></trkpt><trkpt lat="49.20309461096324" lon="2.469808019286935"><ele>61.66666666666667</ele><time>2026-04-01T13:22:08.999Z</time></trkpt><trkpt lat="49.20336224360757" lon="2.4700683788639024"><ele>62.0</ele><time>2026-04-01T13:22:09.999Z</time></trkpt><trkpt lat="49.203406999203864" lon="2.470144366316129"><ele>62.66666666666667</ele><time>2026-04-01T13:22:11.999Z</time></trkpt><trkpt lat="49.20345687669636" lon="2.4702349898773575"><ele>63.333333333333336</ele><time>2026-04-01T13:22:15.999Z</time></trkpt><trkpt lat="49.20353442528182" lon="2.470194792055466"><ele>64.0</ele><time>2026-04-01T13:22:18.999Z</time></trkpt><trkpt lat="49.203567553020946" lon="2.4700964057579466"><ele>64.66666666666667</ele><time>2026-04-01T13:22:20.998Z</time></trkpt><trkpt lat="49.203644779643874" lon="2.4700413987362024"><ele>65.33333333333333</ele><time>2026-04-01T13:22:22.998Z</time></trkpt><trkpt lat="49.203722195683795" lon="2.4699961798744074"><ele>66.0</ele><time>2026-04-01T13:22:24.998Z</time></trkpt><trkpt lat="49.20378445642617" lon="2.4699687413183105"><ele>66.0</ele><time>2026-04-01T13:22:26.998Z</time></trkpt><trkpt lat="49.203857644243016" lon="2.4700180740699214"><ele>66.0</ele><time>2026-04-01T13:22:28.998Z</time></trkpt><trkpt lat="49.20393154776686" lon="2.4700790139796602"><ele>66.0</ele><time>2026-04-01T13:22:30.998Z</time></trkpt><trkpt lat="49.20401413139599" lon="2.4701418229226206"><ele>66.0</ele><time>2026-04-01T13:22:32.998Z</time></trkpt><trkpt lat="49.20408986000705" lon="2.470198623089357"><ele>66.0</ele><time>2026-04-01T13:22:34.998Z</time></trkpt><trkpt lat="49.20416865466552" lon="2.4702574186364945"><ele>66.0</ele><time>2026-04-01T13:22:36.998Z</time></trkpt><trkpt lat="49.20425213321271" lon="2.4703219910829657"><ele>66.6</ele><time>2026-04-01T13:22:38.998Z</time></trkpt><trkpt lat="49.20433218432231" lon="2.4703858817636943"><ele>67.19999999999999</ele><time>2026-04-01T13:22:40.998Z</time></trkpt><trkpt lat="49.2044229281927" lon="2.470437556678029"><ele>67.80000000000001</ele><time>2026-04-01T13:22:42.998Z</time></trkpt><trkpt lat="49.20449282068781" lon="2.4704818346988193"><ele>68.4</ele><time>2026-04-01T13:22:44.998Z</time></trkpt><trkpt lat="49.204574531252995" lon="2.470542260278886"><ele>69.0</ele><time>2026-04-01T13:22:46.998Z</time></trkpt><trkpt lat="49.204669254458686" lon="2.470593574231213"><ele>69.0</ele><time>2026-04-01T13:22:48.998Z</time></trkpt><trkpt lat="49.20475144254127" lon="2.4706527985495197"><ele>69.0</ele><time>2026-04-01T13:22:50.998Z</time></trkpt><trkpt lat="49.204838295718595" lon="2.4707116091600523"><ele>69.0</ele><time>2026-04-01T13:22:52.998Z</time></trkpt><trkpt lat="49.20491237246674" lon="2.4707720365251387"><ele>69.0</ele><time>2026-04-01T13:22:54.997Z</time></trkpt><trkpt lat="49.204986808516765" lon="2.470833737218715"><ele>69.0</ele><time>2026-04-01T13:22:56.997Z</time></trkpt><trkpt lat="49.20507256581235" lon="2.4708904458687813"><ele>69.0</ele><time>2026-04-01T13:22:58.997Z</time></trkpt><trkpt lat="49.20515879080447" lon="2.470955490718346"><ele>68.8</ele><time>2026-04-01T13:23:00.997Z</time></trkpt><trkpt lat="49.20524689920113" lon="2.4710162896603007"><ele>68.60000000000001</ele><time>2026-04-01T13:23:02.997Z</time></trkpt><trkpt lat="49.20533269596416" lon="2.4710766496039134"><ele>68.4</ele><time>2026-04-01T13:23:04.997Z</time></trkpt><trkpt lat="49.20541916624182" lon="2.4711282683348452"><ele>68.2</ele><time>2026-04-01T13:23:06.997Z</time></trkpt><trkpt lat="49.20550033945471" lon="2.4711983286374974"><ele>68.0</ele><time>2026-04-01T13:23:08.997Z</time></trkpt><trkpt lat="49.20557950821637" lon="2.4712524234748043"><ele>68.0</ele><time>2026-04-01T13:23:10.997Z</time></trkpt><trkpt lat="49.20565861202546" lon="2.4712997985767045"><ele>68.0</ele><time>2026-04-01T13:23:12.997Z</time></trkpt><trkpt lat="49.20574238806081" lon="2.4713644417480007"><ele>68.0</ele><time>2026-04-01T13:23:14.997Z</time></trkpt><trkpt lat="49.205833708682086" lon="2.4714392593382706"><ele>68.0</ele><time>2026-04-01T13:23:16.997Z</time></trkpt><trkpt lat="49.20591614626703" lon="2.4715055199301776"><ele>68.0</ele><time>2026-04-01T13:23:18.997Z</time></trkpt><trkpt lat="49.20600451636541" lon="2.471566618290986"><ele>68.0</ele><time>2026-04-01T13:23:20.997Z</time></trkpt><trkpt lat="49.20609360092515" lon="2.471629939652635"><ele>68.0</ele><time>2026-04-01T13:23:22.997Z</time></trkpt><trkpt lat="49.20617816298754" lon="2.4716929588767456"><ele>68.0</ele><time>2026-04-01T13:23:24.997Z</time></trkpt><trkpt lat="49.20626112171723" lon="2.4717608264549393"><ele>68.0</ele><time>2026-04-01T13:23:26.996Z</time></trkpt><trkpt lat="49.2063602597808" lon="2.4718186830033466"><ele>68.0</ele><time>2026-04-01T13:23:28.996Z</time></trkpt><trkpt lat="49.206462855267084" lon="2.4718795954885726"><ele>68.0</ele><time>2026-04-01T13:23:30.996Z</time></trkpt><trkpt lat="49.20654508602803" lon="2.4719301772361737"><ele>68.0</ele><time>2026-04-01T13:23:32.996Z</time></trkpt><trkpt lat="49.20663809852615" lon="2.471991210470971"><ele>68.0</ele><time>2026-04-01T13:23:34.996Z</time></trkpt><trkpt lat="49.20673029170909" lon="2.4720679532475813"><ele>68.0</ele><time>2026-04-01T13:23:37Z</time></trkpt><trkpt lat="49.20679171929051" lon="2.4721236595567513"><ele>68.0</ele><time>2026-04-01T13:23:39Z</time></trkpt><trkpt lat="49.20687328938605" lon="2.4721864072512574"><ele>68.0</ele><time>2026-04-01T13:23:41Z</time></trkpt><trkpt lat="49.20696275715754" lon="2.472238887966535"><ele>68.0</ele><time>2026-04-01T13:23:43Z</time></trkpt><trkpt lat="49.207028790200766" lon="2.472288097370415"><ele>68.0</ele><time>2026-04-01T13:23:45Z</time></trkpt><trkpt lat="49.20709002543221" lon="2.4723234852269056"><ele>68.0</ele><time>2026-04-01T13:23:47Z</time></trkpt><trkpt lat="49.20714940200019" lon="2.472266345211954"><ele>68.0</ele><time>2026-04-01T13:23:49Z</time></trkpt><trkpt lat="49.20716933874671" lon="2.4721218941991627"><ele>68.0</ele><time>2026-04-01T13:23:51Z</time></trkpt><trkpt lat="49.207216620455235" lon="2.472031030430618"><ele>68.0</ele><time>2026-04-01T13:23:53Z</time></trkpt><trkpt lat="49.20731273498487" lon="2.4720777214451535"><ele>68.0</ele><time>2026-04-01T13:23:54.999Z</time></trkpt><trkpt lat="49.207387876521665" lon="2.472152565499494"><ele>68.0</ele><time>2026-04-01T13:23:56.999Z</time></trkpt><trkpt lat="49.20748212277963" lon="2.4722080945800347"><ele>68.0</ele><time>2026-04-01T13:23:58.999Z</time></trkpt><trkpt lat="49.20756019171834" lon="2.4722567081070954"><ele>68.0</ele><time>2026-04-01T13:24:00.999Z</time></trkpt><trkpt lat="49.207656920597785" lon="2.4723127467590813"><ele>67.8</ele><time>2026-04-01T13:24:02.999Z</time></trkpt><trkpt lat="49.20775843901057" lon="2.4723792832598046"><ele>67.6</ele><time>2026-04-01T13:24:04.999Z</time></trkpt><trkpt lat="49.2078699779429" lon="2.4723974157890667"><ele>67.4</ele><time>2026-04-01T13:24:06.999Z</time></trkpt><trkpt lat="49.207982642408574" lon="2.472404701535746"><ele>67.2</ele><time>2026-04-01T13:24:08.999Z</time></trkpt><trkpt lat="49.208090366450485" lon="2.472425696783333"><ele>67.0</ele><time>2026-04-01T13:24:10.999Z</time></trkpt><trkpt lat="49.208200571777745" lon="2.472431398070888"><ele>66.8</ele><time>2026-04-01T13:24:12.999Z</time></trkpt><trkpt lat="49.208311416112046" lon="2.47244652386066"><ele>66.6</ele><time>2026-04-01T13:24:14.999Z</time></trkpt><trkpt lat="49.20842804745224" lon="2.472467197051951"><ele>66.39999999999999</ele><time>2026-04-01T13:24:16.999Z</time></trkpt><trkpt lat="49.208536312785526" lon="2.4724679346011316"><ele>66.2</ele><time>2026-04-01T13:24:18.999Z</time></trkpt><trkpt lat="49.20863976033951" lon="2.4724684268617514"><ele>66.0</ele><time>2026-04-01T13:24:20.999Z</time></trkpt><trkpt lat="49.208737119461006" lon="2.472455284530081"><ele>66.0</ele><time>2026-04-01T13:24:22.999Z</time></trkpt><trkpt lat="49.20881413869334" lon="2.472503436901497"><ele>66.0</ele><time>2026-04-01T13:24:24.999Z</time></trkpt><trkpt lat="49.20890571194574" lon="2.472524596779911"><ele>66.0</ele><time>2026-04-01T13:24:26.999Z</time></trkpt><trkpt lat="49.20899899048484" lon="2.4725306501008917"><ele>66.0</ele><time>2026-04-01T13:24:28.998Z</time></trkpt><trkpt lat="49.209080992434444" lon="2.4725301159927278"><ele>66.0</ele><time>2026-04-01T13:24:30.998Z</time></trkpt><trkpt lat="49.20915839855117" lon="2.472542221967231"><ele>66.0</ele><time>2026-04-01T13:24:32.998Z</time></trkpt><trkpt lat="49.20922822929554" lon="2.472543170173934"><ele>66.33333333333333</ele><time>2026-04-01T13:24:34.998Z</time></trkpt><trkpt lat="49.209313414664834" lon="2.4725555842104554"><ele>66.66666666666667</ele><time>2026-04-01T13:24:36.998Z</time></trkpt><trkpt lat="49.20937967088425" lon="2.4725577310387092"><ele>67.0</ele><time>2026-04-01T13:24:38.998Z</time></trkpt><trkpt lat="49.20944574977822" lon="2.472565909152713"><ele>67.33333333333334</ele><time>2026-04-01T13:24:40.998Z</time></trkpt><trkpt lat="49.20952823578279" lon="2.4725766183770985"><ele>67.66666666666667</ele><time>2026-04-01T13:24:42.998Z</time></trkpt><trkpt lat="49.20960586608528" lon="2.4725984078505245"><ele>68.0</ele><time>2026-04-01T13:24:44.998Z</time></trkpt><trkpt lat="49.20968213733803" lon="2.4725944267339637"><ele>68.0</ele><time>2026-04-01T13:24:46.998Z</time></trkpt><trkpt lat="49.209759374473904" lon="2.4725927978251576"><ele>68.0</ele><time>2026-04-01T13:24:48.998Z</time></trkpt><trkpt lat="49.20983567767916" lon="2.4725902722234556"><ele>68.0</ele><time>2026-04-01T13:24:50.998Z</time></trkpt><trkpt lat="49.20992656169517" lon="2.4725932153271004"><ele>68.0</ele><time>2026-04-01T13:24:52.998Z</time></trkpt><trkpt lat="49.21000188250173" lon="2.4726135753832597"><ele>68.0</ele><time>2026-04-01T13:24:54.998Z</time></trkpt><trkpt lat="49.21008102922529" lon="2.4726023304597686"><ele>68.0</ele><time>2026-04-01T13:24:56.998Z</time></trkpt><trkpt lat="49.21014899755555" lon="2.4725671777223375"><ele>67.83333333333334</ele><time>2026-04-01T13:24:58.998Z</time></trkpt><trkpt lat="49.210211188705486" lon="2.472529981004789"><ele>67.66666666666667</ele><time>2026-04-01T13:25:00.997Z</time></trkpt><trkpt lat="49.2102807390637" lon="2.472559838135747"><ele>67.5</ele><time>2026-04-01T13:25:02.997Z</time></trkpt><trkpt lat="49.21036047511392" lon="2.472616055957042"><ele>67.33333333333333</ele><time>2026-04-01T13:25:04.997Z</time></trkpt><trkpt lat="49.210444210030005" lon="2.4726099524859375"><ele>67.16666666666666</ele><time>2026-04-01T13:25:06.997Z</time></trkpt><trkpt lat="49.21052748053222" lon="2.472613885130661"><ele>67.0</ele><time>2026-04-01T13:25:08.997Z</time></trkpt><trkpt lat="49.210610573788784" lon="2.472620123191416"><ele>67.33333333333333</ele><time>2026-04-01T13:25:10.997Z</time></trkpt><trkpt lat="49.21070399321956" lon="2.4726317295992404"><ele>67.66666666666666</ele><time>2026-04-01T13:25:12.997Z</time></trkpt><trkpt lat="49.210789632587456" lon="2.472635696184368"><ele>68.0</ele><time>2026-04-01T13:25:14.997Z</time></trkpt><trkpt lat="49.210869907318425" lon="2.4726142828853304"><ele>68.33333333333333</ele><time>2026-04-01T13:25:16.997Z</time></trkpt><trkpt lat="49.21093222331968" lon="2.4725679719045957"><ele>68.66666666666667</ele><time>2026-04-01T13:25:18.997Z</time></trkpt><trkpt lat="49.21100355797822" lon="2.47257717041081"><ele>69.0</ele><time>2026-04-01T13:25:22.997Z</time></trkpt><trkpt lat="49.21107565615666" lon="2.4725971152519715"><ele>69.0</ele><time>2026-04-01T13:25:25.997Z</time></trkpt><trkpt lat="49.21114145018599" lon="2.4726014734433974"><ele>69.0</ele><time>2026-04-01T13:25:27.997Z</time></trkpt><trkpt lat="49.21120059006227" lon="2.472558084798441"><ele>69.0</ele><time>2026-04-01T13:25:29.997Z</time></trkpt><trkpt lat="49.21125953709427" lon="2.4725214910134428"><ele>69.0</ele><time>2026-04-01T13:25:31.997Z</time></trkpt><trkpt lat="49.21132955402436" lon="2.472526843125798"><ele>69.0</ele><time>2026-04-01T13:25:33.996Z</time></trkpt><trkpt lat="49.211405562730164" lon="2.472535201251961"><ele>69.0</ele><time>2026-04-01T13:25:35.996Z</time></trkpt><trkpt lat="49.21146882933335" lon="2.472504275833843"><ele>69.0</ele><time>2026-04-01T13:25:37.996Z</time></trkpt><trkpt lat="49.211541415639395" lon="2.4725052892391566"><ele>69.0</ele><time>2026-04-01T13:25:39.996Z</time></trkpt><trkpt lat="49.211609176581106" lon="2.4725009068632153"><ele>69.0</ele><time>2026-04-01T13:25:41.996Z</time></trkpt><trkpt lat="49.21169023192732" lon="2.4724718030577764"><ele>69.0</ele><time>2026-04-01T13:25:44Z</time></trkpt><trkpt lat="49.211762879376366" lon="2.472449303448243"><ele>69.0</ele><time>2026-04-01T13:25:46Z</time></trkpt><trkpt lat="49.21186150955024" lon="2.4724340366539086"><ele>69.0</ele><time>2026-04-01T13:25:49Z</time></trkpt><trkpt lat="49.21193307514708" lon="2.4724213064399283"><ele>69.0</ele><time>2026-04-01T13:25:50.999Z</time></trkpt><trkpt lat="49.21201858076026" lon="2.472404775420571"><ele>69.0</ele><time>2026-04-01T13:25:53Z</time></trkpt><trkpt lat="49.21209918302465" lon="2.4723815572833665"><ele>69.0</ele><time>2026-04-01T13:25:54.999Z</time></trkpt><trkpt lat="49.2121758062047" lon="2.4723589697080466"><ele>69.0</ele><time>2026-04-01T13:25:56.999Z</time></trkpt><trkpt lat="49.212249413209676" lon="2.4723332520690153"><ele>69.0</ele><time>2026-04-01T13:25:58.999Z</time></trkpt><trkpt lat="49.21233911011269" lon="2.472325224152284"><ele>69.0</ele><time>2026-04-01T13:26:00.999Z</time></trkpt><trkpt lat="49.212413045549695" lon="2.472305946443029"><ele>69.0</ele><time>2026-04-01T13:26:02.999Z</time></trkpt><trkpt lat="49.21250150213124" lon="2.472291927467072"><ele>69.0</ele><time>2026-04-01T13:26:04.999Z</time></trkpt><trkpt lat="49.212580913618204" lon="2.4722852348450632"><ele>69.0</ele><time>2026-04-01T13:26:06.999Z</time></trkpt><trkpt lat="49.212658362608614" lon="2.472267450395263"><ele>69.0</ele><time>2026-04-01T13:26:08.999Z</time></trkpt><trkpt lat="49.212730528641316" lon="2.4722558350200186"><ele>69.0</ele><time>2026-04-01T13:26:10.999Z</time></trkpt><trkpt lat="49.21282781426912" lon="2.4722423496719497"><ele>69.0</ele><time>2026-04-01T13:26:12.999Z</time></trkpt><trkpt lat="49.212917735174244" lon="2.4722288456945347"><ele>69.0</ele><time>2026-04-01T13:26:14.999Z</time></trkpt><trkpt lat="49.21299246851668" lon="2.4722212037531603"><ele>69.0</ele><time>2026-04-01T13:26:16.999Z</time></trkpt><trkpt lat="49.213070608777095" lon="2.4722197185296326"><ele>69.0</ele><time>2026-04-01T13:26:18.999Z</time></trkpt><trkpt lat="49.21316824062099" lon="2.4722057258947783"><ele>69.0</ele><time>2026-04-01T13:26:20.999Z</time></trkpt><trkpt lat="49.21325374126134" lon="2.472193377485927"><ele>69.0</ele><time>2026-04-01T13:26:22.999Z</time></trkpt><trkpt lat="49.213340301529556" lon="2.4721886472642165"><ele>69.0</ele><time>2026-04-01T13:26:24.999Z</time></trkpt><trkpt lat="49.213428598284395" lon="2.472178239988592"><ele>69.0</ele><time>2026-04-01T13:26:26.999Z</time></trkpt><trkpt lat="49.21351840703438" lon="2.472167786281097"><ele>69.16666666666667</ele><time>2026-04-01T13:26:28.999Z</time></trkpt><trkpt lat="49.21360501999787" lon="2.472158038413207"><ele>69.33333333333333</ele><time>2026-04-01T13:26:30.998Z</time></trkpt><trkpt lat="49.2136831996152" lon="2.472151370575152"><ele>69.5</ele><time>2026-04-01T13:26:32.998Z</time></trkpt><trkpt lat="49.2137744921284" lon="2.472135940025489"><ele>69.66666666666666</ele><time>2026-04-01T13:26:34.998Z</time></trkpt><trkpt lat="49.21386741194688" lon="2.4721282107263467"><ele>69.83333333333333</ele><time>2026-04-01T13:26:36.998Z</time></trkpt><trkpt lat="49.2139542501041" lon="2.4721227379892374"><ele>70.0</ele><time>2026-04-01T13:26:38.998Z</time></trkpt><trkpt lat="49.21403587183008" lon="2.4721132647374153"><ele>70.0</ele><time>2026-04-01T13:26:40.998Z</time></trkpt><trkpt lat="49.21410896984423" lon="2.4721219751783434"><ele>70.0</ele><time>2026-04-01T13:26:42.999Z</time></trkpt><trkpt lat="49.21420772589916" lon="2.4721169116336528"><ele>70.0</ele><time>2026-04-01T13:26:44.999Z</time></trkpt><trkpt lat="49.21429420720218" lon="2.472103821850503"><ele>70.0</ele><time>2026-04-01T13:26:46.999Z</time></trkpt><trkpt lat="49.21438397915108" lon="2.472098069314855"><ele>70.0</ele><time>2026-04-01T13:26:48.999Z</time></trkpt><trkpt lat="49.21446962221472" lon="2.472098005796934"><ele>70.0</ele><time>2026-04-01T13:26:50.999Z</time></trkpt><trkpt lat="49.21455966372215" lon="2.4720892191110324"><ele>70.0</ele><time>2026-04-01T13:26:52.999Z</time></trkpt><trkpt lat="49.21465429340762" lon="2.4720847968005435"><ele>70.0</ele><time>2026-04-01T13:26:54.999Z</time></trkpt><trkpt lat="49.2147448251127" lon="2.4720692462633402"><ele>70.0</ele><time>2026-04-01T13:26:56.999Z</time></trkpt><trkpt lat="49.21483556893546" lon="2.4720522866305497"><ele>70.0</ele><time>2026-04-01T13:26:58.999Z</time></trkpt><trkpt lat="49.21494705188689" lon="2.4720302824664055"><ele>70.0</ele><time>2026-04-01T13:27:00.999Z</time></trkpt><trkpt lat="49.21504114040154" lon="2.472013020189387"><ele>70.2</ele><time>2026-04-01T13:27:02.999Z</time></trkpt><trkpt lat="49.21513761230423" lon="2.4720011119035346"><ele>70.4</ele><time>2026-04-01T13:27:04.998Z</time></trkpt><trkpt lat="49.215241435465174" lon="2.4719918611397573"><ele>70.6</ele><time>2026-04-01T13:27:06.998Z</time></trkpt><trkpt lat="49.215339187917344" lon="2.471985397171131"><ele>70.8</ele><time>2026-04-01T13:27:08.998Z</time></trkpt><trkpt lat="49.21544475289834" lon="2.4719720539629972"><ele>71.0</ele><time>2026-04-01T13:27:10.998Z</time></trkpt><trkpt lat="49.21552819675436" lon="2.471970634693803"><ele>71.0</ele><time>2026-04-01T13:27:12.998Z</time></trkpt><trkpt lat="49.21561108229317" lon="2.471965061497257"><ele>71.0</ele><time>2026-04-01T13:27:14.998Z</time></trkpt><trkpt lat="49.21570376383552" lon="2.4719636063507773"><ele>71.0</ele><time>2026-04-01T13:27:16.998Z</time></trkpt><trkpt lat="49.21578876110436" lon="2.471955406160192"><ele>71.0</ele><time>2026-04-01T13:27:18.998Z</time></trkpt><trkpt lat="49.21587896734779" lon="2.4719439239114385"><ele>71.0</ele><time>2026-04-01T13:27:20.998Z</time></trkpt><trkpt lat="49.21596097068451" lon="2.471934478075912"><ele>71.0</ele><time>2026-04-01T13:27:22.998Z</time></trkpt><trkpt lat="49.21604614988213" lon="2.4719328087635795"><ele>70.8</ele><time>2026-04-01T13:27:24.998Z</time></trkpt><trkpt lat="49.21614188549362" lon="2.471923507503787"><ele>70.6</ele><time>2026-04-01T13:27:26.998Z</time></trkpt><trkpt lat="49.216220367614184" lon="2.471925143275209"><ele>70.4</ele><time>2026-04-01T13:27:28.998Z</time></trkpt><trkpt lat="49.21631220827387" lon="2.4719102876172077"><ele>70.2</ele><time>2026-04-01T13:27:30.998Z</time></trkpt><trkpt lat="49.216411867232566" lon="2.471906993923806"><ele>70.0</ele><time>2026-04-01T13:27:32.998Z</time></trkpt><trkpt lat="49.21651154544452" lon="2.471904904753039"><ele>69.66666666666666</ele><time>2026-04-01T13:27:34.998Z</time></trkpt><trkpt lat="49.21660495441605" lon="2.4719089464343025"><ele>69.33333333333333</ele><time>2026-04-01T13:27:36.997Z</time></trkpt><trkpt lat="49.2166932695845" lon="2.471904540034539"><ele>69.0</ele><time>2026-04-01T13:27:38.997Z</time></trkpt><trkpt lat="49.21678005872654" lon="2.4719050417612665"><ele>68.66666666666667</ele><time>2026-04-01T13:27:40.997Z</time></trkpt><trkpt lat="49.216864230890216" lon="2.4718909049528195"><ele>68.33333333333334</ele><time>2026-04-01T13:27:42.997Z</time></trkpt><trkpt lat="49.21694806255416" lon="2.4718692557574"><ele>68.0</ele><time>2026-04-01T13:27:44.997Z</time></trkpt><trkpt lat="49.217040623896686" lon="2.471853636785193"><ele>68.0</ele><time>2026-04-01T13:27:46.997Z</time></trkpt><trkpt lat="49.21712642562343" lon="2.4718401540744384"><ele>68.0</ele><time>2026-04-01T13:27:49Z</time></trkpt><trkpt lat="49.217219264670014" lon="2.471825221812377"><ele>68.0</ele><time>2026-04-01T13:27:51Z</time></trkpt><trkpt lat="49.21730921238901" lon="2.4718229322461482"><ele>68.0</ele><time>2026-04-01T13:27:53Z</time></trkpt><trkpt lat="49.21740614002744" lon="2.4718197755279157"><ele>68.0</ele><time>2026-04-01T13:27:55Z</time></trkpt><trkpt lat="49.217495059182625" lon="2.4718139866532955"><ele>68.0</ele><time>2026-04-01T13:27:57Z</time></trkpt><trkpt lat="49.21758119814659" lon="2.4718230356337645"><ele>68.0</ele><time>2026-04-01T13:27:59Z</time></trkpt><trkpt lat="49.21767167509639" lon="2.471814052264957"><ele>68.0</ele><time>2026-04-01T13:28:01Z</time></trkpt><trkpt lat="49.21775911233618" lon="2.4718301222930497"><ele>68.0</ele><time>2026-04-01T13:28:03Z</time></trkpt><trkpt lat="49.21784955774246" lon="2.471831226539179"><ele>68.0</ele><time>2026-04-01T13:28:05Z</time></trkpt><trkpt lat="49.217927529411554" lon="2.4718325448012726"><ele>68.0</ele><time>2026-04-01T13:28:07Z</time></trkpt><trkpt lat="49.21800552487115" lon="2.471859654377419"><ele>68.0</ele><time>2026-04-01T13:28:09Z</time></trkpt><trkpt lat="49.21808779394988" lon="2.4718991113787183"><ele>68.0</ele><time>2026-04-01T13:28:11Z</time></trkpt><trkpt lat="49.21816640652549" lon="2.471933427180508"><ele>68.0</ele><time>2026-04-01T13:28:13Z</time></trkpt><trkpt lat="49.21824850951507" lon="2.4719731386534383"><ele>68.0</ele><time>2026-04-01T13:28:15Z</time></trkpt><trkpt lat="49.21832910572582" lon="2.472014869143706"><ele>68.0</ele><time>2026-04-01T13:28:17Z</time></trkpt><trkpt lat="49.21840266648536" lon="2.472058653381188"><ele>68.0</ele><time>2026-04-01T13:28:19Z</time></trkpt><trkpt lat="49.218487806816725" lon="2.472099322905822"><ele>67.33333333333334</ele><time>2026-04-01T13:28:21Z</time></trkpt><trkpt lat="49.21856916668351" lon="2.472140986504075"><ele>66.66666666666667</ele><time>2026-04-01T13:28:23Z</time></trkpt><trkpt lat="49.21864611102735" lon="2.4721816332354076"><ele>66.0</ele><time>2026-04-01T13:28:25Z</time></trkpt><trkpt lat="49.21872302097383" lon="2.4722315606516747"><ele>65.33333333333333</ele><time>2026-04-01T13:28:27Z</time></trkpt><trkpt lat="49.2188004978473" lon="2.4722730361368295"><ele>64.66666666666666</ele><time>2026-04-01T13:28:29Z</time></trkpt><trkpt lat="49.218876840192856" lon="2.4723085606716726"><ele>64.0</ele><time>2026-04-01T13:28:31Z</time></trkpt><trkpt lat="49.218960003195704" lon="2.4723400517069036"><ele>64.33333333333333</ele><time>2026-04-01T13:28:32.999Z</time></trkpt><trkpt lat="49.219034464366" lon="2.4723718332299867"><ele>64.66666666666666</ele><time>2026-04-01T13:28:34.999Z</time></trkpt><trkpt lat="49.219116713301744" lon="2.4723753074201036"><ele>65.0</ele><time>2026-04-01T13:28:36.999Z</time></trkpt><trkpt lat="49.21919498081462" lon="2.47235963316163"><ele>65.33333333333333</ele><time>2026-04-01T13:28:38.999Z</time></trkpt><trkpt lat="49.219261124717846" lon="2.4723467706606552"><ele>65.66666666666667</ele><time>2026-04-01T13:28:40.999Z</time></trkpt><trkpt lat="49.219348164142865" lon="2.4723442186166644"><ele>66.0</ele><time>2026-04-01T13:28:42.999Z</time></trkpt><trkpt lat="49.21943634580461" lon="2.4723550964204466"><ele>66.0</ele><time>2026-04-01T13:28:44.999Z</time></trkpt><trkpt lat="49.219508021158035" lon="2.4723558411412885"><ele>66.0</ele><time>2026-04-01T13:28:46.999Z</time></trkpt><trkpt lat="49.21958429278036" lon="2.472347170992173"><ele>66.0</ele><time>2026-04-01T13:28:48.999Z</time></trkpt><trkpt lat="49.219677590873566" lon="2.4723378304940957"><ele>66.0</ele><time>2026-04-01T13:28:50.999Z</time></trkpt><trkpt lat="49.21975949158965" lon="2.4723269194262985"><ele>66.0</ele><time>2026-04-01T13:28:52.999Z</time></trkpt><trkpt lat="49.21983034217809" lon="2.472323869483563"><ele>66.0</ele><time>2026-04-01T13:28:54.999Z</time></trkpt><trkpt lat="49.21992348933172" lon="2.4723283363188124"><ele>66.5</ele><time>2026-04-01T13:28:56.999Z</time></trkpt><trkpt lat="49.220015567505804" lon="2.4723271079322013"><ele>67.0</ele><time>2026-04-01T13:28:58.999Z</time></trkpt><trkpt lat="49.22009752934077" lon="2.4723365067268177"><ele>67.5</ele><time>2026-04-01T13:29:00.999Z</time></trkpt><trkpt lat="49.22018355204005" lon="2.4723747908238827"><ele>68.0</ele><time>2026-04-01T13:29:02.999Z</time></trkpt><trkpt lat="49.22027119812672" lon="2.4723974131853064"><ele>68.5</ele><time>2026-04-01T13:29:04.999Z</time></trkpt><trkpt lat="49.22036522214937" lon="2.4724107883806883"><ele>69.0</ele><time>2026-04-01T13:29:06.998Z</time></trkpt><trkpt lat="49.22044911112666" lon="2.472431998624014"><ele>69.0</ele><time>2026-04-01T13:29:08.998Z</time></trkpt><trkpt lat="49.22052315165882" lon="2.472414396677918"><ele>69.0</ele><time>2026-04-01T13:29:10.998Z</time></trkpt><trkpt lat="49.22059839935086" lon="2.4724252345732727"><ele>69.0</ele><time>2026-04-01T13:29:12.998Z</time></trkpt><trkpt lat="49.22067513632546" lon="2.4724318759662576"><ele>69.0</ele><time>2026-04-01T13:29:14.998Z</time></trkpt><trkpt lat="49.22074937553987" lon="2.472469100987329"><ele>69.0</ele><time>2026-04-01T13:29:16.998Z</time></trkpt><trkpt lat="49.22083089504993" lon="2.4724805693047722"><ele>69.0</ele><time>2026-04-01T13:29:18.998Z</time></trkpt><trkpt lat="49.22090802675942" lon="2.4724751820569826"><ele>69.5</ele><time>2026-04-01T13:29:20.998Z</time></trkpt><trkpt lat="49.2209965098488" lon="2.4724852942088975"><ele>70.0</ele><time>2026-04-01T13:29:22.998Z</time></trkpt><trkpt lat="49.22107109466139" lon="2.4725017651361276"><ele>70.5</ele><time>2026-04-01T13:29:24.998Z</time></trkpt><trkpt lat="49.2211346130167" lon="2.472524965164877"><ele>71.0</ele><time>2026-04-01T13:29:26.998Z</time></trkpt><trkpt lat="49.221236450241676" lon="2.472543204553029"><ele>71.5</ele><time>2026-04-01T13:29:29.998Z</time></trkpt><trkpt lat="49.22130800720754" lon="2.47256640761552"><ele>72.0</ele><time>2026-04-01T13:29:31.998Z</time></trkpt><trkpt lat="49.22141030117657" lon="2.4725923480068577"><ele>72.00000000000001</ele><time>2026-04-01T13:29:34.998Z</time></trkpt><trkpt lat="49.22147457401107" lon="2.4726007659217206"><ele>72.0</ele><time>2026-04-01T13:29:36.998Z</time></trkpt><trkpt lat="49.22154164467634" lon="2.47259609656251"><ele>72.0</ele><time>2026-04-01T13:29:38.997Z</time></trkpt><trkpt lat="49.22162483865319" lon="2.47261040757342"><ele>72.0</ele><time>2026-04-01T13:29:41.997Z</time></trkpt><trkpt lat="49.22169327883427" lon="2.4726044508277933"><ele>72.0</ele><time>2026-04-01T13:29:44.997Z</time></trkpt><trkpt lat="49.22176237366221" lon="2.472574874658396"><ele>72.00000000000001</ele><time>2026-04-01T13:29:57Z</time></trkpt><trkpt lat="49.22182008828113" lon="2.4724656523997757"><ele>72.0</ele><time>2026-04-01T13:30:10Z</time></trkpt><trkpt lat="49.22183564372403" lon="2.4723408065113217"><ele>72.28571428571429</ele><time>2026-04-01T13:30:12Z</time></trkpt><trkpt lat="49.221818507403405" lon="2.472220388676354"><ele>72.57142857142857</ele><time>2026-04-01T13:30:15Z</time></trkpt><trkpt lat="49.22180840805356" lon="2.4721213234497887"><ele>72.85714285714286</ele><time>2026-04-01T13:30:17Z</time></trkpt><trkpt lat="49.22180895186429" lon="2.4720164169324157"><ele>73.14285714285714</ele><time>2026-04-01T13:30:19Z</time></trkpt><trkpt lat="49.22179419557035" lon="2.471899563718397"><ele>73.42857142857143</ele><time>2026-04-01T13:30:21Z</time></trkpt><trkpt lat="49.221786061668055" lon="2.4717876199399686"><ele>73.71428571428572</ele><time>2026-04-01T13:30:23Z</time></trkpt><trkpt lat="49.22177474254759" lon="2.4716833933319284"><ele>74.0</ele><time>2026-04-01T13:30:25Z</time></trkpt><trkpt lat="49.2217746934065" lon="2.471584752534414"><ele>74.0</ele><time>2026-04-01T13:30:27Z</time></trkpt><trkpt lat="49.22176151386119" lon="2.471443685231934"><ele>74.0</ele><time>2026-04-01T13:30:30Z</time></trkpt><trkpt lat="49.22175863572766" lon="2.4713471115466965"><ele>74.0</ele><time>2026-04-01T13:30:32Z</time></trkpt><trkpt lat="49.22175779581122" lon="2.4712473867034164"><ele>74.0</ele><time>2026-04-01T13:30:34Z</time></trkpt><trkpt lat="49.22174341551187" lon="2.4711429480555096"><ele>74.0</ele><time>2026-04-01T13:30:35.999Z</time></trkpt><trkpt lat="49.221736568324545" lon="2.471015025864101"><ele>74.0</ele><time>2026-04-01T13:30:37.999Z</time></trkpt><trkpt lat="49.22172669675555" lon="2.470879345363242"><ele>74.0</ele><time>2026-04-01T13:30:39.999Z</time></trkpt><trkpt lat="49.22171743958264" lon="2.4707504479751212"><ele>74.0</ele><time>2026-04-01T13:30:41.999Z</time></trkpt><trkpt lat="49.221711640288696" lon="2.4706179062412517"><ele>74.0</ele><time>2026-04-01T13:30:43.999Z</time></trkpt><trkpt lat="49.22170169392398" lon="2.470483138397506"><ele>74.0</ele><time>2026-04-01T13:30:45.999Z</time></trkpt><trkpt lat="49.22169698913995" lon="2.470348010276532"><ele>74.0</ele><time>2026-04-01T13:30:47.999Z</time></trkpt><trkpt lat="49.2216848166228" lon="2.4702067455178947"><ele>74.0</ele><time>2026-04-01T13:30:49.999Z</time></trkpt><trkpt lat="49.22167150475136" lon="2.470065541994282"><ele>74.0</ele><time>2026-04-01T13:30:51.999Z</time></trkpt><trkpt lat="49.22166311436681" lon="2.4699276594793242"><ele>74.0</ele><time>2026-04-01T13:30:53.999Z</time></trkpt><trkpt lat="49.221648868648536" lon="2.4697830349297787"><ele>74.0</ele><time>2026-04-01T13:30:55.999Z</time></trkpt><trkpt lat="49.22164492897883" lon="2.4696377300499277"><ele>74.0</ele><time>2026-04-01T13:30:57.999Z</time></trkpt><trkpt lat="49.22163813284395" lon="2.469492285344195"><ele>74.0</ele><time>2026-04-01T13:30:59.999Z</time></trkpt><trkpt lat="49.22162221851972" lon="2.4693539998244463"><ele>74.0</ele><time>2026-04-01T13:31:01.999Z</time></trkpt><trkpt lat="49.22161217913529" lon="2.4692063748283277"><ele>74.0</ele><time>2026-04-01T13:31:03.999Z</time></trkpt><trkpt lat="49.22159373953926" lon="2.4690640220543956"><ele>74.0</ele><time>2026-04-01T13:31:05.999Z</time></trkpt><trkpt lat="49.22156318059147" lon="2.468926718650466"><ele>74.0</ele><time>2026-04-01T13:31:07.999Z</time></trkpt><trkpt lat="49.221529897922146" lon="2.468794528791231"><ele>74.0</ele><time>2026-04-01T13:31:09.998Z</time></trkpt><trkpt lat="49.221489266054704" lon="2.468669364487963"><ele>73.8</ele><time>2026-04-01T13:31:11.998Z</time></trkpt><trkpt lat="49.22144484638134" lon="2.4685485846534805"><ele>73.60000000000001</ele><time>2026-04-01T13:31:13.998Z</time></trkpt><trkpt lat="49.22139333984058" lon="2.468438873842327"><ele>73.4</ele><time>2026-04-01T13:31:15.998Z</time></trkpt><trkpt lat="49.22133890334575" lon="2.4683548447238044"><ele>73.2</ele><time>2026-04-01T13:31:17.998Z</time></trkpt><trkpt lat="49.221355662193076" lon="2.468230525140724"><ele>73.0</ele><time>2026-04-01T13:31:24.998Z</time></trkpt><trkpt lat="49.22146159726761" lon="2.468033428156203"><ele>72.2</ele><time>2026-04-01T13:31:25.998Z</time></trkpt><trkpt lat="49.22144548449386" lon="2.467907257447107"><ele>71.4</ele><time>2026-04-01T13:31:27.998Z</time></trkpt><trkpt lat="49.221438443633865" lon="2.4677720088153983"><ele>70.60000000000001</ele><time>2026-04-01T13:31:29.998Z</time></trkpt><trkpt lat="49.221435193423424" lon="2.4676526654408124"><ele>69.8</ele><time>2026-04-01T13:31:31.998Z</time></trkpt><trkpt lat="49.22142861610124" lon="2.4675383672162976"><ele>69.0</ele><time>2026-04-01T13:31:33.998Z</time></trkpt><trkpt lat="49.221304280923576" lon="2.467354500706738"><ele>69.0</ele><time>2026-04-01T13:31:36.998Z</time></trkpt><trkpt lat="49.2213283278472" lon="2.467262428548897"><ele>69.0</ele><time>2026-04-01T13:31:39.998Z</time></trkpt><trkpt lat="49.22134651911081" lon="2.4671682880948915"><ele>69.0</ele><time>2026-04-01T13:31:42.997Z</time></trkpt><trkpt lat="49.22134949376531" lon="2.4670718723827294"><ele>69.0</ele><time>2026-04-01T13:31:44.997Z</time></trkpt><trkpt lat="49.22134080924184" lon="2.466941424781442"><ele>69.0</ele><time>2026-04-01T13:31:46.997Z</time></trkpt><trkpt lat="49.2212836763457" lon="2.466833184990286"><ele>69.0</ele><time>2026-04-01T13:31:48.997Z</time></trkpt><trkpt lat="49.221235537385596" lon="2.4667165047165462"><ele>69.2</ele><time>2026-04-01T13:31:50.997Z</time></trkpt><trkpt lat="49.22127114443122" lon="2.4665416835986913"><ele>69.4</ele><time>2026-04-01T13:31:52.997Z</time></trkpt><trkpt lat="49.22129272241047" lon="2.4664033508321817"><ele>69.6</ele><time>2026-04-01T13:31:54.997Z</time></trkpt><trkpt lat="49.221346813148614" lon="2.466282315511374"><ele>69.8</ele><time>2026-04-01T13:31:56.997Z</time></trkpt><trkpt lat="49.22140134686675" lon="2.466160259925918"><ele>70.0</ele><time>2026-04-01T13:31:58.997Z</time></trkpt><trkpt lat="49.221448186886185" lon="2.4660045103574624"><ele>70.2</ele><time>2026-04-01T13:32:01Z</time></trkpt><trkpt lat="49.22148286378831" lon="2.465855296745659"><ele>70.4</ele><time>2026-04-01T13:32:03Z</time></trkpt><trkpt lat="49.22151234301742" lon="2.4656962853302495"><ele>70.6</ele><time>2026-04-01T13:32:05Z</time></trkpt><trkpt lat="49.22154039378973" lon="2.4655364626015848"><ele>70.8</ele><time>2026-04-01T13:32:07Z</time></trkpt><trkpt lat="49.22155461165751" lon="2.4653645605100687"><ele>71.0</ele><time>2026-04-01T13:32:09Z</time></trkpt><trkpt lat="49.22155680348975" lon="2.4651947562553618"><ele>71.25</ele><time>2026-04-01T13:32:11Z</time></trkpt><trkpt lat="49.22155842679497" lon="2.4650197311954716"><ele>71.5</ele><time>2026-04-01T13:32:13Z</time></trkpt><trkpt lat="49.22156502723533" lon="2.4648457561311985"><ele>71.75</ele><time>2026-04-01T13:32:15Z</time></trkpt><trkpt lat="49.2215680608226" lon="2.4646704945363997"><ele>72.0</ele><time>2026-04-01T13:32:17Z</time></trkpt><trkpt lat="49.221570450264686" lon="2.4644988635821936"><ele>72.0</ele><time>2026-04-01T13:32:19Z</time></trkpt><trkpt lat="49.22157521717657" lon="2.4643268162445806"><ele>72.0</ele><time>2026-04-01T13:32:21Z</time></trkpt><trkpt lat="49.221574078099344" lon="2.464229240233528"><ele>72.0</ele><time>2026-04-01T13:32:22Z</time></trkpt><trkpt lat="49.221573045399836" lon="2.464068200835319"><ele>72.0</ele><time>2026-04-01T13:32:24Z</time></trkpt><trkpt lat="49.22157710557628" lon="2.463889362308503"><ele>72.0</ele><time>2026-04-01T13:32:26Z</time></trkpt><trkpt lat="49.221585840163" lon="2.463722594956757"><ele>71.8</ele><time>2026-04-01T13:32:28Z</time></trkpt><trkpt lat="49.22158809443123" lon="2.463555399066642"><ele>71.6</ele><time>2026-04-01T13:32:30Z</time></trkpt><trkpt lat="49.2215910835731" lon="2.463389899978569"><ele>71.39999999999999</ele><time>2026-04-01T13:32:32Z</time></trkpt><trkpt lat="49.22159035492434" lon="2.4632256308973113"><ele>71.2</ele><time>2026-04-01T13:32:34Z</time></trkpt><trkpt lat="49.221591285749994" lon="2.4630708433964577"><ele>71.0</ele><time>2026-04-01T13:32:36Z</time></trkpt><trkpt lat="49.22159105915982" lon="2.4629719487577173"><ele>70.66666666666667</ele><time>2026-04-01T13:32:37Z</time></trkpt><trkpt lat="49.221596332082534" lon="2.4628129003550407"><ele>70.33333333333334</ele><time>2026-04-01T13:32:39Z</time></trkpt><trkpt lat="49.22159570922781" lon="2.462704993496056"><ele>70.0</ele><time>2026-04-01T13:32:40Z</time></trkpt><trkpt lat="49.22159540789304" lon="2.462591487361366"><ele>69.66666666666667</ele><time>2026-04-01T13:32:41Z</time></trkpt><trkpt lat="49.221588106517736" lon="2.4624598333420415"><ele>69.33333333333333</ele><time>2026-04-01T13:32:43Z</time></trkpt><trkpt lat="49.22157102053437" lon="2.462287143069143"><ele>69.0</ele><time>2026-04-01T13:32:44.999Z</time></trkpt><trkpt lat="49.221559037863564" lon="2.4621226266802587"><ele>68.60000000000001</ele><time>2026-04-01T13:32:46.999Z</time></trkpt><trkpt lat="49.221548583812755" lon="2.4619630100408787"><ele>68.2</ele><time>2026-04-01T13:32:48.999Z</time></trkpt><trkpt lat="49.22153241550019" lon="2.461789838394973"><ele>67.80000000000001</ele><time>2026-04-01T13:32:50.999Z</time></trkpt><trkpt lat="49.221523819772315" lon="2.461608773248118"><ele>67.4</ele><time>2026-04-01T13:32:52.999Z</time></trkpt><trkpt lat="49.2215096465303" lon="2.461445988135357"><ele>67.0</ele><time>2026-04-01T13:32:54.999Z</time></trkpt><trkpt lat="49.22148798795475" lon="2.4612874609685824"><ele>67.0</ele><time>2026-04-01T13:32:56.999Z</time></trkpt><trkpt lat="49.221474322747255" lon="2.4611342239588385"><ele>67.0</ele><time>2026-04-01T13:32:58.999Z</time></trkpt><trkpt lat="49.221513932045795" lon="2.461047894501287"><ele>67.0</ele><time>2026-04-01T13:33:00.999Z</time></trkpt><trkpt lat="49.221493197684474" lon="2.4608975821428176"><ele>67.0</ele><time>2026-04-01T13:33:05.999Z</time></trkpt><trkpt lat="49.221504896774604" lon="2.460768458995494"><ele>67.0</ele><time>2026-04-01T13:33:09.999Z</time></trkpt><trkpt lat="49.22150385980988" lon="2.460650275137874"><ele>67.0</ele><time>2026-04-01T13:33:12.999Z</time></trkpt><trkpt lat="49.221541780616874" lon="2.460568612205848"><ele>66.0</ele><time>2026-04-01T13:33:14.999Z</time></trkpt><trkpt lat="49.221906242181575" lon="2.460420280292491"><ele>65.0</ele><time>2026-04-01T13:33:16.999Z</time></trkpt><trkpt lat="49.22196356696875" lon="2.4603375329329538"><ele>65.0</ele><time>2026-04-01T13:33:18.998Z</time></trkpt><trkpt lat="49.22201179094802" lon="2.4602701621274035"><ele>65.0</ele><time>2026-04-01T13:33:20.998Z</time></trkpt><trkpt lat="49.22206842337938" lon="2.4601837416126324"><ele>65.0</ele><time>2026-04-01T13:33:22.998Z</time></trkpt><trkpt lat="49.22213248532227" lon="2.460110158097187"><ele>65.0</ele><time>2026-04-01T13:33:24.998Z</time></trkpt><trkpt lat="49.222192798047324" lon="2.460014953390239"><ele>65.0</ele><time>2026-04-01T13:33:26.998Z</time></trkpt><trkpt lat="49.222244150589205" lon="2.459935805289273"><ele>65.0</ele><time>2026-04-01T13:33:28.998Z</time></trkpt><trkpt lat="49.22230726230664" lon="2.459851920308298"><ele>65.0</ele><time>2026-04-01T13:33:30.998Z</time></trkpt><trkpt lat="49.22236438925389" lon="2.4597645502629595"><ele>65.0</ele><time>2026-04-01T13:33:32.998Z</time></trkpt><trkpt lat="49.22242888337205" lon="2.459662753728183"><ele>65.0</ele><time>2026-04-01T13:33:34.998Z</time></trkpt><trkpt lat="49.222508583786464" lon="2.45956795472043"><ele>65.0</ele><time>2026-04-01T13:33:36.998Z</time></trkpt><trkpt lat="49.22258063859062" lon="2.4594676399200126"><ele>65.0</ele><time>2026-04-01T13:33:38.998Z</time></trkpt><trkpt lat="49.22265093537909" lon="2.45937018907722"><ele>65.0</ele><time>2026-04-01T13:33:40.998Z</time></trkpt><trkpt lat="49.22273319029756" lon="2.459268426063123"><ele>65.0</ele><time>2026-04-01T13:33:42.998Z</time></trkpt><trkpt lat="49.22279944803248" lon="2.4591507286931313"><ele>65.0</ele><time>2026-04-01T13:33:44.998Z</time></trkpt><trkpt lat="49.222879078431966" lon="2.459049779474216"><ele>65.0</ele><time>2026-04-01T13:33:46.998Z</time></trkpt><trkpt lat="49.22295614328065" lon="2.458946719435924"><ele>65.0</ele><time>2026-04-01T13:33:48.998Z</time></trkpt><trkpt lat="49.223022352769" lon="2.458840751999139"><ele>64.66666666666667</ele><time>2026-04-01T13:33:50.997Z</time></trkpt><trkpt lat="49.223083231557844" lon="2.458750189331101"><ele>64.33333333333334</ele><time>2026-04-01T13:33:52.997Z</time></trkpt><trkpt lat="49.223135385088526" lon="2.458664123224329"><ele>64.0</ele><time>2026-04-01T13:33:54.997Z</time></trkpt><trkpt lat="49.22320213509712" lon="2.4585666806312356"><ele>63.66666666666667</ele><time>2026-04-01T13:33:56.997Z</time></trkpt><trkpt lat="49.22327321930628" lon="2.458475190227289"><ele>63.333333333333336</ele><time>2026-04-01T13:33:58.997Z</time></trkpt><trkpt lat="49.22333916048376" lon="2.458374520448738"><ele>63.0</ele><time>2026-04-01T13:34:00.997Z</time></trkpt><trkpt lat="49.22341329508054" lon="2.458271636323838"><ele>63.0</ele><time>2026-04-01T13:34:02.997Z</time></trkpt><trkpt lat="49.22349236900606" lon="2.458167308912466"><ele>63.0</ele><time>2026-04-01T13:34:05Z</time></trkpt><trkpt lat="49.22356393314454" lon="2.458070970028613"><ele>63.0</ele><time>2026-04-01T13:34:07Z</time></trkpt><trkpt lat="49.22363686597363" lon="2.4579639607147974"><ele>63.0</ele><time>2026-04-01T13:34:09Z</time></trkpt><trkpt lat="49.22369950024553" lon="2.457868880859452"><ele>63.0</ele><time>2026-04-01T13:34:11Z</time></trkpt><trkpt lat="49.223775391161006" lon="2.4577583985468396"><ele>63.166666666666664</ele><time>2026-04-01T13:34:13Z</time></trkpt><trkpt lat="49.22384300181475" lon="2.457664993280893"><ele>63.33333333333333</ele><time>2026-04-01T13:34:15Z</time></trkpt><trkpt lat="49.22391126499935" lon="2.45757493214748"><ele>63.5</ele><time>2026-04-01T13:34:17Z</time></trkpt><trkpt lat="49.22397287598763" lon="2.4574985688176434"><ele>63.666666666666664</ele><time>2026-04-01T13:34:19Z</time></trkpt><trkpt lat="49.22403050925077" lon="2.4574138721505823"><ele>63.83333333333333</ele><time>2026-04-01T13:34:21Z</time></trkpt><trkpt lat="49.22407669728058" lon="2.4573243998337913"><ele>64.0</ele><time>2026-04-01T13:34:23Z</time></trkpt><trkpt lat="49.224165313671165" lon="2.4572196820697463"><ele>63.49999999999999</ele><time>2026-04-01T13:34:25Z</time></trkpt><trkpt lat="49.22423243645224" lon="2.457118545288384"><ele>63.0</ele><time>2026-04-01T13:34:27Z</time></trkpt><trkpt lat="49.22428426252576" lon="2.4570572418961176"><ele>62.5</ele><time>2026-04-01T13:34:29Z</time></trkpt><trkpt lat="49.22432866935594" lon="2.456974632840603"><ele>62.0</ele><time>2026-04-01T13:34:30Z</time></trkpt><trkpt lat="49.224400551845804" lon="2.4568757158375885"><ele>61.49999999999999</ele><time>2026-04-01T13:34:32Z</time></trkpt><trkpt lat="49.224465063509854" lon="2.4567945859105937"><ele>61.0</ele><time>2026-04-01T13:34:34Z</time></trkpt><trkpt lat="49.224547311555476" lon="2.4567061853698595"><ele>60.99999999999999</ele><time>2026-04-01T13:34:36Z</time></trkpt><trkpt lat="49.224601750876516" lon="2.4565920410722275"><ele>61.0</ele><time>2026-04-01T13:34:38Z</time></trkpt><trkpt lat="49.2246448240924" lon="2.456504744697792"><ele>61.0</ele><time>2026-04-01T13:34:39.999Z</time></trkpt><trkpt lat="49.22467942520262" lon="2.4563952644027043"><ele>61.0</ele><time>2026-04-01T13:34:41.999Z</time></trkpt><trkpt lat="49.22472830767667" lon="2.4562929327655625"><ele>60.99999999999999</ele><time>2026-04-01T13:34:44.999Z</time></trkpt><trkpt lat="49.22477439381365" lon="2.4562099854099753"><ele>61.0</ele><time>2026-04-01T13:34:46.999Z</time></trkpt><trkpt lat="49.224822494454074" lon="2.456117033346568"><ele>61.0</ele><time>2026-04-01T13:34:48.999Z</time></trkpt><trkpt lat="49.22485906644868" lon="2.456024564803671"><ele>60.99999999999999</ele><time>2026-04-01T13:34:50.999Z</time></trkpt><trkpt lat="49.22475661185977" lon="2.4559765588904243"><ele>60.99999999999999</ele><time>2026-04-01T13:34:52.999Z</time></trkpt><trkpt lat="49.224925540197255" lon="2.455948919741864"><ele>61.0</ele><time>2026-04-01T13:34:55.999Z</time></trkpt><trkpt lat="49.22501731907689" lon="2.4559736541898345"><ele>61.0</ele><time>2026-04-01T13:34:58.999Z</time></trkpt><trkpt lat="49.22510298799997" lon="2.4559619234558387"><ele>61.166666666666664</ele><time>2026-04-01T13:35:00.999Z</time></trkpt><trkpt lat="49.225179996446776" lon="2.455958994894651"><ele>61.33333333333333</ele><time>2026-04-01T13:35:02.999Z</time></trkpt><trkpt lat="49.22526326174685" lon="2.4559609298891716"><ele>61.5</ele><time>2026-04-01T13:35:04.999Z</time></trkpt><trkpt lat="49.22535433415712" lon="2.4559639430366493"><ele>61.66666666666667</ele><time>2026-04-01T13:35:06.999Z</time></trkpt><trkpt lat="49.225438310310416" lon="2.4559703725626147"><ele>61.833333333333336</ele><time>2026-04-01T13:35:08.998Z</time></trkpt><trkpt lat="49.22552982350401" lon="2.4559804652157786"><ele>62.0</ele><time>2026-04-01T13:35:10.998Z</time></trkpt><trkpt lat="49.22561984207472" lon="2.4559939770806443"><ele>62.2</ele><time>2026-04-01T13:35:12.998Z</time></trkpt><trkpt lat="49.225711513856865" lon="2.456010575950191"><ele>62.400000000000006</ele><time>2026-04-01T13:35:14.998Z</time></trkpt><trkpt lat="49.22579918931652" lon="2.456028831665522"><ele>62.599999999999994</ele><time>2026-04-01T13:35:16.998Z</time></trkpt><trkpt lat="49.22589068133557" lon="2.4560478820574634"><ele>62.8</ele><time>2026-04-01T13:35:18.998Z</time></trkpt><trkpt lat="49.22598141334565" lon="2.4560690755750154"><ele>63.0</ele><time>2026-04-01T13:35:20.998Z</time></trkpt><trkpt lat="49.22607505037076" lon="2.4560911773789997"><ele>63.0</ele><time>2026-04-01T13:35:22.998Z</time></trkpt><trkpt lat="49.22616766214699" lon="2.4561146133831357"><ele>63.0</ele><time>2026-04-01T13:35:24.998Z</time></trkpt><trkpt lat="49.22626628474244" lon="2.456141148062051"><ele>63.0</ele><time>2026-04-01T13:35:26.998Z</time></trkpt><trkpt lat="49.22636532779265" lon="2.4561677958643555"><ele>63.0</ele><time>2026-04-01T13:35:28.998Z</time></trkpt><trkpt lat="49.226460915041336" lon="2.456192906251483"><ele>63.0</ele><time>2026-04-01T13:35:30.998Z</time></trkpt><trkpt lat="49.22656706274882" lon="2.4562176523458015"><ele>62.8</ele><time>2026-04-01T13:35:32.998Z</time></trkpt><trkpt lat="49.22666882246114" lon="2.4562413754631955"><ele>62.599999999999994</ele><time>2026-04-01T13:35:34.998Z</time></trkpt><trkpt lat="49.22677430261926" lon="2.4562671087973027"><ele>62.400000000000006</ele><time>2026-04-01T13:35:36.998Z</time></trkpt><trkpt lat="49.22687889192997" lon="2.4562947330221654"><ele>62.2</ele><time>2026-04-01T13:35:38.998Z</time></trkpt><trkpt lat="49.22698380797504" lon="2.4563224435428017"><ele>62.0</ele><time>2026-04-01T13:35:40.998Z</time></trkpt><trkpt lat="49.22708922115437" lon="2.4563502853687176"><ele>62.0</ele><time>2026-04-01T13:35:42.997Z</time></trkpt><trkpt lat="49.2271964944062" lon="2.456378618476426"><ele>62.0</ele><time>2026-04-01T13:35:44.997Z</time></trkpt><trkpt lat="49.22729741921631" lon="2.4564041543523376"><ele>62.0</ele><time>2026-04-01T13:35:46.997Z</time></trkpt><trkpt lat="49.22740256285423" lon="2.4564298672557268"><ele>62.0</ele><time>2026-04-01T13:35:48.997Z</time></trkpt><trkpt lat="49.22750660809843" lon="2.4564557730981957"><ele>62.0</ele><time>2026-04-01T13:35:50.997Z</time></trkpt><trkpt lat="49.22760485687583" lon="2.45648389556461"><ele>62.400000000000006</ele><time>2026-04-01T13:35:52.997Z</time></trkpt><trkpt lat="49.22770426660685" lon="2.4565143842289827"><ele>62.800000000000004</ele><time>2026-04-01T13:35:54.997Z</time></trkpt><trkpt lat="49.22780231406592" lon="2.4565461404964086"><ele>63.2</ele><time>2026-04-01T13:35:56.997Z</time></trkpt><trkpt lat="49.227899552163215" lon="2.456577656514206"><ele>63.6</ele><time>2026-04-01T13:35:58.997Z</time></trkpt><trkpt lat="49.22799534446149" lon="2.4566087039273565"><ele>64.0</ele><time>2026-04-01T13:36:00.997Z</time></trkpt><trkpt lat="49.228088913970375" lon="2.4566399511226193"><ele>64.60000000000001</ele><time>2026-04-01T13:36:02.997Z</time></trkpt><trkpt lat="49.22818444256398" lon="2.456673100651193"><ele>65.2</ele><time>2026-04-01T13:36:04.997Z</time></trkpt><trkpt lat="49.228280416202665" lon="2.456706577891166"><ele>65.80000000000001</ele><time>2026-04-01T13:36:06.997Z</time></trkpt><trkpt lat="49.22837226634983" lon="2.456740513538462"><ele>66.4</ele><time>2026-04-01T13:36:08.997Z</time></trkpt><trkpt lat="49.2284640804418" lon="2.4567748566017777"><ele>67.0</ele><time>2026-04-01T13:36:11Z</time></trkpt><trkpt lat="49.22855681660292" lon="2.4568102140152317"><ele>67.0</ele><time>2026-04-01T13:36:13Z</time></trkpt><trkpt lat="49.22864261061598" lon="2.456844419816159"><ele>67.0</ele><time>2026-04-01T13:36:15Z</time></trkpt><trkpt lat="49.22873058898545" lon="2.4568806573338575"><ele>67.0</ele><time>2026-04-01T13:36:17Z</time></trkpt><trkpt lat="49.228816265708694" lon="2.4569167703527532"><ele>67.0</ele><time>2026-04-01T13:36:19Z</time></trkpt><trkpt lat="49.22890774252381" lon="2.4569574191937367"><ele>67.0</ele><time>2026-04-01T13:36:21Z</time></trkpt><trkpt lat="49.22899233356239" lon="2.456995510724255"><ele>67.2</ele><time>2026-04-01T13:36:23Z</time></trkpt><trkpt lat="49.22907998465076" lon="2.457034980207942"><ele>67.4</ele><time>2026-04-01T13:36:25Z</time></trkpt><trkpt lat="49.229167714838255" lon="2.4570751345361814"><ele>67.6</ele><time>2026-04-01T13:36:27Z</time></trkpt><trkpt lat="49.22925228836591" lon="2.457114786570443"><ele>67.8</ele><time>2026-04-01T13:36:29Z</time></trkpt><trkpt lat="49.22933911360323" lon="2.457155494313182"><ele>68.0</ele><time>2026-04-01T13:36:31Z</time></trkpt><trkpt lat="49.229428562326724" lon="2.457197432071593"><ele>67.6</ele><time>2026-04-01T13:36:33Z</time></trkpt><trkpt lat="49.22951868068107" lon="2.457240562760385"><ele>67.19999999999999</ele><time>2026-04-01T13:36:35Z</time></trkpt><trkpt lat="49.22960795369858" lon="2.457284909526813"><ele>66.8</ele><time>2026-04-01T13:36:37Z</time></trkpt><trkpt lat="49.22969797508197" lon="2.4573296280493375"><ele>66.39999999999999</ele><time>2026-04-01T13:36:39Z</time></trkpt><trkpt lat="49.2297821316715" lon="2.457371984952852"><ele>66.0</ele><time>2026-04-01T13:36:41Z</time></trkpt><trkpt lat="49.229874039578974" lon="2.4574191654285045"><ele>66.8</ele><time>2026-04-01T13:36:43Z</time></trkpt><trkpt lat="49.22996327010968" lon="2.4574649715034753"><ele>67.6</ele><time>2026-04-01T13:36:45Z</time></trkpt><trkpt lat="49.23005103515524" lon="2.457510025270122"><ele>68.4</ele><time>2026-04-01T13:36:47Z</time></trkpt><trkpt lat="49.230142561212354" lon="2.4575558642860402"><ele>69.2</ele><time>2026-04-01T13:36:49Z</time></trkpt><trkpt lat="49.230232912337925" lon="2.4576004128422526"><ele>70.0</ele><time>2026-04-01T13:36:51Z</time></trkpt><trkpt lat="49.23032323232512" lon="2.45764494604732"><ele>70.0</ele><time>2026-04-01T13:36:53Z</time></trkpt><trkpt lat="49.23041232452388" lon="2.4576893481636843"><ele>70.0</ele><time>2026-04-01T13:36:54.999Z</time></trkpt><trkpt lat="49.230500440204686" lon="2.457735975252889"><ele>70.0</ele><time>2026-04-01T13:36:56.999Z</time></trkpt><trkpt lat="49.23058279424129" lon="2.457784539602884"><ele>70.0</ele><time>2026-04-01T13:36:58.999Z</time></trkpt><trkpt lat="49.23066749005396" lon="2.45784354965738"><ele>70.0</ele><time>2026-04-01T13:37:00.999Z</time></trkpt><trkpt lat="49.230752960861004" lon="2.457912174842646"><ele>69.8</ele><time>2026-04-01T13:37:02.999Z</time></trkpt><trkpt lat="49.23083203446227" lon="2.457980096850636"><ele>69.6</ele><time>2026-04-01T13:37:04.999Z</time></trkpt><trkpt lat="49.230910216521366" lon="2.458054789360802"><ele>69.4</ele><time>2026-04-01T13:37:06.999Z</time></trkpt><trkpt lat="49.23099447299719" lon="2.458134063635336"><ele>69.2</ele><time>2026-04-01T13:37:08.999Z</time></trkpt><trkpt lat="49.231073349089584" lon="2.4582082756655868"><ele>69.0</ele><time>2026-04-01T13:37:10.999Z</time></trkpt><trkpt lat="49.231149022464585" lon="2.45828226982982"><ele>69.0</ele><time>2026-04-01T13:37:12.999Z</time></trkpt><trkpt lat="49.23122557221551" lon="2.4583568721929354"><ele>69.0</ele><time>2026-04-01T13:37:14.999Z</time></trkpt><trkpt lat="49.23132763936411" lon="2.458427304137143"><ele>69.0</ele><time>2026-04-01T13:37:17.999Z</time></trkpt><trkpt lat="49.231396637206075" lon="2.4585107946846305"><ele>69.0</ele><time>2026-04-01T13:37:19.999Z</time></trkpt><trkpt lat="49.23146441402901" lon="2.4585928066572804"><ele>69.0</ele><time>2026-04-01T13:37:21.999Z</time></trkpt><trkpt lat="49.231607406898554" lon="2.4587447399778792"><ele>68.66666666666667</ele><time>2026-04-01T13:37:22.999Z</time></trkpt><trkpt lat="49.23174017481933" lon="2.458272026617662"><ele>68.33333333333334</ele><time>2026-04-01T13:37:23.999Z</time></trkpt><trkpt lat="49.23182858732424" lon="2.458321000206374"><ele>68.0</ele><time>2026-04-01T13:37:25.999Z</time></trkpt><trkpt lat="49.23190399123954" lon="2.4585244918304303"><ele>68.0</ele><time>2026-04-01T13:37:27.999Z</time></trkpt><trkpt lat="49.231990628756115" lon="2.4585416122787382"><ele>68.0</ele><time>2026-04-01T13:37:29.998Z</time></trkpt><trkpt lat="49.23208036774888" lon="2.458561188264931"><ele>68.0</ele><time>2026-04-01T13:37:31.998Z</time></trkpt><trkpt lat="49.23217076324137" lon="2.4585844368598693"><ele>68.0</ele><time>2026-04-01T13:37:33.998Z</time></trkpt><trkpt lat="49.23226348118262" lon="2.4586167234971708"><ele>68.0</ele><time>2026-04-01T13:37:35.998Z</time></trkpt><trkpt lat="49.232369153881066" lon="2.458581023675167"><ele>68.0</ele><time>2026-04-01T13:37:37.998Z</time></trkpt><trkpt lat="49.232459552901275" lon="2.4586189457593846"><ele>68.0</ele><time>2026-04-01T13:37:39.998Z</time></trkpt><trkpt lat="49.23254889032015" lon="2.4586751056744154"><ele>68.0</ele><time>2026-04-01T13:37:41.998Z</time></trkpt><trkpt lat="49.23258190571079" lon="2.4587682656694687"><ele>68.0</ele><time>2026-04-01T13:37:42.998Z</time></trkpt><trkpt lat="49.23266694454344" lon="2.458809773665849"><ele>68.0</ele><time>2026-04-01T13:37:44.998Z</time></trkpt><trkpt lat="49.232759281805926" lon="2.458854844107553"><ele>68.0</ele><time>2026-04-01T13:37:46.998Z</time></trkpt><trkpt lat="49.2328436992492" lon="2.4588960488208413"><ele>68.0</ele><time>2026-04-01T13:37:48.998Z</time></trkpt><trkpt lat="49.23292513779949" lon="2.4589372213250207"><ele>68.0</ele><time>2026-04-01T13:37:50.998Z</time></trkpt><trkpt lat="49.233008671256016" lon="2.4589820440733385"><ele>68.0</ele><time>2026-04-01T13:37:52.998Z</time></trkpt><trkpt lat="49.23308785706111" lon="2.4590342318429204"><ele>68.0</ele><time>2026-04-01T13:37:54.998Z</time></trkpt><trkpt lat="49.233163050780895" lon="2.4590826589515404"><ele>68.0</ele><time>2026-04-01T13:37:56.998Z</time></trkpt><trkpt lat="49.23322600665275" lon="2.4591804816996725"><ele>68.0</ele><time>2026-04-01T13:38:01.997Z</time></trkpt><trkpt lat="49.23319723230369" lon="2.459277738202269"><ele>68.0</ele><time>2026-04-01T13:38:03.997Z</time></trkpt><trkpt lat="49.2332303355211" lon="2.4593910439996494"><ele>68.0</ele><time>2026-04-01T13:38:05.997Z</time></trkpt><trkpt lat="49.2332440657362" lon="2.4595272382234485"><ele>68.0</ele><time>2026-04-01T13:38:07.997Z</time></trkpt><trkpt lat="49.23328564919514" lon="2.4596339677982684"><ele>68.0</ele><time>2026-04-01T13:38:09.997Z</time></trkpt><trkpt lat="49.233271396173926" lon="2.4597901499453942"><ele>68.0</ele><time>2026-04-01T13:38:11.997Z</time></trkpt><trkpt lat="49.233294926245165" lon="2.4599403495941514"><ele>68.0</ele><time>2026-04-01T13:38:13.997Z</time></trkpt><trkpt lat="49.23331350039527" lon="2.460090926582884"><ele>68.0</ele><time>2026-04-01T13:38:16Z</time></trkpt><trkpt lat="49.233341915090925" lon="2.460247757580003"><ele>68.0</ele><time>2026-04-01T13:38:18Z</time></trkpt><trkpt lat="49.233362075517455" lon="2.460411541240024"><ele>68.0</ele><time>2026-04-01T13:38:20Z</time></trkpt><trkpt lat="49.233359930309604" lon="2.460578754602663"><ele>68.0</ele><time>2026-04-01T13:38:22Z</time></trkpt><trkpt lat="49.233331800859304" lon="2.460742037304129"><ele>68.0</ele><time>2026-04-01T13:38:24Z</time></trkpt><trkpt lat="49.233286761698245" lon="2.4608859127039024"><ele>68.0</ele><time>2026-04-01T13:38:26Z</time></trkpt><trkpt lat="49.23324541093824" lon="2.461043921811674"><ele>68.0</ele><time>2026-04-01T13:38:28Z</time></trkpt><trkpt lat="49.23320486375308" lon="2.4611959255555353"><ele>68.0</ele><time>2026-04-01T13:38:30Z</time></trkpt><trkpt lat="49.23316802830374" lon="2.461354308313105"><ele>68.0</ele><time>2026-04-01T13:38:32Z</time></trkpt><trkpt lat="49.233139343091466" lon="2.4614970762055783"><ele>68.0</ele><time>2026-04-01T13:38:34Z</time></trkpt><trkpt lat="49.23308820075343" lon="2.4616365194851317"><ele>68.0</ele><time>2026-04-01T13:38:36Z</time></trkpt><trkpt lat="49.23305658742003" lon="2.4617520126406007"><ele>68.0</ele><time>2026-04-01T13:38:38Z</time></trkpt><trkpt lat="49.2330252258665" lon="2.4618670706691375"><ele>68.0</ele><time>2026-04-01T13:38:40Z</time></trkpt><trkpt lat="49.23299364902593" lon="2.46195319015535"><ele>68.0</ele><time>2026-04-01T13:38:42Z</time></trkpt><trkpt lat="49.23316160696955" lon="2.4621159378821917"><ele>68.16666666666667</ele><time>2026-04-01T13:38:44Z</time></trkpt><trkpt lat="49.23324043627465" lon="2.462147219523057"><ele>68.33333333333334</ele><time>2026-04-01T13:38:46Z</time></trkpt><trkpt lat="49.23329659114824" lon="2.462290331969622"><ele>68.5</ele><time>2026-04-01T13:38:48Z</time></trkpt><trkpt lat="49.23337695651871" lon="2.462339245695494"><ele>68.66666666666667</ele><time>2026-04-01T13:38:50Z</time></trkpt><trkpt lat="49.23344584940159" lon="2.4623811767919763"><ele>68.83333333333333</ele><time>2026-04-01T13:38:52Z</time></trkpt><trkpt lat="49.233531621594864" lon="2.4624331062510025"><ele>69.0</ele><time>2026-04-01T13:38:55Z</time></trkpt><trkpt lat="49.233615560438324" lon="2.462483807032134"><ele>69.0</ele><time>2026-04-01T13:38:58Z</time></trkpt><trkpt lat="49.23368168299129" lon="2.4625118702633046"><ele>69.0</ele><time>2026-04-01T13:38:59.999Z</time></trkpt><trkpt lat="49.23375351680069" lon="2.4625846048254156"><ele>69.0</ele><time>2026-04-01T13:39:01.999Z</time></trkpt><trkpt lat="49.233844981829165" lon="2.462631493717535"><ele>69.0</ele><time>2026-04-01T13:39:03.999Z</time></trkpt><trkpt lat="49.23394074271565" lon="2.462698025390288"><ele>69.0</ele><time>2026-04-01T13:39:05.999Z</time></trkpt><trkpt lat="49.23403585949873" lon="2.4627582951186278"><ele>69.2</ele><time>2026-04-01T13:39:07.999Z</time></trkpt><trkpt lat="49.234137269241145" lon="2.462816149876986"><ele>69.4</ele><time>2026-04-01T13:39:09.999Z</time></trkpt><trkpt lat="49.234241465234014" lon="2.4628787545907533"><ele>69.6</ele><time>2026-04-01T13:39:11.999Z</time></trkpt><trkpt lat="49.23434045503262" lon="2.462939075652015"><ele>69.8</ele><time>2026-04-01T13:39:13.999Z</time></trkpt><trkpt lat="49.23444581978729" lon="2.463016827326431"><ele>70.0</ele><time>2026-04-01T13:39:15.999Z</time></trkpt><trkpt lat="49.23454776934126" lon="2.463070157360747"><ele>70.0</ele><time>2026-04-01T13:39:17.999Z</time></trkpt><trkpt lat="49.23465353714859" lon="2.4631306248255442"><ele>70.0</ele><time>2026-04-01T13:39:19.999Z</time></trkpt><trkpt lat="49.234747026567824" lon="2.463202542375996"><ele>70.0</ele><time>2026-04-01T13:39:21.999Z</time></trkpt><trkpt lat="49.23484851888006" lon="2.4632565917249223"><ele>70.0</ele><time>2026-04-01T13:39:23.999Z</time></trkpt><trkpt lat="49.23494369332228" lon="2.463301949506097"><ele>70.0</ele><time>2026-04-01T13:39:25.999Z</time></trkpt><trkpt lat="49.23503917127331" lon="2.4633656503275256"><ele>70.0</ele><time>2026-04-01T13:39:27.999Z</time></trkpt><trkpt lat="49.23513824198557" lon="2.463421666746846"><ele>70.0</ele><time>2026-04-01T13:39:29.999Z</time></trkpt><trkpt lat="49.23524218332744" lon="2.4634778348159267"><ele>70.0</ele><time>2026-04-01T13:39:31.998Z</time></trkpt><trkpt lat="49.2353320772218" lon="2.463587891080366"><ele>70.0</ele><time>2026-04-01T13:39:33.998Z</time></trkpt><trkpt lat="49.23538285782665" lon="2.463734897418801"><ele>70.0</ele><time>2026-04-01T13:39:35.998Z</time></trkpt><trkpt lat="49.235460590195636" lon="2.4638454452187557"><ele>70.0</ele><time>2026-04-01T13:39:37.998Z</time></trkpt><trkpt lat="49.23557250838864" lon="2.4638158901031524"><ele>70.0</ele><time>2026-04-01T13:39:39.998Z</time></trkpt><trkpt lat="49.23562146530347" lon="2.4637417081368604"><ele>70.0</ele><time>2026-04-01T13:39:40.998Z</time></trkpt><trkpt lat="49.23564744873696" lon="2.4636467420733683"><ele>70.0</ele><time>2026-04-01T13:39:42.998Z</time></trkpt><trkpt lat="49.235802960438456" lon="2.463820487785184"><ele>70.0</ele><time>2026-04-01T13:39:43.998Z</time></trkpt><trkpt lat="49.23586780026823" lon="2.463865234109181"><ele>69.6</ele><time>2026-04-01T13:39:44.998Z</time></trkpt><trkpt lat="49.23597499206969" lon="2.4639272070027176"><ele>69.2</ele><time>2026-04-01T13:39:46.998Z</time></trkpt><trkpt lat="49.236037635307426" lon="2.463959025046387"><ele>68.8</ele><time>2026-04-01T13:39:47.998Z</time></trkpt><trkpt lat="49.23615285662528" lon="2.4640288282706373"><ele>68.4</ele><time>2026-04-01T13:39:49.998Z</time></trkpt><trkpt lat="49.23627032405563" lon="2.4640945736358857"><ele>68.0</ele><time>2026-04-01T13:39:51.998Z</time></trkpt><trkpt lat="49.23638688099708" lon="2.464163494725937"><ele>67.25</ele><time>2026-04-01T13:39:53.998Z</time></trkpt><trkpt lat="49.23650199805678" lon="2.464228369809159"><ele>66.5</ele><time>2026-04-01T13:39:55.998Z</time></trkpt><trkpt lat="49.23661497848563" lon="2.464292362268944"><ele>65.75</ele><time>2026-04-01T13:39:57.998Z</time></trkpt><trkpt lat="49.23673502332725" lon="2.4643560066957537"><ele>65.0</ele><time>2026-04-01T13:39:59.998Z</time></trkpt><trkpt lat="49.23684737235733" lon="2.46442088426274"><ele>65.0</ele><time>2026-04-01T13:40:01.998Z</time></trkpt><trkpt lat="49.23696116442521" lon="2.4644873683121995"><ele>65.0</ele><time>2026-04-01T13:40:03.998Z</time></trkpt><trkpt lat="49.23707318645042" lon="2.464555829623791"><ele>65.0</ele><time>2026-04-01T13:40:05.997Z</time></trkpt><trkpt lat="49.23718630359201" lon="2.4646205680391113"><ele>65.0</ele><time>2026-04-01T13:40:07.997Z</time></trkpt><trkpt lat="49.23724566816737" lon="2.4646533456301736"><ele>65.0</ele><time>2026-04-01T13:40:08.997Z</time></trkpt><trkpt lat="49.23735869491117" lon="2.464723307370627"><ele>66.25</ele><time>2026-04-01T13:40:10.997Z</time></trkpt><trkpt lat="49.237469190769964" lon="2.464784406739167"><ele>67.5</ele><time>2026-04-01T13:40:12.997Z</time></trkpt><trkpt lat="49.23758472114337" lon="2.4648494156151988"><ele>68.75</ele><time>2026-04-01T13:40:14.997Z</time></trkpt><trkpt lat="49.23770329736367" lon="2.464919863864198"><ele>70.0</ele><time>2026-04-01T13:40:16.997Z</time></trkpt><trkpt lat="49.2378061542" lon="2.4649751897956755"><ele>70.0</ele><time>2026-04-01T13:40:18.997Z</time></trkpt><trkpt lat="49.23791384834909" lon="2.465037015837739"><ele>70.0</ele><time>2026-04-01T13:40:20.997Z</time></trkpt><trkpt lat="49.23802166515629" lon="2.4650973381168577"><ele>70.0</ele><time>2026-04-01T13:40:23Z</time></trkpt><trkpt lat="49.238123089444386" lon="2.465158282687367"><ele>70.0</ele><time>2026-04-01T13:40:25Z</time></trkpt><trkpt lat="49.23821973066932" lon="2.46523072901918"><ele>70.0</ele><time>2026-04-01T13:40:27Z</time></trkpt><trkpt lat="49.23823119994231" lon="2.4654088001822703"><ele>70.0</ele><time>2026-04-01T13:40:29Z</time></trkpt><trkpt lat="49.23817803073344" lon="2.4655751445258325"><ele>70.0</ele><time>2026-04-01T13:40:31Z</time></trkpt><trkpt lat="49.238118649455075" lon="2.465707241203786"><ele>70.0</ele><time>2026-04-01T13:40:33Z</time></trkpt><trkpt lat="49.238106430089765" lon="2.4658784434698187"><ele>70.0</ele><time>2026-04-01T13:40:35Z</time></trkpt><trkpt lat="49.2380767703236" lon="2.466034411249323"><ele>70.0</ele><time>2026-04-01T13:40:37Z</time></trkpt><trkpt lat="49.238055380242464" lon="2.4661983463708"><ele>70.0</ele><time>2026-04-01T13:40:39Z</time></trkpt><trkpt lat="49.23802256835638" lon="2.4663477230582207"><ele>70.0</ele><time>2026-04-01T13:40:41Z</time></trkpt><trkpt lat="49.23799708274393" lon="2.4664980957838356"><ele>70.0</ele><time>2026-04-01T13:40:43Z</time></trkpt><trkpt lat="49.2379701156211" lon="2.4666567749478183"><ele>70.0</ele><time>2026-04-01T13:40:45Z</time></trkpt><trkpt lat="49.2379434130844" lon="2.4668053695108374"><ele>70.0</ele><time>2026-04-01T13:40:47Z</time></trkpt><trkpt lat="49.2379193102632" lon="2.466960387992128"><ele>70.0</ele><time>2026-04-01T13:40:49Z</time></trkpt><trkpt lat="49.23789662213258" lon="2.467109797049149"><ele>70.0</ele><time>2026-04-01T13:40:51Z</time></trkpt><trkpt lat="49.237878862376334" lon="2.467256578396302"><ele>70.0</ele><time>2026-04-01T13:40:53Z</time></trkpt><trkpt lat="49.23785605056796" lon="2.4673542030039757"><ele>70.0</ele><time>2026-04-01T13:40:55Z</time></trkpt><trkpt lat="49.23794594880348" lon="2.467603525759896"><ele>70.16666666666666</ele><time>2026-04-01T13:40:56Z</time></trkpt><trkpt lat="49.2380228578797" lon="2.467633544237752"><ele>70.33333333333333</ele><time>2026-04-01T13:40:58Z</time></trkpt><trkpt lat="49.238079117289516" lon="2.46772316654651"><ele>70.5</ele><time>2026-04-01T13:41:02Z</time></trkpt><trkpt lat="49.23807805376373" lon="2.467827419263289"><ele>70.66666666666667</ele><time>2026-04-01T13:41:04Z</time></trkpt><trkpt lat="49.238153246742485" lon="2.467851414094112"><ele>70.83333333333334</ele><time>2026-04-01T13:41:10.999Z</time></trkpt><trkpt lat="49.2382303197609" lon="2.467893328001249"><ele>71.0</ele><time>2026-04-01T13:41:34.999Z</time></trkpt><trkpt lat="49.23808212010464" lon="2.467757297328173"><ele>71.0</ele><time>2026-04-01T13:46:13.03Z</time></trkpt><trkpt lat="49.23804138563594" lon="2.4678549496844058"><ele>71.0</ele><time>2026-04-01T13:46:17.99Z</time></trkpt><trkpt lat="49.23809388423301" lon="2.467929613422478"><ele>71.0</ele><time>2026-04-01T13:46:26.001Z</time></trkpt><trkpt lat="49.23809781559715" lon="2.468053487288453"><ele>71.0</ele><time>2026-04-01T13:49:53.998Z</time></trkpt><trkpt lat="49.23817276799367" lon="2.468103255413358"><ele>71.0</ele><time>2026-04-01T13:49:56.998Z</time></trkpt><trkpt lat="49.23823940520961" lon="2.4681628994001397"><ele>71.0</ele><time>2026-04-01T13:49:58.998Z</time></trkpt><trkpt lat="49.238294831710704" lon="2.4682744606602336"><ele>71.33333333333334</ele><time>2026-04-01T13:50:01.998Z</time></trkpt><trkpt lat="49.2383458678436" lon="2.468365127417769"><ele>71.66666666666667</ele><time>2026-04-01T13:50:03.998Z</time></trkpt><trkpt lat="49.238386293339126" lon="2.4684497015403117"><ele>72.0</ele><time>2026-04-01T13:50:05.998Z</time></trkpt><trkpt lat="49.238427718968296" lon="2.468531147178543"><ele>72.33333333333333</ele><time>2026-04-01T13:50:07.997Z</time></trkpt><trkpt lat="49.23848513324605" lon="2.4686442479651123"><ele>72.66666666666666</ele><time>2026-04-01T13:50:10.997Z</time></trkpt><trkpt lat="49.23853246613492" lon="2.4687421443790827"><ele>73.0</ele><time>2026-04-01T13:50:13.997Z</time></trkpt><trkpt lat="49.23858156349438" lon="2.4688312271851407"><ele>73.0</ele><time>2026-04-01T13:50:16.997Z</time></trkpt><trkpt lat="49.23862684106851" lon="2.4689097126473722"><ele>73.0</ele><time>2026-04-01T13:50:19.997Z</time></trkpt><trkpt lat="49.23867070406341" lon="2.4690217472964653"><ele>73.0</ele><time>2026-04-01T13:50:22.997Z</time></trkpt><trkpt lat="49.23869298465093" lon="2.469135582276274"><ele>73.0</ele><time>2026-04-01T13:50:25.997Z</time></trkpt><trkpt lat="49.238774256823284" lon="2.469182180164333"><ele>73.0</ele><time>2026-04-01T13:50:28.997Z</time></trkpt><trkpt lat="49.238834871308775" lon="2.46911944894168"><ele>73.0</ele><time>2026-04-01T13:50:30.997Z</time></trkpt><trkpt lat="49.2388936732913" lon="2.469050138377134"><ele>73.16666666666666</ele><time>2026-04-01T13:50:33Z</time></trkpt><trkpt lat="49.23897013037271" lon="2.4690530718455617"><ele>73.33333333333333</ele><time>2026-04-01T13:50:35Z</time></trkpt><trkpt lat="49.23903965006936" lon="2.469087918584392"><ele>73.5</ele><time>2026-04-01T13:50:37Z</time></trkpt><trkpt lat="49.23911330305321" lon="2.4691117446121056"><ele>73.66666666666667</ele><time>2026-04-01T13:50:39Z</time></trkpt><trkpt lat="49.23915297254521" lon="2.469200102203742"><ele>73.83333333333334</ele><time>2026-04-01T13:50:41Z</time></trkpt><trkpt lat="49.239104205565894" lon="2.4693042222982853"><ele>74.0</ele><time>2026-04-01T13:50:44Z</time></trkpt><trkpt lat="49.239047479210434" lon="2.4693772798379556"><ele>74.0</ele><time>2026-04-01T13:50:46Z</time></trkpt><trkpt lat="49.239114477856866" lon="2.469396853831924"><ele>74.0</ele><time>2026-04-01T13:50:49Z</time></trkpt><trkpt lat="49.239170747374935" lon="2.469351403117422"><ele>74.0</ele><time>2026-04-01T13:50:54Z</time></trkpt><trkpt lat="49.23912628858603" lon="2.4692750044176663"><ele>74.0</ele><time>2026-04-01T13:51:08Z</time></trkpt><trkpt lat="49.23913424131663" lon="2.469174472108382"><ele>74.0</ele><time>2026-04-01T13:51:33.999Z</time></trkpt><trkpt lat="49.23917529923793" lon="2.469099219038386"><ele>74.0</ele><time>2026-04-01T13:51:36.999Z</time></trkpt><trkpt lat="49.23924339337891" lon="2.4690891120082945"><ele>74.0</ele><time>2026-04-01T13:51:38.999Z</time></trkpt><trkpt lat="49.239315613741965" lon="2.469051089752788"><ele>74.0</ele><time>2026-04-01T13:51:41.998Z</time></trkpt><trkpt lat="49.239380737790896" lon="2.469027670975764"><ele>74.0</ele><time>2026-04-01T13:51:43.998Z</time></trkpt><trkpt lat="49.23945568819612" lon="2.4689484361157974"><ele>74.0</ele><time>2026-04-01T13:51:46.998Z</time></trkpt><trkpt lat="49.239537280322544" lon="2.4690013258064676"><ele>74.0</ele><time>2026-04-01T13:51:49.998Z</time></trkpt><trkpt lat="49.239559462222935" lon="2.469114670012882"><ele>74.0</ele><time>2026-04-01T13:51:51.998Z</time></trkpt><trkpt lat="49.239559083800884" lon="2.469224394146547"><ele>74.0</ele><time>2026-04-01T13:51:53.998Z</time></trkpt><trkpt lat="49.23956621682225" lon="2.4693331815540374"><ele>74.0</ele><time>2026-04-01T13:51:55.998Z</time></trkpt><trkpt lat="49.239573315731135" lon="2.469441985243376"><ele>74.0</ele><time>2026-04-01T13:51:57.998Z</time></trkpt><trkpt lat="49.23961482516535" lon="2.4695259666687384"><ele>74.0</ele><time>2026-04-01T13:51:59.998Z</time></trkpt><trkpt lat="49.23964996802684" lon="2.4696479056244622"><ele>74.0</ele><time>2026-04-01T13:52:02.998Z</time></trkpt><trkpt lat="49.23970118350639" lon="2.4697456639918145"><ele>74.0</ele><time>2026-04-01T13:52:05.998Z</time></trkpt><trkpt lat="49.239762115933765" lon="2.4698507142285973"><ele>74.0</ele><time>2026-04-01T13:52:08.998Z</time></trkpt><trkpt lat="49.23981601899654" lon="2.469968558505925"><ele>74.66666666666667</ele><time>2026-04-01T13:52:11.998Z</time></trkpt><trkpt lat="49.23987166067777" lon="2.4700810964783604"><ele>75.33333333333334</ele><time>2026-04-01T13:52:14.997Z</time></trkpt><trkpt lat="49.23993164030384" lon="2.470111894514584"><ele>76.0</ele><time>2026-04-01T13:52:16.997Z</time></trkpt><trkpt lat="49.24000028757932" lon="2.470103693325227"><ele>76.66666666666667</ele><time>2026-04-01T13:52:18.997Z</time></trkpt><trkpt lat="49.240096862551255" lon="2.4700874793675136"><ele>77.33333333333333</ele><time>2026-04-01T13:52:21.997Z</time></trkpt><trkpt lat="49.24016371713359" lon="2.4700807514932093"><ele>78.0</ele><time>2026-04-01T13:52:23.997Z</time></trkpt><trkpt lat="49.24022369806162" lon="2.4700494593855185"><ele>78.0</ele><time>2026-04-01T13:52:25.997Z</time></trkpt><trkpt lat="49.24032037240691" lon="2.47004895898677"><ele>78.0</ele><time>2026-04-01T13:52:28.997Z</time></trkpt><trkpt lat="49.2404053738316" lon="2.470038390052183"><ele>78.0</ele><time>2026-04-01T13:52:31.997Z</time></trkpt><trkpt lat="49.24049764043064" lon="2.4700219781480466"><ele>78.0</ele><time>2026-04-01T13:52:34.997Z</time></trkpt><trkpt lat="49.24056177729623" lon="2.4700068358769065"><ele>78.0</ele><time>2026-04-01T13:52:37Z</time></trkpt><trkpt lat="49.240635719987345" lon="2.4699927539514"><ele>78.0</ele><time>2026-04-01T13:52:39Z</time></trkpt><trkpt lat="49.24071557781158" lon="2.4699822415845585"><ele>78.0</ele><time>2026-04-01T13:52:41Z</time></trkpt><trkpt lat="49.24078013726539" lon="2.4699695524419285"><ele>78.0</ele><time>2026-04-01T13:52:43Z</time></trkpt><trkpt lat="49.240852448325874" lon="2.4699602472180695"><ele>78.0</ele><time>2026-04-01T13:52:45Z</time></trkpt><trkpt lat="49.2408989563551" lon="2.470067524469258"><ele>78.0</ele><time>2026-04-01T13:52:46Z</time></trkpt><trkpt lat="49.240968178020495" lon="2.4700507030626326"><ele>78.0</ele><time>2026-04-01T13:52:48Z</time></trkpt><trkpt lat="49.24105103699499" lon="2.470033015716252"><ele>78.0</ele><time>2026-04-01T13:52:50Z</time></trkpt><trkpt lat="49.241126931921066" lon="2.470018809682717"><ele>78.0</ele><time>2026-04-01T13:52:52Z</time></trkpt><trkpt lat="49.241195537449414" lon="2.47000737614537"><ele>78.0</ele><time>2026-04-01T13:52:54Z</time></trkpt><trkpt lat="49.24127572732371" lon="2.4699973852819275"><ele>78.0</ele><time>2026-04-01T13:52:56Z</time></trkpt><trkpt lat="49.24135461678262" lon="2.469987556431964"><ele>78.0</ele><time>2026-04-01T13:52:58Z</time></trkpt><trkpt lat="49.24143124938578" lon="2.4699792757892434"><ele>78.0</ele><time>2026-04-01T13:53:00Z</time></trkpt><trkpt lat="49.24151001903304" lon="2.469971113961149"><ele>78.0</ele><time>2026-04-01T13:53:02Z</time></trkpt><trkpt lat="49.241595706321704" lon="2.4699622353509496"><ele>77.8</ele><time>2026-04-01T13:53:04Z</time></trkpt><trkpt lat="49.24168891829398" lon="2.4699518784189065"><ele>77.6</ele><time>2026-04-01T13:53:06Z</time></trkpt><trkpt lat="49.24177702708912" lon="2.469940766649608"><ele>77.4</ele><time>2026-04-01T13:53:08Z</time></trkpt><trkpt lat="49.241871745422415" lon="2.4699280586890904"><ele>77.2</ele><time>2026-04-01T13:53:10Z</time></trkpt><trkpt lat="49.241959392105414" lon="2.4699137737997616"><ele>77.0</ele><time>2026-04-01T13:53:12Z</time></trkpt><trkpt lat="49.24204840836166" lon="2.4698998964007246"><ele>77.0</ele><time>2026-04-01T13:53:13.999Z</time></trkpt><trkpt lat="49.24213189166885" lon="2.4698868815674784"><ele>77.0</ele><time>2026-04-01T13:53:15.999Z</time></trkpt><trkpt lat="49.24222454999764" lon="2.4698700697886995"><ele>77.0</ele><time>2026-04-01T13:53:17.999Z</time></trkpt><trkpt lat="49.242314230919305" lon="2.4698536937920554"><ele>77.0</ele><time>2026-04-01T13:53:19.999Z</time></trkpt><trkpt lat="49.24239576490077" lon="2.4698388054546996"><ele>77.0</ele><time>2026-04-01T13:53:21.999Z</time></trkpt><trkpt lat="49.24248820658719" lon="2.469821925551572"><ele>77.0</ele><time>2026-04-01T13:53:26.999Z</time></trkpt><trkpt lat="49.24267015258332" lon="2.469645719635769"><ele>75.75</ele><time>2026-04-01T13:53:28.999Z</time></trkpt><trkpt lat="49.24252022297047" lon="2.4694637377909543"><ele>74.5</ele><time>2026-04-01T13:53:29.999Z</time></trkpt><trkpt lat="49.24257725579169" lon="2.4695180194504243"><ele>73.25</ele><time>2026-04-01T13:53:31.999Z</time></trkpt><trkpt lat="49.242617051292015" lon="2.469778585411465"><ele>72.0</ele><time>2026-04-01T13:53:33.999Z</time></trkpt><trkpt lat="49.24268137936254" lon="2.4697814928797306"><ele>72.0</ele><time>2026-04-01T13:53:35.999Z</time></trkpt><trkpt lat="49.242777767292026" lon="2.469778245847534"><ele>72.0</ele><time>2026-04-01T13:53:37.999Z</time></trkpt><trkpt lat="49.2428667379893" lon="2.469765839844036"><ele>72.0</ele><time>2026-04-01T13:53:39.999Z</time></trkpt><trkpt lat="49.242955015750994" lon="2.469751866437979"><ele>72.0</ele><time>2026-04-01T13:53:41.999Z</time></trkpt><trkpt lat="49.24304180701019" lon="2.4697378184110197"><ele>72.0</ele><time>2026-04-01T13:53:43.999Z</time></trkpt><trkpt lat="49.243128721207334" lon="2.4697237504884844"><ele>72.0</ele><time>2026-04-01T13:53:45.998Z</time></trkpt><trkpt lat="49.24321536712909" lon="2.4697097259876104"><ele>72.0</ele><time>2026-04-01T13:53:47.998Z</time></trkpt><trkpt lat="49.24330319441029" lon="2.469695484367449"><ele>72.0</ele><time>2026-04-01T13:53:49.998Z</time></trkpt><trkpt lat="49.24339240550575" lon="2.4696810059141963"><ele>72.0</ele><time>2026-04-01T13:53:51.998Z</time></trkpt><trkpt lat="49.24348057535674" lon="2.469666696466354"><ele>72.0</ele><time>2026-04-01T13:53:53.998Z</time></trkpt><trkpt lat="49.243566393790886" lon="2.469652768626181"><ele>72.0</ele><time>2026-04-01T13:53:55.998Z</time></trkpt><trkpt lat="49.24364990387602" lon="2.469639711641182"><ele>72.0</ele><time>2026-04-01T13:53:57.998Z</time></trkpt><trkpt lat="49.24373377443032" lon="2.4696284517915434"><ele>72.0</ele><time>2026-04-01T13:53:59.998Z</time></trkpt><trkpt lat="49.24382174454929" lon="2.469627848517042"><ele>72.0</ele><time>2026-04-01T13:54:01.998Z</time></trkpt><trkpt lat="49.24390448933062" lon="2.469619384919031"><ele>72.0</ele><time>2026-04-01T13:54:03.998Z</time></trkpt><trkpt lat="49.24400108453921" lon="2.469614897352362"><ele>72.0</ele><time>2026-04-01T13:54:06.998Z</time></trkpt><trkpt lat="49.24409161157265" lon="2.469532406171554"><ele>72.0</ele><time>2026-04-01T13:54:10.998Z</time></trkpt><trkpt lat="49.24412439183188" lon="2.469649738822555"><ele>71.83333333333333</ele><time>2026-04-01T13:54:13.998Z</time></trkpt><trkpt lat="49.244205734703826" lon="2.4696815260307674"><ele>71.66666666666667</ele><time>2026-04-01T13:54:15.997Z</time></trkpt><trkpt lat="49.2442877972519" lon="2.469752946031508"><ele>71.5</ele><time>2026-04-01T13:54:17.997Z</time></trkpt><trkpt lat="49.24435196688959" lon="2.469800349951955"><ele>71.33333333333334</ele><time>2026-04-01T13:54:19.997Z</time></trkpt><trkpt lat="49.244417604383955" lon="2.469817601470565"><ele>71.16666666666667</ele><time>2026-04-01T13:54:21.997Z</time></trkpt><trkpt lat="49.244491377451354" lon="2.4698151881736594"><ele>71.0</ele><time>2026-04-01T13:54:23.997Z</time></trkpt><trkpt lat="49.244568196118166" lon="2.469809686688693"><ele>71.0</ele><time>2026-04-01T13:54:25.997Z</time></trkpt><trkpt lat="49.24461332038053" lon="2.4698845065630035"><ele>71.0</ele><time>2026-04-01T13:54:26.997Z</time></trkpt><trkpt lat="49.24460288562019" lon="2.469745739595986"><ele>71.0</ele><time>2026-04-01T13:54:28.997Z</time></trkpt><trkpt lat="49.24465323479879" lon="2.469678731824756"><ele>71.0</ele><time>2026-04-01T13:54:30.997Z</time></trkpt><trkpt lat="49.24469399674772" lon="2.469603737088631"><ele>71.0</ele><time>2026-04-01T13:54:32.997Z</time></trkpt><trkpt lat="49.24473323667245" lon="2.469509279161209"><ele>71.0</ele><time>2026-04-01T13:54:34.997Z</time></trkpt><trkpt lat="49.24486438474913" lon="2.4695951164662673"><ele>70.6</ele><time>2026-04-01T13:54:35.997Z</time></trkpt><trkpt lat="49.24496181629992" lon="2.469622480301684"><ele>70.19999999999999</ele><time>2026-04-01T13:54:37.997Z</time></trkpt><trkpt lat="49.24504493426339" lon="2.469678133339304"><ele>69.80000000000001</ele><time>2026-04-01T13:54:39.997Z</time></trkpt><trkpt lat="49.245118153276714" lon="2.4697413082095827"><ele>69.4</ele><time>2026-04-01T13:54:42Z</time></trkpt><trkpt lat="49.2451912215799" lon="2.469817586140249"><ele>69.0</ele><time>2026-04-01T13:54:44Z</time></trkpt><trkpt lat="49.24526823201052" lon="2.469892187822254"><ele>69.0</ele><time>2026-04-01T13:54:46Z</time></trkpt><trkpt lat="49.2453417139784" lon="2.469963356471772"><ele>69.0</ele><time>2026-04-01T13:54:48Z</time></trkpt><trkpt lat="49.245415231783504" lon="2.4700333511434924"><ele>69.0</ele><time>2026-04-01T13:54:50Z</time></trkpt><trkpt lat="49.24547980121171" lon="2.4701236383590532"><ele>69.0</ele><time>2026-04-01T13:54:52Z</time></trkpt><trkpt lat="49.24555383793599" lon="2.4701907719653993"><ele>69.0</ele><time>2026-04-01T13:54:54Z</time></trkpt><trkpt lat="49.24562478611406" lon="2.4702576590730936"><ele>69.0</ele><time>2026-04-01T13:54:56Z</time></trkpt><trkpt lat="49.24570487534189" lon="2.4703046106911026"><ele>69.0</ele><time>2026-04-01T13:54:58Z</time></trkpt><trkpt lat="49.24577163681401" lon="2.470392695164226"><ele>69.0</ele><time>2026-04-01T13:55:00Z</time></trkpt><trkpt lat="49.24583855843541" lon="2.4704715925200897"><ele>69.0</ele><time>2026-04-01T13:55:02Z</time></trkpt><trkpt lat="49.2459128284899" lon="2.4705409533396447"><ele>69.0</ele><time>2026-04-01T13:55:04Z</time></trkpt><trkpt lat="49.24595071047811" lon="2.470676973996889"><ele>69.0</ele><time>2026-04-01T13:55:06Z</time></trkpt><trkpt lat="49.24598333685315" lon="2.47080294993087"><ele>69.0</ele><time>2026-04-01T13:55:08Z</time></trkpt><trkpt lat="49.2460577857547" lon="2.470886910964286"><ele>69.2</ele><time>2026-04-01T13:55:10Z</time></trkpt><trkpt lat="49.2461550245971" lon="2.4709097545148486"><ele>69.4</ele><time>2026-04-01T13:55:12Z</time></trkpt><trkpt lat="49.24625443915456" lon="2.4708938269832235"><ele>69.6</ele><time>2026-04-01T13:55:13.999Z</time></trkpt><trkpt lat="49.246352048521175" lon="2.4709407106746646"><ele>69.8</ele><time>2026-04-01T13:55:15.999Z</time></trkpt><trkpt lat="49.246437000261224" lon="2.4710365182867435"><ele>70.0</ele><time>2026-04-01T13:55:17.999Z</time></trkpt><trkpt lat="49.24652365169184" lon="2.4711191286963747"><ele>70.4</ele><time>2026-04-01T13:55:19.999Z</time></trkpt><trkpt lat="49.24661204017004" lon="2.471198354976715"><ele>70.8</ele><time>2026-04-01T13:55:21.999Z</time></trkpt><trkpt lat="49.246690094754115" lon="2.471291034930211"><ele>71.2</ele><time>2026-04-01T13:55:23.999Z</time></trkpt><trkpt lat="49.24675987524707" lon="2.4713853369412973"><ele>71.6</ele><time>2026-04-01T13:55:25.999Z</time></trkpt><trkpt lat="49.246837170763754" lon="2.471478398668308"><ele>72.0</ele><time>2026-04-01T13:55:27.999Z</time></trkpt><trkpt lat="49.246924765433945" lon="2.4715562096168076"><ele>72.0</ele><time>2026-04-01T13:55:29.999Z</time></trkpt><trkpt lat="49.24698757766866" lon="2.471647433253166"><ele>72.0</ele><time>2026-04-01T13:55:31.999Z</time></trkpt><trkpt lat="49.247056291510006" lon="2.471722452636597"><ele>72.0</ele><time>2026-04-01T13:55:33.999Z</time></trkpt><trkpt lat="49.2471257833124" lon="2.4717981868226713"><ele>72.0</ele><time>2026-04-01T13:55:35.999Z</time></trkpt><trkpt lat="49.24720574970146" lon="2.47187653851227"><ele>72.0</ele><time>2026-04-01T13:55:37.999Z</time></trkpt><trkpt lat="49.247280603621654" lon="2.471953636559546"><ele>72.0</ele><time>2026-04-01T13:55:39.999Z</time></trkpt><trkpt lat="49.247349468332324" lon="2.472034825217459"><ele>72.8</ele><time>2026-04-01T13:55:41.999Z</time></trkpt><trkpt lat="49.24741622598549" lon="2.472124923611112"><ele>73.6</ele><time>2026-04-01T13:55:43.999Z</time></trkpt><trkpt lat="49.24749767360052" lon="2.4722027841296548"><ele>74.39999999999999</ele><time>2026-04-01T13:55:45.998Z</time></trkpt><trkpt lat="49.247568445049296" lon="2.472289327954508"><ele>75.2</ele><time>2026-04-01T13:55:47.998Z</time></trkpt><trkpt lat="49.247646891035245" lon="2.4723699442241736"><ele>76.0</ele><time>2026-04-01T13:55:49.998Z</time></trkpt><trkpt lat="49.24772151376165" lon="2.472449544806734"><ele>76.0</ele><time>2026-04-01T13:55:51.998Z</time></trkpt><trkpt lat="49.247798984091155" lon="2.472526976042668"><ele>76.0</ele><time>2026-04-01T13:55:53.998Z</time></trkpt><trkpt lat="49.24786896890457" lon="2.472610027062312"><ele>76.0</ele><time>2026-04-01T13:55:55.998Z</time></trkpt><trkpt lat="49.24794344686953" lon="2.472686578059506"><ele>76.0</ele><time>2026-04-01T13:55:57.998Z</time></trkpt><trkpt lat="49.248018484948396" lon="2.4727805089308785"><ele>76.0</ele><time>2026-04-01T13:55:59.998Z</time></trkpt><trkpt lat="49.24807845786307" lon="2.472862927110952"><ele>76.0</ele><time>2026-04-01T13:56:01.998Z</time></trkpt><trkpt lat="49.24815221487463" lon="2.4729391418629105"><ele>75.8</ele><time>2026-04-01T13:56:03.998Z</time></trkpt><trkpt lat="49.248220495089164" lon="2.473031192976092"><ele>75.6</ele><time>2026-04-01T13:56:05.998Z</time></trkpt><trkpt lat="49.24829789703162" lon="2.4731106088103614"><ele>75.4</ele><time>2026-04-01T13:56:07.998Z</time></trkpt><trkpt lat="49.24836912983478" lon="2.4732062070964873"><ele>75.2</ele><time>2026-04-01T13:56:09.998Z</time></trkpt><trkpt lat="49.24844645396484" lon="2.473294417923182"><ele>75.0</ele><time>2026-04-01T13:56:11.998Z</time></trkpt><trkpt lat="49.248525004413665" lon="2.4733786543385676"><ele>75.0</ele><time>2026-04-01T13:56:13.998Z</time></trkpt><trkpt lat="49.248596250821116" lon="2.4734662110377124"><ele>75.0</ele><time>2026-04-01T13:56:15.998Z</time></trkpt><trkpt lat="49.24867330556409" lon="2.4735511034922437"><ele>75.0</ele><time>2026-04-01T13:56:17.997Z</time></trkpt><trkpt lat="49.24876035987127" lon="2.4736120005520563"><ele>75.0</ele><time>2026-04-01T13:56:19.997Z</time></trkpt><trkpt lat="49.248829231701386" lon="2.4736827891180706"><ele>75.0</ele><time>2026-04-01T13:56:21.997Z</time></trkpt><trkpt lat="49.24891414994122" lon="2.4737667568603285"><ele>75.16666666666667</ele><time>2026-04-01T13:56:23.997Z</time></trkpt><trkpt lat="49.24898679527577" lon="2.473847771164233"><ele>75.33333333333333</ele><time>2026-04-01T13:56:25.997Z</time></trkpt><trkpt lat="49.24906477599734" lon="2.4739345451291093"><ele>75.5</ele><time>2026-04-01T13:56:27.997Z</time></trkpt><trkpt lat="49.249137103793466" lon="2.4740077816560464"><ele>75.66666666666666</ele><time>2026-04-01T13:56:29.997Z</time></trkpt><trkpt lat="49.249196901703925" lon="2.474090101333281"><ele>75.83333333333333</ele><time>2026-04-01T13:56:31.997Z</time></trkpt><trkpt lat="49.24925416272621" lon="2.4741582573790137"><ele>76.0</ele><time>2026-04-01T13:56:33.997Z</time></trkpt><trkpt lat="49.249308473284906" lon="2.474217522038646"><ele>76.0</ele><time>2026-04-01T13:56:35.997Z</time></trkpt><trkpt lat="49.24937534224387" lon="2.474273858108816"><ele>76.0</ele><time>2026-04-01T13:56:37.997Z</time></trkpt><trkpt lat="49.24944040818736" lon="2.474331849544299"><ele>76.0</ele><time>2026-04-01T13:56:39.997Z</time></trkpt><trkpt lat="49.24950460136017" lon="2.474411084702538"><ele>76.0</ele><time>2026-04-01T13:56:41.997Z</time></trkpt><trkpt lat="49.249575129626564" lon="2.474477886908192"><ele>76.0</ele><time>2026-04-01T13:56:43.997Z</time></trkpt><trkpt lat="49.2496293071919" lon="2.47455282944316"><ele>76.0</ele><time>2026-04-01T13:56:45.997Z</time></trkpt><trkpt lat="49.24968810042614" lon="2.4746255134991815"><ele>76.14285714285714</ele><time>2026-04-01T13:56:48Z</time></trkpt><trkpt lat="49.249741931055375" lon="2.4746851203851734"><ele>76.28571428571429</ele><time>2026-04-01T13:56:50Z</time></trkpt><trkpt lat="49.24979794964032" lon="2.474737171715571"><ele>76.42857142857143</ele><time>2026-04-01T13:56:52Z</time></trkpt><trkpt lat="49.24985362924375" lon="2.4748052791989803"><ele>76.57142857142857</ele><time>2026-04-01T13:56:54Z</time></trkpt><trkpt lat="49.24991025948753" lon="2.4748765370798544"><ele>76.71428571428572</ele><time>2026-04-01T13:56:56Z</time></trkpt><trkpt lat="49.24997280328447" lon="2.4749398740659734"><ele>76.85714285714286</ele><time>2026-04-01T13:56:58Z</time></trkpt><trkpt lat="49.25003756033543" lon="2.4750123291907644"><ele>77.0</ele><time>2026-04-01T13:57:00Z</time></trkpt><trkpt lat="49.25010027596765" lon="2.4750628901799017"><ele>77.0</ele><time>2026-04-01T13:57:02Z</time></trkpt><trkpt lat="49.250162909615206" lon="2.475112813634716"><ele>77.0</ele><time>2026-04-01T13:57:04Z</time></trkpt><trkpt lat="49.250215944337576" lon="2.475185819080942"><ele>77.0</ele><time>2026-04-01T13:57:06Z</time></trkpt><trkpt lat="49.250270074457696" lon="2.475255108934016"><ele>77.0</ele><time>2026-04-01T13:57:08Z</time></trkpt><trkpt lat="49.250333315577585" lon="2.4752981815737995"><ele>77.0</ele><time>2026-04-01T13:57:10Z</time></trkpt><trkpt lat="49.25040500902663" lon="2.4753720005061437"><ele>77.0</ele><time>2026-04-01T13:57:12.999Z</time></trkpt><trkpt lat="49.25048230282315" lon="2.475399519710068"><ele>77.0</ele><time>2026-04-01T13:57:16.999Z</time></trkpt><trkpt lat="49.250539943246835" lon="2.4754537398593923"><ele>77.2</ele><time>2026-04-01T13:57:19.999Z</time></trkpt><trkpt lat="49.25057776223177" lon="2.4755348759368467"><ele>77.4</ele><time>2026-04-01T13:57:21.999Z</time></trkpt><trkpt lat="49.25061368197734" lon="2.475807287399237"><ele>77.6</ele><time>2026-04-01T13:57:25.999Z</time></trkpt><trkpt lat="49.2505126650993" lon="2.4757090636598806"><ele>77.8</ele><time>2026-04-01T13:57:26.999Z</time></trkpt><trkpt lat="49.25044948045886" lon="2.475752496851121"><ele>78.0</ele><time>2026-04-01T13:57:28.999Z</time></trkpt><trkpt lat="49.25041054415326" lon="2.4758588080348622"><ele>78.0</ele><time>2026-04-01T13:57:30.999Z</time></trkpt><trkpt lat="49.25038803530829" lon="2.4759522017096445"><ele>78.0</ele><time>2026-04-01T13:57:32.999Z</time></trkpt><trkpt lat="49.250322881348424" lon="2.4759950521394827"><ele>78.0</ele><time>2026-04-01T13:57:34.999Z</time></trkpt><trkpt lat="49.25026558226007" lon="2.4761130880407727"><ele>78.0</ele><time>2026-04-01T13:57:37.999Z</time></trkpt><trkpt lat="49.25022813756387" lon="2.4761926696399112"><ele>78.0</ele><time>2026-04-01T13:57:39.999Z</time></trkpt><trkpt lat="49.25017512711488" lon="2.4762782344327223"><ele>78.0</ele><time>2026-04-01T13:57:42.999Z</time></trkpt><trkpt lat="49.25011728855198" lon="2.476398871641853"><ele>78.0</ele><time>2026-04-01T13:57:45.999Z</time></trkpt><trkpt lat="49.25008985463922" lon="2.4764900478440377"><ele>78.0</ele><time>2026-04-01T13:57:47.998Z</time></trkpt><trkpt lat="49.2500292518987" lon="2.476597814792548"><ele>78.0</ele><time>2026-04-01T13:57:50.998Z</time></trkpt><trkpt lat="49.24989321146166" lon="2.476559476455868"><ele>78.0</ele><time>2026-04-01T13:57:54.998Z</time></trkpt><trkpt lat="49.24981080057051" lon="2.476541020308038"><ele>78.0</ele><time>2026-04-01T13:57:56.998Z</time></trkpt><trkpt lat="49.24975072782365" lon="2.4765012048205355"><ele>78.0</ele><time>2026-04-01T13:58:00.998Z</time></trkpt><trkpt lat="49.24968834181592" lon="2.476481354111651"><ele>77.66666666666667</ele><time>2026-04-01T13:58:02.998Z</time></trkpt><trkpt lat="49.249619447522925" lon="2.4764594070468573"><ele>77.33333333333333</ele><time>2026-04-01T13:58:04.998Z</time></trkpt><trkpt lat="49.249538922305064" lon="2.4764337354947648"><ele>77.0</ele><time>2026-04-01T13:58:06.998Z</time></trkpt><trkpt lat="49.24946880522032" lon="2.476410889493256"><ele>76.66666666666666</ele><time>2026-04-01T13:58:08.998Z</time></trkpt><trkpt lat="49.24938926165292" lon="2.4763851203775262"><ele>76.33333333333333</ele><time>2026-04-01T13:58:10.998Z</time></trkpt><trkpt lat="49.24931135974115" lon="2.476359883110096"><ele>76.0</ele><time>2026-04-01T13:58:12.998Z</time></trkpt><trkpt lat="49.24924073353637" lon="2.4763370028990503"><ele>76.0</ele><time>2026-04-01T13:58:14.998Z</time></trkpt><trkpt lat="49.24916804647024" lon="2.476313455021908"><ele>76.0</ele><time>2026-04-01T13:58:16.998Z</time></trkpt><trkpt lat="49.24908441835393" lon="2.4762863620738687"><ele>76.0</ele><time>2026-04-01T13:58:19.997Z</time></trkpt><trkpt lat="49.24899821400757" lon="2.4762575373737237"><ele>76.0</ele><time>2026-04-01T13:58:23.997Z</time></trkpt><trkpt lat="49.248929912184515" lon="2.4762348568254717"><ele>76.0</ele><time>2026-04-01T13:58:40.997Z</time></trkpt><trkpt lat="49.24884790838598" lon="2.4762076263235304"><ele>76.0</ele><time>2026-04-01T13:58:42.997Z</time></trkpt><trkpt lat="49.24876598466888" lon="2.476180970854677"><ele>76.0</ele><time>2026-04-01T13:58:45.997Z</time></trkpt><trkpt lat="49.24869268824442" lon="2.4761818164059286"><ele>76.0</ele><time>2026-04-01T13:58:48.997Z</time></trkpt><trkpt lat="49.248417945749175" lon="2.476196822696736"><ele>76.0</ele><time>2026-04-01T13:58:49.997Z</time></trkpt><trkpt lat="49.24836315722684" lon="2.4763041238517536"><ele>76.0</ele><time>2026-04-01T13:58:52Z</time></trkpt><trkpt lat="49.24823623032186" lon="2.4764508992425367"><ele>76.0</ele><time>2026-04-01T13:58:54Z</time></trkpt><trkpt lat="49.24821030839546" lon="2.47669104973238"><ele>76.0</ele><time>2026-04-01T13:58:55Z</time></trkpt><trkpt lat="49.248201043071795" lon="2.4768111602020033"><ele>76.0</ele><time>2026-04-01T13:58:59Z</time></trkpt><trkpt lat="49.248137522665445" lon="2.4769135640751103"><ele>76.0</ele><time>2026-04-01T13:59:02Z</time></trkpt><trkpt lat="49.248385225845" lon="2.4773603525171692"><ele>76.0</ele><time>2026-04-01T13:59:04Z</time></trkpt><trkpt lat="49.248329538143665" lon="2.4774812492174174"><ele>76.0</ele><time>2026-04-01T13:59:06Z</time></trkpt><trkpt lat="49.24827757529624" lon="2.477555106192287"><ele>76.0</ele><time>2026-04-01T13:59:08Z</time></trkpt><trkpt lat="49.24821577589941" lon="2.4776132725518147"><ele>76.0</ele><time>2026-04-01T13:59:10Z</time></trkpt><trkpt lat="49.24817126289565" lon="2.4777058230070588"><ele>76.0</ele><time>2026-04-01T13:59:10.999Z</time></trkpt><trkpt lat="49.24810126168688" lon="2.4777993472009707"><ele>76.0</ele><time>2026-04-01T13:59:12.999Z</time></trkpt><trkpt lat="49.248094962614964" lon="2.477899198941631"><ele>77.28571428571428</ele><time>2026-04-01T13:59:28.999Z</time></trkpt><trkpt lat="49.24807606651525" lon="2.4780006914814146"><ele>78.57142857142858</ele><time>2026-04-01T13:59:35.999Z</time></trkpt><trkpt lat="49.24801186209932" lon="2.4780639027401667"><ele>79.85714285714286</ele><time>2026-04-01T13:59:37.999Z</time></trkpt><trkpt lat="49.247982141118946" lon="2.478158350433983"><ele>81.14285714285714</ele><time>2026-04-01T13:59:40.999Z</time></trkpt><trkpt lat="49.24794663237758" lon="2.4782497526063403"><ele>82.42857142857142</ele><time>2026-04-01T13:59:42.999Z</time></trkpt><trkpt lat="49.24789985675614" lon="2.4783285571699705"><ele>83.71428571428572</ele><time>2026-04-01T13:59:44.999Z</time></trkpt><trkpt lat="49.2478591802964" lon="2.4784143389938125"><ele>85.0</ele><time>2026-04-01T13:59:46.999Z</time></trkpt><trkpt lat="49.24781388380362" lon="2.478493718477891"><ele>85.0</ele><time>2026-04-01T13:59:48.998Z</time></trkpt><trkpt lat="49.2477720770561" lon="2.4785911923174133"><ele>85.0</ele><time>2026-04-01T13:59:50.998Z</time></trkpt><trkpt lat="49.24772394022915" lon="2.478686182369534"><ele>85.0</ele><time>2026-04-01T13:59:52.998Z</time></trkpt><trkpt lat="49.24768399930467" lon="2.478801898162461"><ele>85.0</ele><time>2026-04-01T13:59:55.998Z</time></trkpt><trkpt lat="49.247640183830796" lon="2.4789011007440216"><ele>85.0</ele><time>2026-04-01T13:59:57.998Z</time></trkpt><trkpt lat="49.24758812040433" lon="2.478994943710564"><ele>85.0</ele><time>2026-04-01T14:00:00.998Z</time></trkpt><trkpt lat="49.24754072053886" lon="2.4790699371074383"><ele>85.0</ele><time>2026-04-01T14:00:02.998Z</time></trkpt><trkpt lat="49.24750061213967" lon="2.4791809819582036"><ele>85.0</ele><time>2026-04-01T14:00:04.998Z</time></trkpt><trkpt lat="49.24748461775421" lon="2.479302495383041"><ele>85.0</ele><time>2026-04-01T14:00:06.998Z</time></trkpt><trkpt lat="49.24747784378669" lon="2.479417559257034"><ele>85.0</ele><time>2026-04-01T14:00:08.998Z</time></trkpt><trkpt lat="49.247468161670156" lon="2.479522027512226"><ele>85.0</ele><time>2026-04-01T14:00:10.998Z</time></trkpt><trkpt lat="49.24748607724238" lon="2.4796583322206094"><ele>85.0</ele><time>2026-04-01T14:00:12.998Z</time></trkpt><trkpt lat="49.24748532532883" lon="2.4797628719224294"><ele>85.0</ele><time>2026-04-01T14:00:14.998Z</time></trkpt><trkpt lat="49.24748730666973" lon="2.4798919968736874"><ele>85.0</ele><time>2026-04-01T14:00:16.998Z</time></trkpt><trkpt lat="49.247478375656215" lon="2.4800187100913"><ele>85.0</ele><time>2026-04-01T14:00:18.998Z</time></trkpt><trkpt lat="49.24745455578549" lon="2.4801249832851826"><ele>85.0</ele><time>2026-04-01T14:00:20.998Z</time></trkpt><trkpt lat="49.24741909187138" lon="2.480249826719771"><ele>85.0</ele><time>2026-04-01T14:00:22.997Z</time></trkpt><trkpt lat="49.247407954196596" lon="2.4803680312587693"><ele>85.0</ele><time>2026-04-01T14:00:24.997Z</time></trkpt><trkpt lat="49.247408710664665" lon="2.4804952144190544"><ele>84.83333333333333</ele><time>2026-04-01T14:00:26.997Z</time></trkpt><trkpt lat="49.24738056711256" lon="2.4806827996612295"><ele>84.66666666666666</ele><time>2026-04-01T14:00:28.997Z</time></trkpt><trkpt lat="49.24736647095576" lon="2.4807922438519507"><ele>84.5</ele><time>2026-04-01T14:00:30.997Z</time></trkpt><trkpt lat="49.247345165112115" lon="2.480903893318406"><ele>84.33333333333333</ele><time>2026-04-01T14:00:32.997Z</time></trkpt><trkpt lat="49.24733821761084" lon="2.4810408485700597"><ele>84.16666666666667</ele><time>2026-04-01T14:00:35.997Z</time></trkpt><trkpt lat="49.247334040647516" lon="2.4811566639706064"><ele>84.0</ele><time>2026-04-01T14:00:38.997Z</time></trkpt><trkpt lat="49.24734476702342" lon="2.4812672536409117"><ele>83.71428571428571</ele><time>2026-04-01T14:00:41.997Z</time></trkpt><trkpt lat="49.247331123023336" lon="2.4813637771520756"><ele>83.42857142857143</ele><time>2026-04-01T14:00:43.997Z</time></trkpt><trkpt lat="49.24732722378379" lon="2.4814685421960476"><ele>83.14285714285714</ele><time>2026-04-01T14:00:46.997Z</time></trkpt><trkpt lat="49.247319246788415" lon="2.4815811661460594"><ele>82.85714285714286</ele><time>2026-04-01T14:00:49.997Z</time></trkpt><trkpt lat="49.24729300647609" lon="2.4816728856988237"><ele>82.57142857142857</ele><time>2026-04-01T14:00:52.997Z</time></trkpt><trkpt lat="49.24727667025304" lon="2.4817953275302846"><ele>82.28571428571428</ele><time>2026-04-01T14:00:54.997Z</time></trkpt><trkpt lat="49.24719345098847" lon="2.4818609844402557"><ele>82.0</ele><time>2026-04-01T14:00:57.999Z</time></trkpt><trkpt lat="49.247137641948505" lon="2.481913880281716"><ele>82.5</ele><time>2026-04-01T14:00:59.999Z</time></trkpt><trkpt lat="49.24706593658368" lon="2.4819586440569674"><ele>83.0</ele><time>2026-04-01T14:01:02Z</time></trkpt><trkpt lat="49.246984810051124" lon="2.4820121418199372"><ele>83.5</ele><time>2026-04-01T14:01:04Z</time></trkpt><trkpt lat="49.24691056378623" lon="2.482082608376992"><ele>84.0</ele><time>2026-04-01T14:01:07Z</time></trkpt><trkpt lat="49.246844682016736" lon="2.4821340590546708"><ele>84.5</ele><time>2026-04-01T14:01:09Z</time></trkpt><trkpt lat="49.246750448470706" lon="2.4821913993235203"><ele>85.0</ele><time>2026-04-01T14:01:12Z</time></trkpt><trkpt lat="49.246692203387" lon="2.482273813760833"><ele>85.0</ele><time>2026-04-01T14:01:14Z</time></trkpt><trkpt lat="49.246624724721485" lon="2.4823521848153955"><ele>85.0</ele><time>2026-04-01T14:01:15.999Z</time></trkpt><trkpt lat="49.24655383821858" lon="2.482416378043089"><ele>85.0</ele><time>2026-04-01T14:01:17.999Z</time></trkpt><trkpt lat="49.24649075157818" lon="2.482490099330869"><ele>85.0</ele><time>2026-04-01T14:01:19.999Z</time></trkpt><trkpt lat="49.246422276300734" lon="2.4825746290469204"><ele>85.0</ele><time>2026-04-01T14:01:21.999Z</time></trkpt><trkpt lat="49.24636674304043" lon="2.482648296163156"><ele>85.0</ele><time>2026-04-01T14:01:23.999Z</time></trkpt><trkpt lat="49.24631079859678" lon="2.482732343872535"><ele>84.83333333333333</ele><time>2026-04-01T14:01:25.999Z</time></trkpt><trkpt lat="49.24623903628748" lon="2.4828184472414394"><ele>84.66666666666666</ele><time>2026-04-01T14:01:27.999Z</time></trkpt><trkpt lat="49.24616691999707" lon="2.4829077154297106"><ele>84.5</ele><time>2026-04-01T14:01:29.999Z</time></trkpt><trkpt lat="49.246103169686485" lon="2.482975918097346"><ele>84.33333333333333</ele><time>2026-04-01T14:01:31.999Z</time></trkpt><trkpt lat="49.24604082671848" lon="2.483040962628824"><ele>84.16666666666667</ele><time>2026-04-01T14:01:33.999Z</time></trkpt><trkpt lat="49.24598889212434" lon="2.4831283974610856"><ele>84.0</ele><time>2026-04-01T14:01:36.999Z</time></trkpt><trkpt lat="49.245928685949515" lon="2.4831998136114573"><ele>84.0</ele><time>2026-04-01T14:01:38.999Z</time></trkpt><trkpt lat="49.2458684272524" lon="2.4832507843771894"><ele>84.0</ele><time>2026-04-01T14:01:40.999Z</time></trkpt><trkpt lat="49.24581302988005" lon="2.4833170670050047"><ele>84.0</ele><time>2026-04-01T14:01:42.999Z</time></trkpt><trkpt lat="49.245751324416176" lon="2.4833803001486263"><ele>84.0</ele><time>2026-04-01T14:01:45.999Z</time></trkpt><trkpt lat="49.245675822953615" lon="2.4833365925868964"><ele>84.0</ele><time>2026-04-01T14:01:49.999Z</time></trkpt><trkpt lat="49.24561338102965" lon="2.4833764804770455"><ele>84.0</ele><time>2026-04-01T14:01:53.999Z</time></trkpt><trkpt lat="49.24556231290465" lon="2.483449060071513"><ele>84.0</ele><time>2026-04-01T14:01:55.998Z</time></trkpt><trkpt lat="49.24548561974427" lon="2.483516637595986"><ele>84.0</ele><time>2026-04-01T14:02:02.998Z</time></trkpt><trkpt lat="49.24543801246972" lon="2.483445043942407"><ele>84.0</ele><time>2026-04-01T14:02:04.998Z</time></trkpt><trkpt lat="49.24549413081932" lon="2.4833786324831233"><ele>84.0</ele><time>2026-04-01T14:02:05.998Z</time></trkpt><trkpt lat="49.245348992915844" lon="2.4835602514657276"><ele>84.0</ele><time>2026-04-01T14:02:09.998Z</time></trkpt><trkpt lat="49.24527576382948" lon="2.483584509126554"><ele>84.0</ele><time>2026-04-01T14:02:12.998Z</time></trkpt><trkpt lat="49.24519992656494" lon="2.48357204311023"><ele>84.0</ele><time>2026-04-01T14:02:15.998Z</time></trkpt><trkpt lat="49.245151798850955" lon="2.4834946277293595"><ele>84.0</ele><time>2026-04-01T14:02:18.998Z</time></trkpt><trkpt lat="49.245077402472695" lon="2.483451760776412"><ele>84.0</ele><time>2026-04-01T14:02:21.998Z</time></trkpt><trkpt lat="49.24501632150249" lon="2.4835099386419914"><ele>84.0</ele><time>2026-04-01T14:02:23.998Z</time></trkpt><trkpt lat="49.24495179815913" lon="2.4835544689113713"><ele>84.0</ele><time>2026-04-01T14:02:25.998Z</time></trkpt><trkpt lat="49.2448565298172" lon="2.483556623414161"><ele>84.0</ele><time>2026-04-01T14:02:28.998Z</time></trkpt><trkpt lat="49.24476389580993" lon="2.4835772996397556"><ele>84.28571428571429</ele><time>2026-04-01T14:02:31.997Z</time></trkpt><trkpt lat="49.24470070634059" lon="2.4835862331189786"><ele>84.57142857142857</ele><time>2026-04-01T14:02:33.997Z</time></trkpt><trkpt lat="49.244631419710885" lon="2.483596203165121"><ele>84.85714285714286</ele><time>2026-04-01T14:02:35.997Z</time></trkpt><trkpt lat="49.244553092663175" lon="2.483607021331513"><ele>85.14285714285714</ele><time>2026-04-01T14:02:37.997Z</time></trkpt><trkpt lat="49.244482482897475" lon="2.483613600888578"><ele>85.42857142857143</ele><time>2026-04-01T14:02:39.997Z</time></trkpt><trkpt lat="49.24440967542971" lon="2.4836202271351637"><ele>85.71428571428572</ele><time>2026-04-01T14:02:41.997Z</time></trkpt><trkpt lat="49.24433729611076" lon="2.4836136202593417"><ele>86.0</ele><time>2026-04-01T14:02:43.997Z</time></trkpt><trkpt lat="49.244257437626" lon="2.4836294385213007"><ele>86.0</ele><time>2026-04-01T14:02:45.997Z</time></trkpt><trkpt lat="49.24417405684781" lon="2.4836262764591943"><ele>86.0</ele><time>2026-04-01T14:02:47.997Z</time></trkpt><trkpt lat="49.24407406254731" lon="2.483650248778497"><ele>86.0</ele><time>2026-04-01T14:02:50.997Z</time></trkpt><trkpt lat="49.244010716299975" lon="2.483650159048417"><ele>86.0</ele><time>2026-04-01T14:02:52.997Z</time></trkpt><trkpt lat="49.24391741209314" lon="2.4836431835569583"><ele>86.0</ele><time>2026-04-01T14:02:55.997Z</time></trkpt><trkpt lat="49.24385031616598" lon="2.4836673107530434"><ele>86.0</ele><time>2026-04-01T14:02:58.997Z</time></trkpt><trkpt lat="49.243770575551906" lon="2.483630158616206"><ele>85.85714285714286</ele><time>2026-04-01T14:03:01.997Z</time></trkpt><trkpt lat="49.24370200881741" lon="2.4836209593898637"><ele>85.71428571428572</ele><time>2026-04-01T14:03:03.999Z</time></trkpt><trkpt lat="49.24363059822844" lon="2.483601899757216"><ele>85.57142857142858</ele><time>2026-04-01T14:03:05.999Z</time></trkpt><trkpt lat="49.24355933167721" lon="2.4835782723253055"><ele>85.42857142857143</ele><time>2026-04-01T14:03:07.999Z</time></trkpt><trkpt lat="49.24348473863944" lon="2.483548967666021"><ele>85.28571428571428</ele><time>2026-04-01T14:03:09.999Z</time></trkpt><trkpt lat="49.24341492801539" lon="2.483516542842618"><ele>85.14285714285715</ele><time>2026-04-01T14:03:12Z</time></trkpt><trkpt lat="49.243347202827" lon="2.4835170627604"><ele>85.0</ele><time>2026-04-01T14:03:14Z</time></trkpt><trkpt lat="49.24327468337479" lon="2.4834885274812826"><ele>85.0</ele><time>2026-04-01T14:03:17Z</time></trkpt><trkpt lat="49.243213326019415" lon="2.483457103079459"><ele>85.0</ele><time>2026-04-01T14:03:19Z</time></trkpt><trkpt lat="49.24312753940715" lon="2.4834594370143552"><ele>85.0</ele><time>2026-04-01T14:03:21.999Z</time></trkpt><trkpt lat="49.24306169034212" lon="2.4834109506305193"><ele>85.0</ele><time>2026-04-01T14:03:24.999Z</time></trkpt><trkpt lat="49.243003882998856" lon="2.483345652738114"><ele>85.0</ele><time>2026-04-01T14:03:27.999Z</time></trkpt><trkpt lat="49.24293066731916" lon="2.4832575963920873"><ele>85.0</ele><time>2026-04-01T14:03:30.999Z</time></trkpt><trkpt lat="49.24283918889093" lon="2.4831832721233167"><ele>84.83333333333333</ele><time>2026-04-01T14:03:33.999Z</time></trkpt><trkpt lat="49.242756178627445" lon="2.483147735953279"><ele>84.66666666666666</ele><time>2026-04-01T14:03:36.999Z</time></trkpt><trkpt lat="49.242686819954415" lon="2.483138538830912"><ele>84.5</ele><time>2026-04-01T14:03:38.999Z</time></trkpt><trkpt lat="49.242619000652184" lon="2.483120620253775"><ele>84.33333333333333</ele><time>2026-04-01T14:03:40.999Z</time></trkpt><trkpt lat="49.24254548599262" lon="2.4830844585245355"><ele>84.16666666666667</ele><time>2026-04-01T14:03:42.999Z</time></trkpt><trkpt lat="49.242463952685526" lon="2.4830841609002205"><ele>84.0</ele><time>2026-04-01T14:03:45.999Z</time></trkpt><trkpt lat="49.24239222858938" lon="2.483080139476282"><ele>84.0</ele><time>2026-04-01T14:03:48.999Z</time></trkpt><trkpt lat="49.24232463446588" lon="2.4830576917113363"><ele>84.0</ele><time>2026-04-01T14:03:50.999Z</time></trkpt><trkpt lat="49.24224422295783" lon="2.48302837748603"><ele>84.0</ele><time>2026-04-01T14:03:53.999Z</time></trkpt><trkpt lat="49.2421574663042" lon="2.4830026366534343"><ele>84.0</ele><time>2026-04-01T14:03:56.999Z</time></trkpt><trkpt lat="49.242078361558455" lon="2.482959868656555"><ele>84.0</ele><time>2026-04-01T14:03:59.998Z</time></trkpt><trkpt lat="49.2419937786776" lon="2.4829185971751326"><ele>84.0</ele><time>2026-04-01T14:04:02.998Z</time></trkpt><trkpt lat="49.24191181823056" lon="2.48285161431635"><ele>84.57142857142857</ele><time>2026-04-01T14:04:06.998Z</time></trkpt><trkpt lat="49.241854740991606" lon="2.4827941594120753"><ele>85.14285714285714</ele><time>2026-04-01T14:04:08.998Z</time></trkpt><trkpt lat="49.24179690109667" lon="2.4827460017212277"><ele>85.71428571428572</ele><time>2026-04-01T14:04:10.998Z</time></trkpt><trkpt lat="49.24175504022844" lon="2.482673302378617"><ele>86.28571428571428</ele><time>2026-04-01T14:04:12.998Z</time></trkpt><trkpt lat="49.241713944445294" lon="2.482590915683658"><ele>86.85714285714286</ele><time>2026-04-01T14:04:14.998Z</time></trkpt><trkpt lat="49.2416662380837" lon="2.482512200470337"><ele>87.42857142857143</ele><time>2026-04-01T14:04:16.998Z</time></trkpt><trkpt lat="49.24161379531632" lon="2.482435145642251"><ele>88.0</ele><time>2026-04-01T14:04:18.998Z</time></trkpt><trkpt lat="49.24154053553054" lon="2.4823464505881447"><ele>88.42857142857143</ele><time>2026-04-01T14:04:21.998Z</time></trkpt><trkpt lat="49.241460049160416" lon="2.4822784101676207"><ele>88.85714285714286</ele><time>2026-04-01T14:04:24.998Z</time></trkpt><trkpt lat="49.24139331939226" lon="2.48226470900847"><ele>89.28571428571428</ele><time>2026-04-01T14:04:27.998Z</time></trkpt><trkpt lat="49.24135276538179" lon="2.482350687223848"><ele>89.71428571428572</ele><time>2026-04-01T14:04:31.998Z</time></trkpt><trkpt lat="49.24134822023316" lon="2.482457895287116"><ele>90.14285714285714</ele><time>2026-04-01T14:04:42.997Z</time></trkpt><trkpt lat="49.241358924066844" lon="2.4825659816194086"><ele>90.57142857142857</ele><time>2026-04-01T14:04:45.997Z</time></trkpt><trkpt lat="49.24136566708351" lon="2.482666093239061"><ele>91.0</ele><time>2026-04-01T14:04:48.997Z</time></trkpt><trkpt lat="49.24137997525409" lon="2.4827979915056235"><ele>91.0</ele><time>2026-04-01T14:04:51.997Z</time></trkpt><trkpt lat="49.24139247004998" lon="2.482920076160778"><ele>91.0</ele><time>2026-04-01T14:04:54.997Z</time></trkpt><trkpt lat="49.24139292115177" lon="2.4830471448572746"><ele>91.0</ele><time>2026-04-01T14:04:57.997Z</time></trkpt><trkpt lat="49.241401650679" lon="2.4831735603013163"><ele>91.0</ele><time>2026-04-01T14:05:00.997Z</time></trkpt><trkpt lat="49.241416816596264" lon="2.483270145939851"><ele>91.0</ele><time>2026-04-01T14:05:02.997Z</time></trkpt><trkpt lat="49.241422825920004" lon="2.483405781695711"><ele>91.0</ele><time>2026-04-01T14:05:05.997Z</time></trkpt><trkpt lat="49.24143216354865" lon="2.483503191225265"><ele>91.0</ele><time>2026-04-01T14:05:07.997Z</time></trkpt><trkpt lat="49.24144308502487" lon="2.483642473733937"><ele>91.0</ele><time>2026-04-01T14:05:11Z</time></trkpt><trkpt lat="49.24144790845731" lon="2.483782435826508"><ele>91.0</ele><time>2026-04-01T14:05:14Z</time></trkpt><trkpt lat="49.241454012582196" lon="2.4839228046942146"><ele>91.0</ele><time>2026-04-01T14:05:17Z</time></trkpt><trkpt lat="49.24147120914621" lon="2.484050424614827"><ele>91.0</ele><time>2026-04-01T14:05:20Z</time></trkpt><trkpt lat="49.24147621126095" lon="2.48419400149938"><ele>91.0</ele><time>2026-04-01T14:05:23Z</time></trkpt><trkpt lat="49.24148622141868" lon="2.4843059232968088"><ele>91.0</ele><time>2026-04-01T14:05:25Z</time></trkpt><trkpt lat="49.24148375476539" lon="2.4844166750671097"><ele>91.0</ele><time>2026-04-01T14:05:27Z</time></trkpt><trkpt lat="49.24149243894111" lon="2.4845254407159056"><ele>91.0</ele><time>2026-04-01T14:05:28.999Z</time></trkpt><trkpt lat="49.24149763051269" lon="2.4846238850444333"><ele>91.0</ele><time>2026-04-01T14:05:30.999Z</time></trkpt><trkpt lat="49.24149961720659" lon="2.484724664988686"><ele>91.0</ele><time>2026-04-01T14:05:32.999Z</time></trkpt><trkpt lat="49.24151712777072" lon="2.484872410810744"><ele>91.0</ele><time>2026-04-01T14:05:35.999Z</time></trkpt><trkpt lat="49.24153598498134" lon="2.4849708272449567"><ele>91.14285714285714</ele><time>2026-04-01T14:05:37.999Z</time></trkpt><trkpt lat="49.24155386974989" lon="2.4850760765316746"><ele>91.28571428571428</ele><time>2026-04-01T14:05:39.999Z</time></trkpt><trkpt lat="49.2415566408184" lon="2.485173281505777"><ele>91.42857142857143</ele><time>2026-04-01T14:05:41.999Z</time></trkpt><trkpt lat="49.24156772280749" lon="2.4852837594630297"><ele>91.57142857142857</ele><time>2026-04-01T14:05:43.999Z</time></trkpt><trkpt lat="49.24157700962851" lon="2.485394639484082"><ele>91.71428571428571</ele><time>2026-04-01T14:05:45.999Z</time></trkpt><trkpt lat="49.24158034510864" lon="2.4855009446032224"><ele>91.85714285714286</ele><time>2026-04-01T14:05:47.999Z</time></trkpt><trkpt lat="49.2415841477043" lon="2.4856042947722163"><ele>92.0</ele><time>2026-04-01T14:05:49.999Z</time></trkpt><trkpt lat="49.24159064840187" lon="2.4857580869483504"><ele>92.28571428571429</ele><time>2026-04-01T14:05:52.999Z</time></trkpt><trkpt lat="49.24159816973203" lon="2.485862220638217"><ele>92.57142857142857</ele><time>2026-04-01T14:05:54.999Z</time></trkpt><trkpt lat="49.241610982870505" lon="2.4859633196743705"><ele>92.85714285714286</ele><time>2026-04-01T14:05:56.999Z</time></trkpt><trkpt lat="49.24161495952287" lon="2.4860698933428997"><ele>93.14285714285714</ele><time>2026-04-01T14:05:58.999Z</time></trkpt><trkpt lat="49.24162320629695" lon="2.4861861335473034"><ele>93.42857142857142</ele><time>2026-04-01T14:06:01.999Z</time></trkpt><trkpt lat="49.24163602252134" lon="2.486308036218019"><ele>93.71428571428571</ele><time>2026-04-01T14:06:04.999Z</time></trkpt><trkpt lat="49.24164740170355" lon="2.4864373807024225"><ele>94.0</ele><time>2026-04-01T14:06:07.998Z</time></trkpt><trkpt lat="49.24165283299176" lon="2.4865367514826824"><ele>94.0</ele><time>2026-04-01T14:06:09.998Z</time></trkpt><trkpt lat="49.241670151545534" lon="2.4866823821404935"><ele>94.0</ele><time>2026-04-01T14:06:12.998Z</time></trkpt><trkpt lat="49.24167775790058" lon="2.4868243256029565"><ele>94.0</ele><time>2026-04-01T14:06:15.998Z</time></trkpt><trkpt lat="49.24169271563338" lon="2.4869503983384114"><ele>94.0</ele><time>2026-04-01T14:06:18.998Z</time></trkpt><trkpt lat="49.241705645863554" lon="2.48708509700701"><ele>94.0</ele><time>2026-04-01T14:06:21.998Z</time></trkpt><trkpt lat="49.24170966159934" lon="2.4872171706761548"><ele>94.0</ele><time>2026-04-01T14:06:24.998Z</time></trkpt><trkpt lat="49.24171594787912" lon="2.487349150164258"><ele>94.0</ele><time>2026-04-01T14:06:27.998Z</time></trkpt><trkpt lat="49.241723621555785" lon="2.487485502705923"><ele>94.0</ele><time>2026-04-01T14:06:30.998Z</time></trkpt><trkpt lat="49.241737774317286" lon="2.4876190857979896"><ele>94.0</ele><time>2026-04-01T14:06:33.998Z</time></trkpt><trkpt lat="49.24172692685072" lon="2.487755499482743"><ele>94.0</ele><time>2026-04-01T14:06:36.998Z</time></trkpt><trkpt lat="49.241744403270175" lon="2.4878494731314915"><ele>94.0</ele><time>2026-04-01T14:06:38.998Z</time></trkpt><trkpt lat="49.241749004318805" lon="2.4879731316222293"><ele>94.0</ele><time>2026-04-01T14:06:41.998Z</time></trkpt><trkpt lat="49.24175464407071" lon="2.4881107091629744"><ele>94.33333333333333</ele><time>2026-04-01T14:06:44.997Z</time></trkpt><trkpt lat="49.241763966393194" lon="2.4882553451305567"><ele>94.66666666666666</ele><time>2026-04-01T14:06:47.997Z</time></trkpt><trkpt lat="49.2417764703014" lon="2.4883865916386045"><ele>95.0</ele><time>2026-04-01T14:06:50.997Z</time></trkpt><trkpt lat="49.241790391835664" lon="2.4885055843406385"><ele>95.33333333333333</ele><time>2026-04-01T14:06:53.997Z</time></trkpt><trkpt lat="49.241799423337525" lon="2.4886012139449307"><ele>95.66666666666667</ele><time>2026-04-01T14:06:55.997Z</time></trkpt><trkpt lat="49.24180301663065" lon="2.4887404292521205"><ele>96.0</ele><time>2026-04-01T14:06:58.997Z</time></trkpt><trkpt lat="49.24181556739902" lon="2.488886932956069"><ele>96.28571428571428</ele><time>2026-04-01T14:07:01.997Z</time></trkpt><trkpt lat="49.24181734726409" lon="2.48899645285182"><ele>96.57142857142857</ele><time>2026-04-01T14:07:03.997Z</time></trkpt><trkpt lat="49.24182766684849" lon="2.489110890459304"><ele>96.85714285714286</ele><time>2026-04-01T14:07:05.997Z</time></trkpt><trkpt lat="49.241847208378864" lon="2.4892307991687206"><ele>97.14285714285714</ele><time>2026-04-01T14:07:07.997Z</time></trkpt><trkpt lat="49.241860395874944" lon="2.4893466198768244"><ele>97.42857142857143</ele><time>2026-04-01T14:07:09.997Z</time></trkpt><trkpt lat="49.24186370162598" lon="2.4894572291522175"><ele>97.71428571428571</ele><time>2026-04-01T14:07:11.997Z</time></trkpt><trkpt lat="49.24187144936534" lon="2.4895638318945372"><ele>98.0</ele><time>2026-04-01T14:07:13.997Z</time></trkpt><trkpt lat="49.24188214794817" lon="2.4896760772650657"><ele>98.14285714285714</ele><time>2026-04-01T14:07:16Z</time></trkpt><trkpt lat="49.241893851600835" lon="2.4897734887364287"><ele>98.28571428571428</ele><time>2026-04-01T14:07:18Z</time></trkpt><trkpt lat="49.241892305538215" lon="2.489875344565262"><ele>98.42857142857143</ele><time>2026-04-01T14:07:20Z</time></trkpt><trkpt lat="49.241899808490835" lon="2.4899790650719544"><ele>98.57142857142857</ele><time>2026-04-01T14:07:22Z</time></trkpt><trkpt lat="49.241919689837914" lon="2.4901150936005245"><ele>98.71428571428571</ele><time>2026-04-01T14:07:25Z</time></trkpt><trkpt lat="49.24190881177691" lon="2.490211745771941"><ele>98.85714285714286</ele><time>2026-04-01T14:07:27Z</time></trkpt><trkpt lat="49.241924794514404" lon="2.4903232887378723"><ele>99.0</ele><time>2026-04-01T14:07:29Z</time></trkpt><trkpt lat="49.241930777753446" lon="2.4904293353779425"><ele>99.28571428571429</ele><time>2026-04-01T14:07:31Z</time></trkpt><trkpt lat="49.241942202934624" lon="2.490544418203374"><ele>99.57142857142857</ele><time>2026-04-01T14:07:33Z</time></trkpt><trkpt lat="49.24195407260627" lon="2.4906567758080502"><ele>99.85714285714286</ele><time>2026-04-01T14:07:35Z</time></trkpt><trkpt lat="49.241955240011464" lon="2.4907710999431094"><ele>100.14285714285714</ele><time>2026-04-01T14:07:36.999Z</time></trkpt><trkpt lat="49.241965013341094" lon="2.4908808882067066"><ele>100.42857142857142</ele><time>2026-04-01T14:07:38.999Z</time></trkpt><trkpt lat="49.24197722604581" lon="2.4909920836169204"><ele>100.71428571428571</ele><time>2026-04-01T14:07:40.999Z</time></trkpt><trkpt lat="49.24198990638975" lon="2.491096459017043"><ele>101.0</ele><time>2026-04-01T14:07:42.999Z</time></trkpt><trkpt lat="49.24198786317354" lon="2.491205516963283"><ele>101.33333333333333</ele><time>2026-04-01T14:07:44.999Z</time></trkpt><trkpt lat="49.242001924157805" lon="2.491342198104008"><ele>101.66666666666666</ele><time>2026-04-01T14:07:47.999Z</time></trkpt><trkpt lat="49.24201252666876" lon="2.491453424682353"><ele>102.0</ele><time>2026-04-01T14:07:49.999Z</time></trkpt><trkpt lat="49.2420095653923" lon="2.491556491182148"><ele>102.33333333333334</ele><time>2026-04-01T14:07:51.999Z</time></trkpt><trkpt lat="49.24202363438792" lon="2.491710192063711"><ele>102.66666666666667</ele><time>2026-04-01T14:07:54.999Z</time></trkpt><trkpt lat="49.242029318318295" lon="2.4918510595988406"><ele>103.0</ele><time>2026-04-01T14:07:57.999Z</time></trkpt><trkpt lat="49.24204343556418" lon="2.491956573721881"><ele>103.28571428571428</ele><time>2026-04-01T14:07:59.999Z</time></trkpt><trkpt lat="49.24204545546457" lon="2.492102990850698"><ele>103.57142857142857</ele><time>2026-04-01T14:08:02.999Z</time></trkpt><trkpt lat="49.24206121838999" lon="2.492198800379766"><ele>103.85714285714286</ele><time>2026-04-01T14:08:04.999Z</time></trkpt><trkpt lat="49.24206692994448" lon="2.492298114517198"><ele>104.14285714285714</ele><time>2026-04-01T14:08:06.999Z</time></trkpt><trkpt lat="49.24207801686446" lon="2.4924016581227026"><ele>104.42857142857143</ele><time>2026-04-01T14:08:08.999Z</time></trkpt><trkpt lat="49.24209299669044" lon="2.4925050310437613"><ele>104.71428571428571</ele><time>2026-04-01T14:08:10.999Z</time></trkpt><trkpt lat="49.24209881418637" lon="2.492636842760302"><ele>105.0</ele><time>2026-04-01T14:08:13.999Z</time></trkpt><trkpt lat="49.24211826789506" lon="2.4927627483655264"><ele>105.0</ele><time>2026-04-01T14:08:16.998Z</time></trkpt><trkpt lat="49.24212386784569" lon="2.492871914962785"><ele>105.0</ele><time>2026-04-01T14:08:19.998Z</time></trkpt><trkpt lat="49.242139653590165" lon="2.492995345890497"><ele>105.0</ele><time>2026-04-01T14:08:22.998Z</time></trkpt><trkpt lat="49.24213761021666" lon="2.493127096464446"><ele>105.0</ele><time>2026-04-01T14:08:25.998Z</time></trkpt><trkpt lat="49.24215616905566" lon="2.4932340229940295"><ele>105.0</ele><time>2026-04-01T14:08:28.998Z</time></trkpt><trkpt lat="49.24217306102408" lon="2.4933353961423026"><ele>105.0</ele><time>2026-04-01T14:08:31.998Z</time></trkpt><trkpt lat="49.24218688621621" lon="2.49346629394163"><ele>105.16666666666667</ele><time>2026-04-01T14:08:34.998Z</time></trkpt><trkpt lat="49.242192811024616" lon="2.4936007666560194"><ele>105.33333333333334</ele><time>2026-04-01T14:08:37.998Z</time></trkpt><trkpt lat="49.242189683245805" lon="2.4936982617894645"><ele>105.5</ele><time>2026-04-01T14:08:40.998Z</time></trkpt><trkpt lat="49.2421982579229" lon="2.493805424246499"><ele>105.66666666666667</ele><time>2026-04-01T14:08:43.998Z</time></trkpt><trkpt lat="49.24220587272977" lon="2.4939276339956544"><ele>105.83333333333334</ele><time>2026-04-01T14:08:46.998Z</time></trkpt><trkpt lat="49.24221513114661" lon="2.494060275576151"><ele>106.0</ele><time>2026-04-01T14:08:49.998Z</time></trkpt><trkpt lat="49.242217068789664" lon="2.494184281965604"><ele>106.16666666666667</ele><time>2026-04-01T14:08:52.998Z</time></trkpt><trkpt lat="49.24222755128965" lon="2.494296269139204"><ele>106.33333333333334</ele><time>2026-04-01T14:08:55.997Z</time></trkpt><trkpt lat="49.2422391479585" lon="2.4944239126088625"><ele>106.5</ele><time>2026-04-01T14:08:58.997Z</time></trkpt><trkpt lat="49.24224875755238" lon="2.4945520478808416"><ele>106.66666666666666</ele><time>2026-04-01T14:09:01.997Z</time></trkpt><trkpt lat="49.24225150749408" lon="2.494679384635986"><ele>106.83333333333333</ele><time>2026-04-01T14:09:05.997Z</time></trkpt><trkpt lat="49.24225966141886" lon="2.4948110211942076"><ele>107.0</ele><time>2026-04-01T14:09:08.997Z</time></trkpt><trkpt lat="49.242261210594066" lon="2.494929547944976"><ele>107.49999999999999</ele><time>2026-04-01T14:09:11.997Z</time></trkpt><trkpt lat="49.24226808205378" lon="2.495044974058268"><ele>108.0</ele><time>2026-04-01T14:09:14.997Z</time></trkpt><trkpt lat="49.24228736793912" lon="2.4951652875205297"><ele>108.5</ele><time>2026-04-01T14:09:17.997Z</time></trkpt><trkpt lat="49.24229866886745" lon="2.4952884467750835"><ele>109.0</ele><time>2026-04-01T14:09:21Z</time></trkpt><trkpt lat="49.242308207795006" lon="2.4954174890146628"><ele>109.49999999999999</ele><time>2026-04-01T14:09:24Z</time></trkpt><trkpt lat="49.242315952419176" lon="2.495567988099255"><ele>110.0</ele><time>2026-04-01T14:09:27Z</time></trkpt><trkpt lat="49.242312758640985" lon="2.495669965510494"><ele>109.99999999999999</ele><time>2026-04-01T14:09:29Z</time></trkpt><trkpt lat="49.2423144429006" lon="2.495769448860677"><ele>110.0</ele><time>2026-04-01T14:09:31Z</time></trkpt><trkpt lat="49.24231244079767" lon="2.495908775824509"><ele>110.0</ele><time>2026-04-01T14:09:34Z</time></trkpt><trkpt lat="49.24226575551622" lon="2.4960142140852026"><ele>110.0</ele><time>2026-04-01T14:09:36Z</time></trkpt><trkpt lat="49.24227355168366" lon="2.4961144053084388"><ele>110.0</ele><time>2026-04-01T14:09:37Z</time></trkpt><trkpt lat="49.24225536203189" lon="2.49621224886201"><ele>109.99999999999999</ele><time>2026-04-01T14:09:39Z</time></trkpt><trkpt lat="49.24224379215298" lon="2.4963152552714036"><ele>110.0</ele><time>2026-04-01T14:09:41Z</time></trkpt><trkpt lat="49.24223439461847" lon="2.4964426303145237"><ele>109.83333333333333</ele><time>2026-04-01T14:09:43.999Z</time></trkpt><trkpt lat="49.24220869894211" lon="2.4965692339500083"><ele>109.66666666666666</ele><time>2026-04-01T14:09:46.999Z</time></trkpt><trkpt lat="49.24220170790273" lon="2.4966922925882646"><ele>109.5</ele><time>2026-04-01T14:09:49.999Z</time></trkpt><trkpt lat="49.24216906951293" lon="2.4968123484305784"><ele>109.33333333333334</ele><time>2026-04-01T14:09:52.999Z</time></trkpt><trkpt lat="49.24214756206567" lon="2.4969074170956493"><ele>109.16666666666667</ele><time>2026-04-01T14:09:54.999Z</time></trkpt><trkpt lat="49.24213925970437" lon="2.49701078708284"><ele>109.0</ele><time>2026-04-01T14:09:56.999Z</time></trkpt><trkpt lat="49.24212073122743" lon="2.4971437133529437"><ele>108.50000000000001</ele><time>2026-04-01T14:09:59.999Z</time></trkpt><trkpt lat="49.24209524934883" lon="2.497279507198015"><ele>108.0</ele><time>2026-04-01T14:10:02.999Z</time></trkpt><trkpt lat="49.2420760989651" lon="2.4974196002914657"><ele>107.5</ele><time>2026-04-01T14:10:05.999Z</time></trkpt><trkpt lat="49.24204736961379" lon="2.4975160903413474"><ele>107.0</ele><time>2026-04-01T14:10:08.999Z</time></trkpt><trkpt lat="49.24201916378361" lon="2.497685403872125"><ele>106.50000000000001</ele><time>2026-04-01T14:10:11.999Z</time></trkpt><trkpt lat="49.24201550232603" lon="2.497788530113105"><ele>106.0</ele><time>2026-04-01T14:10:15.999Z</time></trkpt><trkpt lat="49.24200970930315" lon="2.4979241826750105"><ele>105.50000000000001</ele><time>2026-04-01T14:10:28.998Z</time></trkpt><trkpt lat="49.24197658390459" lon="2.498026908543458"><ele>105.0</ele><time>2026-04-01T14:10:31.998Z</time></trkpt><trkpt lat="49.24196150106827" lon="2.4981434374305067"><ele>104.5</ele><time>2026-04-01T14:10:33.998Z</time></trkpt><trkpt lat="49.241939990149724" lon="2.4982616950330145"><ele>104.0</ele><time>2026-04-01T14:10:35.998Z</time></trkpt><trkpt lat="49.24191646115699" lon="2.4983808655997994"><ele>103.50000000000001</ele><time>2026-04-01T14:10:37.998Z</time></trkpt><trkpt lat="49.241889834078044" lon="2.498501891176751"><ele>103.0</ele><time>2026-04-01T14:10:39.998Z</time></trkpt><trkpt lat="49.24186326822135" lon="2.4986381859243685"><ele>102.66666666666667</ele><time>2026-04-01T14:10:41.998Z</time></trkpt><trkpt lat="49.24183640432556" lon="2.498757497953008"><ele>102.33333333333334</ele><time>2026-04-01T14:10:43.998Z</time></trkpt><trkpt lat="49.24181423534565" lon="2.4988749653432647"><ele>102.0</ele><time>2026-04-01T14:10:45.998Z</time></trkpt><trkpt lat="49.24179096460875" lon="2.4989806113349613"><ele>101.66666666666666</ele><time>2026-04-01T14:10:47.998Z</time></trkpt><trkpt lat="49.241753857738104" lon="2.49912034969763"><ele>101.33333333333333</ele><time>2026-04-01T14:10:50.998Z</time></trkpt><trkpt lat="49.24172960236226" lon="2.499214712216049"><ele>101.0</ele><time>2026-04-01T14:10:52.998Z</time></trkpt><trkpt lat="49.24170861143501" lon="2.499345742396214"><ele>101.0</ele><time>2026-04-01T14:10:55.998Z</time></trkpt><trkpt lat="49.24169460479307" lon="2.4994568649665627"><ele>101.0</ele><time>2026-04-01T14:10:59.998Z</time></trkpt><trkpt lat="49.2416821444893" lon="2.499565113518685"><ele>101.0</ele><time>2026-04-01T14:11:02.997Z</time></trkpt><trkpt lat="49.2416501128574" lon="2.4996878750064453"><ele>101.0</ele><time>2026-04-01T14:11:05.997Z</time></trkpt><trkpt lat="49.24163270994627" lon="2.499794048220798"><ele>101.0</ele><time>2026-04-01T14:11:08.997Z</time></trkpt><trkpt lat="49.2416047842362" lon="2.499902395459579"><ele>101.0</ele><time>2026-04-01T14:11:11.997Z</time></trkpt><trkpt lat="49.241596353224395" lon="2.500000100392551"><ele>101.0</ele><time>2026-04-01T14:11:14.997Z</time></trkpt><trkpt lat="49.24157035282474" lon="2.5001237258721742"><ele>100.8</ele><time>2026-04-01T14:11:17.997Z</time></trkpt><trkpt lat="49.241555245143275" lon="2.500249874218143"><ele>100.6</ele><time>2026-04-01T14:11:20.997Z</time></trkpt><trkpt lat="49.24153578981452" lon="2.500350879771483"><ele>100.4</ele><time>2026-04-01T14:11:22.997Z</time></trkpt><trkpt lat="49.24151900271692" lon="2.500478163040606"><ele>100.2</ele><time>2026-04-01T14:11:25.997Z</time></trkpt><trkpt lat="49.241492497593214" lon="2.500636042916946"><ele>100.0</ele><time>2026-04-01T14:11:29Z</time></trkpt><trkpt lat="49.241442238221005" lon="2.5008472791975125"><ele>100.16666666666667</ele><time>2026-04-01T14:11:33Z</time></trkpt><trkpt lat="49.24142268463336" lon="2.5009397491459935"><ele>100.33333333333334</ele><time>2026-04-01T14:11:35Z</time></trkpt><trkpt lat="49.241404333069724" lon="2.5010661346304977"><ele>100.5</ele><time>2026-04-01T14:11:38Z</time></trkpt><trkpt lat="49.241379490858094" lon="2.501184443301957"><ele>100.66666666666666</ele><time>2026-04-01T14:11:42Z</time></trkpt><trkpt lat="49.24135078892581" lon="2.5012807717108765"><ele>100.83333333333333</ele><time>2026-04-01T14:11:44Z</time></trkpt><trkpt lat="49.24133382580516" lon="2.5014068828725167"><ele>101.0</ele><time>2026-04-01T14:11:47Z</time></trkpt><trkpt lat="49.241305888392965" lon="2.5015422459381074"><ele>100.99999999999999</ele><time>2026-04-01T14:11:50Z</time></trkpt><trkpt lat="49.241277123413525" lon="2.5016450284787277"><ele>101.0</ele><time>2026-04-01T14:11:53Z</time></trkpt><trkpt lat="49.24125677252445" lon="2.5017782964520676"><ele>101.0</ele><time>2026-04-01T14:11:55.999Z</time></trkpt><trkpt lat="49.24124396000122" lon="2.501893662626533"><ele>101.0</ele><time>2026-04-01T14:11:57.999Z</time></trkpt><trkpt lat="49.24121818257217" lon="2.501991470896589"><ele>100.99999999999999</ele><time>2026-04-01T14:11:59.999Z</time></trkpt><trkpt lat="49.24120206976745" lon="2.502114753683833"><ele>101.0</ele><time>2026-04-01T14:12:02.999Z</time></trkpt><trkpt lat="49.24119070732954" lon="2.5022708538636556"><ele>100.83333333333333</ele><time>2026-04-01T14:12:04.999Z</time></trkpt><trkpt lat="49.2411651549835" lon="2.5023693716877795"><ele>100.66666666666666</ele><time>2026-04-01T14:12:07.999Z</time></trkpt><trkpt lat="49.24115483003233" lon="2.502483796260964"><ele>100.5</ele><time>2026-04-01T14:12:10.999Z</time></trkpt><trkpt lat="49.241131745774425" lon="2.502617724108895"><ele>100.33333333333334</ele><time>2026-04-01T14:12:13.999Z</time></trkpt><trkpt lat="49.2411053286848" lon="2.502705891216901"><ele>100.16666666666667</ele><time>2026-04-01T14:12:15.999Z</time></trkpt><trkpt lat="49.24108480729993" lon="2.50279878561258"><ele>100.0</ele><time>2026-04-01T14:12:17.999Z</time></trkpt><trkpt lat="49.24105778489923" lon="2.502934873388579"><ele>100.00000000000001</ele><time>2026-04-01T14:12:20.999Z</time></trkpt><trkpt lat="49.24104510067484" lon="2.503039103272563"><ele>100.0</ele><time>2026-04-01T14:12:22.999Z</time></trkpt><trkpt lat="49.24102797927464" lon="2.50314666364556"><ele>100.0</ele><time>2026-04-01T14:12:25.999Z</time></trkpt><trkpt lat="49.240997456326774" lon="2.5032352445344865"><ele>100.0</ele><time>2026-04-01T14:12:27.999Z</time></trkpt><trkpt lat="49.24098058760809" lon="2.503357273493988"><ele>100.00000000000001</ele><time>2026-04-01T14:12:30.999Z</time></trkpt><trkpt lat="49.24095279934828" lon="2.5034776650917663"><ele>100.0</ele><time>2026-04-01T14:12:33.998Z</time></trkpt><trkpt lat="49.240943150212125" lon="2.5035980319073468"><ele>100.00000000000001</ele><time>2026-04-01T14:12:35.998Z</time></trkpt><trkpt lat="49.240924427901696" lon="2.503703798130251"><ele>100.0</ele><time>2026-04-01T14:12:37.998Z</time></trkpt><trkpt lat="49.24088964094426" lon="2.5038307212933653"><ele>100.0</ele><time>2026-04-01T14:12:40.998Z</time></trkpt><trkpt lat="49.240877195315896" lon="2.503946709933061"><ele>100.0</ele><time>2026-04-01T14:12:44.998Z</time></trkpt><trkpt lat="49.24084897621212" lon="2.504067427173035"><ele>100.00000000000001</ele><time>2026-04-01T14:12:47.998Z</time></trkpt><trkpt lat="49.240829762227904" lon="2.504182636745944"><ele>100.0</ele><time>2026-04-01T14:12:50.998Z</time></trkpt><trkpt lat="49.24080767266553" lon="2.5043122782714415"><ele>99.8</ele><time>2026-04-01T14:12:53.998Z</time></trkpt><trkpt lat="49.24082486483052" lon="2.50417777019282"><ele>99.6</ele><time>2026-04-01T14:13:01.998Z</time></trkpt><trkpt lat="49.24082973435572" lon="2.5040652610281255"><ele>99.4</ele><time>2026-04-01T14:13:04.998Z</time></trkpt><trkpt lat="49.24086006980733" lon="2.5039205535951523"><ele>99.2</ele><time>2026-04-01T14:13:08.998Z</time></trkpt><trkpt lat="49.240861812200535" lon="2.50381050967855"><ele>99.0</ele><time>2026-04-01T14:13:26.997Z</time></trkpt><trkpt lat="49.24087197169728" lon="2.504008342043684"><ele>99.0</ele><time>2026-04-01T14:13:43Z</time></trkpt><trkpt lat="49.240866368617255" lon="2.504111349129655"><ele>99.0</ele><time>2026-04-01T14:13:46Z</time></trkpt><trkpt lat="49.24084248715368" lon="2.504219732554588"><ele>99.0</ele><time>2026-04-01T14:13:49Z</time></trkpt><trkpt lat="49.24082851759976" lon="2.504329333997195"><ele>99.0</ele><time>2026-04-01T14:13:52Z</time></trkpt><trkpt lat="49.24078249454158" lon="2.5044274090812753"><ele>99.0</ele><time>2026-04-01T14:13:55Z</time></trkpt><trkpt lat="49.24075753343076" lon="2.5045700316003012"><ele>99.0</ele><time>2026-04-01T14:13:58Z</time></trkpt><trkpt lat="49.24072461305318" lon="2.5046690042321114"><ele>98.83333333333333</ele><time>2026-04-01T14:14:00Z</time></trkpt><trkpt lat="49.24070039030277" lon="2.5047824043216176"><ele>98.66666666666666</ele><time>2026-04-01T14:14:01.999Z</time></trkpt><trkpt lat="49.240702401706955" lon="2.5048981823581706"><ele>98.5</ele><time>2026-04-01T14:14:03.999Z</time></trkpt><trkpt lat="49.240672558650004" lon="2.50503786746305"><ele>98.33333333333333</ele><time>2026-04-01T14:14:06.999Z</time></trkpt><trkpt lat="49.24064983499137" lon="2.5051834481811093"><ele>98.16666666666666</ele><time>2026-04-01T14:14:08.999Z</time></trkpt><trkpt lat="49.2406231337437" lon="2.5052908133839695"><ele>98.0</ele><time>2026-04-01T14:14:10.999Z</time></trkpt><trkpt lat="49.240602474348094" lon="2.505395916188724"><ele>97.99999999999999</ele><time>2026-04-01T14:14:12.999Z</time></trkpt><trkpt lat="49.24058805027514" lon="2.505503881327798"><ele>98.0</ele><time>2026-04-01T14:14:14.999Z</time></trkpt><trkpt lat="49.240563000088024" lon="2.505633737501293"><ele>98.0</ele><time>2026-04-01T14:14:16.999Z</time></trkpt><trkpt lat="49.240549892864976" lon="2.5057545872050153"><ele>98.0</ele><time>2026-04-01T14:14:18.999Z</time></trkpt><trkpt lat="49.24053225823888" lon="2.5058726441244623"><ele>97.99999999999999</ele><time>2026-04-01T14:14:20.999Z</time></trkpt><trkpt lat="49.24051869444463" lon="2.505972102059827"><ele>98.0</ele><time>2026-04-01T14:14:22.999Z</time></trkpt><trkpt lat="49.24049055950897" lon="2.506098567661985"><ele>98.0</ele><time>2026-04-01T14:14:24.999Z</time></trkpt><trkpt lat="49.24047623049841" lon="2.506217705882278"><ele>98.0</ele><time>2026-04-01T14:14:26.999Z</time></trkpt><trkpt lat="49.24045616680607" lon="2.5063260405196135"><ele>98.0</ele><time>2026-04-01T14:14:28.999Z</time></trkpt><trkpt lat="49.240431231026335" lon="2.506438568173804"><ele>98.0</ele><time>2026-04-01T14:14:30.999Z</time></trkpt><trkpt lat="49.24040920015857" lon="2.5065481941287375"><ele>98.0</ele><time>2026-04-01T14:14:32.999Z</time></trkpt><trkpt lat="49.24039929500765" lon="2.5066547237383543"><ele>98.0</ele><time>2026-04-01T14:14:34.999Z</time></trkpt><trkpt lat="49.24037788306983" lon="2.5067589897831017"><ele>98.0</ele><time>2026-04-01T14:14:36.999Z</time></trkpt><trkpt lat="49.24034990340335" lon="2.5068769062708496"><ele>97.16666666666666</ele><time>2026-04-01T14:14:38.998Z</time></trkpt><trkpt lat="49.24032219348925" lon="2.5069851913949974"><ele>96.33333333333333</ele><time>2026-04-01T14:14:40.998Z</time></trkpt><trkpt lat="49.240301408789676" lon="2.507100663542643"><ele>95.5</ele><time>2026-04-01T14:14:42.998Z</time></trkpt><trkpt lat="49.240282165992" lon="2.5072147894426946"><ele>94.66666666666666</ele><time>2026-04-01T14:14:44.998Z</time></trkpt><trkpt lat="49.24026005160624" lon="2.5073282290104943"><ele>93.83333333333333</ele><time>2026-04-01T14:14:46.998Z</time></trkpt><trkpt lat="49.24024566863469" lon="2.507457034393659"><ele>93.0</ele><time>2026-04-01T14:14:48.998Z</time></trkpt><trkpt lat="49.240220519184184" lon="2.507553712526084"><ele>93.0</ele><time>2026-04-01T14:14:50.998Z</time></trkpt><trkpt lat="49.2401981046778" lon="2.5076797193196834"><ele>93.0</ele><time>2026-04-01T14:14:52.998Z</time></trkpt><trkpt lat="49.2401646511195" lon="2.5077923550424606"><ele>93.0</ele><time>2026-04-01T14:14:54.998Z</time></trkpt><trkpt lat="49.24015315205166" lon="2.507925207413108"><ele>93.0</ele><time>2026-04-01T14:14:56.998Z</time></trkpt><trkpt lat="49.240140156776356" lon="2.5080357495795056"><ele>93.0</ele><time>2026-04-01T14:14:58.998Z</time></trkpt><trkpt lat="49.24012310330529" lon="2.508163046631671"><ele>93.0</ele><time>2026-04-01T14:15:00.998Z</time></trkpt><trkpt lat="49.240099441190814" lon="2.5082705099407296"><ele>93.0</ele><time>2026-04-01T14:15:02.998Z</time></trkpt><trkpt lat="49.24007985919158" lon="2.5083796893978447"><ele>93.0</ele><time>2026-04-01T14:15:04.998Z</time></trkpt><trkpt lat="49.24005518141394" lon="2.508501138374009"><ele>93.0</ele><time>2026-04-01T14:15:06.998Z</time></trkpt><trkpt lat="49.240028250005956" lon="2.5086143503595015"><ele>93.0</ele><time>2026-04-01T14:15:08.998Z</time></trkpt><trkpt lat="49.24001155709664" lon="2.5087243852661425"><ele>93.0</ele><time>2026-04-01T14:15:10.998Z</time></trkpt><trkpt lat="49.23999196998575" lon="2.5088709305181465"><ele>93.0</ele><time>2026-04-01T14:15:12.998Z</time></trkpt><trkpt lat="49.239962911822104" lon="2.509003164916339"><ele>93.16666666666667</ele><time>2026-04-01T14:15:14.998Z</time></trkpt><trkpt lat="49.23993724006823" lon="2.5091405427117643"><ele>93.33333333333333</ele><time>2026-04-01T14:15:16.997Z</time></trkpt><trkpt lat="49.23991922305268" lon="2.509275890802759"><ele>93.5</ele><time>2026-04-01T14:15:18.997Z</time></trkpt><trkpt lat="49.23989518719403" lon="2.5094092464399163"><ele>93.66666666666666</ele><time>2026-04-01T14:15:20.997Z</time></trkpt><trkpt lat="49.23988190556944" lon="2.50951167300714"><ele>93.83333333333333</ele><time>2026-04-01T14:15:22.997Z</time></trkpt><trkpt lat="49.23985980739667" lon="2.509660289858002"><ele>94.0</ele><time>2026-04-01T14:15:24.997Z</time></trkpt><trkpt lat="49.23984117058769" lon="2.5097979347167088"><ele>94.0</ele><time>2026-04-01T14:15:26.997Z</time></trkpt><trkpt lat="49.239809245506954" lon="2.5099392278509676"><ele>94.0</ele><time>2026-04-01T14:15:28.997Z</time></trkpt><trkpt lat="49.23978463174188" lon="2.510082660266301"><ele>94.0</ele><time>2026-04-01T14:15:30.997Z</time></trkpt><trkpt lat="49.239762309474926" lon="2.510207940324329"><ele>94.0</ele><time>2026-04-01T14:15:32.997Z</time></trkpt><trkpt lat="49.23972886354856" lon="2.5103390895087436"><ele>94.0</ele><time>2026-04-01T14:15:34.997Z</time></trkpt><trkpt lat="49.239700769819976" lon="2.5104777058156538"><ele>93.6</ele><time>2026-04-01T14:15:36.997Z</time></trkpt><trkpt lat="49.23967916518274" lon="2.5106192975028554"><ele>93.2</ele><time>2026-04-01T14:15:39Z</time></trkpt><trkpt lat="49.23964454522618" lon="2.5107677146533764"><ele>92.8</ele><time>2026-04-01T14:15:41Z</time></trkpt><trkpt lat="49.23962489109929" lon="2.510894620027566"><ele>92.39999999999999</ele><time>2026-04-01T14:15:43Z</time></trkpt><trkpt lat="49.23959702671948" lon="2.5110517056275596"><ele>92.0</ele><time>2026-04-01T14:15:45Z</time></trkpt><trkpt lat="49.239575577180794" lon="2.511190092182006"><ele>91.8</ele><time>2026-04-01T14:15:47Z</time></trkpt><trkpt lat="49.23954383571744" lon="2.511325715003924"><ele>91.6</ele><time>2026-04-01T14:15:49Z</time></trkpt><trkpt lat="49.23952227843192" lon="2.5114632079634616"><ele>91.39999999999999</ele><time>2026-04-01T14:15:51Z</time></trkpt><trkpt lat="49.23949124860858" lon="2.5116049194775996"><ele>91.19999999999999</ele><time>2026-04-01T14:15:53Z</time></trkpt><trkpt lat="49.239467050942885" lon="2.5117469143670808"><ele>91.0</ele><time>2026-04-01T14:15:55Z</time></trkpt><trkpt lat="49.23945538095928" lon="2.5118821090116765"><ele>91.0</ele><time>2026-04-01T14:15:57Z</time></trkpt><trkpt lat="49.23942831648736" lon="2.5120054209748606"><ele>91.0</ele><time>2026-04-01T14:15:59Z</time></trkpt><trkpt lat="49.239390718144314" lon="2.512120710758645"><ele>91.0</ele><time>2026-04-01T14:16:01Z</time></trkpt><trkpt lat="49.23934662454871" lon="2.5122354890942455"><ele>91.0</ele><time>2026-04-01T14:16:02.999Z</time></trkpt><trkpt lat="49.23929415480279" lon="2.5123233867679398"><ele>91.0</ele><time>2026-04-01T14:16:04.999Z</time></trkpt><trkpt lat="49.23922452878866" lon="2.5124372286279586"><ele>91.0</ele><time>2026-04-01T14:16:07.999Z</time></trkpt><trkpt lat="49.23916650833771" lon="2.512530514654591"><ele>91.0</ele><time>2026-04-01T14:16:09.999Z</time></trkpt><trkpt lat="49.239106306327926" lon="2.512609867260122"><ele>91.0</ele><time>2026-04-01T14:16:11.999Z</time></trkpt><trkpt lat="49.239041582322955" lon="2.5126743024873828"><ele>91.0</ele><time>2026-04-01T14:16:13.999Z</time></trkpt><trkpt lat="49.238973807188415" lon="2.5127534677927943"><ele>91.0</ele><time>2026-04-01T14:16:15.999Z</time></trkpt><trkpt lat="49.238907626045254" lon="2.512820484938048"><ele>91.0</ele><time>2026-04-01T14:16:17.999Z</time></trkpt><trkpt lat="49.23884405576899" lon="2.512897860394091"><ele>91.0</ele><time>2026-04-01T14:16:19.999Z</time></trkpt><trkpt lat="49.23878019389677" lon="2.512968543290056"><ele>91.33333333333333</ele><time>2026-04-01T14:16:21.999Z</time></trkpt><trkpt lat="49.238721993178835" lon="2.5130250803392933"><ele>91.66666666666666</ele><time>2026-04-01T14:16:23.999Z</time></trkpt><trkpt lat="49.23866255818359" lon="2.513090314581893"><ele>92.0</ele><time>2026-04-01T14:16:25.999Z</time></trkpt><trkpt lat="49.238579930818574" lon="2.5131609685144474"><ele>92.33333333333333</ele><time>2026-04-01T14:16:28.999Z</time></trkpt><trkpt lat="49.238496231418814" lon="2.513225554274897"><ele>92.66666666666667</ele><time>2026-04-01T14:16:31.999Z</time></trkpt><trkpt lat="49.23843413597899" lon="2.513274131369671"><ele>93.0</ele><time>2026-04-01T14:16:33.999Z</time></trkpt><trkpt lat="49.238357776966744" lon="2.5133090285787767"><ele>93.00000000000001</ele><time>2026-04-01T14:16:35.999Z</time></trkpt><trkpt lat="49.23828961095956" lon="2.513329082892712"><ele>93.0</ele><time>2026-04-01T14:16:37.998Z</time></trkpt><trkpt lat="49.23821886146296" lon="2.5133436556128013"><ele>93.0</ele><time>2026-04-01T14:16:39.998Z</time></trkpt><trkpt lat="49.238143980104184" lon="2.5133653637042035"><ele>93.0</ele><time>2026-04-01T14:16:41.998Z</time></trkpt><trkpt lat="49.23808299809771" lon="2.513389854754254"><ele>93.0</ele><time>2026-04-01T14:16:43.998Z</time></trkpt><trkpt lat="49.23801260214391" lon="2.51342688548993"><ele>93.00000000000001</ele><time>2026-04-01T14:16:45.998Z</time></trkpt><trkpt lat="49.237951741590976" lon="2.513458822163132"><ele>93.0</ele><time>2026-04-01T14:16:47.998Z</time></trkpt><trkpt lat="49.23788874350683" lon="2.5135103376308545"><ele>93.00000000000001</ele><time>2026-04-01T14:16:49.998Z</time></trkpt><trkpt lat="49.23783220972596" lon="2.513568175653942"><ele>93.0</ele><time>2026-04-01T14:16:51.998Z</time></trkpt><trkpt lat="49.237775420429166" lon="2.5136250636568125"><ele>93.0</ele><time>2026-04-01T14:16:53.998Z</time></trkpt><trkpt lat="49.23770933026898" lon="2.5136769137110346"><ele>93.0</ele><time>2026-04-01T14:16:55.998Z</time></trkpt><trkpt lat="49.23765273322308" lon="2.513758468795073"><ele>93.0</ele><time>2026-04-01T14:16:57.998Z</time></trkpt><trkpt lat="49.23760893103176" lon="2.513837212940994"><ele>93.00000000000001</ele><time>2026-04-01T14:16:59.998Z</time></trkpt><trkpt lat="49.237562983154014" lon="2.5139202625139867"><ele>93.0</ele><time>2026-04-01T14:17:01.998Z</time></trkpt><trkpt lat="49.23749860014992" lon="2.5140102814230922"><ele>93.0</ele><time>2026-04-01T14:17:03.998Z</time></trkpt><trkpt lat="49.23744358170921" lon="2.5141019974624874"><ele>93.0</ele><time>2026-04-01T14:17:05.998Z</time></trkpt><trkpt lat="49.23738942394871" lon="2.514193546321822"><ele>93.0</ele><time>2026-04-01T14:17:07.998Z</time></trkpt><trkpt lat="49.23733393251541" lon="2.5142671617865386"><ele>93.0</ele><time>2026-04-01T14:17:09.998Z</time></trkpt><trkpt lat="49.23728137556148" lon="2.5143514933893596"><ele>93.0</ele><time>2026-04-01T14:17:11.998Z</time></trkpt><trkpt lat="49.2372058487987" lon="2.514447587215106"><ele>93.0</ele><time>2026-04-01T14:17:14.997Z</time></trkpt><trkpt lat="49.23715758942082" lon="2.5145305546161865"><ele>92.80000000000001</ele><time>2026-04-01T14:17:16.997Z</time></trkpt><trkpt lat="49.23709342246464" lon="2.514590739671071"><ele>92.6</ele><time>2026-04-01T14:17:18.997Z</time></trkpt><trkpt lat="49.23703208094343" lon="2.514671896523962"><ele>92.4</ele><time>2026-04-01T14:17:21.997Z</time></trkpt><trkpt lat="49.23692825178305" lon="2.5148319750851384"><ele>92.19999999999999</ele><time>2026-04-01T14:17:23.997Z</time></trkpt><trkpt lat="49.23688186631279" lon="2.51494305124186"><ele>92.0</ele><time>2026-04-01T14:17:25.997Z</time></trkpt><trkpt lat="49.236861342282936" lon="2.515055126429635"><ele>92.0</ele><time>2026-04-01T14:17:27.997Z</time></trkpt><trkpt lat="49.236828802339716" lon="2.5151805496015323"><ele>92.0</ele><time>2026-04-01T14:17:29.997Z</time></trkpt><trkpt lat="49.23679792898502" lon="2.515298332584577"><ele>92.0</ele><time>2026-04-01T14:17:31.997Z</time></trkpt><trkpt lat="49.23676219903286" lon="2.5153924243844483"><ele>92.0</ele><time>2026-04-01T14:17:33.997Z</time></trkpt><trkpt lat="49.23669965983132" lon="2.5154724587514594"><ele>92.0</ele><time>2026-04-01T14:17:36.997Z</time></trkpt><trkpt lat="49.23663945783003" lon="2.5155106817672803"><ele>92.0</ele><time>2026-04-01T14:17:38.997Z</time></trkpt><trkpt lat="49.23657975884845" lon="2.515563344049811"><ele>92.0</ele><time>2026-04-01T14:17:40.997Z</time></trkpt><trkpt lat="49.236509222730966" lon="2.51560811095046"><ele>92.0</ele><time>2026-04-01T14:17:42.997Z</time></trkpt><trkpt lat="49.23644696789004" lon="2.515626615875347"><ele>92.0</ele><time>2026-04-01T14:17:45Z</time></trkpt><trkpt lat="49.23638406733521" lon="2.5156065703333472"><ele>92.0</ele><time>2026-04-01T14:17:47Z</time></trkpt><trkpt lat="49.236313889656245" lon="2.515590911770916"><ele>92.0</ele><time>2026-04-01T14:17:49Z</time></trkpt><trkpt lat="49.23623287744192" lon="2.515533270313811"><ele>92.0</ele><time>2026-04-01T14:17:52Z</time></trkpt><trkpt lat="49.236150639755174" lon="2.515473668653658"><ele>92.0</ele><time>2026-04-01T14:17:55Z</time></trkpt><trkpt lat="49.23607870832662" lon="2.515445774062276"><ele>92.0</ele><time>2026-04-01T14:17:57Z</time></trkpt><trkpt lat="49.23600199362783" lon="2.515436126279496"><ele>92.0</ele><time>2026-04-01T14:17:59Z</time></trkpt><trkpt lat="49.235927279297194" lon="2.515449279766308"><ele>92.0</ele><time>2026-04-01T14:18:01Z</time></trkpt><trkpt lat="49.235830613790604" lon="2.515485452101852"><ele>92.0</ele><time>2026-04-01T14:18:04Z</time></trkpt><trkpt lat="49.235762188000884" lon="2.5155189013913444"><ele>92.0</ele><time>2026-04-01T14:18:05.999Z</time></trkpt><trkpt lat="49.23567521190807" lon="2.5155741022613745"><ele>92.14285714285715</ele><time>2026-04-01T14:18:08.999Z</time></trkpt><trkpt lat="49.23561694649515" lon="2.5156169353974147"><ele>92.28571428571428</ele><time>2026-04-01T14:18:10.999Z</time></trkpt><trkpt lat="49.23555438261596" lon="2.5156436038740764"><ele>92.42857142857143</ele><time>2026-04-01T14:18:12.999Z</time></trkpt><trkpt lat="49.23547308798302" lon="2.515696993807735"><ele>92.57142857142858</ele><time>2026-04-01T14:18:15.999Z</time></trkpt><trkpt lat="49.235410351147124" lon="2.5157662279928332"><ele>92.71428571428572</ele><time>2026-04-01T14:18:17.999Z</time></trkpt><trkpt lat="49.235367264945566" lon="2.515843294236108"><ele>92.85714285714286</ele><time>2026-04-01T14:18:19.999Z</time></trkpt><trkpt lat="49.235316814328755" lon="2.5159234735566596"><ele>93.0</ele><time>2026-04-01T14:18:21.999Z</time></trkpt><trkpt lat="49.23527227715981" lon="2.5159995640916857"><ele>93.0</ele><time>2026-04-01T14:18:23.999Z</time></trkpt><trkpt lat="49.23521932453612" lon="2.516093468054962"><ele>93.0</ele><time>2026-04-01T14:18:25.999Z</time></trkpt><trkpt lat="49.2351781275462" lon="2.516172680412124"><ele>93.0</ele><time>2026-04-01T14:18:27.999Z</time></trkpt><trkpt lat="49.23513041008246" lon="2.5162687648486117"><ele>93.0</ele><time>2026-04-01T14:18:29.999Z</time></trkpt><trkpt lat="49.23508249873363" lon="2.5163584475861316"><ele>93.0</ele><time>2026-04-01T14:18:31.999Z</time></trkpt><trkpt lat="49.23502778323996" lon="2.5164133814255707"><ele>93.0</ele><time>2026-04-01T14:18:33.999Z</time></trkpt><trkpt lat="49.234977741659904" lon="2.516514374993998"><ele>92.66666666666667</ele><time>2026-04-01T14:18:35.999Z</time></trkpt><trkpt lat="49.23493792555055" lon="2.5166025253288695"><ele>92.33333333333333</ele><time>2026-04-01T14:18:37.999Z</time></trkpt><trkpt lat="49.23490240304532" lon="2.5167434830187014"><ele>92.0</ele><time>2026-04-01T14:18:40.999Z</time></trkpt><trkpt lat="49.2348908405949" lon="2.516860444782997"><ele>91.66666666666666</ele><time>2026-04-01T14:18:42.999Z</time></trkpt><trkpt lat="49.23483554724722" lon="2.5169612479871657"><ele>91.33333333333333</ele><time>2026-04-01T14:18:43.998Z</time></trkpt><trkpt lat="49.23484576304182" lon="2.5170948179491357"><ele>91.0</ele><time>2026-04-01T14:18:46.998Z</time></trkpt><trkpt lat="49.23486745503458" lon="2.5172450799639026"><ele>90.5</ele><time>2026-04-01T14:18:49.998Z</time></trkpt><trkpt lat="49.234887629574445" lon="2.517386195779131"><ele>90.0</ele><time>2026-04-01T14:18:52.998Z</time></trkpt><trkpt lat="49.234902932519134" lon="2.5174834183241144"><ele>89.5</ele><time>2026-04-01T14:18:54.998Z</time></trkpt><trkpt lat="49.2349273150484" lon="2.5175843223330507"><ele>89.0</ele><time>2026-04-01T14:18:56.998Z</time></trkpt><trkpt lat="49.23494606435351" lon="2.517686639065391"><ele>88.5</ele><time>2026-04-01T14:18:58.998Z</time></trkpt><trkpt lat="49.2349547314519" lon="2.517786635427573"><ele>88.0</ele><time>2026-04-01T14:19:00.998Z</time></trkpt><trkpt lat="49.23497749793969" lon="2.5179254074530166"><ele>87.66666666666666</ele><time>2026-04-01T14:19:03.998Z</time></trkpt><trkpt lat="49.234988413424446" lon="2.5180479744349658"><ele>87.33333333333333</ele><time>2026-04-01T14:19:06.998Z</time></trkpt><trkpt lat="49.234993443704965" lon="2.518152387050819"><ele>87.0</ele><time>2026-04-01T14:19:08.998Z</time></trkpt><trkpt lat="49.23500312974498" lon="2.518271753554274"><ele>86.66666666666667</ele><time>2026-04-01T14:19:11.998Z</time></trkpt><trkpt lat="49.23501816593301" lon="2.518400843280121"><ele>86.33333333333334</ele><time>2026-04-01T14:19:14.998Z</time></trkpt><trkpt lat="49.23503044196337" lon="2.5185279469990065"><ele>86.0</ele><time>2026-04-01T14:19:17.998Z</time></trkpt><trkpt lat="49.23504194526793" lon="2.5186535219978734"><ele>86.14285714285715</ele><time>2026-04-01T14:19:20.998Z</time></trkpt><trkpt lat="49.235059828632295" lon="2.518747918534937"><ele>86.28571428571429</ele><time>2026-04-01T14:19:23.997Z</time></trkpt><trkpt lat="49.23506365249185" lon="2.518844586198615"><ele>86.42857142857143</ele><time>2026-04-01T14:19:25.997Z</time></trkpt><trkpt lat="49.23507413790802" lon="2.518956426945106"><ele>86.57142857142858</ele><time>2026-04-01T14:19:27.997Z</time></trkpt><trkpt lat="49.235094524133316" lon="2.519057809786078"><ele>86.71428571428572</ele><time>2026-04-01T14:19:29.997Z</time></trkpt><trkpt lat="49.2351118336498" lon="2.519185908713666"><ele>86.85714285714286</ele><time>2026-04-01T14:19:31.997Z</time></trkpt><trkpt lat="49.23512106893633" lon="2.519315695392827"><ele>87.0</ele><time>2026-04-01T14:19:33.997Z</time></trkpt><trkpt lat="49.23512196708291" lon="2.5194331961087673"><ele>87.0</ele><time>2026-04-01T14:19:35.997Z</time></trkpt><trkpt lat="49.23510813068215" lon="2.5195683867453904"><ele>87.0</ele><time>2026-04-01T14:19:37.997Z</time></trkpt><trkpt lat="49.235079892137485" lon="2.5196548758258195"><ele>87.0</ele><time>2026-04-01T14:19:39.997Z</time></trkpt><trkpt lat="49.235024322381925" lon="2.5197014090631003"><ele>87.0</ele><time>2026-04-01T14:19:41.997Z</time></trkpt><trkpt lat="49.23492568017036" lon="2.519733586179424"><ele>87.0</ele><time>2026-04-01T14:19:44.997Z</time></trkpt><trkpt lat="49.234859789938874" lon="2.5197433798271938"><ele>87.0</ele><time>2026-04-01T14:19:46.997Z</time></trkpt><trkpt lat="49.23479826502769" lon="2.5197937176595477"><ele>88.16666666666667</ele><time>2026-04-01T14:19:48.997Z</time></trkpt><trkpt lat="49.234734626480204" lon="2.519871314411565"><ele>89.33333333333333</ele><time>2026-04-01T14:19:52Z</time></trkpt><trkpt lat="49.23467727763495" lon="2.5199418274719023"><ele>90.5</ele><time>2026-04-01T14:19:56Z</time></trkpt><trkpt lat="49.23461521157384" lon="2.5199936186889174"><ele>91.66666666666666</ele><time>2026-04-01T14:19:59Z</time></trkpt><trkpt lat="49.23454460398966" lon="2.519949488667021"><ele>92.83333333333333</ele><time>2026-04-01T14:20:01Z</time></trkpt><trkpt lat="49.234458092321844" lon="2.5199359084563153"><ele>94.0</ele><time>2026-04-01T14:20:04Z</time></trkpt><trkpt lat="49.234378474544904" lon="2.519925698146247"><ele>94.0</ele><time>2026-04-01T14:20:06Z</time></trkpt><trkpt lat="49.23430622659416" lon="2.519918736559647"><ele>94.0</ele><time>2026-04-01T14:20:08Z</time></trkpt><trkpt lat="49.234226055419526" lon="2.519907953832853"><ele>94.0</ele><time>2026-04-01T14:20:09.999Z</time></trkpt><trkpt lat="49.23414087219502" lon="2.519906642856626"><ele>94.0</ele><time>2026-04-01T14:20:11.999Z</time></trkpt><trkpt lat="49.23406053795393" lon="2.5198856596725023"><ele>94.0</ele><time>2026-04-01T14:20:13.999Z</time></trkpt><trkpt lat="49.233976846023275" lon="2.5198823372474934"><ele>94.0</ele><time>2026-04-01T14:20:15.999Z</time></trkpt><trkpt lat="49.233902610441945" lon="2.519873163907454"><ele>94.16666666666666</ele><time>2026-04-01T14:20:17.999Z</time></trkpt><trkpt lat="49.23382149215555" lon="2.5198680479611246"><ele>94.33333333333333</ele><time>2026-04-01T14:20:19.999Z</time></trkpt><trkpt lat="49.23374146776453" lon="2.5198528235022146"><ele>94.5</ele><time>2026-04-01T14:20:21.999Z</time></trkpt><trkpt lat="49.233664836180516" lon="2.5198493659233634"><ele>94.66666666666667</ele><time>2026-04-01T14:20:23.999Z</time></trkpt><trkpt lat="49.23358081179067" lon="2.519844140958915"><ele>94.83333333333334</ele><time>2026-04-01T14:20:25.999Z</time></trkpt><trkpt lat="49.233495014031526" lon="2.519837902386744"><ele>95.0</ele><time>2026-04-01T14:20:27.999Z</time></trkpt><trkpt lat="49.23341282667109" lon="2.5198303757854443"><ele>95.0</ele><time>2026-04-01T14:20:29.999Z</time></trkpt><trkpt lat="49.23332866031773" lon="2.5198272797223313"><ele>95.0</ele><time>2026-04-01T14:20:31.999Z</time></trkpt><trkpt lat="49.23323720991595" lon="2.5198130636909952"><ele>95.0</ele><time>2026-04-01T14:20:33.999Z</time></trkpt><trkpt lat="49.23314511297803" lon="2.519804531084327"><ele>95.0</ele><time>2026-04-01T14:20:35.999Z</time></trkpt><trkpt lat="49.233056560191" lon="2.519790055289331"><ele>95.0</ele><time>2026-04-01T14:20:37.999Z</time></trkpt><trkpt lat="49.23296627036487" lon="2.5197791409129184"><ele>95.0</ele><time>2026-04-01T14:20:39.999Z</time></trkpt><trkpt lat="49.232880144276315" lon="2.5197735003531"><ele>95.16666666666667</ele><time>2026-04-01T14:20:41.999Z</time></trkpt><trkpt lat="49.23279453133184" lon="2.5197567885108745"><ele>95.33333333333334</ele><time>2026-04-01T14:20:43.999Z</time></trkpt><trkpt lat="49.23270294776627" lon="2.519749629495204"><ele>95.5</ele><time>2026-04-01T14:20:45.999Z</time></trkpt><trkpt lat="49.2326121198158" lon="2.5197470287596984"><ele>95.66666666666667</ele><time>2026-04-01T14:20:47.998Z</time></trkpt><trkpt lat="49.23252415150478" lon="2.5197381536127086"><ele>95.83333333333333</ele><time>2026-04-01T14:20:49.998Z</time></trkpt><trkpt lat="49.2324357002312" lon="2.519727134326165"><ele>96.0</ele><time>2026-04-01T14:20:51.998Z</time></trkpt><trkpt lat="49.232349319784355" lon="2.519718122983463"><ele>95.33333333333333</ele><time>2026-04-01T14:20:53.998Z</time></trkpt><trkpt lat="49.23227056964455" lon="2.5196977975304193"><ele>94.66666666666667</ele><time>2026-04-01T14:20:55.998Z</time></trkpt><trkpt lat="49.23217754539322" lon="2.5196884545140534"><ele>94.0</ele><time>2026-04-01T14:20:57.998Z</time></trkpt><trkpt lat="49.232087346806935" lon="2.519680734516144"><ele>93.33333333333334</ele><time>2026-04-01T14:20:59.998Z</time></trkpt><trkpt lat="49.23201225362257" lon="2.519667972566937"><ele>92.66666666666667</ele><time>2026-04-01T14:21:01.998Z</time></trkpt><trkpt lat="49.231930864289296" lon="2.519663827176847"><ele>92.0</ele><time>2026-04-01T14:21:03.998Z</time></trkpt><trkpt lat="49.2318389947236" lon="2.5196583458432453"><ele>92.0</ele><time>2026-04-01T14:21:05.998Z</time></trkpt><trkpt lat="49.23175023135303" lon="2.519649878626765"><ele>92.0</ele><time>2026-04-01T14:21:07.998Z</time></trkpt><trkpt lat="49.23166673456702" lon="2.519630411131574"><ele>92.0</ele><time>2026-04-01T14:21:09.998Z</time></trkpt><trkpt lat="49.231570310548086" lon="2.519632785895102"><ele>92.0</ele><time>2026-04-01T14:21:11.998Z</time></trkpt><trkpt lat="49.23147234688655" lon="2.5196179229074147"><ele>92.0</ele><time>2026-04-01T14:21:13.998Z</time></trkpt><trkpt lat="49.23136893388468" lon="2.519593692013112"><ele>91.8</ele><time>2026-04-01T14:21:15.998Z</time></trkpt><trkpt lat="49.23127523908971" lon="2.5195694502913195"><ele>91.6</ele><time>2026-04-01T14:21:17.998Z</time></trkpt><trkpt lat="49.231183102390524" lon="2.5195326500218176"><ele>91.39999999999999</ele><time>2026-04-01T14:21:19.998Z</time></trkpt><trkpt lat="49.23108504157427" lon="2.519484354161131"><ele>91.19999999999999</ele><time>2026-04-01T14:21:21.998Z</time></trkpt><trkpt lat="49.23098857617554" lon="2.519425731377072"><ele>91.0</ele><time>2026-04-01T14:21:23.997Z</time></trkpt><trkpt lat="49.23088711135526" lon="2.5193686740326395"><ele>91.0</ele><time>2026-04-01T14:21:25.997Z</time></trkpt><trkpt lat="49.23078664903234" lon="2.5193062357785294"><ele>91.0</ele><time>2026-04-01T14:21:27.997Z</time></trkpt><trkpt lat="49.23068316336804" lon="2.5192448513130934"><ele>91.0</ele><time>2026-04-01T14:21:29.997Z</time></trkpt><trkpt lat="49.23057826712366" lon="2.5191772320359127"><ele>91.0</ele><time>2026-04-01T14:21:31.997Z</time></trkpt><trkpt lat="49.23047285170482" lon="2.5191098711555684"><ele>91.0</ele><time>2026-04-01T14:21:33.997Z</time></trkpt><trkpt lat="49.230364136490195" lon="2.5190369576938423"><ele>90.0</ele><time>2026-04-01T14:21:35.997Z</time></trkpt><trkpt lat="49.23025471241469" lon="2.5189685019153574"><ele>89.0</ele><time>2026-04-01T14:21:37.997Z</time></trkpt><trkpt lat="49.230149554553044" lon="2.518909552030417"><ele>88.0</ele><time>2026-04-01T14:21:39.997Z</time></trkpt><trkpt lat="49.23004054167631" lon="2.5188377566677658"><ele>87.0</ele><time>2026-04-01T14:21:41.997Z</time></trkpt><trkpt lat="49.22992761316118" lon="2.5187744560760037"><ele>86.83333333333333</ele><time>2026-04-01T14:21:43.997Z</time></trkpt><trkpt lat="49.22981223100883" lon="2.518709624459532"><ele>86.66666666666667</ele><time>2026-04-01T14:21:45.997Z</time></trkpt><trkpt lat="49.2297528064954" lon="2.5186726419326178"><ele>86.5</ele><time>2026-04-01T14:21:46.997Z</time></trkpt><trkpt lat="49.229639157496926" lon="2.518604951354469"><ele>86.33333333333334</ele><time>2026-04-01T14:21:48.997Z</time></trkpt><trkpt lat="49.22958015125899" lon="2.5185659107110703"><ele>86.16666666666667</ele><time>2026-04-01T14:21:49.997Z</time></trkpt><trkpt lat="49.229518068999525" lon="2.5185230114044423"><ele>86.0</ele><time>2026-04-01T14:21:50.997Z</time></trkpt><trkpt lat="49.229459957412644" lon="2.5184833139012093"><ele>86.00000000000001</ele><time>2026-04-01T14:21:51.997Z</time></trkpt><trkpt lat="49.229396522004414" lon="2.5184458727227073"><ele>86.0</ele><time>2026-04-01T14:21:52.997Z</time></trkpt><trkpt lat="49.22933302835854" lon="2.5184114494757743"><ele>86.0</ele><time>2026-04-01T14:21:53.997Z</time></trkpt><trkpt lat="49.22926930703239" lon="2.5183763775440418"><ele>86.0</ele><time>2026-04-01T14:21:54.997Z</time></trkpt><trkpt lat="49.229207745013156" lon="2.5183375262778624"><ele>86.0</ele><time>2026-04-01T14:21:56Z</time></trkpt><trkpt lat="49.229143731050414" lon="2.5183006309246845"><ele>86.00000000000001</ele><time>2026-04-01T14:21:57Z</time></trkpt><trkpt lat="49.229079982856334" lon="2.518264189648022"><ele>86.0</ele><time>2026-04-01T14:21:58Z</time></trkpt><trkpt lat="49.22901778192687" lon="2.5182235206014565"><ele>85.71428571428572</ele><time>2026-04-01T14:21:59Z</time></trkpt><trkpt lat="49.22895290565429" lon="2.5181843597279916"><ele>85.42857142857143</ele><time>2026-04-01T14:22:00Z</time></trkpt><trkpt lat="49.228888708856665" lon="2.5181477594615784"><ele>85.14285714285714</ele><time>2026-04-01T14:22:01Z</time></trkpt><trkpt lat="49.22882799302718" lon="2.5181055979052056"><ele>84.85714285714286</ele><time>2026-04-01T14:22:02Z</time></trkpt><trkpt lat="49.22876370650934" lon="2.5180691352543674"><ele>84.57142857142857</ele><time>2026-04-01T14:22:03Z</time></trkpt><trkpt lat="49.2286967504755" lon="2.5180352304119564"><ele>84.28571428571429</ele><time>2026-04-01T14:22:04Z</time></trkpt><trkpt lat="49.228635611035955" lon="2.5180008258442164"><ele>84.0</ele><time>2026-04-01T14:22:05Z</time></trkpt><trkpt lat="49.228515399230695" lon="2.5179305619496373"><ele>84.0</ele><time>2026-04-01T14:22:07Z</time></trkpt><trkpt lat="49.22839865659904" lon="2.51785400811439"><ele>84.0</ele><time>2026-04-01T14:22:09Z</time></trkpt><trkpt lat="49.228280768811146" lon="2.5177825731906993"><ele>84.0</ele><time>2026-04-01T14:22:11Z</time></trkpt><trkpt lat="49.228218999217546" lon="2.5177466342069197"><ele>84.0</ele><time>2026-04-01T14:22:11.999Z</time></trkpt><trkpt lat="49.2281593869698" lon="2.517713792861204"><ele>84.0</ele><time>2026-04-01T14:22:12.999Z</time></trkpt><trkpt lat="49.22809433263768" lon="2.517675661541427"><ele>83.83333333333333</ele><time>2026-04-01T14:22:13.999Z</time></trkpt><trkpt lat="49.22803088567555" lon="2.5176367169517206"><ele>83.66666666666667</ele><time>2026-04-01T14:22:14.999Z</time></trkpt><trkpt lat="49.22791939532163" lon="2.5175621486040334"><ele>83.5</ele><time>2026-04-01T14:22:16.999Z</time></trkpt><trkpt lat="49.22785906766122" lon="2.517529546541762"><ele>83.33333333333334</ele><time>2026-04-01T14:22:17.999Z</time></trkpt><trkpt lat="49.22779581626128" lon="2.5174910251496887"><ele>83.16666666666667</ele><time>2026-04-01T14:22:18.999Z</time></trkpt><trkpt lat="49.227734257465876" lon="2.5174538914131936"><ele>83.0</ele><time>2026-04-01T14:22:19.999Z</time></trkpt><trkpt lat="49.22767375950573" lon="2.5174183885148684"><ele>83.0</ele><time>2026-04-01T14:22:20.999Z</time></trkpt><trkpt lat="49.227610687219844" lon="2.5173833783969437"><ele>83.0</ele><time>2026-04-01T14:22:21.999Z</time></trkpt><trkpt lat="49.227549657262834" lon="2.5173502784682893"><ele>83.0</ele><time>2026-04-01T14:22:22.999Z</time></trkpt><trkpt lat="49.22748833209046" lon="2.5173128404893768"><ele>83.0</ele><time>2026-04-01T14:22:23.999Z</time></trkpt><trkpt lat="49.22742400789337" lon="2.517274048556524"><ele>83.0</ele><time>2026-04-01T14:22:24.999Z</time></trkpt><trkpt lat="49.22735898529441" lon="2.517237570153284"><ele>83.0</ele><time>2026-04-01T14:22:25.999Z</time></trkpt><trkpt lat="49.2272969904768" lon="2.517200700204822"><ele>83.0</ele><time>2026-04-01T14:22:26.999Z</time></trkpt><trkpt lat="49.2272358714561" lon="2.5171619951428403"><ele>82.85714285714285</ele><time>2026-04-01T14:22:27.999Z</time></trkpt><trkpt lat="49.227171846928876" lon="2.517122332950644"><ele>82.71428571428572</ele><time>2026-04-01T14:22:28.999Z</time></trkpt><trkpt lat="49.227109145512394" lon="2.517089560413252"><ele>82.57142857142857</ele><time>2026-04-01T14:22:29.999Z</time></trkpt><trkpt lat="49.22705168523967" lon="2.517049056181806"><ele>82.42857142857142</ele><time>2026-04-01T14:22:30.999Z</time></trkpt><trkpt lat="49.226989454195234" lon="2.517010377213529"><ele>82.28571428571428</ele><time>2026-04-01T14:22:31.999Z</time></trkpt><trkpt lat="49.226928680295906" lon="2.5169735611141184"><ele>82.14285714285714</ele><time>2026-04-01T14:22:32.999Z</time></trkpt><trkpt lat="49.226863220615265" lon="2.5169311147386675"><ele>82.0</ele><time>2026-04-01T14:22:33.999Z</time></trkpt><trkpt lat="49.226804892654755" lon="2.5168929278883314"><ele>81.99999999999999</ele><time>2026-04-01T14:22:34.999Z</time></trkpt><trkpt lat="49.2267424530387" lon="2.5168614496498916"><ele>82.0</ele><time>2026-04-01T14:22:35.999Z</time></trkpt><trkpt lat="49.22667906173311" lon="2.5168251429265625"><ele>82.0</ele><time>2026-04-01T14:22:36.999Z</time></trkpt><trkpt lat="49.22661867030018" lon="2.5167915279081052"><ele>82.0</ele><time>2026-04-01T14:22:37.999Z</time></trkpt><trkpt lat="49.22655813315155" lon="2.5167506578672647"><ele>82.0</ele><time>2026-04-01T14:22:38.999Z</time></trkpt><trkpt lat="49.22649826721484" lon="2.516716527577993"><ele>81.99999999999999</ele><time>2026-04-01T14:22:39.999Z</time></trkpt><trkpt lat="49.22643418129242" lon="2.5166710307524776"><ele>82.0</ele><time>2026-04-01T14:22:40.999Z</time></trkpt><trkpt lat="49.22637545296134" lon="2.516626014587788"><ele>81.66666666666666</ele><time>2026-04-01T14:22:41.999Z</time></trkpt><trkpt lat="49.22632152069425" lon="2.516572015989247"><ele>81.33333333333333</ele><time>2026-04-01T14:22:42.999Z</time></trkpt><trkpt lat="49.22626829654976" lon="2.51650793335333"><ele>81.0</ele><time>2026-04-01T14:22:43.999Z</time></trkpt><trkpt lat="49.22619829950576" lon="2.516343521628478"><ele>80.66666666666667</ele><time>2026-04-01T14:22:45.999Z</time></trkpt><trkpt lat="49.2261529716714" lon="2.5162758333793525"><ele>80.33333333333334</ele><time>2026-04-01T14:22:46.999Z</time></trkpt><trkpt lat="49.22612877048008" lon="2.5161549929865323"><ele>80.0</ele><time>2026-04-01T14:22:47.999Z</time></trkpt><trkpt lat="49.22609853272407" lon="2.516069726208092"><ele>80.0</ele><time>2026-04-01T14:22:48.999Z</time></trkpt><trkpt lat="49.22599740142357" lon="2.515951383681538"><ele>80.0</ele><time>2026-04-01T14:22:50.998Z</time></trkpt><trkpt lat="49.22588899332162" lon="2.515885051059617"><ele>80.0</ele><time>2026-04-01T14:22:52.998Z</time></trkpt><trkpt lat="49.22577690059058" lon="2.5158161164673425"><ele>80.0</ele><time>2026-04-01T14:22:54.998Z</time></trkpt><trkpt lat="49.225667961959665" lon="2.5157400818108613"><ele>79.6</ele><time>2026-04-01T14:22:56.998Z</time></trkpt><trkpt lat="49.225571629007334" lon="2.515642334307297"><ele>79.2</ele><time>2026-04-01T14:22:58.998Z</time></trkpt><trkpt lat="49.22546217850511" lon="2.5155612442016575"><ele>78.8</ele><time>2026-04-01T14:23:00.998Z</time></trkpt><trkpt lat="49.225352500566906" lon="2.5154799854714356"><ele>78.4</ele><time>2026-04-01T14:23:02.998Z</time></trkpt><trkpt lat="49.225294789159335" lon="2.515437584955223"><ele>78.0</ele><time>2026-04-01T14:23:03.998Z</time></trkpt><trkpt lat="49.22517977220951" lon="2.5153569767138864"><ele>78.0</ele><time>2026-04-01T14:23:05.998Z</time></trkpt><trkpt lat="49.225069401573414" lon="2.5152676364303135"><ele>78.0</ele><time>2026-04-01T14:23:07.998Z</time></trkpt><trkpt lat="49.22501512247402" lon="2.515214136246665"><ele>78.0</ele><time>2026-04-01T14:23:08.998Z</time></trkpt><trkpt lat="49.224953799167814" lon="2.5151804668715934"><ele>78.0</ele><time>2026-04-01T14:23:09.998Z</time></trkpt><trkpt lat="49.2248974460412" lon="2.5151200008490338"><ele>78.0</ele><time>2026-04-01T14:23:10.998Z</time></trkpt><trkpt lat="49.22479183292902" lon="2.5150055777694003"><ele>77.66666666666667</ele><time>2026-04-01T14:23:12.998Z</time></trkpt><trkpt lat="49.22469045791827" lon="2.5148984717923897"><ele>77.33333333333333</ele><time>2026-04-01T14:23:14.998Z</time></trkpt><trkpt lat="49.22463607380104" lon="2.5148405774717375"><ele>77.0</ele><time>2026-04-01T14:23:15.998Z</time></trkpt><trkpt lat="49.22453244565716" lon="2.5147308991162323"><ele>76.66666666666666</ele><time>2026-04-01T14:23:17.998Z</time></trkpt><trkpt lat="49.22447966287178" lon="2.514676841173701"><ele>76.33333333333333</ele><time>2026-04-01T14:23:18.998Z</time></trkpt><trkpt lat="49.22442590191863" lon="2.5146235400485413"><ele>76.0</ele><time>2026-04-01T14:23:19.998Z</time></trkpt><trkpt lat="49.224369975952044" lon="2.5145728642005136"><ele>76.16666666666666</ele><time>2026-04-01T14:23:20.998Z</time></trkpt><trkpt lat="49.22431524892635" lon="2.514524970815831"><ele>76.33333333333333</ele><time>2026-04-01T14:23:21.998Z</time></trkpt><trkpt lat="49.224257349758616" lon="2.5144765488684406"><ele>76.5</ele><time>2026-04-01T14:23:22.998Z</time></trkpt><trkpt lat="49.22420103523243" lon="2.5144200539789243"><ele>76.66666666666667</ele><time>2026-04-01T14:23:23.998Z</time></trkpt><trkpt lat="49.22409193045546" lon="2.514331503137091"><ele>76.83333333333334</ele><time>2026-04-01T14:23:25.998Z</time></trkpt><trkpt lat="49.22398926773317" lon="2.5142372910139983"><ele>77.0</ele><time>2026-04-01T14:23:27.998Z</time></trkpt><trkpt lat="49.2238784056974" lon="2.5141520340644514"><ele>76.33333333333334</ele><time>2026-04-01T14:23:29.997Z</time></trkpt><trkpt lat="49.223820463777585" lon="2.5141073421902234"><ele>75.66666666666667</ele><time>2026-04-01T14:23:30.997Z</time></trkpt><trkpt lat="49.22376493581698" lon="2.5140597892099064"><ele>75.0</ele><time>2026-04-01T14:23:31.997Z</time></trkpt><trkpt lat="49.2236546803379" lon="2.513978265044986"><ele>74.33333333333333</ele><time>2026-04-01T14:23:33.997Z</time></trkpt><trkpt lat="49.22359791316316" lon="2.5139356334986105"><ele>73.66666666666666</ele><time>2026-04-01T14:23:34.997Z</time></trkpt><trkpt lat="49.22353990907966" lon="2.513888524629552"><ele>73.0</ele><time>2026-04-01T14:23:35.997Z</time></trkpt><trkpt lat="49.22343818944318" lon="2.513830387014671"><ele>73.0</ele><time>2026-04-01T14:23:37.997Z</time></trkpt><trkpt lat="49.223322161664974" lon="2.513754674165562"><ele>73.0</ele><time>2026-04-01T14:23:39.997Z</time></trkpt><trkpt lat="49.223220262754914" lon="2.51368769401113"><ele>73.0</ele><time>2026-04-01T14:23:41.997Z</time></trkpt><trkpt lat="49.22312177851884" lon="2.51359388515046"><ele>73.0</ele><time>2026-04-01T14:23:43.997Z</time></trkpt><trkpt lat="49.2230135689419" lon="2.5135198470277973"><ele>73.4</ele><time>2026-04-01T14:23:45.997Z</time></trkpt><trkpt lat="49.22295522191174" lon="2.513479925281439"><ele>73.8</ele><time>2026-04-01T14:23:46.997Z</time></trkpt><trkpt lat="49.22284463415355" lon="2.5134082332769356"><ele>74.2</ele><time>2026-04-01T14:23:48.997Z</time></trkpt><trkpt lat="49.22274484952547" lon="2.5133460291100613"><ele>74.6</ele><time>2026-04-01T14:23:50.997Z</time></trkpt><trkpt lat="49.22262542250949" lon="2.513321259226534"><ele>75.0</ele><time>2026-04-01T14:23:52.997Z</time></trkpt><trkpt lat="49.22250756598819" lon="2.513310733455112"><ele>75.0</ele><time>2026-04-01T14:23:54.997Z</time></trkpt><trkpt lat="49.22239154420812" lon="2.513279809487864"><ele>75.0</ele><time>2026-04-01T14:23:56.997Z</time></trkpt><trkpt lat="49.222275518898655" lon="2.5132618072679698"><ele>75.0</ele><time>2026-04-01T14:23:58.997Z</time></trkpt><trkpt lat="49.22218264072228" lon="2.513244924027178"><ele>75.0</ele><time>2026-04-01T14:24:00.997Z</time></trkpt><trkpt lat="49.22214519872763" lon="2.5134338318113545"><ele>74.5</ele><time>2026-04-01T14:24:02Z</time></trkpt><trkpt lat="49.22207180457879" lon="2.513507430656101"><ele>74.0</ele><time>2026-04-01T14:24:04Z</time></trkpt><trkpt lat="49.222003092410475" lon="2.5135703533378617"><ele>73.5</ele><time>2026-04-01T14:24:06Z</time></trkpt><trkpt lat="49.22194546785346" lon="2.5136584903389183"><ele>73.0</ele><time>2026-04-01T14:24:08Z</time></trkpt><trkpt lat="49.22188407340217" lon="2.513728940655562"><ele>72.5</ele><time>2026-04-01T14:24:10Z</time></trkpt><trkpt lat="49.22184210306562" lon="2.51382233864227"><ele>72.0</ele><time>2026-04-01T14:24:12Z</time></trkpt><trkpt lat="49.221799044448474" lon="2.5139049157193365"><ele>72.0</ele><time>2026-04-01T14:26:08Z</time></trkpt><trkpt lat="49.221688921052646" lon="2.5138119345290755"><ele>72.0</ele><time>2026-04-01T14:26:11Z</time></trkpt><trkpt lat="49.22161988471074" lon="2.5137746196308934"><ele>72.0</ele><time>2026-04-01T14:26:13Z</time></trkpt><trkpt lat="49.22152361031273" lon="2.5137673203659245"><ele>72.0</ele><time>2026-04-01T14:26:15Z</time></trkpt><trkpt lat="49.221431155364044" lon="2.513727041824777"><ele>72.0</ele><time>2026-04-01T14:26:17Z</time></trkpt><trkpt lat="49.221336966443495" lon="2.513674634598774"><ele>71.4</ele><time>2026-04-01T14:26:19Z</time></trkpt><trkpt lat="49.221236006421485" lon="2.513613868509667"><ele>70.80000000000001</ele><time>2026-04-01T14:26:21Z</time></trkpt><trkpt lat="49.22113066727634" lon="2.5135543001185585"><ele>70.2</ele><time>2026-04-01T14:26:23Z</time></trkpt><trkpt lat="49.22102571067247" lon="2.5134896710145336"><ele>69.60000000000001</ele><time>2026-04-01T14:26:25Z</time></trkpt><trkpt lat="49.22092199908402" lon="2.513429793232183"><ele>69.0</ele><time>2026-04-01T14:26:27Z</time></trkpt><trkpt lat="49.22081307456375" lon="2.5133679926084307"><ele>69.0</ele><time>2026-04-01T14:26:28.999Z</time></trkpt><trkpt lat="49.220705649351665" lon="2.5133059641517765"><ele>69.0</ele><time>2026-04-01T14:26:30.999Z</time></trkpt><trkpt lat="49.22058988955958" lon="2.5132487581651803"><ele>69.0</ele><time>2026-04-01T14:26:32.999Z</time></trkpt><trkpt lat="49.2204844246673" lon="2.513183072877139"><ele>69.0</ele><time>2026-04-01T14:26:34.999Z</time></trkpt><trkpt lat="49.22037400143831" lon="2.5131178507781513"><ele>69.0</ele><time>2026-04-01T14:26:36.999Z</time></trkpt><trkpt lat="49.220264889153256" lon="2.5130601366815415"><ele>69.0</ele><time>2026-04-01T14:26:38.999Z</time></trkpt><trkpt lat="49.22014840372276" lon="2.5129924742662273"><ele>69.0</ele><time>2026-04-01T14:26:40.999Z</time></trkpt><trkpt lat="49.220037344495154" lon="2.512933635331588"><ele>69.0</ele><time>2026-04-01T14:26:42.999Z</time></trkpt><trkpt lat="49.219996573549295" lon="2.51282484091168"><ele>69.0</ele><time>2026-04-01T14:26:43.999Z</time></trkpt><trkpt lat="49.21992637772124" lon="2.5128657556015677"><ele>68.75</ele><time>2026-04-01T14:26:44.999Z</time></trkpt><trkpt lat="49.2198163155221" lon="2.5127893288939664"><ele>68.5</ele><time>2026-04-01T14:26:46.999Z</time></trkpt><trkpt lat="49.21970702935825" lon="2.512719768162814"><ele>68.25</ele><time>2026-04-01T14:26:48.999Z</time></trkpt><trkpt lat="49.21958988111505" lon="2.512665930438246"><ele>68.0</ele><time>2026-04-01T14:26:50.999Z</time></trkpt><trkpt lat="49.219491927629804" lon="2.5125270509781084"><ele>68.0</ele><time>2026-04-01T14:26:52.999Z</time></trkpt><trkpt lat="49.219375885221964" lon="2.5124585896003575"><ele>68.0</ele><time>2026-04-01T14:26:54.999Z</time></trkpt><trkpt lat="49.219255358538454" lon="2.512387481044047"><ele>68.0</ele><time>2026-04-01T14:26:56.999Z</time></trkpt><trkpt lat="49.219136784305284" lon="2.5123192482287275"><ele>68.0</ele><time>2026-04-01T14:26:58.999Z</time></trkpt><trkpt lat="49.21907622380742" lon="2.5122841716594624"><ele>68.0</ele><time>2026-04-01T14:26:59.999Z</time></trkpt><trkpt lat="49.21895993642716" lon="2.5122168181248186"><ele>67.83333333333334</ele><time>2026-04-01T14:27:01.999Z</time></trkpt><trkpt lat="49.218845328975654" lon="2.5121504376713926"><ele>67.66666666666667</ele><time>2026-04-01T14:27:03.999Z</time></trkpt><trkpt lat="49.218786239448704" lon="2.5121162130635653"><ele>67.5</ele><time>2026-04-01T14:27:04.998Z</time></trkpt><trkpt lat="49.218668245407386" lon="2.512047871065341"><ele>67.33333333333333</ele><time>2026-04-01T14:27:06.998Z</time></trkpt><trkpt lat="49.218608927388516" lon="2.512013514145951"><ele>67.16666666666666</ele><time>2026-04-01T14:27:07.998Z</time></trkpt><trkpt lat="49.218548634524964" lon="2.511978592583994"><ele>67.0</ele><time>2026-04-01T14:27:08.998Z</time></trkpt><trkpt lat="49.21843114664337" lon="2.511910543750567"><ele>66.6</ele><time>2026-04-01T14:27:10.998Z</time></trkpt><trkpt lat="49.218370971390954" lon="2.5118756903177246"><ele>66.2</ele><time>2026-04-01T14:27:11.998Z</time></trkpt><trkpt lat="49.218247522863116" lon="2.5118037790159278"><ele>65.8</ele><time>2026-04-01T14:27:13.998Z</time></trkpt><trkpt lat="49.21813133391912" lon="2.5117344255089136"><ele>65.4</ele><time>2026-04-01T14:27:15.998Z</time></trkpt><trkpt lat="49.21807158289529" lon="2.5116987597859097"><ele>65.0</ele><time>2026-04-01T14:27:16.998Z</time></trkpt><trkpt lat="49.21801057636818" lon="2.511662344744306"><ele>64.71428571428572</ele><time>2026-04-01T14:27:17.998Z</time></trkpt><trkpt lat="49.21795081435787" lon="2.511626603299416"><ele>64.42857142857143</ele><time>2026-04-01T14:27:18.998Z</time></trkpt><trkpt lat="49.21789206189685" lon="2.511591121753366"><ele>64.14285714285714</ele><time>2026-04-01T14:27:19.998Z</time></trkpt><trkpt lat="49.21783037009986" lon="2.51155386503649"><ele>63.85714285714286</ele><time>2026-04-01T14:27:20.998Z</time></trkpt><trkpt lat="49.21776867932967" lon="2.5115166090068777"><ele>63.57142857142857</ele><time>2026-04-01T14:27:21.998Z</time></trkpt><trkpt lat="49.21770793760368" lon="2.5114799261256655"><ele>63.285714285714285</ele><time>2026-04-01T14:27:22.998Z</time></trkpt><trkpt lat="49.21764904530147" lon="2.51144436014035"><ele>63.0</ele><time>2026-04-01T14:27:23.998Z</time></trkpt><trkpt lat="49.217586533818" lon="2.511406322423427"><ele>63.0</ele><time>2026-04-01T14:27:24.998Z</time></trkpt><trkpt lat="49.21752403818322" lon="2.511367513991927"><ele>63.0</ele><time>2026-04-01T14:27:25.998Z</time></trkpt><trkpt lat="49.21746277524683" lon="2.511329471059971"><ele>63.0</ele><time>2026-04-01T14:27:26.998Z</time></trkpt><trkpt lat="49.21740185503486" lon="2.511291643268276"><ele>63.0</ele><time>2026-04-01T14:27:27.998Z</time></trkpt><trkpt lat="49.21733756370534" lon="2.5112520877746287"><ele>63.0</ele><time>2026-04-01T14:27:28.998Z</time></trkpt><trkpt lat="49.217278016710374" lon="2.5112156741932883"><ele>63.0</ele><time>2026-04-01T14:27:29.998Z</time></trkpt><trkpt lat="49.21721495367822" lon="2.5111771106181155"><ele>63.0</ele><time>2026-04-01T14:27:30.998Z</time></trkpt><trkpt lat="49.21715469432972" lon="2.511140261450675"><ele>63.0</ele><time>2026-04-01T14:27:31.998Z</time></trkpt><trkpt lat="49.21709328524986" lon="2.5111027092595264"><ele>63.0</ele><time>2026-04-01T14:27:32.998Z</time></trkpt><trkpt lat="49.217030901857534" lon="2.511064561252542"><ele>63.0</ele><time>2026-04-01T14:27:33.998Z</time></trkpt><trkpt lat="49.2169715864548" lon="2.5110282893138227"><ele>63.0</ele><time>2026-04-01T14:27:34.998Z</time></trkpt><trkpt lat="49.21690798562531" lon="2.510989780293338"><ele>63.0</ele><time>2026-04-01T14:27:35.998Z</time></trkpt><trkpt lat="49.21684528182205" lon="2.5109519213713622"><ele>63.0</ele><time>2026-04-01T14:27:36.998Z</time></trkpt><trkpt lat="49.216723709532424" lon="2.510878169993971"><ele>63.0</ele><time>2026-04-01T14:27:38.998Z</time></trkpt><trkpt lat="49.21666099180434" lon="2.510839496279116"><ele>63.0</ele><time>2026-04-01T14:27:39.998Z</time></trkpt><trkpt lat="49.216598426429584" lon="2.510800916527588"><ele>63.0</ele><time>2026-04-01T14:27:40.998Z</time></trkpt><trkpt lat="49.21647916886963" lon="2.5107273786360067"><ele>63.0</ele><time>2026-04-01T14:27:42.997Z</time></trkpt><trkpt lat="49.21641903987525" lon="2.5106903012237165"><ele>63.0</ele><time>2026-04-01T14:27:43.997Z</time></trkpt><trkpt lat="49.21635731346669" lon="2.5106522388245924"><ele>63.0</ele><time>2026-04-01T14:27:44.997Z</time></trkpt><trkpt lat="49.2162975941082" lon="2.5106160467527965"><ele>63.0</ele><time>2026-04-01T14:27:45.997Z</time></trkpt><trkpt lat="49.21623757355576" lon="2.5105801680808275"><ele>63.0</ele><time>2026-04-01T14:27:46.997Z</time></trkpt><trkpt lat="49.21617690619053" lon="2.510543948802189"><ele>63.0</ele><time>2026-04-01T14:27:47.997Z</time></trkpt><trkpt lat="49.216115251399444" lon="2.51050736514713"><ele>63.0</ele><time>2026-04-01T14:27:48.997Z</time></trkpt><trkpt lat="49.21605579494702" lon="2.5104720858736322"><ele>63.0</ele><time>2026-04-01T14:27:49.997Z</time></trkpt><trkpt lat="49.2159931904628" lon="2.510434938730661"><ele>63.0</ele><time>2026-04-01T14:27:50.997Z</time></trkpt><trkpt lat="49.21593206358334" lon="2.510399098175921"><ele>63.0</ele><time>2026-04-01T14:27:51.997Z</time></trkpt><trkpt lat="49.215872439701755" lon="2.510364597411214"><ele>63.0</ele><time>2026-04-01T14:27:52.997Z</time></trkpt><trkpt lat="49.21580926870347" lon="2.5103280441920086"><ele>63.0</ele><time>2026-04-01T14:27:53.997Z</time></trkpt><trkpt lat="49.21574764394257" lon="2.51029238562901"><ele>63.0</ele><time>2026-04-01T14:27:54.997Z</time></trkpt><trkpt lat="49.21568737767812" lon="2.510257513180073"><ele>63.0</ele><time>2026-04-01T14:27:55.997Z</time></trkpt><trkpt lat="49.21562657427549" lon="2.510222329898346"><ele>63.0</ele><time>2026-04-01T14:27:56.997Z</time></trkpt><trkpt lat="49.21556504475835" lon="2.5101867264783007"><ele>63.0</ele><time>2026-04-01T14:27:57.997Z</time></trkpt><trkpt lat="49.21544448255997" lon="2.5101169644086117"><ele>63.0</ele><time>2026-04-01T14:27:59.997Z</time></trkpt><trkpt lat="49.21538399734157" lon="2.5100819652853117"><ele>63.0</ele><time>2026-04-01T14:28:00.997Z</time></trkpt><trkpt lat="49.21532398526161" lon="2.5100472398611227"><ele>63.0</ele><time>2026-04-01T14:28:01.997Z</time></trkpt><trkpt lat="49.21526321118049" lon="2.510012073564333"><ele>63.0</ele><time>2026-04-01T14:28:02.997Z</time></trkpt><trkpt lat="49.215148328547556" lon="2.5099453504422145"><ele>63.0</ele><time>2026-04-01T14:28:04.997Z</time></trkpt><trkpt lat="49.215037091818125" lon="2.50987781848598"><ele>63.0</ele><time>2026-04-01T14:28:06.997Z</time></trkpt><trkpt lat="49.21493065957003" lon="2.5098132034026897"><ele>63.0</ele><time>2026-04-01T14:28:08.997Z</time></trkpt><trkpt lat="49.214825826972884" lon="2.509749559425497"><ele>63.0</ele><time>2026-04-01T14:28:10.997Z</time></trkpt><trkpt lat="49.21472658470076" lon="2.5096893093486354"><ele>63.0</ele><time>2026-04-01T14:28:13Z</time></trkpt><trkpt lat="49.214633297514496" lon="2.509648538935924"><ele>63.0</ele><time>2026-04-01T14:28:15Z</time></trkpt><trkpt lat="49.214548126705594" lon="2.509574841904585"><ele>63.0</ele><time>2026-04-01T14:28:17Z</time></trkpt><trkpt lat="49.21448589838904" lon="2.5095578114245907"><ele>62.75</ele><time>2026-04-01T14:28:19Z</time></trkpt><trkpt lat="49.2145082723273" lon="2.509358890093714"><ele>62.5</ele><time>2026-04-01T14:28:20Z</time></trkpt><trkpt lat="49.21450647362341" lon="2.5091992499750986"><ele>62.25</ele><time>2026-04-01T14:28:22Z</time></trkpt><trkpt lat="49.21447338958245" lon="2.509056690033542"><ele>62.0</ele><time>2026-04-01T14:28:24Z</time></trkpt><trkpt lat="49.21438178083007" lon="2.5089459647854366"><ele>62.0</ele><time>2026-04-01T14:28:26Z</time></trkpt><trkpt lat="49.21428251451023" lon="2.5088755798171203"><ele>62.0</ele><time>2026-04-01T14:28:28Z</time></trkpt><trkpt lat="49.21417208933513" lon="2.508870528001781"><ele>62.0</ele><time>2026-04-01T14:28:30Z</time></trkpt><trkpt lat="49.21407692350524" lon="2.508864910227836"><ele>62.0</ele><time>2026-04-01T14:28:31.999Z</time></trkpt><trkpt lat="49.2139957495849" lon="2.5089312756589366"><ele>62.0</ele><time>2026-04-01T14:28:33.999Z</time></trkpt><trkpt lat="49.213918383315246" lon="2.509020631776146"><ele>62.0</ele><time>2026-04-01T14:28:35.999Z</time></trkpt><trkpt lat="49.213855187052744" lon="2.5091450054348767"><ele>62.0</ele><time>2026-04-01T14:28:37.999Z</time></trkpt><trkpt lat="49.21383270595061" lon="2.5092441875923415"><ele>62.0</ele><time>2026-04-01T14:28:39.999Z</time></trkpt><trkpt lat="49.21375753774703" lon="2.5092387341817415"><ele>62.0</ele><time>2026-04-01T14:28:40.999Z</time></trkpt><trkpt lat="49.21367832464497" lon="2.509127749620526"><ele>62.0</ele><time>2026-04-01T14:28:41.999Z</time></trkpt><trkpt lat="49.21357141812255" lon="2.5090776416687275"><ele>62.0</ele><time>2026-04-01T14:28:43.999Z</time></trkpt><trkpt lat="49.21347036843904" lon="2.5090041786485657"><ele>62.0</ele><time>2026-04-01T14:28:45.999Z</time></trkpt><trkpt lat="49.21336473120595" lon="2.508932477267482"><ele>62.0</ele><time>2026-04-01T14:28:47.999Z</time></trkpt><trkpt lat="49.213254602945575" lon="2.508873346135854"><ele>62.0</ele><time>2026-04-01T14:28:49.999Z</time></trkpt><trkpt lat="49.21314813586912" lon="2.5088201933759735"><ele>61.75</ele><time>2026-04-01T14:28:51.999Z</time></trkpt><trkpt lat="49.21304174180246" lon="2.508765931146357"><ele>61.5</ele><time>2026-04-01T14:28:53.999Z</time></trkpt><trkpt lat="49.21293503689073" lon="2.5086906182492905"><ele>61.25</ele><time>2026-04-01T14:28:55.999Z</time></trkpt><trkpt lat="49.2128370020803" lon="2.508614348329066"><ele>61.0</ele><time>2026-04-01T14:28:57.999Z</time></trkpt><trkpt lat="49.21272089600697" lon="2.5085547431745603"><ele>61.0</ele><time>2026-04-01T14:28:59.999Z</time></trkpt><trkpt lat="49.21261521215377" lon="2.5084978076662203"><ele>61.0</ele><time>2026-04-01T14:29:01.999Z</time></trkpt><trkpt lat="49.212512907300095" lon="2.5084262779844595"><ele>61.0</ele><time>2026-04-01T14:29:03.999Z</time></trkpt><trkpt lat="49.212402287449976" lon="2.5083653409195925"><ele>61.0</ele><time>2026-04-01T14:29:05.999Z</time></trkpt><trkpt lat="49.212293892566656" lon="2.5083082039126334"><ele>61.0</ele><time>2026-04-01T14:29:07.998Z</time></trkpt><trkpt lat="49.212179450514554" lon="2.5082448700774895"><ele>61.0</ele><time>2026-04-01T14:29:09.998Z</time></trkpt><trkpt lat="49.2120735948949" lon="2.5081662574336727"><ele>61.0</ele><time>2026-04-01T14:29:11.998Z</time></trkpt><trkpt lat="49.21196212288938" lon="2.508103757763587"><ele>61.0</ele><time>2026-04-01T14:29:13.998Z</time></trkpt><trkpt lat="49.2118491179134" lon="2.5080477322922947"><ele>61.0</ele><time>2026-04-01T14:29:15.998Z</time></trkpt><trkpt lat="49.21173631680328" lon="2.5079805418783"><ele>61.0</ele><time>2026-04-01T14:29:17.998Z</time></trkpt><trkpt lat="49.21162679303231" lon="2.5079257538398525"><ele>61.0</ele><time>2026-04-01T14:29:19.998Z</time></trkpt><trkpt lat="49.211519891604766" lon="2.507889613298894"><ele>61.0</ele><time>2026-04-01T14:29:21.998Z</time></trkpt><trkpt lat="49.21142440490124" lon="2.5078099877561555"><ele>61.4</ele><time>2026-04-01T14:29:23.998Z</time></trkpt><trkpt lat="49.21131419968655" lon="2.507747010755242"><ele>61.8</ele><time>2026-04-01T14:29:25.998Z</time></trkpt><trkpt lat="49.21120242252981" lon="2.507681267796372"><ele>62.199999999999996</ele><time>2026-04-01T14:29:27.998Z</time></trkpt><trkpt lat="49.2110940936519" lon="2.5076169787847897"><ele>62.599999999999994</ele><time>2026-04-01T14:29:29.998Z</time></trkpt><trkpt lat="49.21103254870595" lon="2.5075823189679407"><ele>63.0</ele><time>2026-04-01T14:29:30.998Z</time></trkpt><trkpt lat="49.21092661347794" lon="2.5075172123430285"><ele>63.0</ele><time>2026-04-01T14:29:32.998Z</time></trkpt><trkpt lat="49.21086862416359" lon="2.507479694281881"><ele>63.0</ele><time>2026-04-01T14:29:33.998Z</time></trkpt><trkpt lat="49.21075481885416" lon="2.5074136328292136"><ele>63.0</ele><time>2026-04-01T14:29:35.998Z</time></trkpt><trkpt lat="49.21064970288448" lon="2.5073589350393055"><ele>63.0</ele><time>2026-04-01T14:29:37.998Z</time></trkpt><trkpt lat="49.21058903250518" lon="2.50732247661238"><ele>63.0</ele><time>2026-04-01T14:29:38.998Z</time></trkpt><trkpt lat="49.21047182752914" lon="2.5072605874330227"><ele>63.75</ele><time>2026-04-01T14:29:40.998Z</time></trkpt><trkpt lat="49.210357375167405" lon="2.5071895021386306"><ele>64.5</ele><time>2026-04-01T14:29:42.998Z</time></trkpt><trkpt lat="49.21024826818228" lon="2.5071028343035926"><ele>65.25</ele><time>2026-04-01T14:29:44.997Z</time></trkpt><trkpt lat="49.2101382374142" lon="2.5070472560465853"><ele>66.0</ele><time>2026-04-01T14:29:46.997Z</time></trkpt><trkpt lat="49.210030246296974" lon="2.5069845218848132"><ele>66.0</ele><time>2026-04-01T14:29:48.997Z</time></trkpt><trkpt lat="49.209916455811815" lon="2.5069135377399006"><ele>66.0</ele><time>2026-04-01T14:29:50.997Z</time></trkpt><trkpt lat="49.20980807799383" lon="2.506857411521062"><ele>66.0</ele><time>2026-04-01T14:29:52.997Z</time></trkpt><trkpt lat="49.20969870268778" lon="2.5067959946507505"><ele>66.0</ele><time>2026-04-01T14:29:54.997Z</time></trkpt><trkpt lat="49.20958947500856" lon="2.5067455229696747"><ele>64.75</ele><time>2026-04-01T14:29:56.997Z</time></trkpt><trkpt lat="49.209481456218505" lon="2.5066638452508956"><ele>63.5</ele><time>2026-04-01T14:29:58.997Z</time></trkpt><trkpt lat="49.209375375341445" lon="2.5066219254635187"><ele>62.25</ele><time>2026-04-01T14:30:00.997Z</time></trkpt><trkpt lat="49.20925798752784" lon="2.5065360522525917"><ele>61.0</ele><time>2026-04-01T14:30:02.997Z</time></trkpt><trkpt lat="49.20915069787457" lon="2.5064590462943572"><ele>61.0</ele><time>2026-04-01T14:30:04.997Z</time></trkpt><trkpt lat="49.20904147336502" lon="2.5063974331484298"><ele>61.0</ele><time>2026-04-01T14:30:06.997Z</time></trkpt><trkpt lat="49.208933698065216" lon="2.506331076849442"><ele>61.0</ele><time>2026-04-01T14:30:08.997Z</time></trkpt><trkpt lat="49.20883150939108" lon="2.506263489863804"><ele>61.0</ele><time>2026-04-01T14:30:10.997Z</time></trkpt><trkpt lat="49.20872937036383" lon="2.5062097178702865"><ele>61.0</ele><time>2026-04-01T14:30:12.997Z</time></trkpt><trkpt lat="49.2086302850332" lon="2.506145674396629"><ele>60.99999999999999</ele><time>2026-04-01T14:30:14.997Z</time></trkpt><trkpt lat="49.20852654784619" lon="2.506092913159673"><ele>60.99999999999999</ele><time>2026-04-01T14:30:16.997Z</time></trkpt><trkpt lat="49.208431630044636" lon="2.5060453842227206"><ele>61.0</ele><time>2026-04-01T14:30:19Z</time></trkpt><trkpt lat="49.20833013376886" lon="2.5059830586628067"><ele>61.0</ele><time>2026-04-01T14:30:20.999Z</time></trkpt><trkpt lat="49.208235026194764" lon="2.5059272074488477"><ele>60.4</ele><time>2026-04-01T14:30:22.999Z</time></trkpt><trkpt lat="49.20813623548377" lon="2.5058723786790984"><ele>59.8</ele><time>2026-04-01T14:30:25Z</time></trkpt><trkpt lat="49.20804176572425" lon="2.5058206568297896"><ele>59.199999999999996</ele><time>2026-04-01T14:30:27Z</time></trkpt><trkpt lat="49.20794220251365" lon="2.5057609661012537"><ele>58.599999999999994</ele><time>2026-04-01T14:30:29Z</time></trkpt><trkpt lat="49.20785322290801" lon="2.5057057829225595"><ele>58.0</ele><time>2026-04-01T14:30:31Z</time></trkpt><trkpt lat="49.20776041976159" lon="2.5056170813496688"><ele>58.0</ele><time>2026-04-01T14:30:32.999Z</time></trkpt><trkpt lat="49.20770017092546" lon="2.5055815279426543"><ele>58.0</ele><time>2026-04-01T14:30:33.999Z</time></trkpt><trkpt lat="49.207587473096915" lon="2.5055470062482104"><ele>58.0</ele><time>2026-04-01T14:30:35.999Z</time></trkpt><trkpt lat="49.207479998332644" lon="2.505472755888977"><ele>58.0</ele><time>2026-04-01T14:30:37.999Z</time></trkpt><trkpt lat="49.20736909632802" lon="2.505395716990026"><ele>58.0</ele><time>2026-04-01T14:30:39.999Z</time></trkpt><trkpt lat="49.207264378184284" lon="2.5053221654109157"><ele>58.599999999999994</ele><time>2026-04-01T14:30:41.999Z</time></trkpt><trkpt lat="49.20715514877033" lon="2.50526539899468"><ele>59.199999999999996</ele><time>2026-04-01T14:30:43.999Z</time></trkpt><trkpt lat="49.207093784825894" lon="2.5052334371811167"><ele>59.8</ele><time>2026-04-01T14:30:44.999Z</time></trkpt><trkpt lat="49.20697947499296" lon="2.5051660097426454"><ele>60.4</ele><time>2026-04-01T14:30:46.999Z</time></trkpt><trkpt lat="49.20686973403759" lon="2.5051036794471377"><ele>61.0</ele><time>2026-04-01T14:30:48.999Z</time></trkpt><trkpt lat="49.20675928922396" lon="2.50503830049847"><ele>61.0</ele><time>2026-04-01T14:30:50.999Z</time></trkpt><trkpt lat="49.20664120159765" lon="2.5049698076344153"><ele>61.0</ele><time>2026-04-01T14:30:52.999Z</time></trkpt><trkpt lat="49.20652969144536" lon="2.5049064722331558"><ele>61.0</ele><time>2026-04-01T14:30:54.999Z</time></trkpt><trkpt lat="49.2064136296188" lon="2.5048433300759974"><ele>61.0</ele><time>2026-04-01T14:30:56.999Z</time></trkpt><trkpt lat="49.20629802620823" lon="2.5047823314476165"><ele>60.599999999999994</ele><time>2026-04-01T14:30:58.999Z</time></trkpt><trkpt lat="49.20619247992539" lon="2.5047147371548166"><ele>60.199999999999996</ele><time>2026-04-01T14:31:00.999Z</time></trkpt><trkpt lat="49.206132002506585" lon="2.504678848236072"><ele>59.800000000000004</ele><time>2026-04-01T14:31:01.999Z</time></trkpt><trkpt lat="49.206036298103925" lon="2.5046117242168777"><ele>59.400000000000006</ele><time>2026-04-01T14:31:03.999Z</time></trkpt><trkpt lat="49.2059292511562" lon="2.5045528019144623"><ele>59.0</ele><time>2026-04-01T14:31:05.999Z</time></trkpt><trkpt lat="49.20582945532836" lon="2.5044881471095892"><ele>59.2</ele><time>2026-04-01T14:31:07.999Z</time></trkpt><trkpt lat="49.20572794622798" lon="2.5044251160042483"><ele>59.400000000000006</ele><time>2026-04-01T14:31:09.999Z</time></trkpt><trkpt lat="49.20566618310529" lon="2.5043987274299133"><ele>59.6</ele><time>2026-04-01T14:31:10.999Z</time></trkpt><trkpt lat="49.20556928140994" lon="2.5043449522862753"><ele>59.8</ele><time>2026-04-01T14:31:12.998Z</time></trkpt><trkpt lat="49.20547490445889" lon="2.50427903360888"><ele>60.0</ele><time>2026-04-01T14:31:14.998Z</time></trkpt><trkpt lat="49.205368482522374" lon="2.5042245056861225"><ele>60.0</ele><time>2026-04-01T14:31:16.998Z</time></trkpt><trkpt lat="49.20527339789863" lon="2.5041435458512304"><ele>60.0</ele><time>2026-04-01T14:31:18.998Z</time></trkpt><trkpt lat="49.20515849962492" lon="2.5040890867247643"><ele>60.0</ele><time>2026-04-01T14:31:20.998Z</time></trkpt><trkpt lat="49.20506155241405" lon="2.504021479907237"><ele>60.0</ele><time>2026-04-01T14:31:22.998Z</time></trkpt><trkpt lat="49.20495624523123" lon="2.5039589958580444"><ele>60.0</ele><time>2026-04-01T14:31:24.998Z</time></trkpt><trkpt lat="49.2048492656952" lon="2.5039080714298003"><ele>59.8</ele><time>2026-04-01T14:31:26.998Z</time></trkpt><trkpt lat="49.20474766192476" lon="2.5038534667810097"><ele>59.6</ele><time>2026-04-01T14:31:28.998Z</time></trkpt><trkpt lat="49.20464981566263" lon="2.5037923220694505"><ele>59.400000000000006</ele><time>2026-04-01T14:31:30.998Z</time></trkpt><trkpt lat="49.20455839276976" lon="2.503739050830548"><ele>59.2</ele><time>2026-04-01T14:31:32.998Z</time></trkpt><trkpt lat="49.20446619004931" lon="2.5036846355540656"><ele>59.0</ele><time>2026-04-01T14:31:34.998Z</time></trkpt><trkpt lat="49.20437385933169" lon="2.503636000168724"><ele>59.0</ele><time>2026-04-01T14:31:36.998Z</time></trkpt><trkpt lat="49.204282714748395" lon="2.503574505259465"><ele>59.00000000000001</ele><time>2026-04-01T14:31:38.998Z</time></trkpt><trkpt lat="49.20419499704111" lon="2.503526198810298"><ele>59.00000000000001</ele><time>2026-04-01T14:31:40.998Z</time></trkpt><trkpt lat="49.20410489444107" lon="2.5034820266163806"><ele>59.0</ele><time>2026-04-01T14:31:42.998Z</time></trkpt><trkpt lat="49.204017137792576" lon="2.503453963567286"><ele>59.0</ele><time>2026-04-01T14:31:44.998Z</time></trkpt><trkpt lat="49.20394126896326" lon="2.503373240101532"><ele>59.00000000000001</ele><time>2026-04-01T14:31:46.998Z</time></trkpt><trkpt lat="49.20385964138321" lon="2.503320507041924"><ele>59.0</ele><time>2026-04-01T14:31:48.998Z</time></trkpt><trkpt lat="49.20377205479804" lon="2.50326236913022"><ele>59.0</ele><time>2026-04-01T14:31:50.997Z</time></trkpt><trkpt lat="49.20368780516499" lon="2.503218081164714"><ele>59.0</ele><time>2026-04-01T14:31:52.997Z</time></trkpt><trkpt lat="49.203606011430836" lon="2.5031655136262043"><ele>59.00000000000001</ele><time>2026-04-01T14:31:54.997Z</time></trkpt><trkpt lat="49.20352424195789" lon="2.5031194976369258"><ele>59.0</ele><time>2026-04-01T14:31:56.997Z</time></trkpt><trkpt lat="49.20343994189709" lon="2.503072913439759"><ele>59.00000000000001</ele><time>2026-04-01T14:31:58.997Z</time></trkpt><trkpt lat="49.20336268544898" lon="2.5030458539656304"><ele>59.0</ele><time>2026-04-01T14:32:00.997Z</time></trkpt><trkpt lat="49.203307346584545" lon="2.5029841535349346"><ele>59.0</ele><time>2026-04-01T14:32:02.997Z</time></trkpt><trkpt lat="49.203232890476684" lon="2.502933552093246"><ele>59.0</ele><time>2026-04-01T14:32:04.997Z</time></trkpt><trkpt lat="49.203164834578814" lon="2.5029103107173283"><ele>59.00000000000001</ele><time>2026-04-01T14:32:06.997Z</time></trkpt><trkpt lat="49.20307157156627" lon="2.5028391999806927"><ele>59.0</ele><time>2026-04-01T14:32:09.997Z</time></trkpt><trkpt lat="49.20297530343271" lon="2.5027852609541275"><ele>59.00000000000001</ele><time>2026-04-01T14:32:12.997Z</time></trkpt><trkpt lat="49.20290717362973" lon="2.502740993878988"><ele>59.0</ele><time>2026-04-01T14:32:14.997Z</time></trkpt><trkpt lat="49.20283526624642" lon="2.502700485655707"><ele>59.0</ele><time>2026-04-01T14:32:16.997Z</time></trkpt><trkpt lat="49.202766030201694" lon="2.50266189522583"><ele>59.0</ele><time>2026-04-01T14:32:18.997Z</time></trkpt><trkpt lat="49.202689904534395" lon="2.502630151834022"><ele>59.00000000000001</ele><time>2026-04-01T14:32:20.997Z</time></trkpt><trkpt lat="49.20262588133622" lon="2.5026157548333683"><ele>59.0</ele><time>2026-04-01T14:32:22.997Z</time></trkpt><trkpt lat="49.202543027574336" lon="2.502550320613776"><ele>59.00000000000001</ele><time>2026-04-01T14:32:26Z</time></trkpt><trkpt lat="49.20248846297569" lon="2.5025008658430843"><ele>59.0</ele><time>2026-04-01T14:32:28Z</time></trkpt><trkpt lat="49.202422932736205" lon="2.502484220816228"><ele>59.0</ele><time>2026-04-01T14:32:30Z</time></trkpt><trkpt lat="49.20232452351716" lon="2.5024281866557017"><ele>59.0</ele><time>2026-04-01T14:32:33Z</time></trkpt><trkpt lat="49.20225518833211" lon="2.5023905742292754"><ele>59.00000000000001</ele><time>2026-04-01T14:32:35Z</time></trkpt><trkpt lat="49.20217916164214" lon="2.502341879549989"><ele>59.0</ele><time>2026-04-01T14:32:37Z</time></trkpt><trkpt lat="49.202107397024115" lon="2.5022955263007316"><ele>59.16666666666667</ele><time>2026-04-01T14:32:39Z</time></trkpt><trkpt lat="49.20203202193184" lon="2.502251698450978"><ele>59.333333333333336</ele><time>2026-04-01T14:32:40.999Z</time></trkpt><trkpt lat="49.201959351190965" lon="2.5022119121873345"><ele>59.5</ele><time>2026-04-01T14:32:42.999Z</time></trkpt><trkpt lat="49.20188908052052" lon="2.502163752148872"><ele>59.66666666666667</ele><time>2026-04-01T14:32:44.999Z</time></trkpt><trkpt lat="49.20181141046891" lon="2.5021085982022773"><ele>59.833333333333336</ele><time>2026-04-01T14:32:46.999Z</time></trkpt><trkpt lat="49.20173594891604" lon="2.502055386265736"><ele>60.0</ele><time>2026-04-01T14:32:48.999Z</time></trkpt><trkpt lat="49.20164908543791" lon="2.501991435269973"><ele>60.0</ele><time>2026-04-01T14:32:50.999Z</time></trkpt><trkpt lat="49.20156707181203" lon="2.501927064347411"><ele>60.0</ele><time>2026-04-01T14:32:52.999Z</time></trkpt><trkpt lat="49.201479544509375" lon="2.501876869933305"><ele>60.0</ele><time>2026-04-01T14:32:54.999Z</time></trkpt><trkpt lat="49.20140146896055" lon="2.5018542756963287"><ele>60.0</ele><time>2026-04-01T14:32:56.999Z</time></trkpt><trkpt lat="49.20133015082468" lon="2.5017702131519504"><ele>60.0</ele><time>2026-04-01T14:42:27.998Z</time></trkpt><trkpt lat="49.20134399506916" lon="2.5018864860538206"><ele>60.0</ele><time>2026-04-01T14:42:35.998Z</time></trkpt><trkpt lat="49.201335600328896" lon="2.5017750363342772"><ele>60.57142857142857</ele><time>2026-04-01T14:42:42.998Z</time></trkpt><trkpt lat="49.201302572435324" lon="2.5016825277413663"><ele>61.14285714285714</ele><time>2026-04-01T14:42:44.997Z</time></trkpt><trkpt lat="49.20129008580854" lon="2.5015542816387977"><ele>61.71428571428571</ele><time>2026-04-01T14:42:47.997Z</time></trkpt><trkpt lat="49.20130014910236" lon="2.5014351228794425"><ele>62.285714285714285</ele><time>2026-04-01T14:42:50.997Z</time></trkpt><trkpt lat="49.20133080830178" lon="2.501315194146183"><ele>62.85714285714285</ele><time>2026-04-01T14:42:54.001Z</time></trkpt><trkpt lat="49.20128549319904" lon="2.5013885617253027"><ele>63.42857142857142</ele><time>2026-04-01T14:42:59.001Z</time></trkpt><trkpt lat="49.20131564932612" lon="2.501473805825307"><ele>64.0</ele><time>2026-04-01T14:43:01.001Z</time></trkpt><trkpt lat="49.201297198439796" lon="2.501593327790169"><ele>63.99999999999999</ele><time>2026-04-01T14:43:04.001Z</time></trkpt><trkpt lat="49.201344174609936" lon="2.5017036441116045"><ele>64.0</ele><time>2026-04-01T14:43:07.001Z</time></trkpt><trkpt lat="49.201382645212995" lon="2.5018121266085336"><ele>64.0</ele><time>2026-04-01T14:43:09.001Z</time></trkpt><trkpt lat="49.201392855498504" lon="2.5019126625218773"><ele>64.0</ele><time>2026-04-01T14:43:11Z</time></trkpt><trkpt lat="49.20143334505212" lon="2.5019956133354118"><ele>63.99999999999999</ele><time>2026-04-01T14:43:13Z</time></trkpt><trkpt lat="49.20139614193474" lon="2.502134627616351"><ele>64.0</ele><time>2026-04-01T14:43:16Z</time></trkpt><trkpt lat="49.201439151210494" lon="2.5022502145546897"><ele>64.14285714285714</ele><time>2026-04-01T14:43:18Z</time></trkpt><trkpt lat="49.201455088021646" lon="2.5023510569559066"><ele>64.28571428571428</ele><time>2026-04-01T14:43:20Z</time></trkpt><trkpt lat="49.201468547573626" lon="2.5024532792093823"><ele>64.42857142857143</ele><time>2026-04-01T14:43:22Z</time></trkpt><trkpt lat="49.201491461267864" lon="2.502556831420479"><ele>64.57142857142857</ele><time>2026-04-01T14:43:24Z</time></trkpt><trkpt lat="49.20150983364932" lon="2.5026640680411423"><ele>64.71428571428572</ele><time>2026-04-01T14:43:26Z</time></trkpt><trkpt lat="49.20153244275131" lon="2.502771411989712"><ele>64.85714285714286</ele><time>2026-04-01T14:43:28Z</time></trkpt><trkpt lat="49.201549926156275" lon="2.5028727600970524"><ele>65.0</ele><time>2026-04-01T14:43:30Z</time></trkpt><trkpt lat="49.20158063070015" lon="2.5029888378729965"><ele>65.0</ele><time>2026-04-01T14:43:32Z</time></trkpt><trkpt lat="49.20159674873591" lon="2.5031185845620576"><ele>65.0</ele><time>2026-04-01T14:43:34Z</time></trkpt><trkpt lat="49.201627222395174" lon="2.503234059875282"><ele>65.0</ele><time>2026-04-01T14:43:36Z</time></trkpt><trkpt lat="49.201658621794365" lon="2.503379494036004"><ele>65.0</ele><time>2026-04-01T14:43:38Z</time></trkpt><trkpt lat="49.20168811144203" lon="2.503505655826913"><ele>65.0</ele><time>2026-04-01T14:43:39.999Z</time></trkpt><trkpt lat="49.20172650664982" lon="2.503645921897491"><ele>65.2</ele><time>2026-04-01T14:43:41.999Z</time></trkpt><trkpt lat="49.20175787934069" lon="2.503779709700118"><ele>65.4</ele><time>2026-04-01T14:43:43.999Z</time></trkpt><trkpt lat="49.20179042235805" lon="2.5039211361015044"><ele>65.6</ele><time>2026-04-01T14:43:45.999Z</time></trkpt><trkpt lat="49.20182129294188" lon="2.5040603939696737"><ele>65.8</ele><time>2026-04-01T14:43:47.999Z</time></trkpt><trkpt lat="49.2018520733502" lon="2.504197471176817"><ele>66.0</ele><time>2026-04-01T14:43:49.999Z</time></trkpt><trkpt lat="49.201883924860134" lon="2.5043446214762013"><ele>66.0</ele><time>2026-04-01T14:43:51.999Z</time></trkpt><trkpt lat="49.20191162881785" lon="2.504480892996159"><ele>66.0</ele><time>2026-04-01T14:43:53.999Z</time></trkpt><trkpt lat="49.20195620747288" lon="2.5046272697472"><ele>66.0</ele><time>2026-04-01T14:43:55.999Z</time></trkpt><trkpt lat="49.20199148192238" lon="2.504770536593211"><ele>66.0</ele><time>2026-04-01T14:43:57.999Z</time></trkpt><trkpt lat="49.20202257302624" lon="2.5049243518810456"><ele>66.0</ele><time>2026-04-01T14:43:59.999Z</time></trkpt><trkpt lat="49.202059907715814" lon="2.505089930612318"><ele>66.0</ele><time>2026-04-01T14:44:01.999Z</time></trkpt><trkpt lat="49.20211758532072" lon="2.5052314304301917"><ele>66.0</ele><time>2026-04-01T14:44:03.999Z</time></trkpt><trkpt lat="49.20214388469134" lon="2.5053471020987494"><ele>66.0</ele><time>2026-04-01T14:44:05.999Z</time></trkpt><trkpt lat="49.20217902113693" lon="2.5055595580485894"><ele>66.0</ele><time>2026-04-01T14:44:07.999Z</time></trkpt><trkpt lat="49.202208510278886" lon="2.5057230024140256"><ele>66.0</ele><time>2026-04-01T14:44:09.999Z</time></trkpt><trkpt lat="49.20224617842944" lon="2.5058804837191064"><ele>66.0</ele><time>2026-04-01T14:44:11.998Z</time></trkpt><trkpt lat="49.20228921517158" lon="2.50603209640004"><ele>66.0</ele><time>2026-04-01T14:44:13.998Z</time></trkpt><trkpt lat="49.202328573945955" lon="2.5061854372390377"><ele>66.0</ele><time>2026-04-01T14:44:15.998Z</time></trkpt><trkpt lat="49.20236177359196" lon="2.506337620856863"><ele>66.0</ele><time>2026-04-01T14:44:17.998Z</time></trkpt><trkpt lat="49.20239527782648" lon="2.5064855886587067"><ele>66.0</ele><time>2026-04-01T14:44:19.998Z</time></trkpt><trkpt lat="49.20242569123722" lon="2.5066433613967187"><ele>65.8</ele><time>2026-04-01T14:44:21.998Z</time></trkpt><trkpt lat="49.202455367766525" lon="2.506787400548259"><ele>65.6</ele><time>2026-04-01T14:44:23.998Z</time></trkpt><trkpt lat="49.202490930333326" lon="2.506932211725925"><ele>65.4</ele><time>2026-04-01T14:44:25.998Z</time></trkpt><trkpt lat="49.20252669364716" lon="2.507078065940006"><ele>65.2</ele><time>2026-04-01T14:44:27.998Z</time></trkpt><trkpt lat="49.20256772247857" lon="2.5071940300387894"><ele>65.0</ele><time>2026-04-01T14:44:29.998Z</time></trkpt><trkpt lat="49.20259247916162" lon="2.507319021192384"><ele>65.0</ele><time>2026-04-01T14:44:31.998Z</time></trkpt><trkpt lat="49.20262451385822" lon="2.507450989977575"><ele>65.0</ele><time>2026-04-01T14:44:33.998Z</time></trkpt><trkpt lat="49.20265260297203" lon="2.507603927059209"><ele>65.0</ele><time>2026-04-01T14:44:35.998Z</time></trkpt><trkpt lat="49.20268383462568" lon="2.507719127593658"><ele>65.0</ele><time>2026-04-01T14:44:37.998Z</time></trkpt><trkpt lat="49.20271902940952" lon="2.5078569480190316"><ele>65.0</ele><time>2026-04-01T14:44:39.998Z</time></trkpt><trkpt lat="49.20274553670462" lon="2.5080018257348957"><ele>64.6</ele><time>2026-04-01T14:44:41.998Z</time></trkpt><trkpt lat="49.2027939719651" lon="2.5081399484771905"><ele>64.2</ele><time>2026-04-01T14:44:43.997Z</time></trkpt><trkpt lat="49.20282199319714" lon="2.5082706621281283"><ele>63.8</ele><time>2026-04-01T14:44:45.997Z</time></trkpt><trkpt lat="49.20285357330868" lon="2.508410675706243"><ele>63.4</ele><time>2026-04-01T14:44:47.997Z</time></trkpt><trkpt lat="49.20289471688882" lon="2.508537616542961"><ele>63.0</ele><time>2026-04-01T14:44:49.997Z</time></trkpt><trkpt lat="49.20292683283228" lon="2.5086774776702256"><ele>62.5</ele><time>2026-04-01T14:44:51.997Z</time></trkpt><trkpt lat="49.202954327108635" lon="2.5087991128024116"><ele>62.0</ele><time>2026-04-01T14:44:53.997Z</time></trkpt><trkpt lat="49.20298659581104" lon="2.5089428725757292"><ele>61.5</ele><time>2026-04-01T14:44:55.997Z</time></trkpt><trkpt lat="49.20301558196595" lon="2.509067620552555"><ele>61.0</ele><time>2026-04-01T14:44:58Z</time></trkpt><trkpt lat="49.203034731032986" lon="2.5091799836947652"><ele>60.5</ele><time>2026-04-01T14:45:00Z</time></trkpt><trkpt lat="49.20305446186709" lon="2.50930236916207"><ele>60.0</ele><time>2026-04-01T14:45:02Z</time></trkpt><trkpt lat="49.203087769572825" lon="2.5094241224733214"><ele>60.0</ele><time>2026-04-01T14:45:04Z</time></trkpt><trkpt lat="49.2031173629867" lon="2.509550334159286"><ele>60.0</ele><time>2026-04-01T14:45:06Z</time></trkpt><trkpt lat="49.20314865002359" lon="2.509678988572904"><ele>60.0</ele><time>2026-04-01T14:45:08Z</time></trkpt><trkpt lat="49.20318157255975" lon="2.509805610149331"><ele>60.0</ele><time>2026-04-01T14:45:10Z</time></trkpt><trkpt lat="49.203220714026074" lon="2.509931241145721"><ele>60.0</ele><time>2026-04-01T14:45:12Z</time></trkpt><trkpt lat="49.20325006634827" lon="2.510060374598765"><ele>60.0</ele><time>2026-04-01T14:45:14Z</time></trkpt><trkpt lat="49.203299012149174" lon="2.510182749690282"><ele>59.5</ele><time>2026-04-01T14:45:16Z</time></trkpt><trkpt lat="49.20332917126744" lon="2.510304377295844"><ele>59.0</ele><time>2026-04-01T14:45:18Z</time></trkpt><trkpt lat="49.20336140870554" lon="2.510436811395245"><ele>58.5</ele><time>2026-04-01T14:45:20Z</time></trkpt><trkpt lat="49.20339229229943" lon="2.5105654638651083"><ele>58.0</ele><time>2026-04-01T14:45:22Z</time></trkpt><trkpt lat="49.203427173074225" lon="2.5106958397634305"><ele>57.5</ele><time>2026-04-01T14:45:24Z</time></trkpt><trkpt lat="49.203457301210456" lon="2.5108209773193835"><ele>57.0</ele><time>2026-04-01T14:45:26Z</time></trkpt><trkpt lat="49.20348391221633" lon="2.5109433107475563"><ele>56.833333333333336</ele><time>2026-04-01T14:45:28Z</time></trkpt><trkpt lat="49.20351336309157" lon="2.511073175512412"><ele>56.66666666666667</ele><time>2026-04-01T14:45:30Z</time></trkpt><trkpt lat="49.20354443277397" lon="2.511197002274844"><ele>56.5</ele><time>2026-04-01T14:45:32Z</time></trkpt><trkpt lat="49.20357170731162" lon="2.5113326835460867"><ele>56.333333333333336</ele><time>2026-04-01T14:45:34Z</time></trkpt><trkpt lat="49.20360158315774" lon="2.5114548653482367"><ele>56.16666666666667</ele><time>2026-04-01T14:45:36Z</time></trkpt><trkpt lat="49.203633627206315" lon="2.5115728165228357"><ele>56.0</ele><time>2026-04-01T14:45:38Z</time></trkpt><trkpt lat="49.203674989405705" lon="2.5116803220333193"><ele>56.00000000000001</ele><time>2026-04-01T14:45:40Z</time></trkpt><trkpt lat="49.20371280720918" lon="2.511790525131807"><ele>56.0</ele><time>2026-04-01T14:45:41.999Z</time></trkpt><trkpt lat="49.20373633390912" lon="2.5119141831343295"><ele>56.0</ele><time>2026-04-01T14:45:43.999Z</time></trkpt><trkpt lat="49.20374042098477" lon="2.5120336642907715"><ele>56.0</ele><time>2026-04-01T14:45:45.999Z</time></trkpt><trkpt lat="49.203693406026" lon="2.512135438058372"><ele>56.00000000000001</ele><time>2026-04-01T14:45:48.999Z</time></trkpt><trkpt lat="49.20362500305137" lon="2.512198591909847"><ele>56.0</ele><time>2026-04-01T14:45:51.999Z</time></trkpt><trkpt lat="49.20365116600953" lon="2.5123287007960897"><ele>56.16666666666667</ele><time>2026-04-01T14:45:54.999Z</time></trkpt><trkpt lat="49.20366712319969" lon="2.512428139592055"><ele>56.333333333333336</ele><time>2026-04-01T14:45:56.999Z</time></trkpt><trkpt lat="49.20368959918033" lon="2.5125343103118736"><ele>56.5</ele><time>2026-04-01T14:45:58.999Z</time></trkpt><trkpt lat="49.20365443934808" lon="2.5124107760903587"><ele>56.66666666666667</ele><time>2026-04-01T14:46:05.999Z</time></trkpt><trkpt lat="49.20362727505024" lon="2.5123194816364065"><ele>56.833333333333336</ele><time>2026-04-01T14:46:07.999Z</time></trkpt><trkpt lat="49.20361943324965" lon="2.5122064969064826"><ele>57.0</ele><time>2026-04-01T14:46:09.999Z</time></trkpt><trkpt lat="49.20358115365583" lon="2.512081686319974"><ele>56.833333333333336</ele><time>2026-04-01T14:46:12.998Z</time></trkpt><trkpt lat="49.20354959292212" lon="2.5119961452880823"><ele>56.66666666666667</ele><time>2026-04-01T14:46:14.998Z</time></trkpt><trkpt lat="49.203519632012615" lon="2.5118919153565775"><ele>56.5</ele><time>2026-04-01T14:46:16.998Z</time></trkpt><trkpt lat="49.203484754930486" lon="2.5117823975327376"><ele>56.333333333333336</ele><time>2026-04-01T14:46:18.998Z</time></trkpt><trkpt lat="49.20345253604946" lon="2.511667486655407"><ele>56.16666666666667</ele><time>2026-04-01T14:46:20.998Z</time></trkpt><trkpt lat="49.20341212243322" lon="2.5115522663885534"><ele>56.0</ele><time>2026-04-01T14:46:22.998Z</time></trkpt><trkpt lat="49.20339148514393" lon="2.5114288750984834"><ele>56.00000000000001</ele><time>2026-04-01T14:46:24.998Z</time></trkpt><trkpt lat="49.2033606984606" lon="2.5113146689537413"><ele>56.0</ele><time>2026-04-01T14:46:26.998Z</time></trkpt><trkpt lat="49.203324804456464" lon="2.5111990821838615"><ele>56.0</ele><time>2026-04-01T14:46:28.998Z</time></trkpt><trkpt lat="49.203282314677054" lon="2.511086477743144"><ele>56.0</ele><time>2026-04-01T14:46:30.998Z</time></trkpt><trkpt lat="49.203239438962285" lon="2.510979363749428"><ele>56.00000000000001</ele><time>2026-04-01T14:46:32.998Z</time></trkpt><trkpt lat="49.20318065467563" lon="2.51088665215828"><ele>56.0</ele><time>2026-04-01T14:46:34.998Z</time></trkpt><trkpt lat="49.20312608909744" lon="2.510787017658909"><ele>56.0</ele><time>2026-04-01T14:46:36.998Z</time></trkpt><trkpt lat="49.203063146403274" lon="2.5106869755513093"><ele>55.99999999999999</ele><time>2026-04-01T14:46:38.998Z</time></trkpt><trkpt lat="49.20299984363734" lon="2.5105907614762453"><ele>55.99999999999999</ele><time>2026-04-01T14:46:40.998Z</time></trkpt><trkpt lat="49.202929012338565" lon="2.510509055951246"><ele>56.0</ele><time>2026-04-01T14:46:42.998Z</time></trkpt><trkpt lat="49.202860158747185" lon="2.5104167960596984"><ele>56.0</ele><time>2026-04-01T14:46:44.998Z</time></trkpt><trkpt lat="49.202783899016" lon="2.5103344891395976"><ele>56.16666666666667</ele><time>2026-04-01T14:46:46.997Z</time></trkpt><trkpt lat="49.20271372753061" lon="2.5102492520042055"><ele>56.333333333333336</ele><time>2026-04-01T14:46:48.997Z</time></trkpt><trkpt lat="49.2026416001282" lon="2.5101645902800156"><ele>56.5</ele><time>2026-04-01T14:46:50.997Z</time></trkpt><trkpt lat="49.20257118885608" lon="2.510083763700729"><ele>56.66666666666667</ele><time>2026-04-01T14:46:52.997Z</time></trkpt><trkpt lat="49.20249817086045" lon="2.510011353435209"><ele>56.833333333333336</ele><time>2026-04-01T14:46:54.997Z</time></trkpt><trkpt lat="49.202420785188856" lon="2.5099306815272002"><ele>57.0</ele><time>2026-04-01T14:46:56.997Z</time></trkpt><trkpt lat="49.202345954341844" lon="2.5098635027902287"><ele>57.0</ele><time>2026-04-01T14:46:58.997Z</time></trkpt><trkpt lat="49.20227275371848" lon="2.509793085112742"><ele>57.0</ele><time>2026-04-01T14:47:00.997Z</time></trkpt><trkpt lat="49.2021966470623" lon="2.509723236670232"><ele>57.0</ele><time>2026-04-01T14:47:02.997Z</time></trkpt><trkpt lat="49.20212377746484" lon="2.509647778618029"><ele>57.0</ele><time>2026-04-01T14:47:05Z</time></trkpt><trkpt lat="49.202051310599174" lon="2.5095736072639214"><ele>57.0</ele><time>2026-04-01T14:47:07Z</time></trkpt><trkpt lat="49.20197533710539" lon="2.5095005441152973"><ele>57.0</ele><time>2026-04-01T14:47:09Z</time></trkpt><trkpt lat="49.20189729481392" lon="2.5094261535071847"><ele>57.400000000000006</ele><time>2026-04-01T14:47:11Z</time></trkpt><trkpt lat="49.20181794292107" lon="2.5093496365018946"><ele>57.800000000000004</ele><time>2026-04-01T14:47:13Z</time></trkpt><trkpt lat="49.20173765293544" lon="2.5092673557730385"><ele>58.2</ele><time>2026-04-01T14:47:15Z</time></trkpt><trkpt lat="49.20166098491566" lon="2.5091950169994965"><ele>58.6</ele><time>2026-04-01T14:47:17Z</time></trkpt><trkpt lat="49.20158088446441" lon="2.509126092359717"><ele>59.0</ele><time>2026-04-01T14:47:19Z</time></trkpt><trkpt lat="49.20149884032318" lon="2.5090458867710903"><ele>59.0</ele><time>2026-04-01T14:47:21Z</time></trkpt><trkpt lat="49.20141838631619" lon="2.5089697581310717"><ele>59.00000000000001</ele><time>2026-04-01T14:47:23Z</time></trkpt><trkpt lat="49.20132820578952" lon="2.5089014387687048"><ele>59.00000000000001</ele><time>2026-04-01T14:47:25Z</time></trkpt><trkpt lat="49.2012383444612" lon="2.508840633496066"><ele>59.0</ele><time>2026-04-01T14:47:27Z</time></trkpt><trkpt lat="49.20116259499297" lon="2.5087283187358564"><ele>59.0</ele><time>2026-04-01T14:47:29Z</time></trkpt><trkpt lat="49.201068158555145" lon="2.5086848208996027"><ele>59.0</ele><time>2026-04-01T14:47:31Z</time></trkpt><trkpt lat="49.200974565913334" lon="2.508644011315357"><ele>59.00000000000001</ele><time>2026-04-01T14:47:33Z</time></trkpt><trkpt lat="49.200882614913034" lon="2.508602599790359"><ele>59.00000000000001</ele><time>2026-04-01T14:47:35Z</time></trkpt><trkpt lat="49.200789258552284" lon="2.5085584213917347"><ele>59.0</ele><time>2026-04-01T14:47:37Z</time></trkpt><trkpt lat="49.200695694074135" lon="2.508514144507838"><ele>59.0</ele><time>2026-04-01T14:47:39Z</time></trkpt><trkpt lat="49.20060551352689" lon="2.5084714689793017"><ele>58.400000000000006</ele><time>2026-04-01T14:47:41Z</time></trkpt><trkpt lat="49.2005123121098" lon="2.508427211661179"><ele>57.800000000000004</ele><time>2026-04-01T14:47:42.999Z</time></trkpt><trkpt lat="49.20043176749455" lon="2.5083838725953416"><ele>57.199999999999996</ele><time>2026-04-01T14:47:44.999Z</time></trkpt><trkpt lat="49.20034714734087" lon="2.5083367193178017"><ele>56.599999999999994</ele><time>2026-04-01T14:47:46.999Z</time></trkpt><trkpt lat="49.20025883847285" lon="2.5082875105593416"><ele>56.0</ele><time>2026-04-01T14:47:48.999Z</time></trkpt><trkpt lat="49.200171979723535" lon="2.5082410691894315"><ele>56.0</ele><time>2026-04-01T14:47:50.999Z</time></trkpt><trkpt lat="49.20008310330884" lon="2.508195012572913"><ele>55.99999999999999</ele><time>2026-04-01T14:47:52.999Z</time></trkpt><trkpt lat="49.19999210369636" lon="2.5081478068888403"><ele>55.99999999999999</ele><time>2026-04-01T14:47:54.999Z</time></trkpt><trkpt lat="49.19990382375395" lon="2.508099962224626"><ele>56.0</ele><time>2026-04-01T14:47:56.999Z</time></trkpt><trkpt lat="49.1998146588048" lon="2.5080516379247357"><ele>56.0</ele><time>2026-04-01T14:47:58.999Z</time></trkpt><trkpt lat="49.19972988850618" lon="2.5079986890889914"><ele>56.0</ele><time>2026-04-01T14:48:00.999Z</time></trkpt><trkpt lat="49.19965505086472" lon="2.5079270148660733"><ele>55.99999999999999</ele><time>2026-04-01T14:48:02.999Z</time></trkpt><trkpt lat="49.19958039196059" lon="2.5078353228211716"><ele>55.99999999999999</ele><time>2026-04-01T14:48:04.999Z</time></trkpt><trkpt lat="49.199509663527856" lon="2.5077391115309156"><ele>56.0</ele><time>2026-04-01T14:48:06.999Z</time></trkpt><trkpt lat="49.199464473812284" lon="2.5076384550734545"><ele>56.0</ele><time>2026-04-01T14:48:08.999Z</time></trkpt><trkpt lat="49.19941480142477" lon="2.5075099937573517"><ele>56.0</ele><time>2026-04-01T14:48:10.999Z</time></trkpt><trkpt lat="49.19936738738193" lon="2.507388931489922"><ele>55.99999999999999</ele><time>2026-04-01T14:48:12.999Z</time></trkpt><trkpt lat="49.19931378250882" lon="2.507261611992052"><ele>55.99999999999999</ele><time>2026-04-01T14:48:14.998Z</time></trkpt><trkpt lat="49.199264361592235" lon="2.5071476870663156"><ele>56.0</ele><time>2026-04-01T14:48:16.998Z</time></trkpt><trkpt lat="49.1992067243522" lon="2.507030697029178"><ele>56.0</ele><time>2026-04-01T14:48:18.998Z</time></trkpt><trkpt lat="49.19914467046097" lon="2.5069278260657537"><ele>56.0</ele><time>2026-04-01T14:48:20.998Z</time></trkpt><trkpt lat="49.1990712353326" lon="2.5068306828740257"><ele>55.99999999999999</ele><time>2026-04-01T14:48:22.998Z</time></trkpt><trkpt lat="49.19899099807362" lon="2.5067464259053645"><ele>55.99999999999999</ele><time>2026-04-01T14:48:24.998Z</time></trkpt><trkpt lat="49.19891249843362" lon="2.5066658715624084"><ele>56.0</ele><time>2026-04-01T14:48:26.998Z</time></trkpt><trkpt lat="49.19883443158894" lon="2.506583004233586"><ele>56.0</ele><time>2026-04-01T14:48:28.998Z</time></trkpt><trkpt lat="49.19875895134228" lon="2.506501444990141"><ele>56.0</ele><time>2026-04-01T14:48:30.998Z</time></trkpt><trkpt lat="49.19867929351228" lon="2.5064264120381248"><ele>55.99999999999999</ele><time>2026-04-01T14:48:32.998Z</time></trkpt><trkpt lat="49.19859421755636" lon="2.5063569083881347"><ele>55.99999999999999</ele><time>2026-04-01T14:48:34.998Z</time></trkpt><trkpt lat="49.19850208317165" lon="2.5062907464120205"><ele>56.0</ele><time>2026-04-01T14:48:36.998Z</time></trkpt><trkpt lat="49.19840441190849" lon="2.506217359936109"><ele>56.0</ele><time>2026-04-01T14:48:38.998Z</time></trkpt><trkpt lat="49.19831058927684" lon="2.506158521501917"><ele>55.75</ele><time>2026-04-01T14:48:40.998Z</time></trkpt><trkpt lat="49.19821096589772" lon="2.5061028129287477"><ele>55.5</ele><time>2026-04-01T14:48:42.998Z</time></trkpt><trkpt lat="49.198100915664256" lon="2.506048084594722"><ele>55.25</ele><time>2026-04-01T14:48:44.998Z</time></trkpt><trkpt lat="49.1979922792913" lon="2.5060064768810446"><ele>55.0</ele><time>2026-04-01T14:48:46.998Z</time></trkpt><trkpt lat="49.19786753795324" lon="2.5059605750959544"><ele>55.0</ele><time>2026-04-01T14:48:48.997Z</time></trkpt><trkpt lat="49.19774714487447" lon="2.505913768133273"><ele>55.0</ele><time>2026-04-01T14:48:50.997Z</time></trkpt><trkpt lat="49.19764134012905" lon="2.505849219766701"><ele>55.0</ele><time>2026-04-01T14:48:52.997Z</time></trkpt><trkpt lat="49.19754932707412" lon="2.505781787809754"><ele>55.0</ele><time>2026-04-01T14:48:54.997Z</time></trkpt><trkpt lat="49.19747852185" lon="2.505728080088733"><ele>55.0</ele><time>2026-04-01T14:48:56.997Z</time></trkpt><trkpt lat="49.19741039131691" lon="2.505671571297519"><ele>55.0</ele><time>2026-04-01T14:48:59.997Z</time></trkpt><trkpt lat="49.197358918264804" lon="2.5056147405169966"><ele>55.0</ele><time>2026-04-01T14:49:02.997Z</time></trkpt><trkpt lat="49.197625834966345" lon="2.5073140391184547"><ele>53.8</ele><time>2026-04-01T14:49:34Z</time></trkpt><trkpt lat="49.19766714291286" lon="2.5074532517619135"><ele>52.6</ele><time>2026-04-01T14:49:36Z</time></trkpt><trkpt lat="49.197704648783066" lon="2.507589969907442"><ele>51.400000000000006</ele><time>2026-04-01T14:49:38Z</time></trkpt><trkpt lat="49.197733316442324" lon="2.507690906615589"><ele>50.2</ele><time>2026-04-01T14:49:39Z</time></trkpt><trkpt lat="49.19777551905889" lon="2.507842904531506"><ele>49.0</ele><time>2026-04-01T14:49:41Z</time></trkpt><trkpt lat="49.19781141821373" lon="2.507984374805038"><ele>48.400000000000006</ele><time>2026-04-01T14:49:43Z</time></trkpt><trkpt lat="49.197847269182" lon="2.5081335449934006"><ele>47.8</ele><time>2026-04-01T14:49:44.999Z</time></trkpt><trkpt lat="49.19788174732102" lon="2.5082796402780727"><ele>47.2</ele><time>2026-04-01T14:49:46.999Z</time></trkpt><trkpt lat="49.19789005492547" lon="2.508441527275771"><ele>46.599999999999994</ele><time>2026-04-01T14:49:48.999Z</time></trkpt><trkpt lat="49.19792244143266" lon="2.508593816221291"><ele>46.0</ele><time>2026-04-01T14:49:50.999Z</time></trkpt><trkpt lat="49.1979467038797" lon="2.508754707000023"><ele>45.5</ele><time>2026-04-01T14:49:52.999Z</time></trkpt><trkpt lat="49.197968863141995" lon="2.5089188248597236"><ele>45.0</ele><time>2026-04-01T14:49:54.999Z</time></trkpt><trkpt lat="49.19799017708379" lon="2.5090932079785944"><ele>44.5</ele><time>2026-04-01T14:49:56.999Z</time></trkpt><trkpt lat="49.198006855308876" lon="2.5092685451394114"><ele>44.0</ele><time>2026-04-01T14:49:58.999Z</time></trkpt><trkpt lat="49.198022276451304" lon="2.5094464825716263"><ele>44.0</ele><time>2026-04-01T14:50:00.999Z</time></trkpt><trkpt lat="49.1980373643522" lon="2.509630524562801"><ele>44.0</ele><time>2026-04-01T14:50:02.999Z</time></trkpt><trkpt lat="49.19805160456788" lon="2.5098115066577105"><ele>44.0</ele><time>2026-04-01T14:50:04.999Z</time></trkpt><trkpt lat="49.19806524901753" lon="2.509995002213523"><ele>44.0</ele><time>2026-04-01T14:50:06.999Z</time></trkpt><trkpt lat="49.19807853984957" lon="2.5101737422637713"><ele>44.0</ele><time>2026-04-01T14:50:08.999Z</time></trkpt><trkpt lat="49.19810729510996" lon="2.5103405857416603"><ele>44.0</ele><time>2026-04-01T14:50:10.999Z</time></trkpt><trkpt lat="49.19811566409664" lon="2.5105046909291646"><ele>44.0</ele><time>2026-04-01T14:50:12.999Z</time></trkpt><trkpt lat="49.19812770801978" lon="2.5106615449745973"><ele>44.0</ele><time>2026-04-01T14:50:14.999Z</time></trkpt><trkpt lat="49.19813099261705" lon="2.5108123979371433"><ele>44.0</ele><time>2026-04-01T14:50:16.999Z</time></trkpt><trkpt lat="49.19813377720989" lon="2.5109215362431208"><ele>44.25</ele><time>2026-04-01T14:50:18.998Z</time></trkpt><trkpt lat="49.1981184445998" lon="2.5111796089059335"><ele>44.5</ele><time>2026-04-01T14:50:21.998Z</time></trkpt><trkpt lat="49.19804722168115" lon="2.5112903504071866"><ele>44.75</ele><time>2026-04-01T14:50:23.998Z</time></trkpt><trkpt lat="49.19795281268899" lon="2.5113693480337114"><ele>45.0</ele><time>2026-04-01T14:50:25.998Z</time></trkpt><trkpt lat="49.19786777350792" lon="2.511305291027853"><ele>45.0</ele><time>2026-04-01T14:50:26.998Z</time></trkpt><trkpt lat="49.19777418004168" lon="2.511164908538416"><ele>45.0</ele><time>2026-04-01T14:50:28.998Z</time></trkpt><trkpt lat="49.19774210353333" lon="2.5110623076304046"><ele>45.0</ele><time>2026-04-01T14:50:29.998Z</time></trkpt><trkpt lat="49.19770379031623" lon="2.5109725664822755"><ele>45.0</ele><time>2026-04-01T14:50:30.998Z</time></trkpt><trkpt lat="49.19769259047458" lon="2.5108605516203824"><ele>45.0</ele><time>2026-04-01T14:50:31.998Z</time></trkpt><trkpt lat="49.19766025108051" lon="2.5107578512845916"><ele>45.0</ele><time>2026-04-01T14:50:32.998Z</time></trkpt><trkpt lat="49.19762251143306" lon="2.5106686431385947"><ele>45.0</ele><time>2026-04-01T14:50:33.998Z</time></trkpt><trkpt lat="49.19757899446983" lon="2.5105861430504435"><ele>45.0</ele><time>2026-04-01T14:50:34.998Z</time></trkpt><trkpt lat="49.19752870259379" lon="2.5105071277124025"><ele>45.0</ele><time>2026-04-01T14:50:35.998Z</time></trkpt><trkpt lat="49.19747706575914" lon="2.5104390239925984"><ele>45.0</ele><time>2026-04-01T14:50:36.998Z</time></trkpt><trkpt lat="49.19742194794471" lon="2.5103739093483943"><ele>45.0</ele><time>2026-04-01T14:50:37.998Z</time></trkpt><trkpt lat="49.1973672274779" lon="2.510312175262012"><ele>45.0</ele><time>2026-04-01T14:50:38.998Z</time></trkpt><trkpt lat="49.19731036888421" lon="2.510253656099781"><ele>45.0</ele><time>2026-04-01T14:50:39.998Z</time></trkpt><trkpt lat="49.19724621681396" lon="2.5101896317877994"><ele>44.42857142857142</ele><time>2026-04-01T14:50:40.998Z</time></trkpt><trkpt lat="49.19718543582772" lon="2.510129963040799"><ele>43.85714285714286</ele><time>2026-04-01T14:50:41.998Z</time></trkpt><trkpt lat="49.19712630597464" lon="2.510070903762487"><ele>43.285714285714285</ele><time>2026-04-01T14:50:42.998Z</time></trkpt><trkpt lat="49.197065724847384" lon="2.5100099537071996"><ele>42.71428571428571</ele><time>2026-04-01T14:50:43.998Z</time></trkpt><trkpt lat="49.19700636352155" lon="2.5099502308806425"><ele>42.14285714285714</ele><time>2026-04-01T14:50:44.998Z</time></trkpt><trkpt lat="49.1969502689707" lon="2.5098937947452047"><ele>41.57142857142857</ele><time>2026-04-01T14:50:45.998Z</time></trkpt><trkpt lat="49.19689147279795" lon="2.5098346405176732"><ele>41.0</ele><time>2026-04-01T14:50:46.998Z</time></trkpt><trkpt lat="49.196833053417656" lon="2.5097756189484395"><ele>41.0</ele><time>2026-04-01T14:50:47.998Z</time></trkpt><trkpt lat="49.19677949022056" lon="2.5097211516108553"><ele>41.0</ele><time>2026-04-01T14:50:48.998Z</time></trkpt><trkpt lat="49.19667031112165" lon="2.5096372950495165"><ele>41.0</ele><time>2026-04-01T14:50:50.997Z</time></trkpt><trkpt lat="49.19662573599297" lon="2.5095648019841392"><ele>41.0</ele><time>2026-04-01T14:50:51.997Z</time></trkpt><trkpt lat="49.19657213319676" lon="2.5095102943680945"><ele>41.0</ele><time>2026-04-01T14:50:52.997Z</time></trkpt><trkpt lat="49.1964689154023" lon="2.509405334235659"><ele>41.0</ele><time>2026-04-01T14:50:54.997Z</time></trkpt><trkpt lat="49.19635524113233" lon="2.509318672280795"><ele>41.199999999999996</ele><time>2026-04-01T14:50:56.997Z</time></trkpt><trkpt lat="49.1963128033113" lon="2.5092465869615572"><ele>41.4</ele><time>2026-04-01T14:50:57.997Z</time></trkpt><trkpt lat="49.19621319814024" lon="2.509145300476646"><ele>41.6</ele><time>2026-04-01T14:50:59.997Z</time></trkpt><trkpt lat="49.196111814792495" lon="2.509042510769694"><ele>41.8</ele><time>2026-04-01T14:51:01.997Z</time></trkpt><trkpt lat="49.19601388315783" lon="2.5089436358560238"><ele>42.0</ele><time>2026-04-01T14:51:03.997Z</time></trkpt><trkpt lat="49.195914842959134" lon="2.5088437633819063"><ele>42.0</ele><time>2026-04-01T14:51:05.997Z</time></trkpt><trkpt lat="49.19581634829572" lon="2.508746262676652"><ele>42.0</ele><time>2026-04-01T14:51:07.997Z</time></trkpt><trkpt lat="49.19571835857395" lon="2.508653296260073"><ele>42.0</ele><time>2026-04-01T14:51:09.997Z</time></trkpt><trkpt lat="49.195657608222824" lon="2.5086271164685767"><ele>42.0</ele><time>2026-04-01T14:51:10.997Z</time></trkpt><trkpt lat="49.19556280272488" lon="2.5085271231175046"><ele>42.0</ele><time>2026-04-01T14:51:12.997Z</time></trkpt><trkpt lat="49.195451542894546" lon="2.508467730117917"><ele>42.0</ele><time>2026-04-01T14:51:15Z</time></trkpt><trkpt lat="49.19534621390048" lon="2.5084672146804006"><ele>42.0</ele><time>2026-04-01T14:51:17Z</time></trkpt><trkpt lat="49.195259064702405" lon="2.5084565587718015"><ele>42.0</ele><time>2026-04-01T14:51:19Z</time></trkpt><trkpt lat="49.19517080969847" lon="2.508439734495572"><ele>42.0</ele><time>2026-04-01T14:51:21Z</time></trkpt><trkpt lat="49.19509139036318" lon="2.5084809672760593"><ele>42.0</ele><time>2026-04-01T14:51:23Z</time></trkpt><trkpt lat="49.19500314792798" lon="2.5084778796460907"><ele>42.0</ele><time>2026-04-01T14:51:25Z</time></trkpt><trkpt lat="49.19490780040529" lon="2.508482665539411"><ele>42.0</ele><time>2026-04-01T14:51:27Z</time></trkpt><trkpt lat="49.194812498702504" lon="2.5085053030766753"><ele>42.0</ele><time>2026-04-01T14:51:29Z</time></trkpt><trkpt lat="49.194711151761425" lon="2.5085305020792212"><ele>42.0</ele><time>2026-04-01T14:51:31Z</time></trkpt><trkpt lat="49.19461333102957" lon="2.508550793308243"><ele>42.0</ele><time>2026-04-01T14:51:33Z</time></trkpt><trkpt lat="49.19451606864769" lon="2.5085925101166286"><ele>42.666666666666664</ele><time>2026-04-01T14:51:35Z</time></trkpt><trkpt lat="49.19442589403549" lon="2.508614826988096"><ele>43.333333333333336</ele><time>2026-04-01T14:51:37Z</time></trkpt><trkpt lat="49.194339624304654" lon="2.5086410352623862"><ele>44.0</ele><time>2026-04-01T14:51:39Z</time></trkpt><trkpt lat="49.194255293161106" lon="2.508667240885322"><ele>44.66666666666667</ele><time>2026-04-01T14:51:41Z</time></trkpt><trkpt lat="49.194175817193994" lon="2.508695561086181"><ele>45.333333333333336</ele><time>2026-04-01T14:51:43Z</time></trkpt><trkpt lat="49.194102231966646" lon="2.508711132016254"><ele>46.0</ele><time>2026-04-01T14:51:45Z</time></trkpt><trkpt lat="49.1940374857501" lon="2.508665983574182"><ele>46.0</ele><time>2026-04-01T14:51:46.999Z</time></trkpt><trkpt lat="49.19400570212413" lon="2.5085574303892098"><ele>46.0</ele><time>2026-04-01T14:51:48.999Z</time></trkpt><trkpt lat="49.194011546323814" lon="2.5084455740453264"><ele>46.0</ele><time>2026-04-01T14:51:50.999Z</time></trkpt><trkpt lat="49.19401296662007" lon="2.508308444423984"><ele>46.0</ele><time>2026-04-01T14:51:52.999Z</time></trkpt><trkpt lat="49.19400938246169" lon="2.508167233873135"><ele>46.0</ele><time>2026-04-01T14:51:54.999Z</time></trkpt><trkpt lat="49.1940070954907" lon="2.5080099840929133"><ele>46.0</ele><time>2026-04-01T14:51:56.999Z</time></trkpt><trkpt lat="49.19398777654726" lon="2.507846303598473"><ele>46.25</ele><time>2026-04-01T14:51:58.999Z</time></trkpt><trkpt lat="49.193917200524716" lon="2.507697904588658"><ele>46.5</ele><time>2026-04-01T14:52:00.999Z</time></trkpt><trkpt lat="49.193825443057044" lon="2.50758388319187"><ele>46.75</ele><time>2026-04-01T14:52:02.999Z</time></trkpt><trkpt lat="49.193734368559625" lon="2.5074722763176727"><ele>47.0</ele><time>2026-04-01T14:52:04.999Z</time></trkpt><trkpt lat="49.1936426860127" lon="2.507380152782866"><ele>47.0</ele><time>2026-04-01T14:52:06.999Z</time></trkpt><trkpt lat="49.19356887055502" lon="2.5072515351910885"><ele>47.0</ele><time>2026-04-01T14:52:08.999Z</time></trkpt><trkpt lat="49.19345444416793" lon="2.5072193148613513"><ele>47.0</ele><time>2026-04-01T14:52:10.999Z</time></trkpt><trkpt lat="49.19335199276893" lon="2.507173005650701"><ele>47.0</ele><time>2026-04-01T14:52:12.999Z</time></trkpt><trkpt lat="49.19324888653884" lon="2.50717247008791"><ele>47.0</ele><time>2026-04-01T14:52:14.999Z</time></trkpt><trkpt lat="49.19315000468484" lon="2.5071725951259225"><ele>47.0</ele><time>2026-04-01T14:52:16.999Z</time></trkpt><trkpt lat="49.193054409828385" lon="2.5071706243562843"><ele>47.0</ele><time>2026-04-01T14:52:18.999Z</time></trkpt><trkpt lat="49.19295289234701" lon="2.507170391107529"><ele>47.0</ele><time>2026-04-01T14:52:20.998Z</time></trkpt><trkpt lat="49.19285330209606" lon="2.5071705636820507"><ele>47.0</ele><time>2026-04-01T14:52:22.998Z</time></trkpt><trkpt lat="49.19276203202449" lon="2.507162988482099"><ele>47.0</ele><time>2026-04-01T14:52:24.998Z</time></trkpt><trkpt lat="49.1926715339466" lon="2.50716138137269"><ele>47.0</ele><time>2026-04-01T14:52:26.998Z</time></trkpt><trkpt lat="49.192583204107194" lon="2.5071623598984636"><ele>47.0</ele><time>2026-04-01T14:52:28.998Z</time></trkpt><trkpt lat="49.19249760240243" lon="2.5071652079147815"><ele>47.0</ele><time>2026-04-01T14:52:30.998Z</time></trkpt><trkpt lat="49.19241641194574" lon="2.507165296023293"><ele>47.0</ele><time>2026-04-01T14:52:32.998Z</time></trkpt><trkpt lat="49.19233323407383" lon="2.5071625041361707"><ele>47.0</ele><time>2026-04-01T14:52:34.998Z</time></trkpt><trkpt lat="49.1922523844025" lon="2.5071648458645015"><ele>47.0</ele><time>2026-04-01T14:52:36.998Z</time></trkpt><trkpt lat="49.192170600176325" lon="2.5071697582323345"><ele>47.83333333333333</ele><time>2026-04-01T14:52:38.998Z</time></trkpt><trkpt lat="49.1920944683181" lon="2.507138695548583"><ele>48.666666666666664</ele><time>2026-04-01T14:52:40.998Z</time></trkpt><trkpt lat="49.19208208169961" lon="2.5070070968893257"><ele>49.5</ele><time>2026-04-01T14:52:42.998Z</time></trkpt><trkpt lat="49.19208338525433" lon="2.506886070592702"><ele>50.33333333333333</ele><time>2026-04-01T14:52:44.998Z</time></trkpt><trkpt lat="49.19203745671062" lon="2.506776938844991"><ele>51.166666666666664</ele><time>2026-04-01T14:52:46.998Z</time></trkpt><trkpt lat="49.19197583367173" lon="2.5066762132613083"><ele>52.0</ele><time>2026-04-01T14:52:48.998Z</time></trkpt><trkpt lat="49.19192914222302" lon="2.5065691485333415"><ele>52.666666666666664</ele><time>2026-04-01T14:52:50.998Z</time></trkpt><trkpt lat="49.19189787483746" lon="2.506469631360741"><ele>53.33333333333333</ele><time>2026-04-01T14:52:52.998Z</time></trkpt><trkpt lat="49.19184387934591" lon="2.5063546303050726"><ele>54.0</ele><time>2026-04-01T14:52:54.997Z</time></trkpt><trkpt lat="49.19179229403138" lon="2.5062478555359538"><ele>54.66666666666667</ele><time>2026-04-01T14:52:56.997Z</time></trkpt><trkpt lat="49.191749511535974" lon="2.5061393310244124"><ele>55.333333333333336</ele><time>2026-04-01T14:52:58.997Z</time></trkpt><trkpt lat="49.19169614035283" lon="2.5060258546002485"><ele>56.0</ele><time>2026-04-01T14:53:00.997Z</time></trkpt><trkpt lat="49.1916524740666" lon="2.5059185431946225"><ele>56.4</ele><time>2026-04-01T14:53:02.997Z</time></trkpt><trkpt lat="49.19159821344179" lon="2.5057950899105013"><ele>56.8</ele><time>2026-04-01T14:53:04.997Z</time></trkpt><trkpt lat="49.191544916116186" lon="2.505675499200728"><ele>57.199999999999996</ele><time>2026-04-01T14:53:06.997Z</time></trkpt><trkpt lat="49.19147995758087" lon="2.5055807245955104"><ele>57.599999999999994</ele><time>2026-04-01T14:53:08.997Z</time></trkpt><trkpt lat="49.19143010366068" lon="2.5054558691407434"><ele>58.0</ele><time>2026-04-01T14:53:10.997Z</time></trkpt><trkpt lat="49.191397514755316" lon="2.505314234946129"><ele>58.599999999999994</ele><time>2026-04-01T14:53:12.997Z</time></trkpt><trkpt lat="49.191343672306814" lon="2.505191698414184"><ele>59.199999999999996</ele><time>2026-04-01T14:53:14.997Z</time></trkpt><trkpt lat="49.19128775486109" lon="2.505073935914462"><ele>59.8</ele><time>2026-04-01T14:53:16.997Z</time></trkpt><trkpt lat="49.19123475331819" lon="2.5049590701851945"><ele>60.4</ele><time>2026-04-01T14:53:18.997Z</time></trkpt><trkpt lat="49.19118796980326" lon="2.5048496599842394"><ele>61.0</ele><time>2026-04-01T14:53:21Z</time></trkpt><trkpt lat="49.19113611595413" lon="2.5047195056846108"><ele>60.99999999999999</ele><time>2026-04-01T14:53:23Z</time></trkpt><trkpt lat="49.19109239042835" lon="2.5046155182613283"><ele>61.0</ele><time>2026-04-01T14:53:25Z</time></trkpt><trkpt lat="49.191041268831974" lon="2.5045016832993645"><ele>61.0</ele><time>2026-04-01T14:53:27Z</time></trkpt><trkpt lat="49.19099395021654" lon="2.5043937503001077"><ele>61.0</ele><time>2026-04-01T14:53:29Z</time></trkpt><trkpt lat="49.190953811341124" lon="2.504281022031679"><ele>60.99999999999999</ele><time>2026-04-01T14:53:31Z</time></trkpt><trkpt lat="49.19089644312386" lon="2.5041703757606233"><ele>61.0</ele><time>2026-04-01T14:53:33Z</time></trkpt><trkpt lat="49.19085128134565" lon="2.5040408042218254"><ele>60.99999999999999</ele><time>2026-04-01T14:53:35Z</time></trkpt><trkpt lat="49.19079790836081" lon="2.503927948763963"><ele>61.0</ele><time>2026-04-01T14:53:37Z</time></trkpt><trkpt lat="49.19075322064252" lon="2.503816349486524"><ele>61.0</ele><time>2026-04-01T14:53:39Z</time></trkpt><trkpt lat="49.19071018692165" lon="2.5037030797170248"><ele>61.0</ele><time>2026-04-01T14:53:41Z</time></trkpt><trkpt lat="49.19066418640332" lon="2.5035944673529174"><ele>60.99999999999999</ele><time>2026-04-01T14:53:43Z</time></trkpt><trkpt lat="49.190616600998936" lon="2.5034884292840363"><ele>61.0</ele><time>2026-04-01T14:53:45Z</time></trkpt><trkpt lat="49.19057069047574" lon="2.5033805071083024"><ele>60.99999999999999</ele><time>2026-04-01T14:53:47Z</time></trkpt><trkpt lat="49.190535947411796" lon="2.503256524470884"><ele>61.0</ele><time>2026-04-01T14:53:49Z</time></trkpt><trkpt lat="49.19052292457463" lon="2.503125487386105"><ele>61.0</ele><time>2026-04-01T14:53:50.999Z</time></trkpt><trkpt lat="49.190484499903185" lon="2.503009414881926"><ele>61.0</ele><time>2026-04-01T14:53:52.999Z</time></trkpt><trkpt lat="49.1904656117815" lon="2.50288206683194"><ele>60.99999999999999</ele><time>2026-04-01T14:53:54.999Z</time></trkpt><trkpt lat="49.19044057299079" lon="2.5027799831387227"><ele>61.0</ele><time>2026-04-01T14:53:56.999Z</time></trkpt><trkpt lat="49.19042345733201" lon="2.5026796897780623"><ele>61.166666666666664</ele><time>2026-04-01T14:53:58.999Z</time></trkpt><trkpt lat="49.190397276864445" lon="2.5025598756648404"><ele>61.33333333333333</ele><time>2026-04-01T14:54:00.999Z</time></trkpt><trkpt lat="49.190360482587124" lon="2.50244841289783"><ele>61.5</ele><time>2026-04-01T14:54:02.999Z</time></trkpt><trkpt lat="49.19033663646796" lon="2.50232045109255"><ele>61.66666666666667</ele><time>2026-04-01T14:54:04.999Z</time></trkpt><trkpt lat="49.19031980569934" lon="2.502222990970103"><ele>61.833333333333336</ele><time>2026-04-01T14:54:06.999Z</time></trkpt><trkpt lat="49.19028478323917" lon="2.502123319337425"><ele>62.0</ele><time>2026-04-01T14:54:08.999Z</time></trkpt><trkpt lat="49.19026517448569" lon="2.5020200564361614"><ele>62.28571428571429</ele><time>2026-04-01T14:54:10.999Z</time></trkpt><trkpt lat="49.190240306898374" lon="2.501924457985283"><ele>62.57142857142858</ele><time>2026-04-01T14:54:12.999Z</time></trkpt><trkpt lat="49.1902079354757" lon="2.501800789982792"><ele>62.85714285714286</ele><time>2026-04-01T14:54:14.999Z</time></trkpt><trkpt lat="49.190188597202166" lon="2.5016904100897253"><ele>63.14285714285714</ele><time>2026-04-01T14:54:16.999Z</time></trkpt><trkpt lat="49.19015967867139" lon="2.5016037396254722"><ele>63.42857142857142</ele><time>2026-04-01T14:54:18.999Z</time></trkpt><trkpt lat="49.19013406807971" lon="2.5014932770008986"><ele>63.71428571428571</ele><time>2026-04-01T14:54:20.999Z</time></trkpt><trkpt lat="49.190122080469585" lon="2.5013927102574063"><ele>64.0</ele><time>2026-04-01T14:54:22.999Z</time></trkpt><trkpt lat="49.19009771518085" lon="2.501258351447457"><ele>63.99999999999999</ele><time>2026-04-01T14:54:24.999Z</time></trkpt><trkpt lat="49.190068678694885" lon="2.5011679930918738"><ele>64.0</ele><time>2026-04-01T14:54:26.998Z</time></trkpt><trkpt lat="49.19002835829308" lon="2.5010414679219184"><ele>64.0</ele><time>2026-04-01T14:54:28.998Z</time></trkpt><trkpt lat="49.19000606176158" lon="2.50091555199026"><ele>64.0</ele><time>2026-04-01T14:54:30.998Z</time></trkpt><trkpt lat="49.18998273290931" lon="2.500783934205141"><ele>63.99999999999999</ele><time>2026-04-01T14:54:32.998Z</time></trkpt><trkpt lat="49.18996697475043" lon="2.5006400267757862"><ele>64.0</ele><time>2026-04-01T14:54:34.998Z</time></trkpt><trkpt lat="49.18994126075907" lon="2.500503789552763"><ele>63.83333333333333</ele><time>2026-04-01T14:54:36.998Z</time></trkpt><trkpt lat="49.1899126117342" lon="2.5003717806961263"><ele>63.666666666666664</ele><time>2026-04-01T14:54:38.998Z</time></trkpt><trkpt lat="49.18988847212322" lon="2.500240094838253"><ele>63.5</ele><time>2026-04-01T14:54:40.998Z</time></trkpt><trkpt lat="49.18986617293434" lon="2.5001097258032026"><ele>63.33333333333333</ele><time>2026-04-01T14:54:42.998Z</time></trkpt><trkpt lat="49.18983742178044" lon="2.49998138450347"><ele>63.166666666666664</ele><time>2026-04-01T14:54:44.998Z</time></trkpt><trkpt lat="49.189814129504576" lon="2.499846906994386"><ele>63.0</ele><time>2026-04-01T14:54:46.998Z</time></trkpt><trkpt lat="49.189787098115005" lon="2.4997155255103842"><ele>62.599999999999994</ele><time>2026-04-01T14:54:48.998Z</time></trkpt><trkpt lat="49.1897652708741" lon="2.499580354873537"><ele>62.199999999999996</ele><time>2026-04-01T14:54:50.998Z</time></trkpt><trkpt lat="49.18973950595401" lon="2.4994375325513962"><ele>61.8</ele><time>2026-04-01T14:54:52.998Z</time></trkpt><trkpt lat="49.18971526786671" lon="2.499302731511379"><ele>61.4</ele><time>2026-04-01T14:54:54.998Z</time></trkpt><trkpt lat="49.1896858842591" lon="2.4991724238960398"><ele>61.0</ele><time>2026-04-01T14:54:56.998Z</time></trkpt><trkpt lat="49.189651017958404" lon="2.499029655062956"><ele>61.0</ele><time>2026-04-01T14:54:58.998Z</time></trkpt><trkpt lat="49.18962165158004" lon="2.498892360181822"><ele>60.99999999999999</ele><time>2026-04-01T14:55:00.997Z</time></trkpt><trkpt lat="49.189589958293915" lon="2.4987365290216106"><ele>60.99999999999999</ele><time>2026-04-01T14:55:02.997Z</time></trkpt><trkpt lat="49.18955498803722" lon="2.498602098635331"><ele>61.0</ele><time>2026-04-01T14:55:04.997Z</time></trkpt><trkpt lat="49.18953007194501" lon="2.4984717327165065"><ele>61.0</ele><time>2026-04-01T14:55:06.997Z</time></trkpt><trkpt lat="49.1895102788614" lon="2.498343568751787"><ele>61.166666666666664</ele><time>2026-04-01T14:55:08.997Z</time></trkpt><trkpt lat="49.18949408552956" lon="2.498238517936651"><ele>61.33333333333333</ele><time>2026-04-01T14:55:10.997Z</time></trkpt><trkpt lat="49.189471109556784" lon="2.498117621137318"><ele>61.5</ele><time>2026-04-01T14:55:12.997Z</time></trkpt><trkpt lat="49.189439824721475" lon="2.497981831308321"><ele>61.66666666666667</ele><time>2026-04-01T14:55:14.997Z</time></trkpt><trkpt lat="49.18940576427305" lon="2.497848448763355"><ele>61.833333333333336</ele><time>2026-04-01T14:55:16.997Z</time></trkpt><trkpt lat="49.189377917412024" lon="2.4977133415001784"><ele>62.0</ele><time>2026-04-01T14:55:18.997Z</time></trkpt><trkpt lat="49.18935339116503" lon="2.497571859378295"><ele>61.8</ele><time>2026-04-01T14:55:20.997Z</time></trkpt><trkpt lat="49.189363416765666" lon="2.497418789399001"><ele>61.6</ele><time>2026-04-01T14:55:22.997Z</time></trkpt><trkpt lat="49.189370842268296" lon="2.4972715443928992"><ele>61.39999999999999</ele><time>2026-04-01T14:55:24.997Z</time></trkpt><trkpt lat="49.18937796205418" lon="2.4971256218084736"><ele>61.199999999999996</ele><time>2026-04-01T14:55:27Z</time></trkpt><trkpt lat="49.1893837060117" lon="2.4969737159811647"><ele>61.0</ele><time>2026-04-01T14:55:29Z</time></trkpt><trkpt lat="49.18938629552279" lon="2.4968246212693868"><ele>61.0</ele><time>2026-04-01T14:55:31Z</time></trkpt><trkpt lat="49.1893986370206" lon="2.496679127703893"><ele>60.99999999999999</ele><time>2026-04-01T14:55:33Z</time></trkpt><trkpt lat="49.18940624024568" lon="2.496534870922617"><ele>60.99999999999999</ele><time>2026-04-01T14:55:35Z</time></trkpt><trkpt lat="49.189413929538524" lon="2.4963813781070825"><ele>61.0</ele><time>2026-04-01T14:55:37Z</time></trkpt><trkpt lat="49.1894226414347" lon="2.496237107158267"><ele>61.0</ele><time>2026-04-01T14:55:39Z</time></trkpt><trkpt lat="49.18942881712905" lon="2.4960807960794096"><ele>60.8</ele><time>2026-04-01T14:55:41Z</time></trkpt><trkpt lat="49.18944098165359" lon="2.4959441986560154"><ele>60.599999999999994</ele><time>2026-04-01T14:55:43Z</time></trkpt><trkpt lat="49.18944785976606" lon="2.4958028167538004"><ele>60.4</ele><time>2026-04-01T14:55:45Z</time></trkpt><trkpt lat="49.189437160843646" lon="2.495667017968889"><ele>60.2</ele><time>2026-04-01T14:55:47Z</time></trkpt><trkpt lat="49.18945215686827" lon="2.4955210817966162"><ele>60.0</ele><time>2026-04-01T14:55:49Z</time></trkpt><trkpt lat="49.1894688731695" lon="2.495374391944021"><ele>60.0</ele><time>2026-04-01T14:55:51Z</time></trkpt><trkpt lat="49.18947990767495" lon="2.4952316162719486"><ele>60.0</ele><time>2026-04-01T14:55:53Z</time></trkpt><trkpt lat="49.18946503272535" lon="2.495110345446771"><ele>60.0</ele><time>2026-04-01T14:55:54Z</time></trkpt><trkpt lat="49.18946904436411" lon="2.4949515525049963"><ele>60.0</ele><time>2026-04-01T14:55:55.999Z</time></trkpt><trkpt lat="49.18947707393709" lon="2.494801604005884"><ele>60.0</ele><time>2026-04-01T14:55:57.999Z</time></trkpt><trkpt lat="49.18948725851156" lon="2.4946596551580122"><ele>60.0</ele><time>2026-04-01T14:55:59.999Z</time></trkpt><trkpt lat="49.18950146640229" lon="2.4945097146436996"><ele>60.0</ele><time>2026-04-01T14:56:01.999Z</time></trkpt><trkpt lat="49.18951219711858" lon="2.4943548811020277"><ele>60.0</ele><time>2026-04-01T14:56:03.999Z</time></trkpt><trkpt lat="49.18952712979231" lon="2.4941910945370624"><ele>60.0</ele><time>2026-04-01T14:56:05.999Z</time></trkpt><trkpt lat="49.18951932599113" lon="2.494027100644359"><ele>60.0</ele><time>2026-04-01T14:56:07.999Z</time></trkpt><trkpt lat="49.189515415652316" lon="2.493876841853449"><ele>59.75</ele><time>2026-04-01T14:56:09.999Z</time></trkpt><trkpt lat="49.18949253409213" lon="2.4937355562670227"><ele>59.5</ele><time>2026-04-01T14:56:11.999Z</time></trkpt><trkpt lat="49.189459260671946" lon="2.493590718457508"><ele>59.25</ele><time>2026-04-01T14:56:13.999Z</time></trkpt><trkpt lat="49.18960539751816" lon="2.493409672667076"><ele>59.0</ele><time>2026-04-01T14:56:14.999Z</time></trkpt><trkpt lat="49.18957837949163" lon="2.4933149492767877"><ele>59.0</ele><time>2026-04-01T14:56:16.999Z</time></trkpt><trkpt lat="49.18955348313973" lon="2.4931946053280134"><ele>59.00000000000001</ele><time>2026-04-01T14:56:19.999Z</time></trkpt><trkpt lat="49.1895447233146" lon="2.493053060285865"><ele>59.00000000000001</ele><time>2026-04-01T14:56:21.999Z</time></trkpt><trkpt lat="49.18954513454125" lon="2.4929351701112763"><ele>59.0</ele><time>2026-04-01T14:56:23.999Z</time></trkpt><trkpt lat="49.1895590798199" lon="2.4928052937507315"><ele>59.0</ele><time>2026-04-01T14:56:25.999Z</time></trkpt><trkpt lat="49.18955371519785" lon="2.492599109849286"><ele>59.0</ele><time>2026-04-01T14:56:27.999Z</time></trkpt><trkpt lat="49.18953691961986" lon="2.492464361486153"><ele>59.0</ele><time>2026-04-01T14:56:29.999Z</time></trkpt><trkpt lat="49.189516096877774" lon="2.4922973143249583"><ele>59.0</ele><time>2026-04-01T14:56:31.999Z</time></trkpt><trkpt lat="49.18949584620605" lon="2.4921348583842096"><ele>59.0</ele><time>2026-04-01T14:56:33.998Z</time></trkpt><trkpt lat="49.18932640237247" lon="2.492019439474989"><ele>58.6</ele><time>2026-04-01T14:56:35.998Z</time></trkpt><trkpt lat="49.189320320027655" lon="2.4918762666078287"><ele>58.2</ele><time>2026-04-01T14:56:37.998Z</time></trkpt><trkpt lat="49.18933635476827" lon="2.491717296503355"><ele>57.800000000000004</ele><time>2026-04-01T14:56:39.998Z</time></trkpt><trkpt lat="49.18932362785074" lon="2.4915427647213964"><ele>57.400000000000006</ele><time>2026-04-01T14:56:41.998Z</time></trkpt><trkpt lat="49.189317288372024" lon="2.4913779060188483"><ele>57.0</ele><time>2026-04-01T14:56:43.998Z</time></trkpt><trkpt lat="49.189305750640564" lon="2.4912085878628263"><ele>56.8</ele><time>2026-04-01T14:56:45.998Z</time></trkpt><trkpt lat="49.18930392663167" lon="2.4910248078958923"><ele>56.6</ele><time>2026-04-01T14:56:47.998Z</time></trkpt><trkpt lat="49.189300511174345" lon="2.4908580683962502"><ele>56.39999999999999</ele><time>2026-04-01T14:56:49.998Z</time></trkpt><trkpt lat="49.18927956604925" lon="2.4906943221872675"><ele>56.199999999999996</ele><time>2026-04-01T14:56:51.998Z</time></trkpt><trkpt lat="49.189255869934726" lon="2.4906038378143136"><ele>56.0</ele><time>2026-04-01T14:56:52.998Z</time></trkpt><trkpt lat="49.18923951790061" lon="2.4905107197997336"><ele>55.833333333333336</ele><time>2026-04-01T14:56:53.998Z</time></trkpt><trkpt lat="49.18923495908506" lon="2.490413035335039"><ele>55.66666666666667</ele><time>2026-04-01T14:56:54.998Z</time></trkpt><trkpt lat="49.18924191611743" lon="2.4903066572445955"><ele>55.5</ele><time>2026-04-01T14:56:55.998Z</time></trkpt><trkpt lat="49.18925600620941" lon="2.490201498118968"><ele>55.33333333333333</ele><time>2026-04-01T14:56:56.998Z</time></trkpt><trkpt lat="49.189275533236795" lon="2.4900638429844513"><ele>55.166666666666664</ele><time>2026-04-01T14:56:57.998Z</time></trkpt><trkpt lat="49.18930673319718" lon="2.489935109121058"><ele>55.0</ele><time>2026-04-01T14:56:58.998Z</time></trkpt><trkpt lat="49.18934496443579" lon="2.489805946891292"><ele>55.0</ele><time>2026-04-01T14:56:59.998Z</time></trkpt><trkpt lat="49.18938364174085" lon="2.4896807984536307"><ele>55.0</ele><time>2026-04-01T14:57:00.998Z</time></trkpt><trkpt lat="49.1894854373388" lon="2.489556457877916"><ele>55.0</ele><time>2026-04-01T14:57:01.998Z</time></trkpt><trkpt lat="49.18955771948078" lon="2.489434901463121"><ele>55.0</ele><time>2026-04-01T14:57:02.998Z</time></trkpt><trkpt lat="49.189618682229565" lon="2.4893100996236677"><ele>55.0</ele><time>2026-04-01T14:57:03.998Z</time></trkpt><trkpt lat="49.1896742096083" lon="2.4891837750782155"><ele>54.0</ele><time>2026-04-01T14:57:04.998Z</time></trkpt><trkpt lat="49.18995764419762" lon="2.489110387505188"><ele>53.0</ele><time>2026-04-01T14:57:06.998Z</time></trkpt><trkpt lat="49.190002874272515" lon="2.489008960299202"><ele>52.0</ele><time>2026-04-01T14:57:07.997Z</time></trkpt><trkpt lat="49.19005056754357" lon="2.488905507817142"><ele>52.0</ele><time>2026-04-01T14:57:08.997Z</time></trkpt><trkpt lat="49.19009612476661" lon="2.4888096081853806"><ele>52.0</ele><time>2026-04-01T14:57:09.997Z</time></trkpt><trkpt lat="49.19013790131891" lon="2.4887216669577574"><ele>52.0</ele><time>2026-04-01T14:57:10.997Z</time></trkpt><trkpt lat="49.190211270974274" lon="2.488567221136228"><ele>52.0</ele><time>2026-04-01T14:57:12.997Z</time></trkpt><trkpt lat="49.19027224151887" lon="2.488439160899926"><ele>52.0</ele><time>2026-04-01T14:57:14.997Z</time></trkpt><trkpt lat="49.19034461766991" lon="2.4882847487741295"><ele>52.666666666666664</ele><time>2026-04-01T14:57:16.997Z</time></trkpt><trkpt lat="49.19040367331263" lon="2.488149968552905"><ele>53.33333333333333</ele><time>2026-04-01T14:57:18.997Z</time></trkpt><trkpt lat="49.190467316025895" lon="2.4880008079487688"><ele>54.0</ele><time>2026-04-01T14:57:20.997Z</time></trkpt><trkpt lat="49.19050336710301" lon="2.4878989631598882"><ele>54.66666666666667</ele><time>2026-04-01T14:57:21.997Z</time></trkpt><trkpt lat="49.190529528608955" lon="2.4877968106326565"><ele>55.333333333333336</ele><time>2026-04-01T14:57:22.997Z</time></trkpt><trkpt lat="49.19054860524172" lon="2.487683105250129"><ele>56.0</ele><time>2026-04-01T14:57:23.997Z</time></trkpt><trkpt lat="49.19057593914021" lon="2.4875460014425754"><ele>56.4</ele><time>2026-04-01T14:57:25.997Z</time></trkpt><trkpt lat="49.19048747311574" lon="2.487360507734711"><ele>56.8</ele><time>2026-04-01T14:57:26.997Z</time></trkpt><trkpt lat="49.19046838534113" lon="2.4872334811080408"><ele>57.199999999999996</ele><time>2026-04-01T14:57:28.997Z</time></trkpt><trkpt lat="49.19044574872273" lon="2.4870827554499915"><ele>57.599999999999994</ele><time>2026-04-01T14:57:30.997Z</time></trkpt><trkpt lat="49.190421970861706" lon="2.486950017872617"><ele>58.0</ele><time>2026-04-01T14:57:33Z</time></trkpt><trkpt lat="49.19040129747122" lon="2.486822956849063"><ele>57.99999999999999</ele><time>2026-04-01T14:57:35Z</time></trkpt><trkpt lat="49.19038204644708" lon="2.4867038254870573"><ele>58.0</ele><time>2026-04-01T14:57:37Z</time></trkpt><trkpt lat="49.19036256865727" lon="2.486583243560621"><ele>58.0</ele><time>2026-04-01T14:57:39Z</time></trkpt><trkpt lat="49.190344821509974" lon="2.4864733754639734"><ele>58.0</ele><time>2026-04-01T14:57:41Z</time></trkpt><trkpt lat="49.190327107510335" lon="2.4863637125072513"><ele>57.99999999999999</ele><time>2026-04-01T14:57:43Z</time></trkpt><trkpt lat="49.19030831654348" lon="2.4862473841811723"><ele>58.0</ele><time>2026-04-01T14:57:45Z</time></trkpt><trkpt lat="49.190291801808435" lon="2.48613899909193"><ele>57.83333333333333</ele><time>2026-04-01T14:57:47Z</time></trkpt><trkpt lat="49.1902529208495" lon="2.485996905223606"><ele>57.666666666666664</ele><time>2026-04-01T14:57:50Z</time></trkpt><trkpt lat="49.190244210878056" lon="2.485884629115404"><ele>57.5</ele><time>2026-04-01T14:57:52Z</time></trkpt><trkpt lat="49.19023491424177" lon="2.485767485506498"><ele>57.33333333333333</ele><time>2026-04-01T14:57:54Z</time></trkpt><trkpt lat="49.19021113634573" lon="2.485677460452146"><ele>57.166666666666664</ele><time>2026-04-01T14:57:56Z</time></trkpt><trkpt lat="49.19020248039523" lon="2.4855517245433276"><ele>57.0</ele><time>2026-04-01T14:57:58Z</time></trkpt><trkpt lat="49.19018518134222" lon="2.485452770551825"><ele>56.8</ele><time>2026-04-01T14:58:00Z</time></trkpt><trkpt lat="49.1901625356159" lon="2.4853514648311745"><ele>56.6</ele><time>2026-04-01T14:58:01.999Z</time></trkpt><trkpt lat="49.190141366256064" lon="2.4852506785191855"><ele>56.39999999999999</ele><time>2026-04-01T14:58:03.999Z</time></trkpt><trkpt lat="49.19012777425147" lon="2.485152069803084"><ele>56.199999999999996</ele><time>2026-04-01T14:58:05.999Z</time></trkpt><trkpt lat="49.19010527437309" lon="2.4850235313938063"><ele>56.0</ele><time>2026-04-01T14:58:08.999Z</time></trkpt><trkpt lat="49.18994100315541" lon="2.48506112523446"><ele>56.0</ele><time>2026-04-01T14:58:12.999Z</time></trkpt><trkpt lat="49.18987009198637" lon="2.485026591842656"><ele>56.0</ele><time>2026-04-01T14:58:14.999Z</time></trkpt><trkpt lat="49.1898047034206" lon="2.484978322876388"><ele>56.0</ele><time>2026-04-01T14:58:16.999Z</time></trkpt><trkpt lat="49.189740363654714" lon="2.4849221674259234"><ele>56.0</ele><time>2026-04-01T14:58:18.999Z</time></trkpt><trkpt lat="49.18968499895557" lon="2.4848626611656335"><ele>56.0</ele><time>2026-04-01T14:58:20.999Z</time></trkpt><trkpt lat="49.18963717173695" lon="2.4847844520134124"><ele>56.0</ele><time>2026-04-01T14:58:22.999Z</time></trkpt><trkpt lat="49.18961984050432" lon="2.4846746230841688"><ele>56.0</ele><time>2026-04-01T14:58:24.999Z</time></trkpt><trkpt lat="49.18960202986716" lon="2.484568399849936"><ele>56.285714285714285</ele><time>2026-04-01T14:58:26.999Z</time></trkpt><trkpt lat="49.1895984324992" lon="2.484457512934432"><ele>56.57142857142857</ele><time>2026-04-01T14:58:28.999Z</time></trkpt><trkpt lat="49.18960353682046" lon="2.484342931359183"><ele>56.85714285714286</ele><time>2026-04-01T14:58:30.999Z</time></trkpt><trkpt lat="49.18962428431897" lon="2.4842436637945196"><ele>57.142857142857146</ele><time>2026-04-01T14:58:32.999Z</time></trkpt><trkpt lat="49.18959422526416" lon="2.4841541963719687"><ele>57.42857142857143</ele><time>2026-04-01T14:58:34.999Z</time></trkpt><trkpt lat="49.189519668625955" lon="2.4841371315287053"><ele>57.71428571428572</ele><time>2026-04-01T14:58:36.999Z</time></trkpt><trkpt lat="49.18945572250971" lon="2.484107427224926"><ele>58.00000000000001</ele><time>2026-04-01T14:58:38.998Z</time></trkpt><trkpt lat="49.18938558093266" lon="2.4840763705306714"><ele>58.00000000000001</ele><time>2026-04-01T14:58:40.998Z</time></trkpt><trkpt lat="49.18931711650577" lon="2.484039230261958"><ele>58.0</ele><time>2026-04-01T14:58:42.998Z</time></trkpt><trkpt lat="49.18925167787826" lon="2.483996494410212"><ele>58.00000000000001</ele><time>2026-04-01T14:58:44.998Z</time></trkpt><trkpt lat="49.18920243413768" lon="2.483903697794114"><ele>58.00000000000001</ele><time>2026-04-01T14:58:46.998Z</time></trkpt><trkpt lat="49.18916680463669" lon="2.483815193975067"><ele>58.0</ele><time>2026-04-01T14:58:48.998Z</time></trkpt><trkpt lat="49.18912130408666" lon="2.483731565375067"><ele>58.00000000000001</ele><time>2026-04-01T14:58:50.998Z</time></trkpt><trkpt lat="49.18905918418134" lon="2.483693635140173"><ele>58.00000000000001</ele><time>2026-04-01T14:58:52.998Z</time></trkpt><trkpt lat="49.18900185150292" lon="2.483631150988174"><ele>58.571428571428584</ele><time>2026-04-01T14:58:54.998Z</time></trkpt><trkpt lat="49.188943982531455" lon="2.4835804969721984"><ele>59.142857142857146</ele><time>2026-04-01T14:58:56.998Z</time></trkpt><trkpt lat="49.188847824738644" lon="2.4835417423936725"><ele>59.71428571428572</ele><time>2026-04-01T14:58:59.998Z</time></trkpt><trkpt lat="49.18877675503012" lon="2.4835267950695963"><ele>60.28571428571429</ele><time>2026-04-01T14:59:01.998Z</time></trkpt><trkpt lat="49.18870841280304" lon="2.483486401682965"><ele>60.85714285714286</ele><time>2026-04-01T14:59:03.998Z</time></trkpt><trkpt lat="49.188652117039624" lon="2.4834352816632763"><ele>61.42857142857143</ele><time>2026-04-01T14:59:05.998Z</time></trkpt><trkpt lat="49.18859048199762" lon="2.4833948020287884"><ele>62.0</ele><time>2026-04-01T14:59:07.998Z</time></trkpt><trkpt lat="49.188521889759684" lon="2.4833196327926514"><ele>62.00000000000001</ele><time>2026-04-01T14:59:09.998Z</time></trkpt><trkpt lat="49.18844638654817" lon="2.4832325094338144"><ele>62.0</ele><time>2026-04-01T14:59:12.998Z</time></trkpt><trkpt lat="49.18837853321741" lon="2.4831898445969784"><ele>62.0</ele><time>2026-04-01T14:59:14.997Z</time></trkpt><trkpt lat="49.18830387944393" lon="2.483171973156918"><ele>62.0</ele><time>2026-04-01T14:59:16.997Z</time></trkpt><trkpt lat="49.18822978624932" lon="2.483100727623563"><ele>62.00000000000001</ele><time>2026-04-01T14:59:18.997Z</time></trkpt><trkpt lat="49.18815395793233" lon="2.483061674797495"><ele>62.0</ele><time>2026-04-01T14:59:20.997Z</time></trkpt><trkpt lat="49.18807634492838" lon="2.4830235873192557"><ele>61.833333333333336</ele><time>2026-04-01T14:59:22.997Z</time></trkpt><trkpt lat="49.18799418413753" lon="2.4830056283903352"><ele>61.66666666666667</ele><time>2026-04-01T14:59:24.997Z</time></trkpt><trkpt lat="49.1879116015546" lon="2.4829894036068887"><ele>61.5</ele><time>2026-04-01T14:59:26.997Z</time></trkpt><trkpt lat="49.18782768414864" lon="2.482957476747346"><ele>61.33333333333333</ele><time>2026-04-01T14:59:28.997Z</time></trkpt><trkpt lat="49.187750777532926" lon="2.482913622232212"><ele>61.166666666666664</ele><time>2026-04-01T14:59:30.997Z</time></trkpt><trkpt lat="49.187676491440634" lon="2.482866734740978"><ele>61.0</ele><time>2026-04-01T14:59:32.997Z</time></trkpt><trkpt lat="49.1875934935433" lon="2.4828175083917823"><ele>61.33333333333333</ele><time>2026-04-01T14:59:34.997Z</time></trkpt><trkpt lat="49.18751463509616" lon="2.4827616148919827"><ele>61.666666666666664</ele><time>2026-04-01T14:59:36.997Z</time></trkpt><trkpt lat="49.18743918972617" lon="2.4827087730044703"><ele>62.0</ele><time>2026-04-01T14:59:39Z</time></trkpt><trkpt lat="49.18736813478236" lon="2.482657793028858"><ele>62.33333333333333</ele><time>2026-04-01T14:59:41Z</time></trkpt><trkpt lat="49.18730411142505" lon="2.482630391942727"><ele>62.666666666666664</ele><time>2026-04-01T14:59:43Z</time></trkpt><trkpt lat="49.18721743278077" lon="2.4825881932851104"><ele>63.0</ele><time>2026-04-01T14:59:45Z</time></trkpt><trkpt lat="49.187133923521294" lon="2.482552236955839"><ele>63.0</ele><time>2026-04-01T14:59:47Z</time></trkpt><trkpt lat="49.18705231368625" lon="2.4825050190087508"><ele>63.0</ele><time>2026-04-01T14:59:49Z</time></trkpt><trkpt lat="49.18697119955595" lon="2.4824702215157624"><ele>63.0</ele><time>2026-04-01T14:59:51Z</time></trkpt><trkpt lat="49.18688281622184" lon="2.4824104994584686"><ele>63.0</ele><time>2026-04-01T14:59:53Z</time></trkpt><trkpt lat="49.18679967414982" lon="2.482363312245411"><ele>63.0</ele><time>2026-04-01T14:59:55Z</time></trkpt><trkpt lat="49.18672160402691" lon="2.4823092200183723"><ele>63.0</ele><time>2026-04-01T14:59:57Z</time></trkpt><trkpt lat="49.186631145098914" lon="2.4822486002553945"><ele>63.0</ele><time>2026-04-01T14:59:59Z</time></trkpt><trkpt lat="49.18654900254427" lon="2.4821943148839893"><ele>63.0</ele><time>2026-04-01T15:00:01Z</time></trkpt><trkpt lat="49.18645575109018" lon="2.4821563489335676"><ele>63.0</ele><time>2026-04-01T15:00:03Z</time></trkpt><trkpt lat="49.186370199592815" lon="2.482111084010354"><ele>63.0</ele><time>2026-04-01T15:00:05Z</time></trkpt><trkpt lat="49.18627607121039" lon="2.4820470235618672"><ele>63.0</ele><time>2026-04-01T15:00:06.999Z</time></trkpt><trkpt lat="49.186195385290816" lon="2.4819851302021116"><ele>62.8</ele><time>2026-04-01T15:00:08.999Z</time></trkpt><trkpt lat="49.186104162071324" lon="2.481947159805612"><ele>62.599999999999994</ele><time>2026-04-01T15:00:10.999Z</time></trkpt><trkpt lat="49.18601124127692" lon="2.481913850762611"><ele>62.400000000000006</ele><time>2026-04-01T15:00:12.999Z</time></trkpt><trkpt lat="49.18592933248578" lon="2.481842634092359"><ele>62.2</ele><time>2026-04-01T15:00:14.999Z</time></trkpt><trkpt lat="49.18583701459709" lon="2.4817958630897885"><ele>62.0</ele><time>2026-04-01T15:00:16.999Z</time></trkpt><trkpt lat="49.185746703936886" lon="2.481736460973583"><ele>61.8</ele><time>2026-04-01T15:00:18.999Z</time></trkpt><trkpt lat="49.18566711863657" lon="2.48165916706309"><ele>61.6</ele><time>2026-04-01T15:00:20.999Z</time></trkpt><trkpt lat="49.18556959691972" lon="2.481588197496104"><ele>61.39999999999999</ele><time>2026-04-01T15:00:22.999Z</time></trkpt><trkpt lat="49.18547547143451" lon="2.4815377011502804"><ele>61.199999999999996</ele><time>2026-04-01T15:00:24.999Z</time></trkpt><trkpt lat="49.18537773571897" lon="2.481518996019736"><ele>61.0</ele><time>2026-04-01T15:00:26.999Z</time></trkpt><trkpt lat="49.1852791712711" lon="2.481486504189849"><ele>61.0</ele><time>2026-04-01T15:00:28.999Z</time></trkpt><trkpt lat="49.185194251662374" lon="2.4814229819170417"><ele>60.99999999999999</ele><time>2026-04-01T15:00:30.999Z</time></trkpt><trkpt lat="49.18511538691963" lon="2.4813546693265964"><ele>60.99999999999999</ele><time>2026-04-01T15:00:32.999Z</time></trkpt><trkpt lat="49.18502514404583" lon="2.4812829257261915"><ele>61.0</ele><time>2026-04-01T15:00:34.999Z</time></trkpt><trkpt lat="49.184935473427785" lon="2.481274045327533"><ele>61.0</ele><time>2026-04-01T15:00:36.999Z</time></trkpt><trkpt lat="49.18484284194306" lon="2.4812386207791337"><ele>60.4</ele><time>2026-04-01T15:00:38.999Z</time></trkpt><trkpt lat="49.1847603261968" lon="2.4811382719325312"><ele>59.8</ele><time>2026-04-01T15:00:40.999Z</time></trkpt><trkpt lat="49.18467721786502" lon="2.481045760594992"><ele>59.199999999999996</ele><time>2026-04-01T15:00:42.999Z</time></trkpt><trkpt lat="49.184574649768166" lon="2.4810110177153084"><ele>58.599999999999994</ele><time>2026-04-01T15:00:44.998Z</time></trkpt><trkpt lat="49.18447048828115" lon="2.4809607848542417"><ele>58.0</ele><time>2026-04-01T15:00:46.998Z</time></trkpt><trkpt lat="49.18438328009085" lon="2.48089977403297"><ele>58.0</ele><time>2026-04-01T15:00:48.998Z</time></trkpt><trkpt lat="49.18429230252772" lon="2.4808509233738043"><ele>58.0</ele><time>2026-04-01T15:00:50.998Z</time></trkpt><trkpt lat="49.18421018272536" lon="2.4807868608166626"><ele>58.0</ele><time>2026-04-01T15:00:52.998Z</time></trkpt><trkpt lat="49.18411682443284" lon="2.4807572776282423"><ele>58.0</ele><time>2026-04-01T15:00:54.998Z</time></trkpt><trkpt lat="49.18403183860035" lon="2.480694601618385"><ele>58.0</ele><time>2026-04-01T15:00:56.998Z</time></trkpt><trkpt lat="49.18395419269055" lon="2.480603137126944"><ele>58.49999999999999</ele><time>2026-04-01T15:00:58.998Z</time></trkpt><trkpt lat="49.183882604310064" lon="2.480559959453875"><ele>59.0</ele><time>2026-04-01T15:01:00.998Z</time></trkpt><trkpt lat="49.18380749515255" lon="2.480542991425846"><ele>59.5</ele><time>2026-04-01T15:01:02.998Z</time></trkpt><trkpt lat="49.18372671371216" lon="2.4805042227035727"><ele>60.0</ele><time>2026-04-01T15:01:04.998Z</time></trkpt><trkpt lat="49.183643780877155" lon="2.4804700011945626"><ele>60.49999999999999</ele><time>2026-04-01T15:01:06.998Z</time></trkpt><trkpt lat="49.18356966726118" lon="2.48046744093201"><ele>61.0</ele><time>2026-04-01T15:01:08.998Z</time></trkpt><trkpt lat="49.1834938031182" lon="2.480445800161594"><ele>60.99999999999999</ele><time>2026-04-01T15:01:10.998Z</time></trkpt><trkpt lat="49.18343073166258" lon="2.480380386855716"><ele>61.0</ele><time>2026-04-01T15:01:12.998Z</time></trkpt><trkpt lat="49.18337004380522" lon="2.4803290606727044"><ele>60.99999999999999</ele><time>2026-04-01T15:01:14.998Z</time></trkpt><trkpt lat="49.18329646012833" lon="2.4802867461991798"><ele>60.99999999999999</ele><time>2026-04-01T15:01:16.998Z</time></trkpt><trkpt lat="49.183232916014624" lon="2.480233191270954"><ele>61.0</ele><time>2026-04-01T15:01:18.998Z</time></trkpt><trkpt lat="49.18316503741533" lon="2.480196286561765"><ele>60.99999999999999</ele><time>2026-04-01T15:01:20.998Z</time></trkpt><trkpt lat="49.183098323734335" lon="2.480157482048057"><ele>60.99999999999999</ele><time>2026-04-01T15:01:22.997Z</time></trkpt><trkpt lat="49.183023866165904" lon="2.4801322536314605"><ele>61.166666666666664</ele><time>2026-04-01T15:01:24.997Z</time></trkpt><trkpt lat="49.18294844791272" lon="2.4800973573144294"><ele>61.33333333333333</ele><time>2026-04-01T15:01:26.997Z</time></trkpt><trkpt lat="49.18288528456508" lon="2.4800599265923235"><ele>61.5</ele><time>2026-04-01T15:01:28.997Z</time></trkpt><trkpt lat="49.18281468286286" lon="2.4800105634856577"><ele>61.66666666666667</ele><time>2026-04-01T15:01:30.997Z</time></trkpt><trkpt lat="49.18275286229816" lon="2.4799643913729925"><ele>61.833333333333336</ele><time>2026-04-01T15:01:32.997Z</time></trkpt><trkpt lat="49.18265430318964" lon="2.479917065253759"><ele>62.0</ele><time>2026-04-01T15:01:35.997Z</time></trkpt><trkpt lat="49.18259005002157" lon="2.4799008398363287"><ele>62.0</ele><time>2026-04-01T15:01:37.997Z</time></trkpt><trkpt lat="49.18251957084019" lon="2.4798499063815997"><ele>62.00000000000001</ele><time>2026-04-01T15:01:39.997Z</time></trkpt><trkpt lat="49.18246013639578" lon="2.479804670003027"><ele>62.0</ele><time>2026-04-01T15:01:41.997Z</time></trkpt><trkpt lat="49.18238124629769" lon="2.4797370406242663"><ele>62.0</ele><time>2026-04-01T15:01:45Z</time></trkpt><trkpt lat="49.18231623474236" lon="2.4796897335368326"><ele>62.00000000000001</ele><time>2026-04-01T15:01:47Z</time></trkpt><trkpt lat="49.182247181362584" lon="2.4796728298390547"><ele>62.0</ele><time>2026-04-01T15:01:49Z</time></trkpt><trkpt lat="49.18218160003367" lon="2.4796553443122993"><ele>62.0</ele><time>2026-04-01T15:01:51Z</time></trkpt><trkpt lat="49.18210374411994" lon="2.479601682459779"><ele>62.42857142857143</ele><time>2026-04-01T15:01:54Z</time></trkpt><trkpt lat="49.18203820856954" lon="2.47953875710122"><ele>62.85714285714286</ele><time>2026-04-01T15:01:56Z</time></trkpt><trkpt lat="49.181982090926795" lon="2.4794823073965815"><ele>63.28571428571429</ele><time>2026-04-01T15:01:58Z</time></trkpt><trkpt lat="49.18190679878295" lon="2.479435270917166"><ele>63.71428571428572</ele><time>2026-04-01T15:02:00Z</time></trkpt><trkpt lat="49.18183631521226" lon="2.4794125866226007"><ele>64.14285714285714</ele><time>2026-04-01T15:02:02Z</time></trkpt><trkpt lat="49.18177151217611" lon="2.4793983554063477"><ele>64.57142857142858</ele><time>2026-04-01T15:02:04Z</time></trkpt><trkpt lat="49.18169384476275" lon="2.47939508627582"><ele>65.0</ele><time>2026-04-01T15:02:06Z</time></trkpt><trkpt lat="49.18162502092267" lon="2.4793845235582044"><ele>65.0</ele><time>2026-04-01T15:02:08Z</time></trkpt><trkpt lat="49.18154346166667" lon="2.4793064626061416"><ele>65.0</ele><time>2026-04-01T15:02:11Z</time></trkpt><trkpt lat="49.18147041336541" lon="2.479283212406393"><ele>65.0</ele><time>2026-04-01T15:02:13Z</time></trkpt><trkpt lat="49.18141612066634" lon="2.4792152458771315"><ele>65.0</ele><time>2026-04-01T15:02:14.999Z</time></trkpt><trkpt lat="49.181348110378785" lon="2.4791572855751354"><ele>65.0</ele><time>2026-04-01T15:02:16.999Z</time></trkpt><trkpt lat="49.18125610928577" lon="2.4791494838778627"><ele>65.0</ele><time>2026-04-01T15:02:19.999Z</time></trkpt><trkpt lat="49.18118126133314" lon="2.479083627464681"><ele>65.0</ele><time>2026-04-01T15:02:21.999Z</time></trkpt><trkpt lat="49.18111425330251" lon="2.4790403639936924"><ele>65.0</ele><time>2026-04-01T15:02:23.999Z</time></trkpt><trkpt lat="49.181035394874456" lon="2.478995070378336"><ele>65.0</ele><time>2026-04-01T15:02:25.999Z</time></trkpt><trkpt lat="49.180964015887135" lon="2.4789473141199645"><ele>65.0</ele><time>2026-04-01T15:02:27.999Z</time></trkpt><trkpt lat="49.18090259889377" lon="2.4788862241262737"><ele>65.0</ele><time>2026-04-01T15:02:29.999Z</time></trkpt><trkpt lat="49.18083567605851" lon="2.478843201897065"><ele>65.0</ele><time>2026-04-01T15:02:31.999Z</time></trkpt><trkpt lat="49.180771980498285" lon="2.478801443387208"><ele>65.00000000000001</ele><time>2026-04-01T15:02:33.999Z</time></trkpt><trkpt lat="49.180707428379996" lon="2.478784536393465"><ele>65.0</ele><time>2026-04-01T15:02:35.999Z</time></trkpt><trkpt lat="49.1806321975126" lon="2.4787290161096833"><ele>65.0</ele><time>2026-04-01T15:02:37.999Z</time></trkpt><trkpt lat="49.1805635472989" lon="2.4786995871023816"><ele>65.0</ele><time>2026-04-01T15:02:39.999Z</time></trkpt><trkpt lat="49.18048937899096" lon="2.4786850503205935"><ele>65.0</ele><time>2026-04-01T15:02:41.999Z</time></trkpt><trkpt lat="49.18040814030904" lon="2.4786542174883417"><ele>65.00000000000001</ele><time>2026-04-01T15:02:43.999Z</time></trkpt><trkpt lat="49.180346477263065" lon="2.4786037642184318"><ele>65.0</ele><time>2026-04-01T15:02:45.999Z</time></trkpt><trkpt lat="49.18027025619512" lon="2.4785736872051167"><ele>65.14285714285715</ele><time>2026-04-01T15:02:47.999Z</time></trkpt><trkpt lat="49.18020582437472" lon="2.478520688540389"><ele>65.28571428571429</ele><time>2026-04-01T15:02:49.999Z</time></trkpt><trkpt lat="49.180143332665054" lon="2.478486047280725"><ele>65.42857142857143</ele><time>2026-04-01T15:02:51.999Z</time></trkpt><trkpt lat="49.18007622400799" lon="2.4784075118173248"><ele>65.57142857142858</ele><time>2026-04-01T15:02:53.998Z</time></trkpt><trkpt lat="49.18001038765818" lon="2.478367257336682"><ele>65.71428571428572</ele><time>2026-04-01T15:02:55.998Z</time></trkpt><trkpt lat="49.17993393964789" lon="2.47834464926798"><ele>65.85714285714286</ele><time>2026-04-01T15:02:58.998Z</time></trkpt><trkpt lat="49.17987012038774" lon="2.4783033668292576"><ele>66.0</ele><time>2026-04-01T15:03:00.998Z</time></trkpt><trkpt lat="49.179802331094905" lon="2.4782751813302855"><ele>66.0</ele><time>2026-04-01T15:03:02.998Z</time></trkpt><trkpt lat="49.17973742470141" lon="2.4782235085718693"><ele>66.0</ele><time>2026-04-01T15:03:04.998Z</time></trkpt><trkpt lat="49.179677212726645" lon="2.478179843638685"><ele>66.0</ele><time>2026-04-01T15:03:06.998Z</time></trkpt><trkpt lat="49.17960953679399" lon="2.478150542281752"><ele>66.0</ele><time>2026-04-01T15:03:08.998Z</time></trkpt><trkpt lat="49.179530453513564" lon="2.4781091264814976"><ele>66.0</ele><time>2026-04-01T15:03:10.998Z</time></trkpt><trkpt lat="49.17945686116528" lon="2.4780553893036554"><ele>66.0</ele><time>2026-04-01T15:03:12.998Z</time></trkpt><trkpt lat="49.17938808840932" lon="2.4780005144799127"><ele>66.0</ele><time>2026-04-01T15:03:14.998Z</time></trkpt><trkpt lat="49.179309548623266" lon="2.4779590066694213"><ele>66.0</ele><time>2026-04-01T15:03:16.998Z</time></trkpt><trkpt lat="49.17923592646461" lon="2.477934214435935"><ele>66.0</ele><time>2026-04-01T15:03:18.998Z</time></trkpt><trkpt lat="49.1791608194079" lon="2.4778917281374957"><ele>66.0</ele><time>2026-04-01T15:03:20.998Z</time></trkpt><trkpt lat="49.179088953364165" lon="2.4778506644477205"><ele>66.0</ele><time>2026-04-01T15:03:22.998Z</time></trkpt><trkpt lat="49.17902814071203" lon="2.477801776911419"><ele>66.0</ele><time>2026-04-01T15:03:24.998Z</time></trkpt><trkpt lat="49.17896081244255" lon="2.4777473982412888"><ele>66.0</ele><time>2026-04-01T15:03:26.998Z</time></trkpt><trkpt lat="49.17890276252185" lon="2.477707146859102"><ele>66.0</ele><time>2026-04-01T15:03:28.998Z</time></trkpt><trkpt lat="49.178833603749695" lon="2.4776539642728244"><ele>66.0</ele><time>2026-04-01T15:03:30.997Z</time></trkpt><trkpt lat="49.178756209656285" lon="2.4776231174905328"><ele>66.0</ele><time>2026-04-01T15:03:32.997Z</time></trkpt><trkpt lat="49.178689483870535" lon="2.4775859460051994"><ele>66.0</ele><time>2026-04-01T15:03:34.997Z</time></trkpt><trkpt lat="49.1786315130287" lon="2.4774960428725787"><ele>66.0</ele><time>2026-04-01T15:03:36.997Z</time></trkpt><trkpt lat="49.178588613374" lon="2.4773770703627926"><ele>66.0</ele><time>2026-04-01T15:03:39.997Z</time></trkpt><trkpt lat="49.17852663760163" lon="2.4773354911842675"><ele>66.0</ele><time>2026-04-01T15:03:41.997Z</time></trkpt><trkpt lat="49.178448468664904" lon="2.4773207336100045"><ele>66.0</ele><time>2026-04-01T15:03:43.997Z</time></trkpt><trkpt lat="49.178384802324985" lon="2.477301936865178"><ele>66.0</ele><time>2026-04-01T15:03:45.997Z</time></trkpt><trkpt lat="49.178299187300205" lon="2.4772460262519305"><ele>66.0</ele><time>2026-04-01T15:03:48.997Z</time></trkpt><trkpt lat="49.17822086063842" lon="2.477239740834747"><ele>66.0</ele><time>2026-04-01T15:03:51Z</time></trkpt><trkpt lat="49.178135881893716" lon="2.477251999557971"><ele>65.83333333333333</ele><time>2026-04-01T15:03:54Z</time></trkpt><trkpt lat="49.17806174400329" lon="2.477246169628961"><ele>65.66666666666667</ele><time>2026-04-01T15:03:56Z</time></trkpt><trkpt lat="49.177966106396475" lon="2.4771987375320363"><ele>65.5</ele><time>2026-04-01T15:03:59Z</time></trkpt><trkpt lat="49.17789933411387" lon="2.477134440257115"><ele>65.33333333333334</ele><time>2026-04-01T15:04:01Z</time></trkpt><trkpt lat="49.17782457338947" lon="2.477106966075017"><ele>65.16666666666667</ele><time>2026-04-01T15:04:03Z</time></trkpt><trkpt lat="49.17774955644465" lon="2.4770624982924807"><ele>65.0</ele><time>2026-04-01T15:04:05Z</time></trkpt><trkpt lat="49.177680081196144" lon="2.476987674936621"><ele>65.0</ele><time>2026-04-01T15:04:07Z</time></trkpt><trkpt lat="49.17761659202575" lon="2.4769788651903673"><ele>65.0</ele><time>2026-04-01T15:04:09Z</time></trkpt><trkpt lat="49.177553052011945" lon="2.4769126510073334"><ele>65.0</ele><time>2026-04-01T15:04:11Z</time></trkpt><trkpt lat="49.177478764480945" lon="2.476856947925071"><ele>65.0</ele><time>2026-04-01T15:04:13Z</time></trkpt><trkpt lat="49.17739532507587" lon="2.476813738362766"><ele>65.0</ele><time>2026-04-01T15:04:15Z</time></trkpt><trkpt lat="49.17731638511564" lon="2.4767860188954005"><ele>65.0</ele><time>2026-04-01T15:04:17Z</time></trkpt><trkpt lat="49.17723827738567" lon="2.4767455841109496"><ele>65.0</ele><time>2026-04-01T15:04:19Z</time></trkpt><trkpt lat="49.177162825851944" lon="2.476741166138424"><ele>65.0</ele><time>2026-04-01T15:04:20.999Z</time></trkpt><trkpt lat="49.1770866888774" lon="2.4766828452267426"><ele>65.0</ele><time>2026-04-01T15:04:22.999Z</time></trkpt><trkpt lat="49.17702292951613" lon="2.4766252357627923"><ele>65.0</ele><time>2026-04-01T15:04:24.999Z</time></trkpt><trkpt lat="49.176968831753406" lon="2.476558387868218"><ele>65.0</ele><time>2026-04-01T15:04:26.999Z</time></trkpt><trkpt lat="49.176898749405204" lon="2.4764874843260722"><ele>65.0</ele><time>2026-04-01T15:04:28.999Z</time></trkpt><trkpt lat="49.17684675319205" lon="2.476379097342061"><ele>65.0</ele><time>2026-04-01T15:04:30.999Z</time></trkpt><trkpt lat="49.17678094233891" lon="2.4763329015634747"><ele>65.0</ele><time>2026-04-01T15:04:32.999Z</time></trkpt><trkpt lat="49.17670802724564" lon="2.476321353616187"><ele>65.0</ele><time>2026-04-01T15:04:34.999Z</time></trkpt><trkpt lat="49.176629381880474" lon="2.476295702309442"><ele>65.0</ele><time>2026-04-01T15:04:36.999Z</time></trkpt><trkpt lat="49.17654312262734" lon="2.4762738475092316"><ele>65.0</ele><time>2026-04-01T15:04:38.999Z</time></trkpt><trkpt lat="49.1764713081738" lon="2.476247222752407"><ele>65.0</ele><time>2026-04-01T15:04:40.999Z</time></trkpt><trkpt lat="49.17638738132212" lon="2.476248579735698"><ele>65.0</ele><time>2026-04-01T15:04:42.999Z</time></trkpt><trkpt lat="49.176300388209896" lon="2.476233307575097"><ele>65.0</ele><time>2026-04-01T15:04:44.999Z</time></trkpt><trkpt lat="49.17622833056645" lon="2.476186594536577"><ele>65.0</ele><time>2026-04-01T15:04:46.999Z</time></trkpt><trkpt lat="49.17615447415111" lon="2.4761377542219374"><ele>65.0</ele><time>2026-04-01T15:04:48.999Z</time></trkpt><trkpt lat="49.176090516508054" lon="2.47608212706413"><ele>65.0</ele><time>2026-04-01T15:04:50.999Z</time></trkpt><trkpt lat="49.176002214661956" lon="2.476040272438579"><ele>65.0</ele><time>2026-04-01T15:04:52.999Z</time></trkpt><trkpt lat="49.17592909495654" lon="2.47601946784943"><ele>65.0</ele><time>2026-04-01T15:04:54.999Z</time></trkpt><trkpt lat="49.17585360373768" lon="2.4759737538770312"><ele>65.0</ele><time>2026-04-01T15:04:56.999Z</time></trkpt><trkpt lat="49.17577830686792" lon="2.475909050637818"><ele>65.0</ele><time>2026-04-01T15:04:58.998Z</time></trkpt><trkpt lat="49.17571287452734" lon="2.47586929947291"><ele>65.0</ele><time>2026-04-01T15:05:00.998Z</time></trkpt><trkpt lat="49.175635865953154" lon="2.475817178728947"><ele>65.0</ele><time>2026-04-01T15:05:02.998Z</time></trkpt><trkpt lat="49.17557256185748" lon="2.475737560533401"><ele>65.0</ele><time>2026-04-01T15:05:04.998Z</time></trkpt><trkpt lat="49.175491883251645" lon="2.4757023554837323"><ele>65.16666666666667</ele><time>2026-04-01T15:05:06.998Z</time></trkpt><trkpt lat="49.175410438933966" lon="2.4756498867716115"><ele>65.33333333333334</ele><time>2026-04-01T15:05:08.998Z</time></trkpt><trkpt lat="49.17532915396135" lon="2.4756471713759214"><ele>65.5</ele><time>2026-04-01T15:05:10.998Z</time></trkpt><trkpt lat="49.17525197210879" lon="2.4756052056547735"><ele>65.66666666666667</ele><time>2026-04-01T15:05:12.998Z</time></trkpt><trkpt lat="49.175182618834086" lon="2.475552437688573"><ele>65.83333333333333</ele><time>2026-04-01T15:05:14.998Z</time></trkpt><trkpt lat="49.1750961766767" lon="2.475525457390283"><ele>66.0</ele><time>2026-04-01T15:05:16.998Z</time></trkpt><trkpt lat="49.17503237840319" lon="2.4754791556270166"><ele>65.83333333333333</ele><time>2026-04-01T15:05:18.998Z</time></trkpt><trkpt lat="49.17495733552891" lon="2.475425319420096"><ele>65.66666666666667</ele><time>2026-04-01T15:05:20.998Z</time></trkpt><trkpt lat="49.17489286532256" lon="2.475354401190031"><ele>65.5</ele><time>2026-04-01T15:05:22.998Z</time></trkpt><trkpt lat="49.174822520177564" lon="2.475316610325142"><ele>65.33333333333334</ele><time>2026-04-01T15:05:24.998Z</time></trkpt><trkpt lat="49.1747330467208" lon="2.475301257394472"><ele>65.16666666666667</ele><time>2026-04-01T15:05:26.998Z</time></trkpt><trkpt lat="49.17467096831543" lon="2.475265854737925"><ele>65.0</ele><time>2026-04-01T15:05:28.998Z</time></trkpt><trkpt lat="49.17460560621024" lon="2.475204635381073"><ele>65.5</ele><time>2026-04-01T15:05:30.998Z</time></trkpt><trkpt lat="49.174521939254205" lon="2.475173569741616"><ele>66.0</ele><time>2026-04-01T15:05:32.998Z</time></trkpt><trkpt lat="49.174446360773985" lon="2.475121268840566"><ele>66.5</ele><time>2026-04-01T15:05:34.998Z</time></trkpt><trkpt lat="49.17437268251032" lon="2.475079784001751"><ele>67.0</ele><time>2026-04-01T15:05:36.997Z</time></trkpt><trkpt lat="49.17430386003667" lon="2.4750400618275408"><ele>67.5</ele><time>2026-04-01T15:05:38.997Z</time></trkpt><trkpt lat="49.17422931608676" lon="2.4750241197832152"><ele>68.0</ele><time>2026-04-01T15:05:40.997Z</time></trkpt><trkpt lat="49.17416455847344" lon="2.474943027754839"><ele>68.0</ele><time>2026-04-01T15:05:42.997Z</time></trkpt><trkpt lat="49.17409719690182" lon="2.474912455953819"><ele>68.0</ele><time>2026-04-01T15:05:44.997Z</time></trkpt><trkpt lat="49.17403576736115" lon="2.4748365786772015"><ele>68.0</ele><time>2026-04-01T15:05:46.997Z</time></trkpt><trkpt lat="49.17398034929604" lon="2.4747675152076454"><ele>68.0</ele><time>2026-04-01T15:05:48.997Z</time></trkpt><trkpt lat="49.173909256141826" lon="2.474744020262826"><ele>68.0</ele><time>2026-04-01T15:05:50.997Z</time></trkpt><trkpt lat="49.173820912472515" lon="2.4747405356047296"><ele>68.0</ele><time>2026-04-01T15:05:52.997Z</time></trkpt><trkpt lat="49.17376656160752" lon="2.4746718589106362"><ele>68.16666666666667</ele><time>2026-04-01T15:05:54.997Z</time></trkpt><trkpt lat="49.173693162172846" lon="2.474652651898362"><ele>68.33333333333334</ele><time>2026-04-01T15:05:57Z</time></trkpt><trkpt lat="49.173620511302055" lon="2.474659702037955"><ele>68.5</ele><time>2026-04-01T15:05:59Z</time></trkpt><trkpt lat="49.17354294343391" lon="2.4745939230784075"><ele>68.66666666666667</ele><time>2026-04-01T15:06:01Z</time></trkpt><trkpt lat="49.17347405454583" lon="2.4745407615040587"><ele>68.83333333333333</ele><time>2026-04-01T15:06:03Z</time></trkpt><trkpt lat="49.173394166688986" lon="2.47449910470754"><ele>69.0</ele><time>2026-04-01T15:06:05Z</time></trkpt><trkpt lat="49.1733269572493" lon="2.4744499080969"><ele>69.0</ele><time>2026-04-01T15:06:07Z</time></trkpt><trkpt lat="49.173252516428555" lon="2.474405064533657"><ele>69.0</ele><time>2026-04-01T15:06:09Z</time></trkpt><trkpt lat="49.17318989787272" lon="2.4743598460084018"><ele>69.0</ele><time>2026-04-01T15:06:11Z</time></trkpt><trkpt lat="49.1731168576749" lon="2.474363900341287"><ele>69.0</ele><time>2026-04-01T15:06:13Z</time></trkpt><trkpt lat="49.17304189413849" lon="2.474331326702882"><ele>69.0</ele><time>2026-04-01T15:06:15Z</time></trkpt><trkpt lat="49.17297020758077" lon="2.474287189737667"><ele>69.0</ele><time>2026-04-01T15:06:17Z</time></trkpt><trkpt lat="49.17289429872874" lon="2.4742387076798615"><ele>69.42857142857143</ele><time>2026-04-01T15:06:20Z</time></trkpt><trkpt lat="49.17281448515642" lon="2.474202616648578"><ele>69.85714285714286</ele><time>2026-04-01T15:06:22Z</time></trkpt><trkpt lat="49.172742298764085" lon="2.4741749826382917"><ele>70.28571428571429</ele><time>2026-04-01T15:06:24Z</time></trkpt><trkpt lat="49.17268584255573" lon="2.4741262436909195"><ele>70.71428571428572</ele><time>2026-04-01T15:06:25.999Z</time></trkpt><trkpt lat="49.17263479408108" lon="2.4740688536352753"><ele>71.14285714285714</ele><time>2026-04-01T15:06:27.999Z</time></trkpt><trkpt lat="49.17256246254755" lon="2.4740492993285774"><ele>71.57142857142858</ele><time>2026-04-01T15:06:29.999Z</time></trkpt><trkpt lat="49.17251178193595" lon="2.4739785900130453"><ele>72.0</ele><time>2026-04-01T15:06:31.999Z</time></trkpt><trkpt lat="49.17243352765774" lon="2.4739162971191124"><ele>71.66666666666667</ele><time>2026-04-01T15:06:33.999Z</time></trkpt><trkpt lat="49.17233617582754" lon="2.4738807560235"><ele>71.33333333333333</ele><time>2026-04-01T15:06:36.999Z</time></trkpt><trkpt lat="49.17226745719504" lon="2.473844613060201"><ele>71.0</ele><time>2026-04-01T15:06:38.999Z</time></trkpt><trkpt lat="49.172176425912916" lon="2.4738147683272897"><ele>70.66666666666666</ele><time>2026-04-01T15:06:41.999Z</time></trkpt><trkpt lat="49.17210782357343" lon="2.4737662102105404"><ele>70.33333333333333</ele><time>2026-04-01T15:06:43.999Z</time></trkpt><trkpt lat="49.1720423346252" lon="2.473721236503169"><ele>70.0</ele><time>2026-04-01T15:06:45.999Z</time></trkpt><trkpt lat="49.1719714787249" lon="2.4736749686328197"><ele>70.0</ele><time>2026-04-01T15:06:47.999Z</time></trkpt><trkpt lat="49.17190032181309" lon="2.473658909398201"><ele>70.0</ele><time>2026-04-01T15:06:49.999Z</time></trkpt><trkpt lat="49.17182553758347" lon="2.4736397706025874"><ele>70.0</ele><time>2026-04-01T15:06:51.999Z</time></trkpt><trkpt lat="49.17173916261348" lon="2.4735919084239266"><ele>70.0</ele><time>2026-04-01T15:06:54.999Z</time></trkpt><trkpt lat="49.17167763176165" lon="2.473523752627046"><ele>70.0</ele><time>2026-04-01T15:06:56.999Z</time></trkpt><trkpt lat="49.17158710337293" lon="2.473464670331492"><ele>70.0</ele><time>2026-04-01T15:06:59.999Z</time></trkpt><trkpt lat="49.171518556887634" lon="2.4733994428314827"><ele>69.66666666666666</ele><time>2026-04-01T15:07:01.999Z</time></trkpt><trkpt lat="49.17145006364828" lon="2.4733502301699253"><ele>69.33333333333333</ele><time>2026-04-01T15:07:03.998Z</time></trkpt><trkpt lat="49.17137552548268" lon="2.473288853872357"><ele>69.0</ele><time>2026-04-01T15:07:05.998Z</time></trkpt><trkpt lat="49.17130958575972" lon="2.4732419436588655"><ele>68.66666666666667</ele><time>2026-04-01T15:07:07.998Z</time></trkpt><trkpt lat="49.171234502428064" lon="2.4731684708374"><ele>68.33333333333334</ele><time>2026-04-01T15:07:09.998Z</time></trkpt><trkpt lat="49.171177938500634" lon="2.473090132183143"><ele>68.0</ele><time>2026-04-01T15:07:11.998Z</time></trkpt><trkpt lat="49.171112866925526" lon="2.4731157998286046"><ele>68.0</ele><time>2026-04-01T15:07:13.998Z</time></trkpt><trkpt lat="49.17104407086222" lon="2.4730836709831396"><ele>68.0</ele><time>2026-04-01T15:07:15.998Z</time></trkpt><trkpt lat="49.17097133512071" lon="2.4731174115465415"><ele>68.0</ele><time>2026-04-01T15:07:18.998Z</time></trkpt><trkpt lat="49.17091141729083" lon="2.473065428499194"><ele>68.0</ele><time>2026-04-01T15:07:20.998Z</time></trkpt><trkpt lat="49.17083750873036" lon="2.47301762420159"><ele>68.0</ele><time>2026-04-01T15:07:22.998Z</time></trkpt><trkpt lat="49.17077090282401" lon="2.4729521368606155"><ele>68.0</ele><time>2026-04-01T15:07:24.998Z</time></trkpt><trkpt lat="49.17070511740198" lon="2.4728802555933966"><ele>68.42857142857142</ele><time>2026-04-01T15:07:26.998Z</time></trkpt><trkpt lat="49.170650157613075" lon="2.4728273227837216"><ele>68.85714285714286</ele><time>2026-04-01T15:07:28.998Z</time></trkpt><trkpt lat="49.17056888781366" lon="2.4728358573582896"><ele>69.28571428571428</ele><time>2026-04-01T15:07:30.998Z</time></trkpt><trkpt lat="49.17049634143715" lon="2.47278810438226"><ele>69.71428571428571</ele><time>2026-04-01T15:07:32.998Z</time></trkpt><trkpt lat="49.17043743435726" lon="2.4727409379330982"><ele>70.14285714285714</ele><time>2026-04-01T15:07:34.998Z</time></trkpt><trkpt lat="49.17035867928549" lon="2.4726954123227904"><ele>70.57142857142857</ele><time>2026-04-01T15:07:37.998Z</time></trkpt><trkpt lat="49.170298409605955" lon="2.4726624131152413"><ele>71.0</ele><time>2026-04-01T15:07:39.998Z</time></trkpt><trkpt lat="49.17023077089253" lon="2.4726511552590957"><ele>71.0</ele><time>2026-04-01T15:07:41.997Z</time></trkpt><trkpt lat="49.1701653189077" lon="2.472637747282483"><ele>71.0</ele><time>2026-04-01T15:07:43.997Z</time></trkpt><trkpt lat="49.17007324136478" lon="2.472597256231334"><ele>71.0</ele><time>2026-04-01T15:07:46.997Z</time></trkpt><trkpt lat="49.1700133938744" lon="2.4725423042453025"><ele>71.0</ele><time>2026-04-01T15:07:48.997Z</time></trkpt><trkpt lat="49.169939222229814" lon="2.472494143033943"><ele>71.0</ele><time>2026-04-01T15:07:50.997Z</time></trkpt><trkpt lat="49.16986720354993" lon="2.4724483224901688"><ele>71.0</ele><time>2026-04-01T15:07:52.997Z</time></trkpt><trkpt lat="49.16979977970503" lon="2.4724120441763398"><ele>71.57142857142857</ele><time>2026-04-01T15:07:54.997Z</time></trkpt><trkpt lat="49.16970909262141" lon="2.47237695703835"><ele>72.14285714285714</ele><time>2026-04-01T15:07:57.997Z</time></trkpt><trkpt lat="49.16964619373432" lon="2.472334786968169"><ele>72.71428571428571</ele><time>2026-04-01T15:07:59.997Z</time></trkpt><trkpt lat="49.16958308476005" lon="2.4722966015617485"><ele>73.28571428571428</ele><time>2026-04-01T15:08:02Z</time></trkpt><trkpt lat="49.169517643390535" lon="2.472270965728395"><ele>73.85714285714286</ele><time>2026-04-01T15:08:04Z</time></trkpt><trkpt lat="49.169459425122945" lon="2.4722225738803867"><ele>74.42857142857142</ele><time>2026-04-01T15:08:06Z</time></trkpt><trkpt lat="49.16939546270964" lon="2.472163162091998"><ele>75.0</ele><time>2026-04-01T15:08:08Z</time></trkpt><trkpt lat="49.16933082175018" lon="2.4721237333014265"><ele>75.0</ele><time>2026-04-01T15:08:10Z</time></trkpt><trkpt lat="49.16925212941471" lon="2.4717891128050296"><ele>75.0</ele><time>2026-04-01T15:08:12Z</time></trkpt><trkpt lat="49.16917554849507" lon="2.471794825660977"><ele>75.0</ele><time>2026-04-01T15:08:14Z</time></trkpt><trkpt lat="49.1691118559481" lon="2.471800329836866"><ele>75.0</ele><time>2026-04-01T15:08:16Z</time></trkpt><trkpt lat="49.16904112373211" lon="2.471806926414364"><ele>75.0</ele><time>2026-04-01T15:08:19Z</time></trkpt><trkpt lat="49.16895938851196" lon="2.471825894467972"><ele>74.99999999999999</ele><time>2026-04-01T15:08:22Z</time></trkpt><trkpt lat="49.168878707570684" lon="2.4718548960968896"><ele>75.0</ele><time>2026-04-01T15:08:24Z</time></trkpt><trkpt lat="49.1688190977715" lon="2.471887803137872"><ele>75.0</ele><time>2026-04-01T15:08:26Z</time></trkpt><trkpt lat="49.16876706519467" lon="2.471963459820115"><ele>75.0</ele><time>2026-04-01T15:08:29Z</time></trkpt><trkpt lat="49.168705375446564" lon="2.4719935999614866"><ele>75.0</ele><time>2026-04-01T15:08:41.999Z</time></trkpt><trkpt lat="49.16864387623115" lon="2.472019503430709"><ele>74.99999999999999</ele><time>2026-04-01T15:08:50.999Z</time></trkpt><trkpt lat="49.16857981527262" lon="2.4720719232745565"><ele>75.0</ele><time>2026-04-01T15:08:56.999Z</time></trkpt><trkpt lat="49.16852093623024" lon="2.4721124728630404"><ele>74.99999999999999</ele><time>2026-04-01T15:09:01.999Z</time></trkpt><trkpt lat="49.1684516306298" lon="2.472160498480693"><ele>75.0</ele><time>2026-04-01T15:09:08.998Z</time></trkpt><trkpt lat="49.16839187090371" lon="2.4722149183375746"><ele>75.0</ele><time>2026-04-01T15:12:06.997Z</time></trkpt><trkpt lat="49.16836488310455" lon="2.4723298481401716"><ele>75.0</ele><time>2026-04-01T15:12:15.001Z</time></trkpt><trkpt lat="49.16831461141613" lon="2.472418021210009"><ele>75.0</ele><time>2026-04-01T15:12:18.001Z</time></trkpt><trkpt lat="49.16827207807631" lon="2.472502850375389"><ele>74.99999999999999</ele><time>2026-04-01T15:12:21.001Z</time></trkpt><trkpt lat="49.16821613278163" lon="2.472584266209615"><ele>75.0</ele><time>2026-04-01T15:12:24.001Z</time></trkpt><trkpt lat="49.16817797085192" lon="2.4726619504979137"><ele>74.99999999999999</ele><time>2026-04-01T15:12:27.001Z</time></trkpt><trkpt lat="49.16812909448023" lon="2.4727337582013695"><ele>75.0</ele><time>2026-04-01T15:12:30Z</time></trkpt><trkpt lat="49.16809859004157" lon="2.472843844098869"><ele>75.0</ele><time>2026-04-01T15:12:33Z</time></trkpt><trkpt lat="49.1680309697154" lon="2.4728968407901406"><ele>75.0</ele><time>2026-04-01T15:12:41Z</time></trkpt><trkpt lat="49.167982585703186" lon="2.4729742053358628"><ele>75.0</ele><time>2026-04-01T15:12:45Z</time></trkpt><trkpt lat="49.16791891786898" lon="2.4730662322352672"><ele>74.99999999999999</ele><time>2026-04-01T15:12:47Z</time></trkpt><trkpt lat="49.16787082678507" lon="2.4731385567285424"><ele>75.0</ele><time>2026-04-01T15:12:50Z</time></trkpt><trkpt lat="49.16780953743467" lon="2.4731944636086762"><ele>74.99999999999999</ele><time>2026-04-01T15:12:52Z</time></trkpt><trkpt lat="49.16776392998049" lon="2.4732652618967195"><ele>75.0</ele><time>2026-04-01T15:12:54Z</time></trkpt><trkpt lat="49.16771438816633" lon="2.47334216761302"><ele>75.0</ele><time>2026-04-01T15:12:55.999Z</time></trkpt><trkpt lat="49.16766883453257" lon="2.4734147771298973"><ele>75.0</ele><time>2026-04-01T15:12:57.999Z</time></trkpt><trkpt lat="49.16761423954547" lon="2.4735060212435434"><ele>75.0</ele><time>2026-04-01T15:13:00.999Z</time></trkpt><trkpt lat="49.16757192864733" lon="2.473580843242559"><ele>74.99999999999999</ele><time>2026-04-01T15:13:02.999Z</time></trkpt><trkpt lat="49.16752664872591" lon="2.47366443042831"><ele>75.0</ele><time>2026-04-01T15:13:04.999Z</time></trkpt><trkpt lat="49.16747828993714" lon="2.473758664181343"><ele>74.66666666666667</ele><time>2026-04-01T15:13:06.999Z</time></trkpt><trkpt lat="49.167437363442545" lon="2.4738656562992336"><ele>74.33333333333333</ele><time>2026-04-01T15:13:08.999Z</time></trkpt><trkpt lat="49.16738887297894" lon="2.4739541285629723"><ele>74.0</ele><time>2026-04-01T15:13:11.999Z</time></trkpt><trkpt lat="49.16733379689457" lon="2.474050525105868"><ele>73.66666666666666</ele><time>2026-04-01T15:13:13.999Z</time></trkpt><trkpt lat="49.167286735566" lon="2.4741366197919104"><ele>73.33333333333333</ele><time>2026-04-01T15:13:15.999Z</time></trkpt><trkpt lat="49.167236164232285" lon="2.4742222116682138"><ele>73.0</ele><time>2026-04-01T15:13:17.999Z</time></trkpt><trkpt lat="49.16716439757363" lon="2.47429997653292"><ele>72.5</ele><time>2026-04-01T15:13:19.999Z</time></trkpt><trkpt lat="49.1671090971487" lon="2.4743928281402665"><ele>72.0</ele><time>2026-04-01T15:13:21.999Z</time></trkpt><trkpt lat="49.16705336637797" lon="2.4744901510339106"><ele>71.5</ele><time>2026-04-01T15:13:23.999Z</time></trkpt><trkpt lat="49.167001964022376" lon="2.474579915320937"><ele>71.0</ele><time>2026-04-01T15:13:25.999Z</time></trkpt><trkpt lat="49.166949544805455" lon="2.4746714552806752"><ele>70.5</ele><time>2026-04-01T15:13:27.999Z</time></trkpt><trkpt lat="49.166896262069955" lon="2.474764503361929"><ele>70.0</ele><time>2026-04-01T15:13:29.998Z</time></trkpt><trkpt lat="49.166843599210836" lon="2.474856468684104"><ele>69.66666666666666</ele><time>2026-04-01T15:13:31.998Z</time></trkpt><trkpt lat="49.166791857140126" lon="2.474947556386901"><ele>69.33333333333333</ele><time>2026-04-01T15:13:33.998Z</time></trkpt><trkpt lat="49.16674063289978" lon="2.475037756055548"><ele>69.0</ele><time>2026-04-01T15:13:35.998Z</time></trkpt><trkpt lat="49.16669048937542" lon="2.475125849351711"><ele>68.66666666666667</ele><time>2026-04-01T15:13:37.998Z</time></trkpt><trkpt lat="49.16664061476907" lon="2.4752121725416796"><ele>68.33333333333334</ele><time>2026-04-01T15:13:39.998Z</time></trkpt><trkpt lat="49.166601034030776" lon="2.475318393208541"><ele>68.0</ele><time>2026-04-01T15:13:41.998Z</time></trkpt><trkpt lat="49.1665404942035" lon="2.4753854619109017"><ele>68.5</ele><time>2026-04-01T15:13:43.998Z</time></trkpt><trkpt lat="49.16649045730419" lon="2.475472066100805"><ele>69.0</ele><time>2026-04-01T15:13:45.998Z</time></trkpt><trkpt lat="49.16644065662725" lon="2.475558261557107"><ele>69.5</ele><time>2026-04-01T15:13:47.998Z</time></trkpt><trkpt lat="49.166394096480225" lon="2.4756388156847833"><ele>70.0</ele><time>2026-04-01T15:13:49.998Z</time></trkpt><trkpt lat="49.166344249280186" lon="2.475725644346897"><ele>70.5</ele><time>2026-04-01T15:13:51.998Z</time></trkpt><trkpt lat="49.16629426981221" lon="2.4758127026586343"><ele>71.0</ele><time>2026-04-01T15:13:53.998Z</time></trkpt><trkpt lat="49.166240935528585" lon="2.4759057401004645"><ele>71.0</ele><time>2026-04-01T15:13:55.998Z</time></trkpt><trkpt lat="49.16618753279366" lon="2.4759990636827496"><ele>71.0</ele><time>2026-04-01T15:13:57.998Z</time></trkpt><trkpt lat="49.16613362924503" lon="2.4760932620467733"><ele>71.0</ele><time>2026-04-01T15:13:59.998Z</time></trkpt><trkpt lat="49.166081392977404" lon="2.4761843462648603"><ele>71.0</ele><time>2026-04-01T15:14:01.998Z</time></trkpt><trkpt lat="49.16602918431945" lon="2.476274612138387"><ele>71.0</ele><time>2026-04-01T15:14:03.998Z</time></trkpt><trkpt lat="49.165975391536946" lon="2.476367572641597"><ele>71.0</ele><time>2026-04-01T15:14:05.997Z</time></trkpt><trkpt lat="49.16592581015796" lon="2.476452523491881"><ele>70.83333333333334</ele><time>2026-04-01T15:14:07.997Z</time></trkpt><trkpt lat="49.165879138204986" lon="2.476532488286345"><ele>70.66666666666667</ele><time>2026-04-01T15:14:09.997Z</time></trkpt><trkpt lat="49.165828510817455" lon="2.476619229868525"><ele>70.5</ele><time>2026-04-01T15:14:11.997Z</time></trkpt><trkpt lat="49.16577171099509" lon="2.476716546951635"><ele>70.33333333333333</ele><time>2026-04-01T15:14:13.997Z</time></trkpt><trkpt lat="49.165720614713386" lon="2.4768040921654566"><ele>70.16666666666666</ele><time>2026-04-01T15:14:15.997Z</time></trkpt><trkpt lat="49.165669390959174" lon="2.476891855486981"><ele>70.0</ele><time>2026-04-01T15:14:17.997Z</time></trkpt><trkpt lat="49.165614586537544" lon="2.4769857537035462"><ele>70.33333333333333</ele><time>2026-04-01T15:14:20Z</time></trkpt><trkpt lat="49.16556193011366" lon="2.47707597186064"><ele>70.66666666666666</ele><time>2026-04-01T15:14:22Z</time></trkpt><trkpt lat="49.1655088533372" lon="2.4771669102064795"><ele>71.0</ele><time>2026-04-01T15:14:24Z</time></trkpt><trkpt lat="49.1654564745481" lon="2.4772571812147657"><ele>71.33333333333333</ele><time>2026-04-01T15:14:26Z</time></trkpt><trkpt lat="49.16540560273331" lon="2.477344996508307"><ele>71.66666666666667</ele><time>2026-04-01T15:14:28Z</time></trkpt><trkpt lat="49.1653534352221" lon="2.477435048347183"><ele>72.0</ele><time>2026-04-01T15:14:30Z</time></trkpt><trkpt lat="49.165299639793965" lon="2.477527910252978"><ele>72.0</ele><time>2026-04-01T15:14:32Z</time></trkpt><trkpt lat="49.16524493721882" lon="2.4776225469687376"><ele>72.0</ele><time>2026-04-01T15:14:34Z</time></trkpt><trkpt lat="49.16518881062881" lon="2.4777202658613895"><ele>72.0</ele><time>2026-04-01T15:14:36Z</time></trkpt><trkpt lat="49.16513375023196" lon="2.4778161285636378"><ele>72.0</ele><time>2026-04-01T15:14:38Z</time></trkpt><trkpt lat="49.16507826633135" lon="2.477912728473286"><ele>72.0</ele><time>2026-04-01T15:14:40Z</time></trkpt><trkpt lat="49.165026690202524" lon="2.4780291216002728"><ele>72.0</ele><time>2026-04-01T15:14:42Z</time></trkpt><trkpt lat="49.164961015159086" lon="2.4781168680345456"><ele>72.2</ele><time>2026-04-01T15:14:44Z</time></trkpt><trkpt lat="49.164901634405766" lon="2.4782191738978847"><ele>72.4</ele><time>2026-04-01T15:14:46Z</time></trkpt><trkpt lat="49.16484187379988" lon="2.478322005444653"><ele>72.6</ele><time>2026-04-01T15:14:48Z</time></trkpt><trkpt lat="49.164779580841746" lon="2.4784291944508174"><ele>72.8</ele><time>2026-04-01T15:14:50Z</time></trkpt><trkpt lat="49.164716947539866" lon="2.4785369690357912"><ele>73.0</ele><time>2026-04-01T15:14:52Z</time></trkpt><trkpt lat="49.164652845718535" lon="2.4786481980652733"><ele>72.2</ele><time>2026-04-01T15:14:54Z</time></trkpt><trkpt lat="49.16459240005284" lon="2.478753534657937"><ele>71.4</ele><time>2026-04-01T15:14:56Z</time></trkpt><trkpt lat="49.16453064273281" lon="2.4788614953134585"><ele>70.60000000000001</ele><time>2026-04-01T15:14:58Z</time></trkpt><trkpt lat="49.16446993294412" lon="2.4789677475537246"><ele>69.8</ele><time>2026-04-01T15:14:59.999Z</time></trkpt><trkpt lat="49.16440658818843" lon="2.479078679167195"><ele>69.0</ele><time>2026-04-01T15:15:01.999Z</time></trkpt><trkpt lat="49.16435561991317" lon="2.4792058695402126"><ele>69.0</ele><time>2026-04-01T15:15:03.999Z</time></trkpt><trkpt lat="49.164292415552886" lon="2.47931678074062"><ele>69.0</ele><time>2026-04-01T15:15:05.999Z</time></trkpt><trkpt lat="49.1642202968137" lon="2.479403593771774"><ele>69.0</ele><time>2026-04-01T15:15:07.999Z</time></trkpt><trkpt lat="49.16416001616718" lon="2.479506326292712"><ele>69.0</ele><time>2026-04-01T15:15:09.999Z</time></trkpt><trkpt lat="49.16409668797468" lon="2.4796139947257214"><ele>69.0</ele><time>2026-04-01T15:15:11.999Z</time></trkpt><trkpt lat="49.164035029913414" lon="2.479718175380469"><ele>69.60000000000001</ele><time>2026-04-01T15:15:13.999Z</time></trkpt><trkpt lat="49.16397271116388" lon="2.479824743935982"><ele>70.2</ele><time>2026-04-01T15:15:15.999Z</time></trkpt><trkpt lat="49.163907942710914" lon="2.4799355019878773"><ele>70.80000000000001</ele><time>2026-04-01T15:15:17.999Z</time></trkpt><trkpt lat="49.16385363457783" lon="2.4800557538595633"><ele>71.4</ele><time>2026-04-01T15:15:19.999Z</time></trkpt><trkpt lat="49.16379073725314" lon="2.480174378380098"><ele>72.0</ele><time>2026-04-01T15:15:21.999Z</time></trkpt><trkpt lat="49.1637131151291" lon="2.4802700032321487"><ele>72.0</ele><time>2026-04-01T15:15:23.999Z</time></trkpt><trkpt lat="49.163647841781945" lon="2.4803833240829407"><ele>72.0</ele><time>2026-04-01T15:15:25.999Z</time></trkpt><trkpt lat="49.163585671986944" lon="2.4804913213612805"><ele>72.0</ele><time>2026-04-01T15:15:27.999Z</time></trkpt><trkpt lat="49.163517113152494" lon="2.4806104144913506"><ele>72.0</ele><time>2026-04-01T15:15:29.999Z</time></trkpt><trkpt lat="49.16346064707742" lon="2.4807324364927235"><ele>72.0</ele><time>2026-04-01T15:15:31.998Z</time></trkpt><trkpt lat="49.16339605892826" lon="2.4808496702801257"><ele>71.8</ele><time>2026-04-01T15:15:33.998Z</time></trkpt><trkpt lat="49.163330515038176" lon="2.480969219598026"><ele>71.6</ele><time>2026-04-01T15:15:35.998Z</time></trkpt><trkpt lat="49.1632627901195" lon="2.481085001825508"><ele>71.39999999999999</ele><time>2026-04-01T15:15:37.998Z</time></trkpt><trkpt lat="49.163196305495134" lon="2.481204033978365"><ele>71.2</ele><time>2026-04-01T15:15:39.998Z</time></trkpt><trkpt lat="49.163128741583186" lon="2.481318884823589"><ele>71.0</ele><time>2026-04-01T15:15:41.998Z</time></trkpt><trkpt lat="49.163056436600115" lon="2.481438161669999"><ele>71.39999999999999</ele><time>2026-04-01T15:15:43.998Z</time></trkpt><trkpt lat="49.1629802781479" lon="2.4815418266384155"><ele>71.8</ele><time>2026-04-01T15:15:45.998Z</time></trkpt><trkpt lat="49.162912820657425" lon="2.481659120032616"><ele>72.19999999999999</ele><time>2026-04-01T15:15:47.998Z</time></trkpt><trkpt lat="49.162838841120426" lon="2.4817877537504223"><ele>72.6</ele><time>2026-04-01T15:15:49.998Z</time></trkpt><trkpt lat="49.162759165032675" lon="2.481926292425852"><ele>73.0</ele><time>2026-04-01T15:15:51.998Z</time></trkpt><trkpt lat="49.16271475147885" lon="2.482004599707296"><ele>72.4</ele><time>2026-04-01T15:15:52.998Z</time></trkpt><trkpt lat="49.16267824421742" lon="2.4821004323964333"><ele>71.8</ele><time>2026-04-01T15:15:53.998Z</time></trkpt><trkpt lat="49.16262919395483" lon="2.482200569198479"><ele>71.2</ele><time>2026-04-01T15:15:55.998Z</time></trkpt><trkpt lat="49.16255997768944" lon="2.4823286553072967"><ele>70.6</ele><time>2026-04-01T15:15:57.998Z</time></trkpt><trkpt lat="49.16248963013515" lon="2.4824574976663953"><ele>70.0</ele><time>2026-04-01T15:15:59.998Z</time></trkpt><trkpt lat="49.16242612626891" lon="2.4825689717207866"><ele>70.5</ele><time>2026-04-01T15:16:01.998Z</time></trkpt><trkpt lat="49.1623364151473" lon="2.4826810146335974"><ele>71.0</ele><time>2026-04-01T15:16:03.998Z</time></trkpt><trkpt lat="49.16225400895667" lon="2.482807809476407"><ele>71.5</ele><time>2026-04-01T15:16:05.997Z</time></trkpt><trkpt lat="49.16217504297593" lon="2.48293187625286"><ele>72.0</ele><time>2026-04-01T15:16:07.997Z</time></trkpt><trkpt lat="49.16209962829039" lon="2.4830575439861655"><ele>72.0</ele><time>2026-04-01T15:16:09.997Z</time></trkpt><trkpt lat="49.162021860783796" lon="2.4831871323499186"><ele>72.0</ele><time>2026-04-01T15:16:11.997Z</time></trkpt><trkpt lat="49.16194550890021" lon="2.4833141217601096"><ele>72.0</ele><time>2026-04-01T15:16:13.997Z</time></trkpt><trkpt lat="49.161864635518874" lon="2.483448373639567"><ele>72.0</ele><time>2026-04-01T15:16:15.997Z</time></trkpt><trkpt lat="49.161786332203675" lon="2.483578359136141"><ele>72.0</ele><time>2026-04-01T15:16:17.997Z</time></trkpt><trkpt lat="49.16171010220507" lon="2.483710358226322"><ele>72.0</ele><time>2026-04-01T15:16:19.997Z</time></trkpt><trkpt lat="49.16163899289122" lon="2.483838826425246"><ele>72.0</ele><time>2026-04-01T15:16:21.997Z</time></trkpt><trkpt lat="49.1615805658794" lon="2.483982013821732"><ele>72.0</ele><time>2026-04-01T15:16:23.997Z</time></trkpt><trkpt lat="49.161502278028905" lon="2.4841114774059077"><ele>71.8</ele><time>2026-04-01T15:16:26Z</time></trkpt><trkpt lat="49.161417021236794" lon="2.4842223481093635"><ele>71.6</ele><time>2026-04-01T15:16:28Z</time></trkpt><trkpt lat="49.16134771320351" lon="2.4843381609939166"><ele>71.39999999999999</ele><time>2026-04-01T15:16:30Z</time></trkpt><trkpt lat="49.161268989214" lon="2.4844697237094273"><ele>71.2</ele><time>2026-04-01T15:16:32Z</time></trkpt><trkpt lat="49.16120220446316" lon="2.4846071071830838"><ele>71.0</ele><time>2026-04-01T15:16:34Z</time></trkpt><trkpt lat="49.16113354622903" lon="2.484735108037084"><ele>70.6</ele><time>2026-04-01T15:16:36Z</time></trkpt><trkpt lat="49.16106219082079" lon="2.4848553186600593"><ele>70.19999999999999</ele><time>2026-04-01T15:16:38Z</time></trkpt><trkpt lat="49.16099125721495" lon="2.4849837829718924"><ele>69.80000000000001</ele><time>2026-04-01T15:16:40Z</time></trkpt><trkpt lat="49.160924778631305" lon="2.4851053241999947"><ele>69.4</ele><time>2026-04-01T15:16:42Z</time></trkpt><trkpt lat="49.160852390302196" lon="2.4852266371442386"><ele>69.0</ele><time>2026-04-01T15:16:44Z</time></trkpt><trkpt lat="49.16078225834973" lon="2.4853578328004815"><ele>68.8</ele><time>2026-04-01T15:16:46Z</time></trkpt><trkpt lat="49.160712106302725" lon="2.4854884709733707"><ele>68.60000000000001</ele><time>2026-04-01T15:16:48Z</time></trkpt><trkpt lat="49.160672743175944" lon="2.48556601132566"><ele>68.4</ele><time>2026-04-01T15:16:49Z</time></trkpt><trkpt lat="49.160596515337325" lon="2.4856889693989537"><ele>68.2</ele><time>2026-04-01T15:16:51Z</time></trkpt><trkpt lat="49.1605561790382" lon="2.485763476259362"><ele>68.0</ele><time>2026-04-01T15:16:52Z</time></trkpt><trkpt lat="49.16047866915685" lon="2.4858998811671436"><ele>67.83333333333334</ele><time>2026-04-01T15:16:54Z</time></trkpt><trkpt lat="49.16040115761096" lon="2.486036623188503"><ele>67.66666666666667</ele><time>2026-04-01T15:16:56Z</time></trkpt><trkpt lat="49.160346264175864" lon="2.486094135359388"><ele>67.5</ele><time>2026-04-01T15:16:57Z</time></trkpt><trkpt lat="49.16027508187081" lon="2.48625014601407"><ele>67.33333333333333</ele><time>2026-04-01T15:16:59Z</time></trkpt><trkpt lat="49.16022232404478" lon="2.4863091731085123"><ele>67.16666666666666</ele><time>2026-04-01T15:16:59.999Z</time></trkpt><trkpt lat="49.16017764597002" lon="2.486387444930657"><ele>67.0</ele><time>2026-04-01T15:17:00.999Z</time></trkpt><trkpt lat="49.16013671726965" lon="2.486462172047588"><ele>66.5</ele><time>2026-04-01T15:17:01.999Z</time></trkpt><trkpt lat="49.160063359220004" lon="2.486610040077851"><ele>66.0</ele><time>2026-04-01T15:17:03.999Z</time></trkpt><trkpt lat="49.159987420674405" lon="2.486759372563857"><ele>65.5</ele><time>2026-04-01T15:17:05.999Z</time></trkpt><trkpt lat="49.15991560467654" lon="2.4868951561051134"><ele>65.0</ele><time>2026-04-01T15:17:07.999Z</time></trkpt><trkpt lat="49.15983429484637" lon="2.487004470073341"><ele>64.0</ele><time>2026-04-01T15:17:09.999Z</time></trkpt><trkpt lat="49.159768940909345" lon="2.4870700697109096"><ele>63.0</ele><time>2026-04-01T15:17:12.999Z</time></trkpt><trkpt lat="49.15973486301968" lon="2.487185142791541"><ele>62.0</ele><time>2026-04-01T15:17:15.999Z</time></trkpt><trkpt lat="49.159666751915694" lon="2.4872239647953314"><ele>61.0</ele><time>2026-04-01T15:17:17.999Z</time></trkpt><trkpt lat="49.15963126694449" lon="2.4873633872486907"><ele>60.00000000000001</ele><time>2026-04-01T15:17:19.999Z</time></trkpt><trkpt lat="49.15958108387315" lon="2.487463687828395"><ele>59.0</ele><time>2026-04-01T15:17:21.999Z</time></trkpt><trkpt lat="49.15952824442896" lon="2.4875628221445556"><ele>59.00000000000001</ele><time>2026-04-01T15:17:23.999Z</time></trkpt><trkpt lat="49.15946361884153" lon="2.487638262748166"><ele>59.0</ele><time>2026-04-01T15:17:25.999Z</time></trkpt><trkpt lat="49.15941901563891" lon="2.4877454930425604"><ele>59.0</ele><time>2026-04-01T15:17:27.999Z</time></trkpt><trkpt lat="49.1593460324309" lon="2.4878311626059224"><ele>59.0</ele><time>2026-04-01T15:17:29.999Z</time></trkpt><trkpt lat="49.15926760476316" lon="2.4879429082012483"><ele>59.00000000000001</ele><time>2026-04-01T15:17:31.998Z</time></trkpt><trkpt lat="49.15921863013719" lon="2.4880310264216225"><ele>59.0</ele><time>2026-04-01T15:17:33.998Z</time></trkpt><trkpt lat="49.15916681230447" lon="2.4881099401230697"><ele>59.800000000000004</ele><time>2026-04-01T15:17:35.998Z</time></trkpt><trkpt lat="49.15910549196534" lon="2.488202170438094"><ele>60.60000000000001</ele><time>2026-04-01T15:17:37.998Z</time></trkpt><trkpt lat="49.15905032055393" lon="2.4883188803893574"><ele>61.4</ele><time>2026-04-01T15:17:39.998Z</time></trkpt><trkpt lat="49.158979062137355" lon="2.488415219805281"><ele>62.2</ele><time>2026-04-01T15:17:41.998Z</time></trkpt><trkpt lat="49.158918105878826" lon="2.4885122934094754"><ele>63.0</ele><time>2026-04-01T15:17:43.998Z</time></trkpt><trkpt lat="49.15885425565611" lon="2.4886050458014344"><ele>62.166666666666664</ele><time>2026-04-01T15:17:45.998Z</time></trkpt><trkpt lat="49.158797546932334" lon="2.4887010776709633"><ele>61.33333333333333</ele><time>2026-04-01T15:17:47.998Z</time></trkpt><trkpt lat="49.15873456374156" lon="2.4887946086169332"><ele>60.5</ele><time>2026-04-01T15:17:49.998Z</time></trkpt><trkpt lat="49.15867877230244" lon="2.4888817844800473"><ele>59.666666666666664</ele><time>2026-04-01T15:17:51.998Z</time></trkpt><trkpt lat="49.15861690444005" lon="2.4889723878764896"><ele>58.83333333333333</ele><time>2026-04-01T15:17:53.998Z</time></trkpt><trkpt lat="49.15855424745874" lon="2.4890647968292017"><ele>58.0</ele><time>2026-04-01T15:17:55.998Z</time></trkpt><trkpt lat="49.15849760698787" lon="2.489156237153299"><ele>57.99999999999999</ele><time>2026-04-01T15:17:57.998Z</time></trkpt><trkpt lat="49.15843963830059" lon="2.489253030649137"><ele>58.0</ele><time>2026-04-01T15:17:59.998Z</time></trkpt><trkpt lat="49.158375572413" lon="2.4893403558512834"><ele>58.0</ele><time>2026-04-01T15:18:01.998Z</time></trkpt><trkpt lat="49.1583195401021" lon="2.4894325029834117"><ele>58.0</ele><time>2026-04-01T15:18:03.998Z</time></trkpt><trkpt lat="49.15825998853209" lon="2.4895176076015546"><ele>57.99999999999999</ele><time>2026-04-01T15:18:05.997Z</time></trkpt><trkpt lat="49.15820629797647" lon="2.489595218157754"><ele>58.0</ele><time>2026-04-01T15:18:07.997Z</time></trkpt><trkpt lat="49.15813698000065" lon="2.489675782238725"><ele>56.666666666666664</ele><time>2026-04-01T15:18:09.997Z</time></trkpt><trkpt lat="49.158103259502774" lon="2.4898077180921225"><ele>55.33333333333333</ele><time>2026-04-01T15:18:11.997Z</time></trkpt><trkpt lat="49.15807804364851" lon="2.489927740353728"><ele>54.0</ele><time>2026-04-01T15:18:13.997Z</time></trkpt><trkpt lat="49.15806948120432" lon="2.4900515583344647"><ele>52.66666666666667</ele><time>2026-04-01T15:18:15.997Z</time></trkpt><trkpt lat="49.15807589487446" lon="2.4901786528594783"><ele>51.333333333333336</ele><time>2026-04-01T15:18:17.997Z</time></trkpt><trkpt lat="49.15806860927189" lon="2.4902845492023755"><ele>50.0</ele><time>2026-04-01T15:18:19.997Z</time></trkpt><trkpt lat="49.158095287859176" lon="2.4904095861864586"><ele>50.0</ele><time>2026-04-01T15:18:21.997Z</time></trkpt><trkpt lat="49.158103371569304" lon="2.4905629086638648"><ele>50.0</ele><time>2026-04-01T15:18:23.997Z</time></trkpt><trkpt lat="49.15812121207631" lon="2.4907057237086"><ele>50.0</ele><time>2026-04-01T15:18:25.997Z</time></trkpt><trkpt lat="49.15813114971341" lon="2.490844477777505"><ele>50.0</ele><time>2026-04-01T15:18:27.997Z</time></trkpt><trkpt lat="49.15813843829489" lon="2.4909768118185673"><ele>50.0</ele><time>2026-04-01T15:18:29.997Z</time></trkpt><trkpt lat="49.158155697393674" lon="2.4911119939390707"><ele>50.00000000000001</ele><time>2026-04-01T15:18:32Z</time></trkpt><trkpt lat="49.15816697774426" lon="2.4912362539830464"><ele>50.0</ele><time>2026-04-01T15:18:34Z</time></trkpt><trkpt lat="49.158180242859125" lon="2.4913638676333427"><ele>50.0</ele><time>2026-04-01T15:18:36Z</time></trkpt><trkpt lat="49.158196202053176" lon="2.4914951308450908"><ele>50.0</ele><time>2026-04-01T15:18:38Z</time></trkpt><trkpt lat="49.15820598880136" lon="2.491613712933969"><ele>50.00000000000001</ele><time>2026-04-01T15:18:40Z</time></trkpt><trkpt lat="49.1582182260136" lon="2.491749372580219"><ele>50.0</ele><time>2026-04-01T15:18:42Z</time></trkpt><trkpt lat="49.15822779623419" lon="2.491890687887575"><ele>51.2</ele><time>2026-04-01T15:18:44Z</time></trkpt><trkpt lat="49.15824025193767" lon="2.4920455069793124"><ele>52.4</ele><time>2026-04-01T15:18:46Z</time></trkpt><trkpt lat="49.158255823246414" lon="2.492201233615325"><ele>53.599999999999994</ele><time>2026-04-01T15:18:48Z</time></trkpt><trkpt lat="49.158269762274784" lon="2.492368473621143"><ele>54.8</ele><time>2026-04-01T15:18:50Z</time></trkpt><trkpt lat="49.15829278202531" lon="2.4925327658078724"><ele>56.0</ele><time>2026-04-01T15:18:52Z</time></trkpt><trkpt lat="49.1583062078258" lon="2.492626958092182"><ele>56.0</ele><time>2026-04-01T15:18:53Z</time></trkpt><trkpt lat="49.158318185665685" lon="2.492802145826785"><ele>55.99999999999999</ele><time>2026-04-01T15:18:55Z</time></trkpt><trkpt lat="49.15833071192091" lon="2.4928983636588624"><ele>55.99999999999999</ele><time>2026-04-01T15:18:56Z</time></trkpt><trkpt lat="49.158348078418676" lon="2.493071317796211"><ele>56.0</ele><time>2026-04-01T15:18:58Z</time></trkpt><trkpt lat="49.158365976337514" lon="2.493246420412218"><ele>56.0</ele><time>2026-04-01T15:18:59.999Z</time></trkpt><trkpt lat="49.1583861200594" lon="2.4934116226536873"><ele>56.0</ele><time>2026-04-01T15:19:01.999Z</time></trkpt><trkpt lat="49.15840160018093" lon="2.4935828671790508"><ele>55.99999999999999</ele><time>2026-04-01T15:19:03.999Z</time></trkpt><trkpt lat="49.158424133752604" lon="2.493756231512292"><ele>55.99999999999999</ele><time>2026-04-01T15:19:05.999Z</time></trkpt><trkpt lat="49.1584379769701" lon="2.4939169524575635"><ele>56.0</ele><time>2026-04-01T15:19:07.999Z</time></trkpt><trkpt lat="49.15845419186943" lon="2.494075352535286"><ele>56.0</ele><time>2026-04-01T15:19:09.999Z</time></trkpt><trkpt lat="49.15847720638193" lon="2.4942439208711242"><ele>55.8</ele><time>2026-04-01T15:19:11.999Z</time></trkpt><trkpt lat="49.15848900414082" lon="2.4944015717001204"><ele>55.599999999999994</ele><time>2026-04-01T15:19:13.999Z</time></trkpt><trkpt lat="49.1585034742985" lon="2.4945614326085095"><ele>55.4</ele><time>2026-04-01T15:19:15.999Z</time></trkpt><trkpt lat="49.158518337246385" lon="2.4947110550890783"><ele>55.2</ele><time>2026-04-01T15:19:17.999Z</time></trkpt><trkpt lat="49.158534479397844" lon="2.4948630816776958"><ele>55.0</ele><time>2026-04-01T15:19:19.999Z</time></trkpt><trkpt lat="49.15854250538439" lon="2.495015194559898"><ele>55.0</ele><time>2026-04-01T15:19:21.999Z</time></trkpt><trkpt lat="49.15854432458486" lon="2.495169433471503"><ele>55.0</ele><time>2026-04-01T15:19:23.999Z</time></trkpt><trkpt lat="49.15856211633446" lon="2.4953174886412026"><ele>55.0</ele><time>2026-04-01T15:19:25.999Z</time></trkpt><trkpt lat="49.15856347778758" lon="2.4954740734119096"><ele>55.0</ele><time>2026-04-01T15:19:27.999Z</time></trkpt><trkpt lat="49.158542098374355" lon="2.495625626947796"><ele>55.0</ele><time>2026-04-01T15:19:29.999Z</time></trkpt><trkpt lat="49.15854880596179" lon="2.495784696767681"><ele>55.6</ele><time>2026-04-01T15:19:31.998Z</time></trkpt><trkpt lat="49.15853935248255" lon="2.4959347378532604"><ele>56.2</ele><time>2026-04-01T15:19:33.998Z</time></trkpt><trkpt lat="49.15851306222474" lon="2.4960860006497425"><ele>56.8</ele><time>2026-04-01T15:19:35.998Z</time></trkpt><trkpt lat="49.15851379594754" lon="2.496210442089179"><ele>57.4</ele><time>2026-04-01T15:19:37.998Z</time></trkpt><trkpt lat="49.15850475754418" lon="2.4963306434597907"><ele>58.0</ele><time>2026-04-01T15:19:39.998Z</time></trkpt><trkpt lat="49.15849444135946" lon="2.4965125738357337"><ele>58.166666666666664</ele><time>2026-04-01T15:19:41.998Z</time></trkpt><trkpt lat="49.15847783163569" lon="2.4966367682648953"><ele>58.33333333333333</ele><time>2026-04-01T15:19:43.998Z</time></trkpt><trkpt lat="49.15847333244136" lon="2.496760581093152"><ele>58.5</ele><time>2026-04-01T15:19:45.998Z</time></trkpt><trkpt lat="49.15846237912171" lon="2.496893397087773"><ele>58.66666666666667</ele><time>2026-04-01T15:19:47.998Z</time></trkpt><trkpt lat="49.15844959738966" lon="2.4970374655570255"><ele>58.833333333333336</ele><time>2026-04-01T15:19:49.998Z</time></trkpt><trkpt lat="49.15843836064605" lon="2.4971847518796024"><ele>59.0</ele><time>2026-04-01T15:19:51.998Z</time></trkpt><trkpt lat="49.158425210134766" lon="2.497342195160505"><ele>58.400000000000006</ele><time>2026-04-01T15:19:53.998Z</time></trkpt><trkpt lat="49.15839758476809" lon="2.4974995788908037"><ele>57.800000000000004</ele><time>2026-04-01T15:19:55.998Z</time></trkpt><trkpt lat="49.15838357327586" lon="2.4976660797739436"><ele>57.199999999999996</ele><time>2026-04-01T15:19:57.998Z</time></trkpt><trkpt lat="49.15837087116062" lon="2.4978186556138824"><ele>56.599999999999994</ele><time>2026-04-01T15:19:59.998Z</time></trkpt><trkpt lat="49.15835681514163" lon="2.4979820926861884"><ele>56.0</ele><time>2026-04-01T15:20:01.998Z</time></trkpt><trkpt lat="49.15835389968801" lon="2.4981478585542667"><ele>55.599999999999994</ele><time>2026-04-01T15:20:03.997Z</time></trkpt><trkpt lat="49.15832707897867" lon="2.4983235306959224"><ele>55.199999999999996</ele><time>2026-04-01T15:20:05.997Z</time></trkpt><trkpt lat="49.158317915797596" lon="2.4985044369140943"><ele>54.800000000000004</ele><time>2026-04-01T15:20:07.997Z</time></trkpt><trkpt lat="49.15831581130044" lon="2.4986911068252593"><ele>54.400000000000006</ele><time>2026-04-01T15:20:09.997Z</time></trkpt><trkpt lat="49.15832251862617" lon="2.498794786417776"><ele>54.0</ele><time>2026-04-01T15:20:10.997Z</time></trkpt><trkpt lat="49.15831658994554" lon="2.498891431412855"><ele>54.0</ele><time>2026-04-01T15:20:11.997Z</time></trkpt><trkpt lat="49.15833221397897" lon="2.499085159316041"><ele>54.0</ele><time>2026-04-01T15:20:13.997Z</time></trkpt><trkpt lat="49.158326125200304" lon="2.499272083322666"><ele>54.0</ele><time>2026-04-01T15:20:15.997Z</time></trkpt><trkpt lat="49.158323908457646" lon="2.4994484307842604"><ele>54.0</ele><time>2026-04-01T15:20:17.997Z</time></trkpt><trkpt lat="49.15832560766356" lon="2.4996069098290246"><ele>54.25</ele><time>2026-04-01T15:20:19.997Z</time></trkpt><trkpt lat="49.158326284820085" lon="2.4997859131777345"><ele>54.5</ele><time>2026-04-01T15:20:21.997Z</time></trkpt><trkpt lat="49.15832899386669" lon="2.4999534210838457"><ele>54.75</ele><time>2026-04-01T15:20:23.997Z</time></trkpt><trkpt lat="49.158318081294986" lon="2.500126229157053"><ele>55.0</ele><time>2026-04-01T15:20:25.997Z</time></trkpt><trkpt lat="49.15832720713266" lon="2.5003074143913433"><ele>54.4</ele><time>2026-04-01T15:20:27.997Z</time></trkpt><trkpt lat="49.15831432964073" lon="2.500470991197171"><ele>53.8</ele><time>2026-04-01T15:20:29.997Z</time></trkpt><trkpt lat="49.158320851173215" lon="2.5005726211499066"><ele>53.2</ele><time>2026-04-01T15:20:30.997Z</time></trkpt><trkpt lat="49.15832710414312" lon="2.500671430287289"><ele>52.6</ele><time>2026-04-01T15:20:31.997Z</time></trkpt><trkpt lat="49.15832597201383" lon="2.500847686491382"><ele>52.0</ele><time>2026-04-01T15:20:33.997Z</time></trkpt><trkpt lat="49.15831289173544" lon="2.501017846810398"><ele>52.0</ele><time>2026-04-01T15:20:35.997Z</time></trkpt><trkpt lat="49.15831048993483" lon="2.5011540368670793"><ele>52.0</ele><time>2026-04-01T15:20:38Z</time></trkpt><trkpt lat="49.15831491787999" lon="2.5013941052261095"><ele>52.0</ele><time>2026-04-01T15:20:40Z</time></trkpt><trkpt lat="49.15832660125569" lon="2.501538668681099"><ele>52.0</ele><time>2026-04-01T15:20:42Z</time></trkpt><trkpt lat="49.15825460089431" lon="2.5014830430862998"><ele>52.0</ele><time>2026-04-01T15:20:45Z</time></trkpt><trkpt lat="49.158196854161424" lon="2.5014375376905584"><ele>51.49999999999999</ele><time>2026-04-01T15:20:46Z</time></trkpt><trkpt lat="49.15813839414971" lon="2.5013901269133467"><ele>51.0</ele><time>2026-04-01T15:20:47Z</time></trkpt><trkpt lat="49.15807099765787" lon="2.5013271804342256"><ele>50.5</ele><time>2026-04-01T15:20:48Z</time></trkpt><trkpt lat="49.1580028424163" lon="2.501264254609425"><ele>50.0</ele><time>2026-04-01T15:20:49Z</time></trkpt><trkpt lat="49.15793424382873" lon="2.50120112747524"><ele>49.49999999999999</ele><time>2026-04-01T15:20:50Z</time></trkpt><trkpt lat="49.15786206022914" lon="2.501135341982725"><ele>49.0</ele><time>2026-04-01T15:20:51Z</time></trkpt><trkpt lat="49.1577889746267" lon="2.5010684610624434"><ele>48.99999999999999</ele><time>2026-04-01T15:20:52Z</time></trkpt><trkpt lat="49.1577209946027" lon="2.5010062217768985"><ele>49.0</ele><time>2026-04-01T15:20:53Z</time></trkpt><trkpt lat="49.15765410469542" lon="2.500944888695517"><ele>49.0</ele><time>2026-04-01T15:20:54Z</time></trkpt><trkpt lat="49.15758473455236" lon="2.5008812642612854"><ele>49.0</ele><time>2026-04-01T15:20:55Z</time></trkpt><trkpt lat="49.157517702714294" lon="2.5008200381951813"><ele>48.99999999999999</ele><time>2026-04-01T15:20:56Z</time></trkpt><trkpt lat="49.157454355349564" lon="2.500762214308733"><ele>49.0</ele><time>2026-04-01T15:20:57Z</time></trkpt><trkpt lat="49.157387597036404" lon="2.500701608977315"><ele>50.83333333333333</ele><time>2026-04-01T15:20:58Z</time></trkpt><trkpt lat="49.15732361675067" lon="2.5006435257027295"><ele>52.666666666666664</ele><time>2026-04-01T15:20:58.999Z</time></trkpt><trkpt lat="49.15726094431176" lon="2.5005866373695427"><ele>54.5</ele><time>2026-04-01T15:20:59.999Z</time></trkpt><trkpt lat="49.15719650404008" lon="2.500528194081901"><ele>56.33333333333333</ele><time>2026-04-01T15:21:00.999Z</time></trkpt><trkpt lat="49.15713818721277" lon="2.5004753045449917"><ele>58.166666666666664</ele><time>2026-04-01T15:21:01.999Z</time></trkpt><trkpt lat="49.15707914118619" lon="2.5004217535060462"><ele>60.0</ele><time>2026-04-01T15:21:02.999Z</time></trkpt><trkpt lat="49.156975764695275" lon="2.5003281175363354"><ele>60.166666666666664</ele><time>2026-04-01T15:21:04.999Z</time></trkpt><trkpt lat="49.156899452999724" lon="2.5002601608161394"><ele>60.33333333333333</ele><time>2026-04-01T15:21:06.999Z</time></trkpt><trkpt lat="49.15682446209815" lon="2.5001920403463296"><ele>60.5</ele><time>2026-04-01T15:21:09.999Z</time></trkpt><trkpt lat="49.15675527383902" lon="2.5001302830825747"><ele>60.666666666666664</ele><time>2026-04-01T15:21:12.999Z</time></trkpt><trkpt lat="49.15669262772969" lon="2.5000738735547787"><ele>60.83333333333333</ele><time>2026-04-01T15:21:15.999Z</time></trkpt><trkpt lat="49.15662566197776" lon="2.500034402566421"><ele>61.0</ele><time>2026-04-01T15:21:18.999Z</time></trkpt><trkpt lat="49.156554408182565" lon="2.5000180700415378"><ele>61.71428571428571</ele><time>2026-04-01T15:21:21.999Z</time></trkpt><trkpt lat="49.15651538943558" lon="2.499939768827712"><ele>62.42857142857143</ele><time>2026-04-01T15:21:24.999Z</time></trkpt><trkpt lat="49.15645099799961" lon="2.4998901744445914"><ele>63.14285714285714</ele><time>2026-04-01T15:21:28.999Z</time></trkpt><trkpt lat="49.15637343346529" lon="2.499862810290691"><ele>63.857142857142854</ele><time>2026-04-01T15:21:32.998Z</time></trkpt><trkpt lat="49.15632444208787" lon="2.499795767749663"><ele>64.57142857142857</ele><time>2026-04-01T15:21:36.998Z</time></trkpt><trkpt lat="49.15626047735452" lon="2.4997502626401658"><ele>65.28571428571428</ele><time>2026-04-01T15:21:40.998Z</time></trkpt><trkpt lat="49.156205302686516" lon="2.499700704835701"><ele>66.0</ele><time>2026-04-01T15:21:49.998Z</time></trkpt><trkpt lat="49.15613891238575" lon="2.4997311637474673"><ele>66.0</ele><time>2026-04-01T15:31:37.999Z</time></trkpt><trkpt lat="49.156067200318205" lon="2.499793384190986"><ele>66.0</ele><time>2026-04-01T15:31:41.999Z</time></trkpt><trkpt lat="49.156000584613274" lon="2.499833499113681"><ele>66.0</ele><time>2026-04-01T15:31:44.999Z</time></trkpt><trkpt lat="49.155922031244366" lon="2.499886684257033"><ele>66.0</ele><time>2026-04-01T15:31:48.999Z</time></trkpt><trkpt lat="49.15585685669183" lon="2.4999248918180372"><ele>66.0</ele><time>2026-04-01T15:31:51.999Z</time></trkpt><trkpt lat="49.155785498199414" lon="2.499966410429399"><ele>66.0</ele><time>2026-04-01T15:31:55.998Z</time></trkpt><trkpt lat="49.15570737628598" lon="2.50000386598296"><ele>65.83333333333333</ele><time>2026-04-01T15:31:59.998Z</time></trkpt><trkpt lat="49.1556276683772" lon="2.50005333092726"><ele>65.66666666666667</ele><time>2026-04-01T15:32:03.998Z</time></trkpt><trkpt lat="49.15556149142909" lon="2.5000886822214756"><ele>65.5</ele><time>2026-04-01T15:32:06.998Z</time></trkpt><trkpt lat="49.155499472263614" lon="2.5001273989086985"><ele>65.33333333333334</ele><time>2026-04-01T15:32:09.998Z</time></trkpt><trkpt lat="49.155419066342304" lon="2.5001829723549753"><ele>65.16666666666667</ele><time>2026-04-01T15:32:13.998Z</time></trkpt><trkpt lat="49.15534244397554" lon="2.5002257495499576"><ele>65.0</ele><time>2026-04-01T15:32:17.998Z</time></trkpt><trkpt lat="49.155277572201626" lon="2.5002739330657477"><ele>65.00000000000001</ele><time>2026-04-01T15:32:20.998Z</time></trkpt><trkpt lat="49.15521558909758" lon="2.5003108038602035"><ele>65.0</ele><time>2026-04-01T15:32:23.998Z</time></trkpt><trkpt lat="49.15515282509463" lon="2.5003467792868457"><ele>65.0</ele><time>2026-04-01T15:32:26.998Z</time></trkpt><trkpt lat="49.155084249240026" lon="2.5003845206571436"><ele>65.0</ele><time>2026-04-01T15:32:29.997Z</time></trkpt><trkpt lat="49.155018458070174" lon="2.500426838851506"><ele>65.0</ele><time>2026-04-01T15:32:32.997Z</time></trkpt><trkpt lat="49.15494961398194" lon="2.5004709348324146"><ele>65.00000000000001</ele><time>2026-04-01T15:32:35.997Z</time></trkpt><trkpt lat="49.15488318859591" lon="2.500507866373963"><ele>65.0</ele><time>2026-04-01T15:32:38.997Z</time></trkpt><trkpt lat="49.15480920628367" lon="2.5005457458589393"><ele>65.33333333333334</ele><time>2026-04-01T15:32:41.997Z</time></trkpt><trkpt lat="49.15474120332109" lon="2.500587033552067"><ele>65.66666666666667</ele><time>2026-04-01T15:32:44.997Z</time></trkpt><trkpt lat="49.154656756516474" lon="2.500638748788134"><ele>66.0</ele><time>2026-04-01T15:32:47.997Z</time></trkpt><trkpt lat="49.15458183752408" lon="2.500674206098508"><ele>66.33333333333333</ele><time>2026-04-01T15:32:50.997Z</time></trkpt><trkpt lat="49.15450782167405" lon="2.5007231163346804"><ele>66.66666666666666</ele><time>2026-04-01T15:32:53.997Z</time></trkpt><trkpt lat="49.15444731547298" lon="2.5007551115108746"><ele>67.0</ele><time>2026-04-01T15:32:55.997Z</time></trkpt><trkpt lat="49.15436520513966" lon="2.5008071331685575"><ele>67.0</ele><time>2026-04-01T15:32:58.997Z</time></trkpt><trkpt lat="49.154305878784115" lon="2.50086383705891"><ele>67.0</ele><time>2026-04-01T15:33:01.997Z</time></trkpt><trkpt lat="49.154242242062715" lon="2.5009011171949695"><ele>67.0</ele><time>2026-04-01T15:33:03.997Z</time></trkpt><trkpt lat="49.15417489351461" lon="2.5009311795427833"><ele>67.0</ele><time>2026-04-01T15:33:05.996Z</time></trkpt><trkpt lat="49.15409329785382" lon="2.5009739171353447"><ele>67.0</ele><time>2026-04-01T15:33:08.996Z</time></trkpt><trkpt lat="49.15403400839362" lon="2.5010106888838233"><ele>67.0</ele><time>2026-04-01T15:33:10.996Z</time></trkpt><trkpt lat="49.15394968879706" lon="2.5010586966061803"><ele>67.0</ele><time>2026-04-01T15:33:13.999Z</time></trkpt><trkpt lat="49.15386203309665" lon="2.5011259743425485"><ele>67.0</ele><time>2026-04-01T15:33:16.999Z</time></trkpt><trkpt lat="49.15379941284842" lon="2.501160697268887"><ele>67.0</ele><time>2026-04-01T15:33:18.999Z</time></trkpt><trkpt lat="49.15371904609426" lon="2.501198666421925"><ele>67.0</ele><time>2026-04-01T15:33:20.999Z</time></trkpt><trkpt lat="49.15365624760887" lon="2.501255998435912"><ele>67.0</ele><time>2026-04-01T15:33:22.999Z</time></trkpt><trkpt lat="49.15357912229487" lon="2.5012919730016367"><ele>67.0</ele><time>2026-04-01T15:33:24.999Z</time></trkpt><trkpt lat="49.15351140327887" lon="2.501341887700911"><ele>67.0</ele><time>2026-04-01T15:33:26.999Z</time></trkpt><trkpt lat="49.15344674169569" lon="2.5013705061155536"><ele>67.0</ele><time>2026-04-01T15:33:28.999Z</time></trkpt><trkpt lat="49.15338078348907" lon="2.5014056713402173"><ele>67.0</ele><time>2026-04-01T15:33:30.999Z</time></trkpt><trkpt lat="49.15331606732981" lon="2.5014584610742165"><ele>67.0</ele><time>2026-04-01T15:33:32.999Z</time></trkpt><trkpt lat="49.15324602170518" lon="2.501493203195997"><ele>67.0</ele><time>2026-04-01T15:33:34.999Z</time></trkpt><trkpt lat="49.153177826275105" lon="2.5015190950228074"><ele>67.0</ele><time>2026-04-01T15:33:36.999Z</time></trkpt><trkpt lat="49.153107466156875" lon="2.5015570445176056"><ele>67.0</ele><time>2026-04-01T15:33:38.999Z</time></trkpt><trkpt lat="49.153026957683664" lon="2.501633810568745"><ele>67.0</ele><time>2026-04-01T15:33:40.999Z</time></trkpt><trkpt lat="49.15293920763867" lon="2.501670668342906"><ele>67.0</ele><time>2026-04-01T15:33:42.999Z</time></trkpt><trkpt lat="49.152844954554716" lon="2.5017126093375435"><ele>67.0</ele><time>2026-04-01T15:33:44.999Z</time></trkpt><trkpt lat="49.152749492991404" lon="2.501779741897666"><ele>67.0</ele><time>2026-04-01T15:33:46.999Z</time></trkpt><trkpt lat="49.152636105446376" lon="2.5018499220006336"><ele>67.0</ele><time>2026-04-01T15:33:48.999Z</time></trkpt><trkpt lat="49.15255206172536" lon="2.501890854832317"><ele>67.0</ele><time>2026-04-01T15:33:50.999Z</time></trkpt><trkpt lat="49.1524542082752" lon="2.501951303992796"><ele>67.0</ele><time>2026-04-01T15:33:52.999Z</time></trkpt><trkpt lat="49.15237530703039" lon="2.5019922550668983"><ele>67.0</ele><time>2026-04-01T15:33:54.999Z</time></trkpt><trkpt lat="49.152281971480264" lon="2.5020575739856947"><ele>67.0</ele><time>2026-04-01T15:33:56.999Z</time></trkpt><trkpt lat="49.15220560601172" lon="2.5021069985678293"><ele>67.0</ele><time>2026-04-01T15:33:58.999Z</time></trkpt><trkpt lat="49.15212752719994" lon="2.502162416442624"><ele>67.0</ele><time>2026-04-01T15:34:00.998Z</time></trkpt><trkpt lat="49.15203254076945" lon="2.5022092586280524"><ele>66.83333333333333</ele><time>2026-04-01T15:34:02.998Z</time></trkpt><trkpt lat="49.15196654328815" lon="2.502266083752887"><ele>66.66666666666666</ele><time>2026-04-01T15:34:04.998Z</time></trkpt><trkpt lat="49.15188750206432" lon="2.5023052036356503"><ele>66.5</ele><time>2026-04-01T15:34:06.998Z</time></trkpt><trkpt lat="49.15182565416813" lon="2.5023483852845603"><ele>66.33333333333333</ele><time>2026-04-01T15:34:08.998Z</time></trkpt><trkpt lat="49.151750234810116" lon="2.502399595647355"><ele>66.16666666666667</ele><time>2026-04-01T15:34:11.998Z</time></trkpt><trkpt lat="49.15167843694097" lon="2.5024304570860756"><ele>66.0</ele><time>2026-04-01T15:34:13.998Z</time></trkpt><trkpt lat="49.151613734955696" lon="2.502469780246677"><ele>66.0</ele><time>2026-04-01T15:34:15.998Z</time></trkpt><trkpt lat="49.151550894406576" lon="2.5025042954505787"><ele>66.0</ele><time>2026-04-01T15:34:17.998Z</time></trkpt><trkpt lat="49.15148751171682" lon="2.5025509485168174"><ele>66.0</ele><time>2026-04-01T15:34:19.998Z</time></trkpt><trkpt lat="49.151419799817866" lon="2.502584077217914"><ele>66.0</ele><time>2026-04-01T15:34:21.998Z</time></trkpt><trkpt lat="49.151357683558665" lon="2.5026199492350516"><ele>66.0</ele><time>2026-04-01T15:34:23.998Z</time></trkpt><trkpt lat="49.15128491268377" lon="2.5026624541505385"><ele>66.0</ele><time>2026-04-01T15:34:25.998Z</time></trkpt><trkpt lat="49.15119651504156" lon="2.5027075285396605"><ele>66.0</ele><time>2026-04-01T15:34:28.998Z</time></trkpt><trkpt lat="49.15113136439805" lon="2.5027496659425124"><ele>66.5</ele><time>2026-04-01T15:34:30.998Z</time></trkpt><trkpt lat="49.151068171366646" lon="2.5027852587497965"><ele>67.0</ele><time>2026-04-01T15:34:32.998Z</time></trkpt><trkpt lat="49.15100290584731" lon="2.502825414660769"><ele>67.5</ele><time>2026-04-01T15:34:34.997Z</time></trkpt><trkpt lat="49.15091232718442" lon="2.502873581368472"><ele>68.0</ele><time>2026-04-01T15:34:37.997Z</time></trkpt><trkpt lat="49.15084681815723" lon="2.5029254983602627"><ele>68.5</ele><time>2026-04-01T15:34:39.997Z</time></trkpt><trkpt lat="49.150779261016815" lon="2.502962765897237"><ele>69.0</ele><time>2026-04-01T15:34:41.997Z</time></trkpt><trkpt lat="49.15068174814731" lon="2.503013556561339"><ele>69.16666666666667</ele><time>2026-04-01T15:34:44.997Z</time></trkpt><trkpt lat="49.150620391181704" lon="2.5030430896038434"><ele>69.33333333333333</ele><time>2026-04-01T15:34:46.997Z</time></trkpt><trkpt lat="49.150550824688516" lon="2.503102963629289"><ele>69.5</ele><time>2026-04-01T15:34:48.997Z</time></trkpt><trkpt lat="49.15048103893068" lon="2.5031394310950135"><ele>69.66666666666666</ele><time>2026-04-01T15:34:50.997Z</time></trkpt><trkpt lat="49.150405286684055" lon="2.503189659335925"><ele>69.83333333333333</ele><time>2026-04-01T15:34:52.997Z</time></trkpt><trkpt lat="49.150324363372526" lon="2.503213414090635"><ele>70.0</ele><time>2026-04-01T15:34:54.997Z</time></trkpt><trkpt lat="49.150221988089314" lon="2.5032409779633698"><ele>70.0</ele><time>2026-04-01T15:34:56.997Z</time></trkpt><trkpt lat="49.15016957344596" lon="2.503336027698978"><ele>70.0</ele><time>2026-04-01T15:34:58.997Z</time></trkpt><trkpt lat="49.150104365089035" lon="2.503385847506833"><ele>70.0</ele><time>2026-04-01T15:35:00.997Z</time></trkpt><trkpt lat="49.150030436278286" lon="2.5034173602668495"><ele>70.0</ele><time>2026-04-01T15:35:02.997Z</time></trkpt><trkpt lat="49.149963506668364" lon="2.503452761444549"><ele>70.0</ele><time>2026-04-01T15:35:04.997Z</time></trkpt><trkpt lat="49.14989283624214" lon="2.503500312433102"><ele>70.0</ele><time>2026-04-01T15:35:06.997Z</time></trkpt><trkpt lat="49.14983362883113" lon="2.503545125629013"><ele>70.0</ele><time>2026-04-01T15:35:08.997Z</time></trkpt><trkpt lat="49.14975722274151" lon="2.5035874767695576"><ele>70.16666666666666</ele><time>2026-04-01T15:35:10.996Z</time></trkpt><trkpt lat="49.149668994423216" lon="2.503625650342199"><ele>70.33333333333333</ele><time>2026-04-01T15:35:12.996Z</time></trkpt><trkpt lat="49.14959856718534" lon="2.5036793634438346"><ele>70.5</ele><time>2026-04-01T15:35:14.996Z</time></trkpt><trkpt lat="49.14952228308969" lon="2.503707887797842"><ele>70.66666666666667</ele><time>2026-04-01T15:35:16.996Z</time></trkpt><trkpt lat="49.149456627295194" lon="2.503754973403793"><ele>70.83333333333334</ele><time>2026-04-01T15:35:18.999Z</time></trkpt><trkpt lat="49.149387152929236" lon="2.5038054391861784"><ele>71.0</ele><time>2026-04-01T15:35:20.999Z</time></trkpt><trkpt lat="49.14931088870987" lon="2.503857694020033"><ele>70.66666666666667</ele><time>2026-04-01T15:35:22.999Z</time></trkpt><trkpt lat="49.14923403730752" lon="2.5039086484977586"><ele>70.33333333333334</ele><time>2026-04-01T15:35:24.999Z</time></trkpt><trkpt lat="49.149168394105935" lon="2.503942139233718"><ele>70.0</ele><time>2026-04-01T15:35:26.999Z</time></trkpt><trkpt lat="49.14910009726889" lon="2.503974106340282"><ele>69.66666666666667</ele><time>2026-04-01T15:35:28.999Z</time></trkpt><trkpt lat="49.149028114805624" lon="2.5040068859049534"><ele>69.33333333333333</ele><time>2026-04-01T15:35:30.999Z</time></trkpt><trkpt lat="49.14895654575308" lon="2.5040673354500442"><ele>69.0</ele><time>2026-04-01T15:35:32.999Z</time></trkpt><trkpt lat="49.14887447864461" lon="2.504108631629542"><ele>68.83333333333333</ele><time>2026-04-01T15:35:34.999Z</time></trkpt><trkpt lat="49.148811587209586" lon="2.504149533136711"><ele>68.66666666666667</ele><time>2026-04-01T15:35:36.999Z</time></trkpt><trkpt lat="49.14873108959673" lon="2.504195126549783"><ele>68.5</ele><time>2026-04-01T15:35:38.999Z</time></trkpt><trkpt lat="49.14865138718049" lon="2.5042475266901563"><ele>68.33333333333334</ele><time>2026-04-01T15:35:40.999Z</time></trkpt><trkpt lat="49.148603979152966" lon="2.504354513958686"><ele>68.16666666666667</ele><time>2026-04-01T15:35:42.999Z</time></trkpt><trkpt lat="49.14850137863445" lon="2.504340444285783"><ele>68.0</ele><time>2026-04-01T15:35:45.999Z</time></trkpt><trkpt lat="49.1484253774574" lon="2.504286484795603"><ele>68.0</ele><time>2026-04-01T15:35:47.999Z</time></trkpt><trkpt lat="49.14835203061867" lon="2.504224182867342"><ele>68.0</ele><time>2026-04-01T15:35:49.999Z</time></trkpt><trkpt lat="49.14827468933727" lon="2.504161692083694"><ele>68.0</ele><time>2026-04-01T15:35:51.999Z</time></trkpt><trkpt lat="49.148198751536356" lon="2.504097154078575"><ele>68.0</ele><time>2026-04-01T15:35:53.999Z</time></trkpt><trkpt lat="49.148121639513775" lon="2.504030905482934"><ele>68.0</ele><time>2026-04-01T15:35:55.999Z</time></trkpt><trkpt lat="49.14804447133261" lon="2.503963536919439"><ele>68.0</ele><time>2026-04-01T15:35:57.999Z</time></trkpt><trkpt lat="49.14796662470926" lon="2.503893499893226"><ele>67.66666666666667</ele><time>2026-04-01T15:35:59.999Z</time></trkpt><trkpt lat="49.147885647838905" lon="2.503830810203487"><ele>67.33333333333334</ele><time>2026-04-01T15:36:01.999Z</time></trkpt><trkpt lat="49.14780901860385" lon="2.5037629416459697"><ele>67.0</ele><time>2026-04-01T15:36:03.999Z</time></trkpt><trkpt lat="49.147742322392524" lon="2.503675194230921"><ele>66.66666666666667</ele><time>2026-04-01T15:36:05.998Z</time></trkpt><trkpt lat="49.147668076916894" lon="2.5036073176432287"><ele>66.33333333333333</ele><time>2026-04-01T15:36:07.998Z</time></trkpt><trkpt lat="49.14759236125887" lon="2.503539921215631"><ele>66.0</ele><time>2026-04-01T15:36:09.998Z</time></trkpt><trkpt lat="49.147514035416144" lon="2.5034703935383487"><ele>66.0</ele><time>2026-04-01T15:36:11.998Z</time></trkpt><trkpt lat="49.14743428035638" lon="2.5034010441961136"><ele>66.0</ele><time>2026-04-01T15:36:13.998Z</time></trkpt><trkpt lat="49.14735563735379" lon="2.5033326617747163"><ele>66.0</ele><time>2026-04-01T15:36:15.998Z</time></trkpt><trkpt lat="49.14727860075412" lon="2.503265670614045"><ele>66.0</ele><time>2026-04-01T15:36:17.998Z</time></trkpt><trkpt lat="49.1472024860042" lon="2.5031983993155515"><ele>66.0</ele><time>2026-04-01T15:36:19.998Z</time></trkpt><trkpt lat="49.147125653633125" lon="2.503130493751584"><ele>66.0</ele><time>2026-04-01T15:36:21.998Z</time></trkpt><trkpt lat="49.14704889935054" lon="2.5030626572547376"><ele>65.6</ele><time>2026-04-01T15:36:23.998Z</time></trkpt><trkpt lat="49.14697118124423" lon="2.5029939689111305"><ele>65.19999999999999</ele><time>2026-04-01T15:36:25.998Z</time></trkpt><trkpt lat="49.14689304848118" lon="2.502924914061987"><ele>64.80000000000001</ele><time>2026-04-01T15:36:27.998Z</time></trkpt><trkpt lat="49.14681448869479" lon="2.5028554818114097"><ele>64.4</ele><time>2026-04-01T15:36:29.998Z</time></trkpt><trkpt lat="49.14673356240314" lon="2.5027844090939717"><ele>64.0</ele><time>2026-04-01T15:36:31.998Z</time></trkpt><trkpt lat="49.14665777246972" lon="2.5027181641420553"><ele>63.99999999999999</ele><time>2026-04-01T15:36:33.998Z</time></trkpt><trkpt lat="49.14658058010383" lon="2.502651931904791"><ele>64.0</ele><time>2026-04-01T15:36:35.998Z</time></trkpt><trkpt lat="49.14650694950764" lon="2.502589884100177"><ele>64.0</ele><time>2026-04-01T15:36:37.998Z</time></trkpt><trkpt lat="49.146435379714696" lon="2.5025292327854047"><ele>64.0</ele><time>2026-04-01T15:36:39.998Z</time></trkpt><trkpt lat="49.14636348185703" lon="2.5024636707567924"><ele>63.99999999999999</ele><time>2026-04-01T15:36:41.997Z</time></trkpt><trkpt lat="49.14629699866537" lon="2.5024030462378977"><ele>64.0</ele><time>2026-04-01T15:36:43.997Z</time></trkpt><trkpt lat="49.146227833697075" lon="2.5023400925596047"><ele>64.66666666666666</ele><time>2026-04-01T15:36:45.997Z</time></trkpt><trkpt lat="49.1461619264902" lon="2.502282010747084"><ele>65.33333333333333</ele><time>2026-04-01T15:36:47.997Z</time></trkpt><trkpt lat="49.146095086576" lon="2.502223106966005"><ele>66.0</ele><time>2026-04-01T15:36:49.997Z</time></trkpt><trkpt lat="49.14603818835073" lon="2.5021729644655344"><ele>66.66666666666667</ele><time>2026-04-01T15:36:51.997Z</time></trkpt><trkpt lat="49.145975058768805" lon="2.5021173305020925"><ele>67.33333333333334</ele><time>2026-04-01T15:36:53.997Z</time></trkpt><trkpt lat="49.14591285080639" lon="2.502062508704787"><ele>68.0</ele><time>2026-04-01T15:36:56.997Z</time></trkpt><trkpt lat="49.14582773127578" lon="2.5022755571594226"><ele>68.0</ele><time>2026-04-01T15:37:00.997Z</time></trkpt><trkpt lat="49.145819897873054" lon="2.502374575806105"><ele>68.0</ele><time>2026-04-01T15:37:03.997Z</time></trkpt><trkpt lat="49.14580271285005" lon="2.5025092559776616"><ele>68.0</ele><time>2026-04-01T15:37:06.997Z</time></trkpt><trkpt lat="49.1457882828616" lon="2.502631108386391"><ele>68.0</ele><time>2026-04-01T15:37:09.997Z</time></trkpt><trkpt lat="49.145775964056" lon="2.5027407417814875"><ele>68.0</ele><time>2026-04-01T15:37:12.997Z</time></trkpt><trkpt lat="49.1457588835948" lon="2.5028644354542515"><ele>68.0</ele><time>2026-04-01T15:37:15.997Z</time></trkpt><trkpt lat="49.14574234591719" lon="2.502990302914004"><ele>67.85714285714285</ele><time>2026-04-01T15:37:18.996Z</time></trkpt><trkpt lat="49.14572903358689" lon="2.503110193206852"><ele>67.71428571428571</ele><time>2026-04-01T15:37:21.996Z</time></trkpt><trkpt lat="49.145710314470314" lon="2.5032207542425704"><ele>67.57142857142857</ele><time>2026-04-01T15:37:24.999Z</time></trkpt><trkpt lat="49.14569372087507" lon="2.503334905732621"><ele>67.42857142857142</ele><time>2026-04-01T15:37:27.999Z</time></trkpt><trkpt lat="49.14568310331947" lon="2.5034378580311882"><ele>67.28571428571428</ele><time>2026-04-01T15:37:51.999Z</time></trkpt><trkpt lat="49.145652384912275" lon="2.503542334517394"><ele>67.14285714285714</ele><time>2026-04-01T15:37:57.999Z</time></trkpt><trkpt lat="49.145645149746514" lon="2.50363873981499"><ele>67.0</ele><time>2026-04-01T15:38:02.999Z</time></trkpt><trkpt lat="49.1456343049957" lon="2.5037411994282937"><ele>67.85714285714286</ele><time>2026-04-01T15:38:08.999Z</time></trkpt><trkpt lat="49.14562211756127" lon="2.503848028029429"><ele>68.71428571428571</ele><time>2026-04-01T15:38:14.998Z</time></trkpt><trkpt lat="49.14561141928773" lon="2.5039596662875008"><ele>69.57142857142857</ele><time>2026-04-01T15:38:21.999Z</time></trkpt><trkpt lat="49.14559143227069" lon="2.504072936929205"><ele>70.42857142857143</ele><time>2026-04-01T15:38:27.999Z</time></trkpt><trkpt lat="49.145575646615384" lon="2.5041805100094106"><ele>71.28571428571429</ele><time>2026-04-01T15:38:33.999Z</time></trkpt><trkpt lat="49.14555561429604" lon="2.5042838538094103"><ele>72.14285714285714</ele><time>2026-04-01T15:38:55.998Z</time></trkpt><trkpt lat="49.14553858333538" lon="2.504378030382534"><ele>73.0</ele><time>2026-04-01T15:39:01.998Z</time></trkpt><trkpt lat="49.145503504986955" lon="2.5044587980852024"><ele>73.0</ele><time>2026-04-01T15:39:08.998Z</time></trkpt><trkpt lat="49.145434241983025" lon="2.504454756506022"><ele>73.0</ele><time>2026-04-01T15:39:13.998Z</time></trkpt><trkpt lat="49.14536463882131" lon="2.5044595175610094"><ele>73.0</ele><time>2026-04-01T15:39:19.998Z</time></trkpt><trkpt lat="49.14530097076547" lon="2.504464287690084"><ele>73.0</ele><time>2026-04-01T15:39:25.997Z</time></trkpt><trkpt lat="49.145231192295746" lon="2.504469652908476"><ele>73.0</ele><time>2026-04-01T15:39:33Z</time></trkpt><trkpt lat="49.14516638996554" lon="2.5044735048446722"><ele>73.0</ele><time>2026-04-01T15:39:39Z</time></trkpt><trkpt lat="49.1450983960543" lon="2.5044769763726276"><ele>73.0</ele><time>2026-04-01T15:39:45Z</time></trkpt><trkpt lat="49.145026660555835" lon="2.5044872399713998"><ele>73.0</ele><time>2026-04-01T15:39:52Z</time></trkpt><trkpt lat="49.14495564914802" lon="2.5044905354272466"><ele>73.0</ele><time>2026-04-01T15:39:59Z</time></trkpt><trkpt lat="49.14489054776047" lon="2.5044890830105153"><ele>73.0</ele><time>2026-04-01T15:40:06Z</time></trkpt><trkpt lat="49.144826053591565" lon="2.504443950142069"><ele>73.0</ele><time>2026-04-01T15:49:55.997Z</time></trkpt><trkpt lat="49.14491417299554" lon="2.5044128904497684"><ele>73.0</ele><time>2026-04-01T15:53:08.999Z</time></trkpt><trkpt lat="49.14484917408304" lon="2.5044322625748765"><ele>73.0</ele><time>2026-04-01T16:01:20.999Z</time></trkpt><trkpt lat="49.1447742786525" lon="2.5044208541774746"><ele>73.0</ele><time>2026-04-01T16:01:25.999Z</time></trkpt><trkpt lat="49.14469801664975" lon="2.5044369351960754"><ele>73.5</ele><time>2026-04-01T16:01:29.999Z</time></trkpt><trkpt lat="49.14461718663454" lon="2.504429269114227"><ele>74.0</ele><time>2026-04-01T16:01:33.998Z</time></trkpt><trkpt lat="49.144539704662655" lon="2.5044373989180073"><ele>74.5</ele><time>2026-04-01T16:01:36.998Z</time></trkpt><trkpt lat="49.14446772997674" lon="2.504434747721909"><ele>75.0</ele><time>2026-04-01T16:01:39.998Z</time></trkpt><trkpt lat="49.14438681274309" lon="2.5044397852113987"><ele>75.5</ele><time>2026-04-01T16:01:42.998Z</time></trkpt><trkpt lat="49.14430099041425" lon="2.5044438947057963"><ele>76.0</ele><time>2026-04-01T16:01:45.998Z</time></trkpt><trkpt lat="49.14421591353565" lon="2.5044530520233783"><ele>76.0</ele><time>2026-04-01T16:01:48.998Z</time></trkpt><trkpt lat="49.144157901417564" lon="2.5044059890040535"><ele>76.0</ele><time>2026-04-01T16:01:51.998Z</time></trkpt><trkpt lat="49.14410338807598" lon="2.5044637108675283"><ele>76.0</ele><time>2026-04-01T16:01:54.998Z</time></trkpt><trkpt lat="49.14401714471064" lon="2.5044584041346374"><ele>76.0</ele><time>2026-04-01T16:01:57.998Z</time></trkpt><trkpt lat="49.143935330992754" lon="2.504464436979342"><ele>76.0</ele><time>2026-04-01T16:02:00.998Z</time></trkpt><trkpt lat="49.14385301492015" lon="2.5044723142349894"><ele>76.0</ele><time>2026-04-01T16:02:03.998Z</time></trkpt><trkpt lat="49.14376993375136" lon="2.504476716762567"><ele>76.5</ele><time>2026-04-01T16:02:06.997Z</time></trkpt><trkpt lat="49.14368270654627" lon="2.504481525328475"><ele>77.0</ele><time>2026-04-01T16:02:09.997Z</time></trkpt><trkpt lat="49.14361755324619" lon="2.504487031905734"><ele>77.5</ele><time>2026-04-01T16:02:11.997Z</time></trkpt><trkpt lat="49.14353986783438" lon="2.504466532767829"><ele>78.0</ele><time>2026-04-01T16:02:14.997Z</time></trkpt><trkpt lat="49.14347182038095" lon="2.5044475813796288"><ele>78.5</ele><time>2026-04-01T16:02:16.997Z</time></trkpt><trkpt lat="49.1434225194374" lon="2.504542143325084"><ele>79.0</ele><time>2026-04-01T16:02:17.997Z</time></trkpt><trkpt lat="49.14333005531071" lon="2.504547415096811"><ele>79.0</ele><time>2026-04-01T16:02:20.997Z</time></trkpt><trkpt lat="49.143261064173224" lon="2.5045547956311185"><ele>79.0</ele><time>2026-04-01T16:02:22.997Z</time></trkpt><trkpt lat="49.14316472913959" lon="2.504555278470138"><ele>79.0</ele><time>2026-04-01T16:02:25.997Z</time></trkpt><trkpt lat="49.1430919351237" lon="2.5045440424887975"><ele>79.0</ele><time>2026-04-01T16:02:27.997Z</time></trkpt><trkpt lat="49.14299271574173" lon="2.5045478209890177"><ele>79.0</ele><time>2026-04-01T16:02:31Z</time></trkpt><trkpt lat="49.142904442450785" lon="2.504557013211536"><ele>79.0</ele><time>2026-04-01T16:02:34Z</time></trkpt><trkpt lat="49.14283817189432" lon="2.5045430346493722"><ele>78.83333333333333</ele><time>2026-04-01T16:02:36Z</time></trkpt><trkpt lat="49.14275263100635" lon="2.5045559972531644"><ele>78.66666666666666</ele><time>2026-04-01T16:02:39Z</time></trkpt><trkpt lat="49.14268584691675" lon="2.504529593515762"><ele>78.5</ele><time>2026-04-01T16:02:41Z</time></trkpt><trkpt lat="49.142590604870634" lon="2.5045354440632734"><ele>78.33333333333333</ele><time>2026-04-01T16:02:44Z</time></trkpt><trkpt lat="49.142525053900776" lon="2.5045350908925745"><ele>78.16666666666667</ele><time>2026-04-01T16:02:46Z</time></trkpt><trkpt lat="49.142425696097845" lon="2.5045332934078877"><ele>78.0</ele><time>2026-04-01T16:02:49Z</time></trkpt><trkpt lat="49.142344047764524" lon="2.5045455677951796"><ele>77.66666666666667</ele><time>2026-04-01T16:02:51Z</time></trkpt><trkpt lat="49.142273741848534" lon="2.5045472043908203"><ele>77.33333333333333</ele><time>2026-04-01T16:02:53Z</time></trkpt><trkpt lat="49.14219992781424" lon="2.504539977412113"><ele>77.0</ele><time>2026-04-01T16:02:55Z</time></trkpt><trkpt lat="49.14212646278599" lon="2.5045349247815962"><ele>76.66666666666666</ele><time>2026-04-01T16:02:57Z</time></trkpt><trkpt lat="49.142053590305125" lon="2.5045238045881697"><ele>76.33333333333333</ele><time>2026-04-01T16:02:59Z</time></trkpt><trkpt lat="49.14198076783734" lon="2.5045445715841774"><ele>76.0</ele><time>2026-04-01T16:03:01Z</time></trkpt><trkpt lat="49.14189465916468" lon="2.504541503637756"><ele>76.0</ele><time>2026-04-01T16:03:03Z</time></trkpt><trkpt lat="49.141815462592774" lon="2.5045562806593518"><ele>76.0</ele><time>2026-04-01T16:03:04.999Z</time></trkpt><trkpt lat="49.14172920036906" lon="2.5045658901576577"><ele>76.0</ele><time>2026-04-01T16:03:06.999Z</time></trkpt><trkpt lat="49.141644617115084" lon="2.5045596961896743"><ele>76.0</ele><time>2026-04-01T16:03:08.999Z</time></trkpt><trkpt lat="49.1415680375689" lon="2.5045732330876516"><ele>76.0</ele><time>2026-04-01T16:03:10.999Z</time></trkpt><trkpt lat="49.141495614746276" lon="2.504574114014187"><ele>76.0</ele><time>2026-04-01T16:03:12.999Z</time></trkpt><trkpt lat="49.141412289641515" lon="2.5045649995570445"><ele>76.0</ele><time>2026-04-01T16:03:14.999Z</time></trkpt><trkpt lat="49.14133024703253" lon="2.5045791243651814"><ele>76.0</ele><time>2026-04-01T16:03:16.999Z</time></trkpt><trkpt lat="49.141264875253476" lon="2.504579356801849"><ele>76.0</ele><time>2026-04-01T16:03:18.999Z</time></trkpt><trkpt lat="49.14117598678158" lon="2.504579428459841"><ele>76.0</ele><time>2026-04-01T16:03:20.999Z</time></trkpt><trkpt lat="49.141090622732335" lon="2.504583713048654"><ele>76.0</ele><time>2026-04-01T16:03:22.999Z</time></trkpt><trkpt lat="49.14101244244567" lon="2.5045965244790054"><ele>76.0</ele><time>2026-04-01T16:03:24.999Z</time></trkpt><trkpt lat="49.14093123406915" lon="2.504575271978942"><ele>76.0</ele><time>2026-04-01T16:03:26.999Z</time></trkpt><trkpt lat="49.14084589907667" lon="2.504574032275811"><ele>76.0</ele><time>2026-04-01T16:03:28.999Z</time></trkpt><trkpt lat="49.140766500558904" lon="2.5045794385189133"><ele>76.0</ele><time>2026-04-01T16:03:30.999Z</time></trkpt><trkpt lat="49.14068427119159" lon="2.5045826042701065"><ele>76.0</ele><time>2026-04-01T16:03:32.999Z</time></trkpt><trkpt lat="49.14061958205383" lon="2.504579845809499"><ele>76.0</ele><time>2026-04-01T16:03:34.999Z</time></trkpt><trkpt lat="49.1405305620216" lon="2.5045932180515043"><ele>76.0</ele><time>2026-04-01T16:03:36.998Z</time></trkpt><trkpt lat="49.14044709102611" lon="2.5045965913632746"><ele>75.66666666666666</ele><time>2026-04-01T16:03:38.998Z</time></trkpt><trkpt lat="49.14036348436035" lon="2.504599280827207"><ele>75.33333333333333</ele><time>2026-04-01T16:03:40.998Z</time></trkpt><trkpt lat="49.14028366950345" lon="2.5045963345068576"><ele>75.0</ele><time>2026-04-01T16:03:42.998Z</time></trkpt><trkpt lat="49.140188823593085" lon="2.50460993287364"><ele>74.66666666666667</ele><time>2026-04-01T16:03:44.998Z</time></trkpt><trkpt lat="49.1401021476123" lon="2.504618929622345"><ele>74.33333333333334</ele><time>2026-04-01T16:03:46.998Z</time></trkpt><trkpt lat="49.14000681311287" lon="2.504627227247143"><ele>74.0</ele><time>2026-04-01T16:03:48.998Z</time></trkpt><trkpt lat="49.139908012140054" lon="2.5046316791837024"><ele>74.2</ele><time>2026-04-01T16:03:50.998Z</time></trkpt><trkpt lat="49.13980731235971" lon="2.504628353300362"><ele>74.4</ele><time>2026-04-01T16:03:52.998Z</time></trkpt><trkpt lat="49.13971561659096" lon="2.5046309881514595"><ele>74.6</ele><time>2026-04-01T16:03:54.998Z</time></trkpt><trkpt lat="49.13962395760601" lon="2.504632959100973"><ele>74.8</ele><time>2026-04-01T16:03:56.998Z</time></trkpt><trkpt lat="49.139539178149995" lon="2.50464864350883"><ele>75.0</ele><time>2026-04-01T16:03:58.998Z</time></trkpt><trkpt lat="49.139458089406425" lon="2.5046294929703943"><ele>75.0</ele><time>2026-04-01T16:04:00.998Z</time></trkpt><trkpt lat="49.13936015446391" lon="2.5046320655993766"><ele>75.0</ele><time>2026-04-01T16:04:02.998Z</time></trkpt><trkpt lat="49.139292012747646" lon="2.5045928647634588"><ele>75.0</ele><time>2026-04-01T16:04:04.998Z</time></trkpt><trkpt lat="49.13921215602841" lon="2.504605591667074"><ele>75.0</ele><time>2026-04-01T16:04:06.997Z</time></trkpt><trkpt lat="49.13914370075779" lon="2.504619066043691"><ele>75.0</ele><time>2026-04-01T16:04:08.997Z</time></trkpt><trkpt lat="49.13908124354456" lon="2.50464143755389"><ele>75.0</ele><time>2026-04-01T16:04:18.997Z</time></trkpt><trkpt lat="49.13899479064211" lon="2.5046494760912004"><ele>75.16666666666667</ele><time>2026-04-01T16:04:26.997Z</time></trkpt><trkpt lat="49.13890680508203" lon="2.5046379067694784"><ele>75.33333333333333</ele><time>2026-04-01T16:04:29.997Z</time></trkpt><trkpt lat="49.1388341503919" lon="2.5046484670095253"><ele>75.5</ele><time>2026-04-01T16:04:31.997Z</time></trkpt><trkpt lat="49.13876236461384" lon="2.504647273580955"><ele>75.66666666666666</ele><time>2026-04-01T16:04:33.997Z</time></trkpt><trkpt lat="49.13868522893737" lon="2.5046370398484323"><ele>75.83333333333333</ele><time>2026-04-01T16:04:35.997Z</time></trkpt><trkpt lat="49.13860921264983" lon="2.5046449544939198"><ele>76.0</ele><time>2026-04-01T16:04:38Z</time></trkpt><trkpt lat="49.13852498429197" lon="2.5046651862028297"><ele>76.0</ele><time>2026-04-01T16:04:40Z</time></trkpt><trkpt lat="49.1384439620493" lon="2.504682232364858"><ele>76.0</ele><time>2026-04-01T16:04:42Z</time></trkpt><trkpt lat="49.13836694881456" lon="2.504690483446705"><ele>76.0</ele><time>2026-04-01T16:04:44Z</time></trkpt><trkpt lat="49.138275515022265" lon="2.504708118715715"><ele>76.0</ele><time>2026-04-01T16:04:46Z</time></trkpt><trkpt lat="49.13819592657639" lon="2.5047257062901296"><ele>76.0</ele><time>2026-04-01T16:04:48Z</time></trkpt><trkpt lat="49.13811003485609" lon="2.5047522104398174"><ele>76.0</ele><time>2026-04-01T16:04:50Z</time></trkpt><trkpt lat="49.1380348089126" lon="2.504799038663984"><ele>76.16666666666666</ele><time>2026-04-01T16:04:52Z</time></trkpt><trkpt lat="49.137986562758" lon="2.5048992286349834"><ele>76.33333333333333</ele><time>2026-04-01T16:04:54Z</time></trkpt><trkpt lat="49.13794023074274" lon="2.504997061778523"><ele>76.5</ele><time>2026-04-01T16:04:56Z</time></trkpt><trkpt lat="49.13788652003261" lon="2.5050739412055343"><ele>76.66666666666667</ele><time>2026-04-01T16:04:58Z</time></trkpt><trkpt lat="49.13782523037424" lon="2.5051261156503632"><ele>76.83333333333334</ele><time>2026-04-01T16:05:00Z</time></trkpt><trkpt lat="49.137739912519805" lon="2.5051951785306033"><ele>77.0</ele><time>2026-04-01T16:05:03Z</time></trkpt><trkpt lat="49.137696712597005" lon="2.5052748698769527"><ele>77.0</ele><time>2026-04-01T16:05:05Z</time></trkpt><trkpt lat="49.13764246616786" lon="2.5053687348298435"><ele>77.0</ele><time>2026-04-01T16:05:08Z</time></trkpt><trkpt lat="49.137594876371345" lon="2.505467206491227"><ele>77.0</ele><time>2026-04-01T16:05:10.999Z</time></trkpt><trkpt lat="49.137536558361276" lon="2.5055651466724145"><ele>77.0</ele><time>2026-04-01T16:05:13.999Z</time></trkpt><trkpt lat="49.13747885374556" lon="2.505633246172839"><ele>77.0</ele><time>2026-04-01T16:05:15.999Z</time></trkpt><trkpt lat="49.13743475155747" lon="2.5057070112943274"><ele>77.0</ele><time>2026-04-01T16:05:18.999Z</time></trkpt><trkpt lat="49.13737527678241" lon="2.5057894439911053"><ele>77.6</ele><time>2026-04-01T16:05:21.999Z</time></trkpt><trkpt lat="49.1372581772309" lon="2.5059570506110407"><ele>78.2</ele><time>2026-04-01T16:05:24.999Z</time></trkpt><trkpt lat="49.1372132875764" lon="2.5060355848119062"><ele>78.8</ele><time>2026-04-01T16:05:26.999Z</time></trkpt><trkpt lat="49.13717293250649" lon="2.5061483620133123"><ele>79.4</ele><time>2026-04-01T16:05:29.999Z</time></trkpt><trkpt lat="49.13712131875475" lon="2.5062559851010513"><ele>80.0</ele><time>2026-04-01T16:05:32.999Z</time></trkpt><trkpt lat="49.1370615912542" lon="2.5063485976490547"><ele>80.0</ele><time>2026-04-01T16:05:35.999Z</time></trkpt><trkpt lat="49.13702002663521" lon="2.506425698180082"><ele>80.0</ele><time>2026-04-01T16:05:37.999Z</time></trkpt><trkpt lat="49.13695038054155" lon="2.5065180196227805"><ele>80.0</ele><time>2026-04-01T16:05:40.998Z</time></trkpt><trkpt lat="49.13687518828972" lon="2.506596750652475"><ele>80.0</ele><time>2026-04-01T16:05:43.998Z</time></trkpt><trkpt lat="49.13680891936583" lon="2.5066617899284713"><ele>80.0</ele><time>2026-04-01T16:05:47.998Z</time></trkpt><trkpt lat="49.136740621529505" lon="2.5067092112985714"><ele>80.0</ele><time>2026-04-01T16:05:50.998Z</time></trkpt><trkpt lat="49.13666041584973" lon="2.50677613799302"><ele>80.0</ele><time>2026-04-01T16:05:53.998Z</time></trkpt><trkpt lat="49.136587948846106" lon="2.506836707062736"><ele>80.0</ele><time>2026-04-01T16:05:56.998Z</time></trkpt><trkpt lat="49.136522827815426" lon="2.506902528476844"><ele>80.0</ele><time>2026-04-01T16:05:58.998Z</time></trkpt><trkpt lat="49.13646032104187" lon="2.5069483042313196"><ele>80.0</ele><time>2026-04-01T16:06:00.998Z</time></trkpt><trkpt lat="49.13638687618491" lon="2.5070353290435627"><ele>80.0</ele><time>2026-04-01T16:06:03.998Z</time></trkpt><trkpt lat="49.136308519184816" lon="2.5070748566117738"><ele>80.0</ele><time>2026-04-01T16:06:06.998Z</time></trkpt><trkpt lat="49.136219912158744" lon="2.5070868819044545"><ele>80.16666666666667</ele><time>2026-04-01T16:06:09.998Z</time></trkpt><trkpt lat="49.136153659726936" lon="2.507074075551315"><ele>80.33333333333334</ele><time>2026-04-01T16:06:11.998Z</time></trkpt><trkpt lat="49.13606133818655" lon="2.5070995669359535"><ele>80.5</ele><time>2026-04-01T16:06:13.997Z</time></trkpt><trkpt lat="49.13597047016947" lon="2.5071600938101763"><ele>80.66666666666667</ele><time>2026-04-01T16:06:15.997Z</time></trkpt><trkpt lat="49.135882541626266" lon="2.507192728313494"><ele>80.83333333333333</ele><time>2026-04-01T16:06:17.997Z</time></trkpt><trkpt lat="49.1357975196446" lon="2.5071879926062612"><ele>81.0</ele><time>2026-04-01T16:06:19.997Z</time></trkpt><trkpt lat="49.13570967455317" lon="2.5071634614102356"><ele>80.0</ele><time>2026-04-01T16:06:21.997Z</time></trkpt><trkpt lat="49.135632645357795" lon="2.5071623031649874"><ele>79.0</ele><time>2026-04-01T16:06:23.997Z</time></trkpt><trkpt lat="49.13554635571393" lon="2.50714118494919"><ele>78.0</ele><time>2026-04-01T16:06:25.997Z</time></trkpt><trkpt lat="49.13546720974053" lon="2.5071342077984773"><ele>77.0</ele><time>2026-04-01T16:06:27.997Z</time></trkpt><trkpt lat="49.13539291207279" lon="2.5071089839625444"><ele>76.0</ele><time>2026-04-01T16:06:29.997Z</time></trkpt><trkpt lat="49.13531329159735" lon="2.507095069203359"><ele>75.0</ele><time>2026-04-01T16:06:31.997Z</time></trkpt><trkpt lat="49.13523349416036" lon="2.5070839727903627"><ele>75.83333333333333</ele><time>2026-04-01T16:06:33.997Z</time></trkpt><trkpt lat="49.13515647507751" lon="2.5070633000102784"><ele>76.66666666666667</ele><time>2026-04-01T16:06:35.997Z</time></trkpt><trkpt lat="49.13507214464834" lon="2.507052405229794"><ele>77.5</ele><time>2026-04-01T16:06:37.997Z</time></trkpt><trkpt lat="49.13499334805554" lon="2.5070277314039187"><ele>78.33333333333334</ele><time>2026-04-01T16:06:39.997Z</time></trkpt><trkpt lat="49.13491725829016" lon="2.507001213801758"><ele>79.16666666666667</ele><time>2026-04-01T16:06:42Z</time></trkpt><trkpt lat="49.134835286925565" lon="2.5069865206416346"><ele>80.0</ele><time>2026-04-01T16:06:44Z</time></trkpt><trkpt lat="49.13475588672609" lon="2.5069655550741228"><ele>80.0</ele><time>2026-04-01T16:06:46Z</time></trkpt><trkpt lat="49.134676630206" lon="2.506938282470325"><ele>80.0</ele><time>2026-04-01T16:06:48Z</time></trkpt><trkpt lat="49.13460445825718" lon="2.506909152988297"><ele>80.0</ele><time>2026-04-01T16:06:50Z</time></trkpt><trkpt lat="49.13453468304106" lon="2.5068733233099425"><ele>80.0</ele><time>2026-04-01T16:06:52Z</time></trkpt><trkpt lat="49.13446011896047" lon="2.5068412040160886"><ele>80.0</ele><time>2026-04-01T16:06:54Z</time></trkpt><trkpt lat="49.13439020090562" lon="2.50680336056274"><ele>80.0</ele><time>2026-04-01T16:06:56Z</time></trkpt><trkpt lat="49.134320859755604" lon="2.5067749346475465"><ele>80.0</ele><time>2026-04-01T16:06:58Z</time></trkpt><trkpt lat="49.134247532773614" lon="2.5067653302822084"><ele>80.0</ele><time>2026-04-01T16:07:00Z</time></trkpt><trkpt lat="49.13419641125861" lon="2.5068289575147675"><ele>80.0</ele><time>2026-04-01T16:07:02Z</time></trkpt><trkpt lat="49.13417072358573" lon="2.506964193197924"><ele>80.0</ele><time>2026-04-01T16:07:04Z</time></trkpt><trkpt lat="49.134116055833864" lon="2.507093302442191"><ele>80.0</ele><time>2026-04-01T16:07:06Z</time></trkpt><trkpt lat="49.134031196071305" lon="2.507209707393347"><ele>80.0</ele><time>2026-04-01T16:07:08Z</time></trkpt><trkpt lat="49.133975366952484" lon="2.5073473097435004"><ele>79.6</ele><time>2026-04-01T16:07:09.999Z</time></trkpt><trkpt lat="49.133916800932035" lon="2.5074911481314275"><ele>79.2</ele><time>2026-04-01T16:07:11.999Z</time></trkpt><trkpt lat="49.13386180892424" lon="2.5076293850087383"><ele>78.8</ele><time>2026-04-01T16:07:13.999Z</time></trkpt><trkpt lat="49.1338071255842" lon="2.5077671946546"><ele>78.4</ele><time>2026-04-01T16:07:15.999Z</time></trkpt><trkpt lat="49.133757294234634" lon="2.507892613669534"><ele>78.0</ele><time>2026-04-01T16:07:17.999Z</time></trkpt><trkpt lat="49.13371652971252" lon="2.5079954565871456"><ele>78.0</ele><time>2026-04-01T16:07:19.999Z</time></trkpt></trkseg></trk></gpx>